<?xml version="1.0" encoding="utf-8"?>
<gpx xmlns:xsi="http://www.w3.org/2001/XMLSchema-instance" xmlns:xsd="http://www.w3.org/2001/XMLSchema" version="1.1" creator="Shapelink.com" xmlns="http://www.topografix.com/GPX/1/1" xmlns:gpxtpx="http://www.garmin.com/xmlschemas/TrackPointExtension/v1">
  <metadata>
    <name>Cykling - CX 12.99 km, 2019-09-14</name>
    <desc></desc>
    <author><name>Alexander Engvall</name></author> 
    <time>2019-09-14T15:38:16Z</time>
  </metadata>
  <trk>
    <name>Cykling - CX 12.99 km, 2019-09-14</name>
    <trkseg>
      <trkpt lat="59.219730729325" lon="17.90710289466">
        <ele>47.2</ele>
        <time>2019-09-14T15:38:16Z</time>
      </trkpt>
      <trkpt lat="59.219764927477" lon="17.907215379758">
        <ele>47</ele>
        <time>2019-09-14T15:38:23Z</time>
      </trkpt>
      <trkpt lat="59.219781104544" lon="17.907245973693">
        <ele>47</ele>
        <time>2019-09-14T15:38:24Z</time>
      </trkpt>
      <trkpt lat="59.219799963819" lon="17.907279417474">
        <ele>47</ele>
        <time>2019-09-14T15:38:25Z</time>
      </trkpt>
      <trkpt lat="59.219818823094" lon="17.907297773835">
        <ele>47</ele>
        <time>2019-09-14T15:38:26Z</time>
      </trkpt>
      <trkpt lat="59.219837179455" lon="17.907335743842">
        <ele>47</ele>
        <time>2019-09-14T15:38:27Z</time>
      </trkpt>
      <trkpt lat="59.219856457825" lon="17.907373881487">
        <ele>47</ele>
        <time>2019-09-14T15:38:28Z</time>
      </trkpt>
      <trkpt lat="59.219877999308" lon="17.907426268362">
        <ele>47</ele>
        <time>2019-09-14T15:38:29Z</time>
      </trkpt>
      <trkpt lat="59.219900714257" lon="17.9074851093">
        <ele>46.8</ele>
        <time>2019-09-14T15:38:30Z</time>
      </trkpt>
      <trkpt lat="59.219924518853" lon="17.907543195867">
        <ele>46.8</ele>
        <time>2019-09-14T15:38:31Z</time>
      </trkpt>
      <trkpt lat="59.219951340933" lon="17.907600695701">
        <ele>46.8</ele>
        <time>2019-09-14T15:38:32Z</time>
      </trkpt>
      <trkpt lat="59.219973217692" lon="17.907656686793">
        <ele>46.8</ele>
        <time>2019-09-14T15:38:33Z</time>
      </trkpt>
      <trkpt lat="59.219997189926" lon="17.90771225879">
        <ele>46.8</ele>
        <time>2019-09-14T15:38:34Z</time>
      </trkpt>
      <trkpt lat="59.220023341454" lon="17.907766573502">
        <ele>46.8</ele>
        <time>2019-09-14T15:38:35Z</time>
      </trkpt>
      <trkpt lat="59.220051169362" lon="17.907813009228">
        <ele>46.8</ele>
        <time>2019-09-14T15:38:36Z</time>
      </trkpt>
      <trkpt lat="59.220080841288" lon="17.907862127162">
        <ele>46.6</ele>
        <time>2019-09-14T15:38:37Z</time>
      </trkpt>
      <trkpt lat="59.220110597033" lon="17.907910826001">
        <ele>46.6</ele>
        <time>2019-09-14T15:38:38Z</time>
      </trkpt>
      <trkpt lat="59.220136916199" lon="17.907963464333">
        <ele>46.6</ele>
        <time>2019-09-14T15:38:39Z</time>
      </trkpt>
      <trkpt lat="59.220165498478" lon="17.908012749905">
        <ele>46.6</ele>
        <time>2019-09-14T15:38:40Z</time>
      </trkpt>
      <trkpt lat="59.220194583671" lon="17.908062035477">
        <ele>46.6</ele>
        <time>2019-09-14T15:38:41Z</time>
      </trkpt>
      <trkpt lat="59.220223082131" lon="17.908109812307">
        <ele>46.6</ele>
        <time>2019-09-14T15:38:42Z</time>
      </trkpt>
      <trkpt lat="59.220245126528" lon="17.908155828938">
        <ele>46.6</ele>
        <time>2019-09-14T15:38:43Z</time>
      </trkpt>
      <trkpt lat="59.220265243088" lon="17.908212490582">
        <ele>46.6</ele>
        <time>2019-09-14T15:38:44Z</time>
      </trkpt>
      <trkpt lat="59.220285359648" lon="17.908273510814">
        <ele>46.8</ele>
        <time>2019-09-14T15:38:45Z</time>
      </trkpt>
      <trkpt lat="59.220304218923" lon="17.90832832844">
        <ele>46.8</ele>
        <time>2019-09-14T15:38:46Z</time>
      </trkpt>
      <trkpt lat="59.220321569456" lon="17.908374261252">
        <ele>46.8</ele>
        <time>2019-09-14T15:38:47Z</time>
      </trkpt>
      <trkpt lat="59.22034218893" lon="17.908409046137">
        <ele>46.8</ele>
        <time>2019-09-14T15:38:48Z</time>
      </trkpt>
      <trkpt lat="59.220362556947" lon="17.908440562081">
        <ele>47</ele>
        <time>2019-09-14T15:38:49Z</time>
      </trkpt>
      <trkpt lat="59.220382757326" lon="17.908473838224">
        <ele>47</ele>
        <time>2019-09-14T15:38:50Z</time>
      </trkpt>
      <trkpt lat="59.220389462846" lon="17.908512646421">
        <ele>47.2</ele>
        <time>2019-09-14T15:38:51Z</time>
      </trkpt>
      <trkpt lat="59.220387954104" lon="17.908548018039">
        <ele>47.2</ele>
        <time>2019-09-14T15:38:52Z</time>
      </trkpt>
      <trkpt lat="59.22037655472" lon="17.908587664426">
        <ele>47.2</ele>
        <time>2019-09-14T15:38:53Z</time>
      </trkpt>
      <trkpt lat="59.220356521979" lon="17.908629741564">
        <ele>47.2</ele>
        <time>2019-09-14T15:38:54Z</time>
      </trkpt>
      <trkpt lat="59.220332549745" lon="17.908668885037">
        <ele>47.2</ele>
        <time>2019-09-14T15:38:55Z</time>
      </trkpt>
      <trkpt lat="59.220308493692" lon="17.908707274139">
        <ele>47.2</ele>
        <time>2019-09-14T15:38:56Z</time>
      </trkpt>
      <trkpt lat="59.220282258345" lon="17.908753374589">
        <ele>47.2</ele>
        <time>2019-09-14T15:38:57Z</time>
      </trkpt>
      <trkpt lat="59.220253927523" lon="17.908804085084">
        <ele>47.2</ele>
        <time>2019-09-14T15:38:58Z</time>
      </trkpt>
      <trkpt lat="59.220226015796" lon="17.908852281009">
        <ele>47.2</ele>
        <time>2019-09-14T15:38:59Z</time>
      </trkpt>
      <trkpt lat="59.220195840956" lon="17.908905338436">
        <ele>47.2</ele>
        <time>2019-09-14T15:39:00Z</time>
      </trkpt>
      <trkpt lat="59.220165666116" lon="17.908956887121">
        <ele>47.2</ele>
        <time>2019-09-14T15:39:01Z</time>
      </trkpt>
      <trkpt lat="59.220133898715" lon="17.909005837417">
        <ele>47</ele>
        <time>2019-09-14T15:39:02Z</time>
      </trkpt>
      <trkpt lat="59.220101963676" lon="17.90905587736">
        <ele>47</ele>
        <time>2019-09-14T15:39:03Z</time>
      </trkpt>
      <trkpt lat="59.220072124112" lon="17.909106336398">
        <ele>47</ele>
        <time>2019-09-14T15:39:04Z</time>
      </trkpt>
      <trkpt lat="59.220042871281" lon="17.909157465988">
        <ele>47</ele>
        <time>2019-09-14T15:39:05Z</time>
      </trkpt>
      <trkpt lat="59.220016216839" lon="17.909206081008">
        <ele>47</ele>
        <time>2019-09-14T15:39:06Z</time>
      </trkpt>
      <trkpt lat="59.219990400587" lon="17.909250002164">
        <ele>47</ele>
        <time>2019-09-14T15:39:07Z</time>
      </trkpt>
      <trkpt lat="59.219967350362" lon="17.909290235284">
        <ele>47</ele>
        <time>2019-09-14T15:39:08Z</time>
      </trkpt>
      <trkpt lat="59.219944970689" lon="17.909335329906">
        <ele>47</ele>
        <time>2019-09-14T15:39:09Z</time>
      </trkpt>
      <trkpt lat="59.219925943776" lon="17.909378161415">
        <ele>47</ele>
        <time>2019-09-14T15:39:10Z</time>
      </trkpt>
      <trkpt lat="59.219910437261" lon="17.909416801974">
        <ele>47</ele>
        <time>2019-09-14T15:39:11Z</time>
      </trkpt>
      <trkpt lat="59.21989962461" lon="17.909443372597">
        <ele>47</ele>
        <time>2019-09-14T15:39:12Z</time>
      </trkpt>
      <trkpt lat="59.219884872466" lon="17.909470110858">
        <ele>47</ele>
        <time>2019-09-14T15:39:13Z</time>
      </trkpt>
      <trkpt lat="59.219869030675" lon="17.909498944594">
        <ele>47.2</ele>
        <time>2019-09-14T15:39:14Z</time>
      </trkpt>
      <trkpt lat="59.219848327382" lon="17.909527862149">
        <ele>47.2</ele>
        <time>2019-09-14T15:39:15Z</time>
      </trkpt>
      <trkpt lat="59.219826534442" lon="17.909560551559">
        <ele>47.2</ele>
        <time>2019-09-14T15:39:16Z</time>
      </trkpt>
      <trkpt lat="59.219814380687" lon="17.909607154923">
        <ele>47.2</ele>
        <time>2019-09-14T15:39:17Z</time>
      </trkpt>
      <trkpt lat="59.219817146714" lon="17.909659793255">
        <ele>47.2</ele>
        <time>2019-09-14T15:39:18Z</time>
      </trkpt>
      <trkpt lat="59.219830809211" lon="17.909709749379">
        <ele>47.2</ele>
        <time>2019-09-14T15:39:19Z</time>
      </trkpt>
      <trkpt lat="59.219850674314" lon="17.909753754354">
        <ele>47.2</ele>
        <time>2019-09-14T15:39:20Z</time>
      </trkpt>
      <trkpt lat="59.219873556901" lon="17.909799016614">
        <ele>47.2</ele>
        <time>2019-09-14T15:39:21Z</time>
      </trkpt>
      <trkpt lat="59.21989375728" lon="17.909847547815">
        <ele>47.2</ele>
        <time>2019-09-14T15:39:22Z</time>
      </trkpt>
      <trkpt lat="59.219910856356" lon="17.909898342129">
        <ele>47.2</ele>
        <time>2019-09-14T15:39:23Z</time>
      </trkpt>
      <trkpt lat="59.219924937948" lon="17.909948801167">
        <ele>47.2</ele>
        <time>2019-09-14T15:39:24Z</time>
      </trkpt>
      <trkpt lat="59.219937426979" lon="17.90999465016">
        <ele>47.2</ele>
        <time>2019-09-14T15:39:25Z</time>
      </trkpt>
      <trkpt lat="59.219944635413" lon="17.910035050918">
        <ele>47.2</ele>
        <time>2019-09-14T15:39:26Z</time>
      </trkpt>
      <trkpt lat="59.219949664553" lon="17.910063968473">
        <ele>47.2</ele>
        <time>2019-09-14T15:39:27Z</time>
      </trkpt>
      <trkpt lat="59.219957292082" lon="17.910089449449">
        <ele>47.2</ele>
        <time>2019-09-14T15:39:28Z</time>
      </trkpt>
      <trkpt lat="59.219964751973" lon="17.910113840778">
        <ele>47.2</ele>
        <time>2019-09-14T15:39:29Z</time>
      </trkpt>
      <trkpt lat="59.219973552968" lon="17.910139405573">
        <ele>47.4</ele>
        <time>2019-09-14T15:39:30Z</time>
      </trkpt>
      <trkpt lat="59.219987131646" lon="17.9101673173">
        <ele>47.4</ele>
        <time>2019-09-14T15:39:31Z</time>
      </trkpt>
      <trkpt lat="59.220001799971" lon="17.910207718058">
        <ele>47.4</ele>
        <time>2019-09-14T15:39:32Z</time>
      </trkpt>
      <trkpt lat="59.22001529483" lon="17.910256249259">
        <ele>47.4</ele>
        <time>2019-09-14T15:39:33Z</time>
      </trkpt>
      <trkpt lat="59.220030801345" lon="17.910302684985">
        <ele>47.4</ele>
        <time>2019-09-14T15:39:34Z</time>
      </trkpt>
      <trkpt lat="59.220047481326" lon="17.91035088091">
        <ele>47.4</ele>
        <time>2019-09-14T15:39:35Z</time>
      </trkpt>
      <trkpt lat="59.220063658393" lon="17.910402094319">
        <ele>47.4</ele>
        <time>2019-09-14T15:39:36Z</time>
      </trkpt>
      <trkpt lat="59.22008151184" lon="17.910454481194">
        <ele>47.4</ele>
        <time>2019-09-14T15:39:37Z</time>
      </trkpt>
      <trkpt lat="59.220100454934" lon="17.910506532793">
        <ele>47.4</ele>
        <time>2019-09-14T15:39:38Z</time>
      </trkpt>
      <trkpt lat="59.220119314209" lon="17.910558584392">
        <ele>47.4</ele>
        <time>2019-09-14T15:39:39Z</time>
      </trkpt>
      <trkpt lat="59.22014018514" lon="17.910612815285">
        <ele>47.6</ele>
        <time>2019-09-14T15:39:40Z</time>
      </trkpt>
      <trkpt lat="59.220159714967" lon="17.910668471101">
        <ele>47.6</ele>
        <time>2019-09-14T15:39:41Z</time>
      </trkpt>
      <trkpt lat="59.220180250622" lon="17.910726976763">
        <ele>47.6</ele>
        <time>2019-09-14T15:39:42Z</time>
      </trkpt>
      <trkpt lat="59.220205983055" lon="17.910785985339">
        <ele>47.6</ele>
        <time>2019-09-14T15:39:43Z</time>
      </trkpt>
      <trkpt lat="59.220228111271" lon="17.910842311707">
        <ele>47.8</ele>
        <time>2019-09-14T15:39:44Z</time>
      </trkpt>
      <trkpt lat="59.220248227831" lon="17.910897883704">
        <ele>47.8</ele>
        <time>2019-09-14T15:39:45Z</time>
      </trkpt>
      <trkpt lat="59.220268176753" lon="17.910952868968">
        <ele>47.8</ele>
        <time>2019-09-14T15:39:46Z</time>
      </trkpt>
      <trkpt lat="59.220288125675" lon="17.911010284983">
        <ele>47.8</ele>
        <time>2019-09-14T15:39:47Z</time>
      </trkpt>
      <trkpt lat="59.220308409873" lon="17.911068790645">
        <ele>47.8</ele>
        <time>2019-09-14T15:39:48Z</time>
      </trkpt>
      <trkpt lat="59.220321401818" lon="17.91112369209">
        <ele>47.8</ele>
        <time>2019-09-14T15:39:49Z</time>
      </trkpt>
      <trkpt lat="59.220333220297" lon="17.911175743689">
        <ele>48</ele>
        <time>2019-09-14T15:39:50Z</time>
      </trkpt>
      <trkpt lat="59.220347720984" lon="17.911224023433">
        <ele>48</ele>
        <time>2019-09-14T15:39:51Z</time>
      </trkpt>
      <trkpt lat="59.220363730413" lon="17.911268866598">
        <ele>48</ele>
        <time>2019-09-14T15:39:52Z</time>
      </trkpt>
      <trkpt lat="59.220379236928" lon="17.911311027555">
        <ele>48.2</ele>
        <time>2019-09-14T15:39:53Z</time>
      </trkpt>
      <trkpt lat="59.220393402339" lon="17.911350087209">
        <ele>48.2</ele>
        <time>2019-09-14T15:39:54Z</time>
      </trkpt>
      <trkpt lat="59.220408070664" lon="17.911390823243">
        <ele>48.4</ele>
        <time>2019-09-14T15:39:55Z</time>
      </trkpt>
      <trkpt lat="59.220424415369" lon="17.911434492942">
        <ele>48.4</ele>
        <time>2019-09-14T15:39:56Z</time>
      </trkpt>
      <trkpt lat="59.220442604092" lon="17.911479252288">
        <ele>48.6</ele>
        <time>2019-09-14T15:39:57Z</time>
      </trkpt>
      <trkpt lat="59.22046037372" lon="17.911526107109">
        <ele>48.8</ele>
        <time>2019-09-14T15:39:58Z</time>
      </trkpt>
      <trkpt lat="59.220477556615" lon="17.911575392681">
        <ele>48.8</ele>
        <time>2019-09-14T15:39:59Z</time>
      </trkpt>
      <trkpt lat="59.220495661519" lon="17.911624342977">
        <ele>48.8</ele>
        <time>2019-09-14T15:40:00Z</time>
      </trkpt>
      <trkpt lat="59.220515526622" lon="17.911671113979">
        <ele>48.8</ele>
        <time>2019-09-14T15:40:01Z</time>
      </trkpt>
      <trkpt lat="59.220534721173" lon="17.911717214429">
        <ele>48.8</ele>
        <time>2019-09-14T15:40:02Z</time>
      </trkpt>
      <trkpt lat="59.220552909896" lon="17.911762644327">
        <ele>48.8</ele>
        <time>2019-09-14T15:40:03Z</time>
      </trkpt>
      <trkpt lat="59.220570595705" lon="17.911807487492">
        <ele>49</ele>
        <time>2019-09-14T15:40:04Z</time>
      </trkpt>
      <trkpt lat="59.220589790256" lon="17.911853001209">
        <ele>49</ele>
        <time>2019-09-14T15:40:05Z</time>
      </trkpt>
      <trkpt lat="59.220609320083" lon="17.911899269297">
        <ele>49</ele>
        <time>2019-09-14T15:40:06Z</time>
      </trkpt>
      <trkpt lat="59.220629939557" lon="17.911947800498">
        <ele>49.2</ele>
        <time>2019-09-14T15:40:07Z</time>
      </trkpt>
      <trkpt lat="59.220650391393" lon="17.911999097726">
        <ele>49.2</ele>
        <time>2019-09-14T15:40:08Z</time>
      </trkpt>
      <trkpt lat="59.220671513781" lon="17.9120532448">
        <ele>49.4</ele>
        <time>2019-09-14T15:40:09Z</time>
      </trkpt>
      <trkpt lat="59.220693139083" lon="17.912107559512">
        <ele>49.4</ele>
        <time>2019-09-14T15:40:10Z</time>
      </trkpt>
      <trkpt lat="59.220714177652" lon="17.912162880052">
        <ele>49.6</ele>
        <time>2019-09-14T15:40:11Z</time>
      </trkpt>
      <trkpt lat="59.220733456022" lon="17.912219374058">
        <ele>49.6</ele>
        <time>2019-09-14T15:40:12Z</time>
      </trkpt>
      <trkpt lat="59.220753237306" lon="17.912275532788">
        <ele>49.6</ele>
        <time>2019-09-14T15:40:13Z</time>
      </trkpt>
      <trkpt lat="59.22077385678" lon="17.912330350414">
        <ele>49.6</ele>
        <time>2019-09-14T15:40:14Z</time>
      </trkpt>
      <trkpt lat="59.220795062987" lon="17.912385251859">
        <ele>49.6</ele>
        <time>2019-09-14T15:40:15Z</time>
      </trkpt>
      <trkpt lat="59.220816353013" lon="17.912440823856">
        <ele>49.6</ele>
        <time>2019-09-14T15:40:16Z</time>
      </trkpt>
      <trkpt lat="59.220839151781" lon="17.912496060577">
        <ele>49.8</ele>
        <time>2019-09-14T15:40:17Z</time>
      </trkpt>
      <trkpt lat="59.220861699092" lon="17.912551800212">
        <ele>49.8</ele>
        <time>2019-09-14T15:40:18Z</time>
      </trkpt>
      <trkpt lat="59.220882486204" lon="17.912609300046">
        <ele>50</ele>
        <time>2019-09-14T15:40:19Z</time>
      </trkpt>
      <trkpt lat="59.220905201153" lon="17.912666380785">
        <ele>50</ele>
        <time>2019-09-14T15:40:20Z</time>
      </trkpt>
      <trkpt lat="59.22092892193" lon="17.912723880619">
        <ele>50</ele>
        <time>2019-09-14T15:40:21Z</time>
      </trkpt>
      <trkpt lat="59.220951804517" lon="17.912783056833">
        <ele>50.2</ele>
        <time>2019-09-14T15:40:22Z</time>
      </trkpt>
      <trkpt lat="59.220974268009" lon="17.91284281978">
        <ele>50.2</ele>
        <time>2019-09-14T15:40:23Z</time>
      </trkpt>
      <trkpt lat="59.220997402053" lon="17.912901744537">
        <ele>50.2</ele>
        <time>2019-09-14T15:40:24Z</time>
      </trkpt>
      <trkpt lat="59.22102112283" lon="17.912960501656">
        <ele>50.4</ele>
        <time>2019-09-14T15:40:25Z</time>
      </trkpt>
      <trkpt lat="59.221045262702" lon="17.913021940983">
        <ele>50.4</ele>
        <time>2019-09-14T15:40:26Z</time>
      </trkpt>
      <trkpt lat="59.221069486393" lon="17.913084637595">
        <ele>50.4</ele>
        <time>2019-09-14T15:40:27Z</time>
      </trkpt>
      <trkpt lat="59.221094799731" lon="17.913148088578">
        <ele>50.6</ele>
        <time>2019-09-14T15:40:28Z</time>
      </trkpt>
      <trkpt lat="59.221120615983" lon="17.913212210113">
        <ele>50.8</ele>
        <time>2019-09-14T15:40:29Z</time>
      </trkpt>
      <trkpt lat="59.221146683692" lon="17.913278091847">
        <ele>50.8</ele>
        <time>2019-09-14T15:40:30Z</time>
      </trkpt>
      <trkpt lat="59.221171661754" lon="17.913345482323">
        <ele>50.8</ele>
        <time>2019-09-14T15:40:31Z</time>
      </trkpt>
      <trkpt lat="59.221196220721" lon="17.913416225559">
        <ele>50.8</ele>
        <time>2019-09-14T15:40:32Z</time>
      </trkpt>
      <trkpt lat="59.221218768032" lon="17.913487890804">
        <ele>51</ele>
        <time>2019-09-14T15:40:33Z</time>
      </trkpt>
      <trkpt lat="59.221237627307" lon="17.913562573533">
        <ele>51</ele>
        <time>2019-09-14T15:40:34Z</time>
      </trkpt>
      <trkpt lat="59.221250367795" lon="17.91364077666">
        <ele>51</ele>
        <time>2019-09-14T15:40:35Z</time>
      </trkpt>
      <trkpt lat="59.221253804374" lon="17.913722835461">
        <ele>51</ele>
        <time>2019-09-14T15:40:36Z</time>
      </trkpt>
      <trkpt lat="59.221251792718" lon="17.913804391348">
        <ele>51.2</ele>
        <time>2019-09-14T15:40:37Z</time>
      </trkpt>
      <trkpt lat="59.221251960356" lon="17.913883935579">
        <ele>51.4</ele>
        <time>2019-09-14T15:40:38Z</time>
      </trkpt>
      <trkpt lat="59.221258079143" lon="17.913961468154">
        <ele>51.4</ele>
        <time>2019-09-14T15:40:39Z</time>
      </trkpt>
      <trkpt lat="59.221271406364" lon="17.9140313732">
        <ele>51.6</ele>
        <time>2019-09-14T15:40:40Z</time>
      </trkpt>
      <trkpt lat="59.221293786037" lon="17.91408753193">
        <ele>51.8</ele>
        <time>2019-09-14T15:40:41Z</time>
      </trkpt>
      <trkpt lat="59.221320272841" lon="17.914132961828">
        <ele>51.8</ele>
        <time>2019-09-14T15:40:42Z</time>
      </trkpt>
      <trkpt lat="59.22134634055" lon="17.914170680378">
        <ele>52</ele>
        <time>2019-09-14T15:40:43Z</time>
      </trkpt>
      <trkpt lat="59.221373917001" lon="17.914200771399">
        <ele>52</ele>
        <time>2019-09-14T15:40:44Z</time>
      </trkpt>
      <trkpt lat="59.221404008022" lon="17.91421912776">
        <ele>52.2</ele>
        <time>2019-09-14T15:40:45Z</time>
      </trkpt>
      <trkpt lat="59.22143518869" lon="17.914219630674">
        <ele>52.2</ele>
        <time>2019-09-14T15:40:46Z</time>
      </trkpt>
      <trkpt lat="59.221467207548" lon="17.914213092792">
        <ele>52.2</ele>
        <time>2019-09-14T15:40:47Z</time>
      </trkpt>
      <trkpt lat="59.221501489519" lon="17.91421493681">
        <ele>52.2</ele>
        <time>2019-09-14T15:40:48Z</time>
      </trkpt>
      <trkpt lat="59.221535100938" lon="17.914231197696">
        <ele>52.2</ele>
        <time>2019-09-14T15:40:49Z</time>
      </trkpt>
      <trkpt lat="59.221561503923" lon="17.914261540174">
        <ele>52.2</ele>
        <time>2019-09-14T15:40:50Z</time>
      </trkpt>
      <trkpt lat="59.221582207216" lon="17.91430462314">
        <ele>52.2</ele>
        <time>2019-09-14T15:40:51Z</time>
      </trkpt>
      <trkpt lat="59.221602575233" lon="17.914355668911">
        <ele>52.2</ele>
        <time>2019-09-14T15:40:52Z</time>
      </trkpt>
      <trkpt lat="59.221618919938" lon="17.914408055786">
        <ele>52.2</ele>
        <time>2019-09-14T15:40:53Z</time>
      </trkpt>
      <trkpt lat="59.221639623231" lon="17.914459772109">
        <ele>52.2</ele>
        <time>2019-09-14T15:40:54Z</time>
      </trkpt>
      <trkpt lat="59.221663260189" lon="17.914508890043">
        <ele>52.2</ele>
        <time>2019-09-14T15:40:55Z</time>
      </trkpt>
      <trkpt lat="59.221688238251" lon="17.914555577226">
        <ele>52.2</ele>
        <time>2019-09-14T15:40:56Z</time>
      </trkpt>
      <trkpt lat="59.221716401435" lon="17.914599582201">
        <ele>52.4</ele>
        <time>2019-09-14T15:40:57Z</time>
      </trkpt>
      <trkpt lat="59.221745151352" lon="17.914642497529">
        <ele>52.4</ele>
        <time>2019-09-14T15:40:58Z</time>
      </trkpt>
      <trkpt lat="59.22177381745" lon="17.914684742305">
        <ele>52.4</ele>
        <time>2019-09-14T15:40:59Z</time>
      </trkpt>
      <trkpt lat="59.221802148272" lon="17.914727406176">
        <ele>52.4</ele>
        <time>2019-09-14T15:41:00Z</time>
      </trkpt>
      <trkpt lat="59.221827293972" lon="17.914771327332">
        <ele>52.4</ele>
        <time>2019-09-14T15:41:01Z</time>
      </trkpt>
      <trkpt lat="59.2218534455" lon="17.914818349791">
        <ele>52.4</ele>
        <time>2019-09-14T15:41:02Z</time>
      </trkpt>
      <trkpt lat="59.221878423562" lon="17.914865204612">
        <ele>52.4</ele>
        <time>2019-09-14T15:41:03Z</time>
      </trkpt>
      <trkpt lat="59.221904239814" lon="17.914910802148">
        <ele>52.4</ele>
        <time>2019-09-14T15:41:04Z</time>
      </trkpt>
      <trkpt lat="59.221930810437" lon="17.914956651141">
        <ele>52.4</ele>
        <time>2019-09-14T15:41:05Z</time>
      </trkpt>
      <trkpt lat="59.221957464879" lon="17.915004008876">
        <ele>52.4</ele>
        <time>2019-09-14T15:41:06Z</time>
      </trkpt>
      <trkpt lat="59.221984119321" lon="17.91505061224">
        <ele>52.6</ele>
        <time>2019-09-14T15:41:07Z</time>
      </trkpt>
      <trkpt lat="59.222007756279" lon="17.915097383242">
        <ele>52.8</ele>
        <time>2019-09-14T15:41:08Z</time>
      </trkpt>
      <trkpt lat="59.222029633038" lon="17.915143483692">
        <ele>52.8</ele>
        <time>2019-09-14T15:41:09Z</time>
      </trkpt>
      <trkpt lat="59.222051342159" lon="17.915187740124">
        <ele>52.8</ele>
        <time>2019-09-14T15:41:10Z</time>
      </trkpt>
      <trkpt lat="59.222073386556" lon="17.915233505298">
        <ele>53</ele>
        <time>2019-09-14T15:41:11Z</time>
      </trkpt>
      <trkpt lat="59.222096269143" lon="17.915281365947">
        <ele>53.2</ele>
        <time>2019-09-14T15:41:12Z</time>
      </trkpt>
      <trkpt lat="59.222121079567" lon="17.915329142777">
        <ele>53.4</ele>
        <time>2019-09-14T15:41:13Z</time>
      </trkpt>
      <trkpt lat="59.222147314914" lon="17.91537499177">
        <ele>53.4</ele>
        <time>2019-09-14T15:41:14Z</time>
      </trkpt>
      <trkpt lat="59.222173885537" lon="17.915418912926">
        <ele>53.6</ele>
        <time>2019-09-14T15:41:15Z</time>
      </trkpt>
      <trkpt lat="59.222198193047" lon="17.915463169358">
        <ele>53.6</ele>
        <time>2019-09-14T15:41:16Z</time>
      </trkpt>
      <trkpt lat="59.222220991815" lon="17.91550742579">
        <ele>53.6</ele>
        <time>2019-09-14T15:41:17Z</time>
      </trkpt>
      <trkpt lat="59.222243371488" lon="17.915551682222">
        <ele>53.6</ele>
        <time>2019-09-14T15:41:18Z</time>
      </trkpt>
      <trkpt lat="59.222265080609" lon="17.91559627393">
        <ele>53.8</ele>
        <time>2019-09-14T15:41:19Z</time>
      </trkpt>
      <trkpt lat="59.222285867721" lon="17.915640195086">
        <ele>53.8</ele>
        <time>2019-09-14T15:41:20Z</time>
      </trkpt>
      <trkpt lat="59.22230690629" lon="17.915682188405">
        <ele>53.8</ele>
        <time>2019-09-14T15:41:21Z</time>
      </trkpt>
      <trkpt lat="59.222327777221" lon="17.915722253887">
        <ele>53.8</ele>
        <time>2019-09-14T15:41:22Z</time>
      </trkpt>
      <trkpt lat="59.222346804134" lon="17.915761145903">
        <ele>53.8</ele>
        <time>2019-09-14T15:41:23Z</time>
      </trkpt>
      <trkpt lat="59.222364406124" lon="17.915797104254">
        <ele>54</ele>
        <time>2019-09-14T15:41:24Z</time>
      </trkpt>
      <trkpt lat="59.222382762485" lon="17.915830296578">
        <ele>54</ele>
        <time>2019-09-14T15:41:25Z</time>
      </trkpt>
      <trkpt lat="59.22240078357" lon="17.915862734531">
        <ele>54.2</ele>
        <time>2019-09-14T15:41:26Z</time>
      </trkpt>
      <trkpt lat="59.222417798827" lon="17.915894250475">
        <ele>54.2</ele>
        <time>2019-09-14T15:41:27Z</time>
      </trkpt>
      <trkpt lat="59.222434562627" lon="17.915922497478">
        <ele>54.2</ele>
        <time>2019-09-14T15:41:28Z</time>
      </trkpt>
      <trkpt lat="59.222452080798" lon="17.915950409205">
        <ele>54.4</ele>
        <time>2019-09-14T15:41:29Z</time>
      </trkpt>
      <trkpt lat="59.222469766607" lon="17.915978823846">
        <ele>54.6</ele>
        <time>2019-09-14T15:41:30Z</time>
      </trkpt>
      <trkpt lat="59.222486446588" lon="17.91600614884">
        <ele>54.6</ele>
        <time>2019-09-14T15:41:31Z</time>
      </trkpt>
      <trkpt lat="59.222501450189" lon="17.916029031427">
        <ele>54.8</ele>
        <time>2019-09-14T15:41:32Z</time>
      </trkpt>
      <trkpt lat="59.222511005555" lon="17.91604973472">
        <ele>54.8</ele>
        <time>2019-09-14T15:41:33Z</time>
      </trkpt>
      <trkpt lat="59.222517878713" lon="17.916070521832">
        <ele>55.2</ele>
        <time>2019-09-14T15:41:34Z</time>
      </trkpt>
      <trkpt lat="59.222527769355" lon="17.916089464926">
        <ele>55.4</ele>
        <time>2019-09-14T15:41:35Z</time>
      </trkpt>
      <trkpt lat="59.222539755472" lon="17.916112179875">
        <ele>55.6</ele>
        <time>2019-09-14T15:41:36Z</time>
      </trkpt>
      <trkpt lat="59.222554591435" lon="17.916139085774">
        <ele>55.8</ele>
        <time>2019-09-14T15:41:37Z</time>
      </trkpt>
      <trkpt lat="59.222572025787" lon="17.916165572578">
        <ele>56</ele>
        <time>2019-09-14T15:41:38Z</time>
      </trkpt>
      <trkpt lat="59.222589879234" lon="17.91619306521">
        <ele>56.2</ele>
        <time>2019-09-14T15:41:39Z</time>
      </trkpt>
      <trkpt lat="59.22260697831" lon="17.916223491507">
        <ele>56.2</ele>
        <time>2019-09-14T15:41:40Z</time>
      </trkpt>
      <trkpt lat="59.222624077386" lon="17.916255594184">
        <ele>56.4</ele>
        <time>2019-09-14T15:41:41Z</time>
      </trkpt>
      <trkpt lat="59.222640841186" lon="17.916290043793">
        <ele>56.4</ele>
        <time>2019-09-14T15:41:42Z</time>
      </trkpt>
      <trkpt lat="59.222657940262" lon="17.916326421239">
        <ele>56.4</ele>
        <time>2019-09-14T15:41:43Z</time>
      </trkpt>
      <trkpt lat="59.222674955519" lon="17.916364139789">
        <ele>56.4</ele>
        <time>2019-09-14T15:41:44Z</time>
      </trkpt>
      <trkpt lat="59.222691216405" lon="17.91640512728">
        <ele>56.4</ele>
        <time>2019-09-14T15:41:45Z</time>
      </trkpt>
      <trkpt lat="59.222705717092" lon="17.916450305721">
        <ele>56.6</ele>
        <time>2019-09-14T15:41:46Z</time>
      </trkpt>
      <trkpt lat="59.22271929577" lon="17.916496322352">
        <ele>56.8</ele>
        <time>2019-09-14T15:41:47Z</time>
      </trkpt>
      <trkpt lat="59.222731700982" lon="17.916540578784">
        <ele>56.8</ele>
        <time>2019-09-14T15:41:48Z</time>
      </trkpt>
      <trkpt lat="59.222743100366" lon="17.916585421949">
        <ele>57</ele>
        <time>2019-09-14T15:41:49Z</time>
      </trkpt>
      <trkpt lat="59.222755924673" lon="17.91663395315">
        <ele>57.2</ele>
        <time>2019-09-14T15:41:50Z</time>
      </trkpt>
      <trkpt lat="59.22276874898" lon="17.916686340025">
        <ele>57.2</ele>
        <time>2019-09-14T15:41:51Z</time>
      </trkpt>
      <trkpt lat="59.222782662934" lon="17.916741576746">
        <ele>57.4</ele>
        <time>2019-09-14T15:41:52Z</time>
      </trkpt>
      <trkpt lat="59.22279640925" lon="17.916798573666">
        <ele>57.4</ele>
        <time>2019-09-14T15:41:53Z</time>
      </trkpt>
      <trkpt lat="59.222809736471" lon="17.916856995509">
        <ele>57.4</ele>
        <time>2019-09-14T15:41:54Z</time>
      </trkpt>
      <trkpt lat="59.222824488615" lon="17.916916674637">
        <ele>57.4</ele>
        <time>2019-09-14T15:41:55Z</time>
      </trkpt>
      <trkpt lat="59.222840330406" lon="17.91697761105">
        <ele>57.4</ele>
        <time>2019-09-14T15:41:56Z</time>
      </trkpt>
      <trkpt lat="59.222855250188" lon="17.917041397309">
        <ele>57.4</ele>
        <time>2019-09-14T15:41:57Z</time>
      </trkpt>
      <trkpt lat="59.222870840522" lon="17.917106608491">
        <ele>57.4</ele>
        <time>2019-09-14T15:41:58Z</time>
      </trkpt>
      <trkpt lat="59.222887101408" lon="17.917173579872">
        <ele>57.4</ele>
        <time>2019-09-14T15:41:59Z</time>
      </trkpt>
      <trkpt lat="59.222902188828" lon="17.917244574565">
        <ele>57.4</ele>
        <time>2019-09-14T15:42:00Z</time>
      </trkpt>
      <trkpt lat="59.222916605696" lon="17.917317161819">
        <ele>57.4</ele>
        <time>2019-09-14T15:42:01Z</time>
      </trkpt>
      <trkpt lat="59.222945271794" lon="17.917457726282">
        <ele>57.4</ele>
        <time>2019-09-14T15:42:03Z</time>
      </trkpt>
      <trkpt lat="59.222960610671" lon="17.917529559165">
        <ele>57.4</ele>
        <time>2019-09-14T15:42:04Z</time>
      </trkpt>
      <trkpt lat="59.222977625928" lon="17.917602230238">
        <ele>57.4</ele>
        <time>2019-09-14T15:42:05Z</time>
      </trkpt>
      <trkpt lat="59.222995395556" lon="17.917674649854">
        <ele>57.2</ele>
        <time>2019-09-14T15:42:06Z</time>
      </trkpt>
      <trkpt lat="59.22301182408" lon="17.917746398918">
        <ele>57</ele>
        <time>2019-09-14T15:42:07Z</time>
      </trkpt>
      <trkpt lat="59.223025570396" lon="17.917816890697">
        <ele>57</ele>
        <time>2019-09-14T15:42:08Z</time>
      </trkpt>
      <trkpt lat="59.223037305056" lon="17.917886711924">
        <ele>57</ele>
        <time>2019-09-14T15:42:09Z</time>
      </trkpt>
      <trkpt lat="59.223049794087" lon="17.917953012753">
        <ele>57</ele>
        <time>2019-09-14T15:42:10Z</time>
      </trkpt>
      <trkpt lat="59.223064043317" lon="17.918014368261">
        <ele>57</ele>
        <time>2019-09-14T15:42:11Z</time>
      </trkpt>
      <trkpt lat="59.223078376366" lon="17.918074885579">
        <ele>57</ele>
        <time>2019-09-14T15:42:12Z</time>
      </trkpt>
      <trkpt lat="59.223089691931" lon="17.918138085105">
        <ele>57</ele>
        <time>2019-09-14T15:42:13Z</time>
      </trkpt>
      <trkpt lat="59.223100169306" lon="17.91820388302">
        <ele>57</ele>
        <time>2019-09-14T15:42:14Z</time>
      </trkpt>
      <trkpt lat="59.223111317233" lon="17.918271105858">
        <ele>57</ele>
        <time>2019-09-14T15:42:15Z</time>
      </trkpt>
      <trkpt lat="59.223121543151" lon="17.918338328696">
        <ele>57</ele>
        <time>2019-09-14T15:42:16Z</time>
      </trkpt>
      <trkpt lat="59.223131433793" lon="17.91840588681">
        <ele>57</ele>
        <time>2019-09-14T15:42:17Z</time>
      </trkpt>
      <trkpt lat="59.223140570064" lon="17.918473193467">
        <ele>57.2</ele>
        <time>2019-09-14T15:42:18Z</time>
      </trkpt>
      <trkpt lat="59.223150209249" lon="17.918539829572">
        <ele>57.2</ele>
        <time>2019-09-14T15:42:19Z</time>
      </trkpt>
      <trkpt lat="59.223161273357" lon="17.918606465677">
        <ele>57.2</ele>
        <time>2019-09-14T15:42:20Z</time>
      </trkpt>
      <trkpt lat="59.223172588922" lon="17.918673101782">
        <ele>57.2</ele>
        <time>2019-09-14T15:42:21Z</time>
      </trkpt>
      <trkpt lat="59.223185077953" lon="17.918739737887">
        <ele>57.4</ele>
        <time>2019-09-14T15:42:22Z</time>
      </trkpt>
      <trkpt lat="59.223198656631" lon="17.91880654163">
        <ele>57.8</ele>
        <time>2019-09-14T15:42:23Z</time>
      </trkpt>
      <trkpt lat="59.223211900033" lon="17.918873177735">
        <ele>58</ele>
        <time>2019-09-14T15:42:24Z</time>
      </trkpt>
      <trkpt lat="59.223225311073" lon="17.918940819668">
        <ele>57.8</ele>
        <time>2019-09-14T15:42:25Z</time>
      </trkpt>
      <trkpt lat="59.223239644122" lon="17.919009132153">
        <ele>58.2</ele>
        <time>2019-09-14T15:42:26Z</time>
      </trkpt>
      <trkpt lat="59.223253809533" lon="17.91907643881">
        <ele>58.4</ele>
        <time>2019-09-14T15:42:27Z</time>
      </trkpt>
      <trkpt lat="59.223267639668" lon="17.919142236725">
        <ele>58.4</ele>
        <time>2019-09-14T15:42:28Z</time>
      </trkpt>
      <trkpt lat="59.223281637441" lon="17.919205939165">
        <ele>58.4</ele>
        <time>2019-09-14T15:42:29Z</time>
      </trkpt>
      <trkpt lat="59.223294629386" lon="17.919267965225">
        <ele>58.6</ele>
        <time>2019-09-14T15:42:30Z</time>
      </trkpt>
      <trkpt lat="59.223307788969" lon="17.91932789581">
        <ele>58.6</ele>
        <time>2019-09-14T15:42:31Z</time>
      </trkpt>
      <trkpt lat="59.223319858905" lon="17.919386652929">
        <ele>58.6</ele>
        <time>2019-09-14T15:42:32Z</time>
      </trkpt>
      <trkpt lat="59.223331090651" lon="17.919447254066">
        <ele>58.8</ele>
        <time>2019-09-14T15:42:33Z</time>
      </trkpt>
      <trkpt lat="59.223343076768" lon="17.919508441936">
        <ele>58.8</ele>
        <time>2019-09-14T15:42:34Z</time>
      </trkpt>
      <trkpt lat="59.223353721781" lon="17.919570803272">
        <ele>58.8</ele>
        <time>2019-09-14T15:42:35Z</time>
      </trkpt>
      <trkpt lat="59.223364366794" lon="17.919633416065">
        <ele>59</ele>
        <time>2019-09-14T15:42:36Z</time>
      </trkpt>
      <trkpt lat="59.223375682359" lon="17.919695106849">
        <ele>59</ele>
        <time>2019-09-14T15:42:37Z</time>
      </trkpt>
      <trkpt lat="59.223387081743" lon="17.919754953615">
        <ele>59.2</ele>
        <time>2019-09-14T15:42:38Z</time>
      </trkpt>
      <trkpt lat="59.223398397308" lon="17.919814213648">
        <ele>59.4</ele>
        <time>2019-09-14T15:42:39Z</time>
      </trkpt>
      <trkpt lat="59.223409629054" lon="17.919874311871">
        <ele>59.6</ele>
        <time>2019-09-14T15:42:40Z</time>
      </trkpt>
      <trkpt lat="59.223419603515" lon="17.919933655723">
        <ele>59.6</ele>
        <time>2019-09-14T15:42:41Z</time>
      </trkpt>
      <trkpt lat="59.223428991243" lon="17.919991658471">
        <ele>59.8</ele>
        <time>2019-09-14T15:42:42Z</time>
      </trkpt>
      <trkpt lat="59.223438630428" lon="17.920048823029">
        <ele>60</ele>
        <time>2019-09-14T15:42:43Z</time>
      </trkpt>
      <trkpt lat="59.223449023984" lon="17.920105317035">
        <ele>60</ele>
        <time>2019-09-14T15:42:44Z</time>
      </trkpt>
      <trkpt lat="59.223459836635" lon="17.920161643403">
        <ele>60</ele>
        <time>2019-09-14T15:42:45Z</time>
      </trkpt>
      <trkpt lat="59.223469978734" lon="17.920219897608">
        <ele>60.2</ele>
        <time>2019-09-14T15:42:46Z</time>
      </trkpt>
      <trkpt lat="59.223479869376" lon="17.920280666383">
        <ele>60.2</ele>
        <time>2019-09-14T15:42:47Z</time>
      </trkpt>
      <trkpt lat="59.223491101122" lon="17.920341099882">
        <ele>60.4</ele>
        <time>2019-09-14T15:42:48Z</time>
      </trkpt>
      <trkpt lat="59.223503422515" lon="17.920398432078">
        <ele>60.4</ele>
        <time>2019-09-14T15:42:49Z</time>
      </trkpt>
      <trkpt lat="59.22351641446" lon="17.920454255532">
        <ele>60.8</ele>
        <time>2019-09-14T15:42:50Z</time>
      </trkpt>
      <trkpt lat="59.223529909319" lon="17.920512845013">
        <ele>61</ele>
        <time>2019-09-14T15:42:51Z</time>
      </trkpt>
      <trkpt lat="59.223544493825" lon="17.920574451978">
        <ele>61.2</ele>
        <time>2019-09-14T15:42:52Z</time>
      </trkpt>
      <trkpt lat="59.223560251797" lon="17.920638741151">
        <ele>61.2</ele>
        <time>2019-09-14T15:42:53Z</time>
      </trkpt>
      <trkpt lat="59.223576596502" lon="17.920704287609">
        <ele>61.2</ele>
        <time>2019-09-14T15:42:54Z</time>
      </trkpt>
      <trkpt lat="59.223591767741" lon="17.920770588438">
        <ele>61.2</ele>
        <time>2019-09-14T15:42:55Z</time>
      </trkpt>
      <trkpt lat="59.223606268428" lon="17.920836721629">
        <ele>61.2</ele>
        <time>2019-09-14T15:42:56Z</time>
      </trkpt>
      <trkpt lat="59.223621439667" lon="17.920904028286">
        <ele>61.2</ele>
        <time>2019-09-14T15:42:57Z</time>
      </trkpt>
      <trkpt lat="59.223637449096" lon="17.920970832029">
        <ele>61.2</ele>
        <time>2019-09-14T15:42:58Z</time>
      </trkpt>
      <trkpt lat="59.223654799629" lon="17.921036881401">
        <ele>61.2</ele>
        <time>2019-09-14T15:42:59Z</time>
      </trkpt>
      <trkpt lat="59.223672401619" lon="17.921104104239">
        <ele>61.2</ele>
        <time>2019-09-14T15:43:00Z</time>
      </trkpt>
      <trkpt lat="59.223690255066" lon="17.921173171095">
        <ele>61.2</ele>
        <time>2019-09-14T15:43:01Z</time>
      </trkpt>
      <trkpt lat="59.223708276151" lon="17.921244081969">
        <ele>61.2</ele>
        <time>2019-09-14T15:43:02Z</time>
      </trkpt>
      <trkpt lat="59.223725375227" lon="17.921318261784">
        <ele>61.2</ele>
        <time>2019-09-14T15:43:03Z</time>
      </trkpt>
      <trkpt lat="59.223743144855" lon="17.921393279789">
        <ele>61.2</ele>
        <time>2019-09-14T15:43:04Z</time>
      </trkpt>
      <trkpt lat="59.223762758501" lon="17.921465196491">
        <ele>61.2</ele>
        <time>2019-09-14T15:43:05Z</time>
      </trkpt>
      <trkpt lat="59.223782539785" lon="17.921538957211">
        <ele>61.2</ele>
        <time>2019-09-14T15:43:06Z</time>
      </trkpt>
      <trkpt lat="59.223801231422" lon="17.921615735415">
        <ele>61.2</ele>
        <time>2019-09-14T15:43:07Z</time>
      </trkpt>
      <trkpt lat="59.22382067743" lon="17.92169075342">
        <ele>61.2</ele>
        <time>2019-09-14T15:43:08Z</time>
      </trkpt>
      <trkpt lat="59.223839201429" lon="17.921764095045">
        <ele>61.2</ele>
        <time>2019-09-14T15:43:09Z</time>
      </trkpt>
      <trkpt lat="59.223857809247" lon="17.921836933756">
        <ele>61.2</ele>
        <time>2019-09-14T15:43:10Z</time>
      </trkpt>
      <trkpt lat="59.223876500884" lon="17.921908850458">
        <ele>61</ele>
        <time>2019-09-14T15:43:11Z</time>
      </trkpt>
      <trkpt lat="59.223895443978" lon="17.921979845151">
        <ele>61</ele>
        <time>2019-09-14T15:43:12Z</time>
      </trkpt>
      <trkpt lat="59.22391455471" lon="17.922050588387">
        <ele>61</ele>
        <time>2019-09-14T15:43:13Z</time>
      </trkpt>
      <trkpt lat="59.223934419813" lon="17.922123594736">
        <ele>61</ele>
        <time>2019-09-14T15:43:14Z</time>
      </trkpt>
      <trkpt lat="59.223954452554" lon="17.922199786207">
        <ele>61</ele>
        <time>2019-09-14T15:43:15Z</time>
      </trkpt>
      <trkpt lat="59.223974736752" lon="17.922279917171">
        <ele>61</ele>
        <time>2019-09-14T15:43:16Z</time>
      </trkpt>
      <trkpt lat="59.223995691502" lon="17.922362227429">
        <ele>60.8</ele>
        <time>2019-09-14T15:43:17Z</time>
      </trkpt>
      <trkpt lat="59.224017484442" lon="17.922444537687">
        <ele>60.8</ele>
        <time>2019-09-14T15:43:18Z</time>
      </trkpt>
      <trkpt lat="59.224040618486" lon="17.92252642885">
        <ele>60.8</ele>
        <time>2019-09-14T15:43:19Z</time>
      </trkpt>
      <trkpt lat="59.224064087806" lon="17.922609828755">
        <ele>60.8</ele>
        <time>2019-09-14T15:43:20Z</time>
      </trkpt>
      <trkpt lat="59.22408722185" lon="17.922694150669">
        <ele>60.6</ele>
        <time>2019-09-14T15:43:21Z</time>
      </trkpt>
      <trkpt lat="59.224110942627" lon="17.922778472583">
        <ele>60.6</ele>
        <time>2019-09-14T15:43:22Z</time>
      </trkpt>
      <trkpt lat="59.224134328128" lon="17.922863884144">
        <ele>60.6</ele>
        <time>2019-09-14T15:43:23Z</time>
      </trkpt>
      <trkpt lat="59.224157043077" lon="17.922949966257">
        <ele>60.6</ele>
        <time>2019-09-14T15:43:24Z</time>
      </trkpt>
      <trkpt lat="59.224179590388" lon="17.923036718922">
        <ele>60.4</ele>
        <time>2019-09-14T15:43:25Z</time>
      </trkpt>
      <trkpt lat="59.224201970061" lon="17.923123471587">
        <ele>60.4</ele>
        <time>2019-09-14T15:43:26Z</time>
      </trkpt>
      <trkpt lat="59.224224517372" lon="17.923207206768">
        <ele>60.2</ele>
        <time>2019-09-14T15:43:27Z</time>
      </trkpt>
      <trkpt lat="59.224247232321" lon="17.923288008284">
        <ele>60.2</ele>
        <time>2019-09-14T15:43:28Z</time>
      </trkpt>
      <trkpt lat="59.224270617822" lon="17.923367384877">
        <ele>60.2</ele>
        <time>2019-09-14T15:43:29Z</time>
      </trkpt>
      <trkpt lat="59.224293332771" lon="17.923445755642">
        <ele>60.2</ele>
        <time>2019-09-14T15:43:30Z</time>
      </trkpt>
      <trkpt lat="59.224315041892" lon="17.923526221882">
        <ele>60.2</ele>
        <time>2019-09-14T15:43:31Z</time>
      </trkpt>
      <trkpt lat="59.224337170108" lon="17.923610459977">
        <ele>60.2</ele>
        <time>2019-09-14T15:43:32Z</time>
      </trkpt>
      <trkpt lat="59.224359801238" lon="17.923696374452">
        <ele>60.2</ele>
        <time>2019-09-14T15:43:33Z</time>
      </trkpt>
      <trkpt lat="59.224382935282" lon="17.923781366918">
        <ele>60.2</ele>
        <time>2019-09-14T15:43:34Z</time>
      </trkpt>
      <trkpt lat="59.22440573405" lon="17.923865772651">
        <ele>60</ele>
        <time>2019-09-14T15:43:35Z</time>
      </trkpt>
      <trkpt lat="59.224426856438" lon="17.923949507832">
        <ele>60</ele>
        <time>2019-09-14T15:43:36Z</time>
      </trkpt>
      <trkpt lat="59.224447727369" lon="17.924031734271">
        <ele>60</ele>
        <time>2019-09-14T15:43:37Z</time>
      </trkpt>
      <trkpt lat="59.224468346843" lon="17.924112703425">
        <ele>60</ele>
        <time>2019-09-14T15:43:38Z</time>
      </trkpt>
      <trkpt lat="59.224487289937" lon="17.924191828561">
        <ele>60</ele>
        <time>2019-09-14T15:43:39Z</time>
      </trkpt>
      <trkpt lat="59.224505227203" lon="17.924272713896">
        <ele>60</ele>
        <time>2019-09-14T15:43:40Z</time>
      </trkpt>
      <trkpt lat="59.224522493917" lon="17.924357203448">
        <ele>60</ele>
        <time>2019-09-14T15:43:41Z</time>
      </trkpt>
      <trkpt lat="59.224539090079" lon="17.924444542846">
        <ele>59.8</ele>
        <time>2019-09-14T15:43:42Z</time>
      </trkpt>
      <trkpt lat="59.224555350965" lon="17.924531127873">
        <ele>59.8</ele>
        <time>2019-09-14T15:43:43Z</time>
      </trkpt>
      <trkpt lat="59.224572450041" lon="17.924613857226">
        <ele>59.8</ele>
        <time>2019-09-14T15:43:44Z</time>
      </trkpt>
      <trkpt lat="59.224592315144" lon="17.924691892715">
        <ele>59.8</ele>
        <time>2019-09-14T15:43:45Z</time>
      </trkpt>
      <trkpt lat="59.224613186075" lon="17.924766826901">
        <ele>59.8</ele>
        <time>2019-09-14T15:43:46Z</time>
      </trkpt>
      <trkpt lat="59.224633637911" lon="17.924838240689">
        <ele>59.8</ele>
        <time>2019-09-14T15:43:47Z</time>
      </trkpt>
      <trkpt lat="59.224654592661" lon="17.924909654477">
        <ele>59.6</ele>
        <time>2019-09-14T15:43:48Z</time>
      </trkpt>
      <trkpt lat="59.224674876859" lon="17.924983247559">
        <ele>59.6</ele>
        <time>2019-09-14T15:43:49Z</time>
      </trkpt>
      <trkpt lat="59.224696837437" lon="17.925058852297">
        <ele>59.6</ele>
        <time>2019-09-14T15:43:50Z</time>
      </trkpt>
      <trkpt lat="59.224720725852" lon="17.925133702664">
        <ele>59.6</ele>
        <time>2019-09-14T15:43:51Z</time>
      </trkpt>
      <trkpt lat="59.224746793561" lon="17.925208469212">
        <ele>59.6</ele>
        <time>2019-09-14T15:43:52Z</time>
      </trkpt>
      <trkpt lat="59.224772525994" lon="17.925284744502">
        <ele>59.6</ele>
        <time>2019-09-14T15:43:53Z</time>
      </trkpt>
      <trkpt lat="59.224799264255" lon="17.925362696172">
        <ele>59.6</ele>
        <time>2019-09-14T15:43:54Z</time>
      </trkpt>
      <trkpt lat="59.224827595077" lon="17.925442240403">
        <ele>59.8</ele>
        <time>2019-09-14T15:43:55Z</time>
      </trkpt>
      <trkpt lat="59.224859697754" lon="17.925520275892">
        <ele>59.8</ele>
        <time>2019-09-14T15:43:56Z</time>
      </trkpt>
      <trkpt lat="59.224887106567" lon="17.925596383544">
        <ele>60</ele>
        <time>2019-09-14T15:43:57Z</time>
      </trkpt>
      <trkpt lat="59.224916275579" lon="17.925671736825">
        <ele>60</ele>
        <time>2019-09-14T15:43:58Z</time>
      </trkpt>
      <trkpt lat="59.224944774039" lon="17.925747509201">
        <ele>60.2</ele>
        <time>2019-09-14T15:43:59Z</time>
      </trkpt>
      <trkpt lat="59.224973859232" lon="17.925823616853">
        <ele>60</ele>
        <time>2019-09-14T15:44:00Z</time>
      </trkpt>
      <trkpt lat="59.22500168714" lon="17.925899724505">
        <ele>60</ele>
        <time>2019-09-14T15:44:01Z</time>
      </trkpt>
      <trkpt lat="59.225027754849" lon="17.925974323415">
        <ele>60</ele>
        <time>2019-09-14T15:44:02Z</time>
      </trkpt>
      <trkpt lat="59.225053487282" lon="17.926046323936">
        <ele>60.2</ele>
        <time>2019-09-14T15:44:03Z</time>
      </trkpt>
      <trkpt lat="59.225078968258" lon="17.926114049688">
        <ele>60.2</ele>
        <time>2019-09-14T15:44:04Z</time>
      </trkpt>
      <trkpt lat="59.22510394632" lon="17.926178338861">
        <ele>60.4</ele>
        <time>2019-09-14T15:44:05Z</time>
      </trkpt>
      <trkpt lat="59.225127583278" lon="17.92623961055">
        <ele>60.6</ele>
        <time>2019-09-14T15:44:06Z</time>
      </trkpt>
      <trkpt lat="59.225148538028" lon="17.926296104556">
        <ele>60.6</ele>
        <time>2019-09-14T15:44:07Z</time>
      </trkpt>
      <trkpt lat="59.225169576597" lon="17.926348742888">
        <ele>60.8</ele>
        <time>2019-09-14T15:44:08Z</time>
      </trkpt>
      <trkpt lat="59.225190866623" lon="17.926398615193">
        <ele>61</ele>
        <time>2019-09-14T15:44:09Z</time>
      </trkpt>
      <trkpt lat="59.225208636251" lon="17.92644664348">
        <ele>61</ele>
        <time>2019-09-14T15:44:10Z</time>
      </trkpt>
      <trkpt lat="59.225225400051" lon="17.926493414482">
        <ele>61.4</ele>
        <time>2019-09-14T15:44:11Z</time>
      </trkpt>
      <trkpt lat="59.225240319833" lon="17.926536916543">
        <ele>61.6</ele>
        <time>2019-09-14T15:44:12Z</time>
      </trkpt>
      <trkpt lat="59.225254233787" lon="17.926578574586">
        <ele>61.6</ele>
        <time>2019-09-14T15:44:13Z</time>
      </trkpt>
      <trkpt lat="59.225268902112" lon="17.926618640068">
        <ele>61.6</ele>
        <time>2019-09-14T15:44:14Z</time>
      </trkpt>
      <trkpt lat="59.225284827722" lon="17.92665870555">
        <ele>61.8</ele>
        <time>2019-09-14T15:44:15Z</time>
      </trkpt>
      <trkpt lat="59.225302010617" lon="17.926701620878">
        <ele>62</ele>
        <time>2019-09-14T15:44:16Z</time>
      </trkpt>
      <trkpt lat="59.225319277331" lon="17.926746799319">
        <ele>62.4</ele>
        <time>2019-09-14T15:44:17Z</time>
      </trkpt>
      <trkpt lat="59.225336711683" lon="17.926790720475">
        <ele>62.6</ele>
        <time>2019-09-14T15:44:18Z</time>
      </trkpt>
      <trkpt lat="59.225354816587" lon="17.926835396002">
        <ele>62.8</ele>
        <time>2019-09-14T15:44:19Z</time>
      </trkpt>
      <trkpt lat="59.225373089129" lon="17.926883759565">
        <ele>63.2</ele>
        <time>2019-09-14T15:44:20Z</time>
      </trkpt>
      <trkpt lat="59.225390774938" lon="17.92693530825">
        <ele>63.4</ele>
        <time>2019-09-14T15:44:21Z</time>
      </trkpt>
      <trkpt lat="59.225406868186" lon="17.926990293514">
        <ele>63.6</ele>
        <time>2019-09-14T15:44:22Z</time>
      </trkpt>
      <trkpt lat="59.225421787968" lon="17.927044775864">
        <ele>63.8</ele>
        <time>2019-09-14T15:44:23Z</time>
      </trkpt>
      <trkpt lat="59.225437043026" lon="17.927096911282">
        <ele>64</ele>
        <time>2019-09-14T15:44:24Z</time>
      </trkpt>
      <trkpt lat="59.225452717179" lon="17.927148459967">
        <ele>64.2</ele>
        <time>2019-09-14T15:44:25Z</time>
      </trkpt>
      <trkpt lat="59.225471744092" lon="17.927197326444">
        <ele>64.2</ele>
        <time>2019-09-14T15:44:26Z</time>
      </trkpt>
      <trkpt lat="59.225490854824" lon="17.927248204577">
        <ele>64.4</ele>
        <time>2019-09-14T15:44:27Z</time>
      </trkpt>
      <trkpt lat="59.225506445158" lon="17.927305872049">
        <ele>64.4</ele>
        <time>2019-09-14T15:44:28Z</time>
      </trkpt>
      <trkpt lat="59.225520107655" lon="17.927365215901">
        <ele>64.6</ele>
        <time>2019-09-14T15:44:29Z</time>
      </trkpt>
      <trkpt lat="59.225533686333" lon="17.927423721563">
        <ele>64.8</ele>
        <time>2019-09-14T15:44:30Z</time>
      </trkpt>
      <trkpt lat="59.225547684106" lon="17.927482562501">
        <ele>65</ele>
        <time>2019-09-14T15:44:31Z</time>
      </trkpt>
      <trkpt lat="59.225563525897" lon="17.927544169466">
        <ele>65.4</ele>
        <time>2019-09-14T15:44:32Z</time>
      </trkpt>
      <trkpt lat="59.225580289697" lon="17.927611224666">
        <ele>65.6</ele>
        <time>2019-09-14T15:44:33Z</time>
      </trkpt>
      <trkpt lat="59.225597975506" lon="17.927688086689">
        <ele>66.2</ele>
        <time>2019-09-14T15:44:34Z</time>
      </trkpt>
      <trkpt lat="59.225615996591" lon="17.927773582069">
        <ele>66.4</ele>
        <time>2019-09-14T15:44:35Z</time>
      </trkpt>
      <trkpt lat="59.225633850038" lon="17.927868716634">
        <ele>66.2</ele>
        <time>2019-09-14T15:44:36Z</time>
      </trkpt>
      <trkpt lat="59.225649775648" lon="17.927970724357">
        <ele>66.4</ele>
        <time>2019-09-14T15:44:37Z</time>
      </trkpt>
      <trkpt lat="59.225662599955" lon="17.928077845039">
        <ele>66.4</ele>
        <time>2019-09-14T15:44:38Z</time>
      </trkpt>
      <trkpt lat="59.225672825873" lon="17.928189491947">
        <ele>66.4</ele>
        <time>2019-09-14T15:44:39Z</time>
      </trkpt>
      <trkpt lat="59.225683387067" lon="17.928302899054">
        <ele>66.4</ele>
        <time>2019-09-14T15:44:40Z</time>
      </trkpt>
      <trkpt lat="59.225692607157" lon="17.928419575102">
        <ele>66.4</ele>
        <time>2019-09-14T15:44:41Z</time>
      </trkpt>
      <trkpt lat="59.225699647953" lon="17.928538262806">
        <ele>66.4</ele>
        <time>2019-09-14T15:44:42Z</time>
      </trkpt>
      <trkpt lat="59.225703503627" lon="17.928656363777">
        <ele>66.4</ele>
        <time>2019-09-14T15:44:43Z</time>
      </trkpt>
      <trkpt lat="59.22570492855" lon="17.928771531083">
        <ele>66.2</ele>
        <time>2019-09-14T15:44:44Z</time>
      </trkpt>
      <trkpt lat="59.225706521111" lon="17.928883345629">
        <ele>65.8</ele>
        <time>2019-09-14T15:44:45Z</time>
      </trkpt>
      <trkpt lat="59.225707946034" lon="17.928993483795">
        <ele>65.4</ele>
        <time>2019-09-14T15:44:46Z</time>
      </trkpt>
      <trkpt lat="59.225706269654" lon="17.929100688296">
        <ele>65</ele>
        <time>2019-09-14T15:44:47Z</time>
      </trkpt>
      <trkpt lat="59.225703000713" lon="17.929205545865">
        <ele>65</ele>
        <time>2019-09-14T15:44:48Z</time>
      </trkpt>
      <trkpt lat="59.22569906122" lon="17.929309146149">
        <ele>64.8</ele>
        <time>2019-09-14T15:44:49Z</time>
      </trkpt>
      <trkpt lat="59.225697803935" lon="17.929414338994">
        <ele>64.4</ele>
        <time>2019-09-14T15:44:50Z</time>
      </trkpt>
      <trkpt lat="59.22569570846" lon="17.929517436364">
        <ele>64.4</ele>
        <time>2019-09-14T15:44:51Z</time>
      </trkpt>
      <trkpt lat="59.225690763139" lon="17.929618438259">
        <ele>64.2</ele>
        <time>2019-09-14T15:44:52Z</time>
      </trkpt>
      <trkpt lat="59.225685733999" lon="17.929720948896">
        <ele>64.2</ele>
        <time>2019-09-14T15:44:53Z</time>
      </trkpt>
      <trkpt lat="59.22568062104" lon="17.929823543352">
        <ele>64</ele>
        <time>2019-09-14T15:44:54Z</time>
      </trkpt>
      <trkpt lat="59.225676681547" lon="17.929928233283">
        <ele>64</ele>
        <time>2019-09-14T15:44:55Z</time>
      </trkpt>
      <trkpt lat="59.225671233312" lon="17.930031246834">
        <ele>64</ele>
        <time>2019-09-14T15:44:56Z</time>
      </trkpt>
      <trkpt lat="59.225665365982" lon="17.930135014756">
        <ele>64</ele>
        <time>2019-09-14T15:44:57Z</time>
      </trkpt>
      <trkpt lat="59.225661510308" lon="17.93024029142">
        <ele>63.8</ele>
        <time>2019-09-14T15:44:58Z</time>
      </trkpt>
      <trkpt lat="59.225657570815" lon="17.930342718238">
        <ele>63.8</ele>
        <time>2019-09-14T15:44:59Z</time>
      </trkpt>
      <trkpt lat="59.225650949114" lon="17.930445731789">
        <ele>63.8</ele>
        <time>2019-09-14T15:45:00Z</time>
      </trkpt>
      <trkpt lat="59.225644662689" lon="17.930548326245">
        <ele>63.8</ele>
        <time>2019-09-14T15:45:01Z</time>
      </trkpt>
      <trkpt lat="59.225645333241" lon="17.930644550457">
        <ele>63.8</ele>
        <time>2019-09-14T15:45:02Z</time>
      </trkpt>
      <trkpt lat="59.225649775648" lon="17.930722585946">
        <ele>63.8</ele>
        <time>2019-09-14T15:45:03Z</time>
      </trkpt>
      <trkpt lat="59.225655391521" lon="17.930772458251">
        <ele>63.8</ele>
        <time>2019-09-14T15:45:04Z</time>
      </trkpt>
      <trkpt lat="59.225658660462" lon="17.930799028874">
        <ele>63.8</ele>
        <time>2019-09-14T15:45:05Z</time>
      </trkpt>
      <trkpt lat="59.225660839756" lon="17.930815876493">
        <ele>63.8</ele>
        <time>2019-09-14T15:45:06Z</time>
      </trkpt>
      <trkpt lat="59.22566301905" lon="17.930833981397">
        <ele>63.8</ele>
        <time>2019-09-14T15:45:07Z</time>
      </trkpt>
      <trkpt lat="59.225662516136" lon="17.93085552288">
        <ele>63.8</ele>
        <time>2019-09-14T15:45:08Z</time>
      </trkpt>
      <trkpt lat="59.225663773421" lon="17.930880417123">
        <ele>63.8</ele>
        <time>2019-09-14T15:45:09Z</time>
      </trkpt>
      <trkpt lat="59.225664108697" lon="17.930913274171">
        <ele>63.8</ele>
        <time>2019-09-14T15:45:10Z</time>
      </trkpt>
      <trkpt lat="59.225665701258" lon="17.930953758748">
        <ele>63.8</ele>
        <time>2019-09-14T15:45:11Z</time>
      </trkpt>
      <trkpt lat="59.225668215828" lon="17.93099717699">
        <ele>63.6</ele>
        <time>2019-09-14T15:45:12Z</time>
      </trkpt>
      <trkpt lat="59.225672490597" lon="17.93103992468">
        <ele>63.6</ele>
        <time>2019-09-14T15:45:13Z</time>
      </trkpt>
      <trkpt lat="59.22567810647" lon="17.931084935483">
        <ele>63.6</ele>
        <time>2019-09-14T15:45:14Z</time>
      </trkpt>
      <trkpt lat="59.225684476714" lon="17.931131538847">
        <ele>63.6</ele>
        <time>2019-09-14T15:45:15Z</time>
      </trkpt>
      <trkpt lat="59.225695876098" lon="17.93117487327">
        <ele>63.6</ele>
        <time>2019-09-14T15:45:16Z</time>
      </trkpt>
      <trkpt lat="59.225714400097" lon="17.93121007725">
        <ele>63.6</ele>
        <time>2019-09-14T15:45:17Z</time>
      </trkpt>
      <trkpt lat="59.22573761796" lon="17.931243101936">
        <ele>63.6</ele>
        <time>2019-09-14T15:45:18Z</time>
      </trkpt>
      <trkpt lat="59.22575857271" lon="17.931286184902">
        <ele>63.6</ele>
        <time>2019-09-14T15:45:19Z</time>
      </trkpt>
      <trkpt lat="59.225774582139" lon="17.931343181822">
        <ele>63.4</ele>
        <time>2019-09-14T15:45:20Z</time>
      </trkpt>
      <trkpt lat="59.225786819713" lon="17.931410823755">
        <ele>63.4</ele>
        <time>2019-09-14T15:45:21Z</time>
      </trkpt>
      <trkpt lat="59.225798135278" lon="17.931489948891">
        <ele>63.2</ele>
        <time>2019-09-14T15:45:22Z</time>
      </trkpt>
      <trkpt lat="59.225809367024" lon="17.931577623565">
        <ele>63.2</ele>
        <time>2019-09-14T15:45:23Z</time>
      </trkpt>
      <trkpt lat="59.225819425304" lon="17.931672841949">
        <ele>63</ele>
        <time>2019-09-14T15:45:24Z</time>
      </trkpt>
      <trkpt lat="59.225828226299" lon="17.931775352586">
        <ele>63</ele>
        <time>2019-09-14T15:45:25Z</time>
      </trkpt>
      <trkpt lat="59.225833339258" lon="17.931883060001">
        <ele>63</ele>
        <time>2019-09-14T15:45:26Z</time>
      </trkpt>
      <trkpt lat="59.225834093629" lon="17.931995964194">
        <ele>63</ele>
        <time>2019-09-14T15:45:27Z</time>
      </trkpt>
      <trkpt lat="59.22583400981" lon="17.932108784568">
        <ele>62.8</ele>
        <time>2019-09-14T15:45:28Z</time>
      </trkpt>
      <trkpt lat="59.225838787493" lon="17.93222261077">
        <ele>62.6</ele>
        <time>2019-09-14T15:45:29Z</time>
      </trkpt>
      <trkpt lat="59.225849767782" lon="17.932337945714">
        <ele>62.6</ele>
        <time>2019-09-14T15:45:30Z</time>
      </trkpt>
      <trkpt lat="59.225868291781" lon="17.932452358649">
        <ele>62.4</ele>
        <time>2019-09-14T15:45:31Z</time>
      </trkpt>
      <trkpt lat="59.22589855044" lon="17.932556126571">
        <ele>62.2</ele>
        <time>2019-09-14T15:45:32Z</time>
      </trkpt>
      <trkpt lat="59.225935598438" lon="17.932658637208">
        <ele>62</ele>
        <time>2019-09-14T15:45:33Z</time>
      </trkpt>
      <trkpt lat="59.22596560564" lon="17.932776989636">
        <ele>61.8</ele>
        <time>2019-09-14T15:45:34Z</time>
      </trkpt>
      <trkpt lat="59.225987901494" lon="17.932906489991">
        <ele>61.8</ele>
        <time>2019-09-14T15:45:35Z</time>
      </trkpt>
      <trkpt lat="59.226009778253" lon="17.933041103305">
        <ele>61.4</ele>
        <time>2019-09-14T15:45:36Z</time>
      </trkpt>
      <trkpt lat="59.226033666668" lon="17.933179320836">
        <ele>61.2</ele>
        <time>2019-09-14T15:45:37Z</time>
      </trkpt>
      <trkpt lat="59.226057303626" lon="17.933321980774">
        <ele>60.8</ele>
        <time>2019-09-14T15:45:38Z</time>
      </trkpt>
      <trkpt lat="59.226080940584" lon="17.933461539409">
        <ele>60.8</ele>
        <time>2019-09-14T15:45:39Z</time>
      </trkpt>
      <trkpt lat="59.226104912818" lon="17.933593302877">
        <ele>60.6</ele>
        <time>2019-09-14T15:45:40Z</time>
      </trkpt>
      <trkpt lat="59.226126454301" lon="17.933723306146">
        <ele>60.4</ele>
        <time>2019-09-14T15:45:41Z</time>
      </trkpt>
      <trkpt lat="59.226142715187" lon="17.933851465397">
        <ele>60.4</ele>
        <time>2019-09-14T15:45:42Z</time>
      </trkpt>
      <trkpt lat="59.226152186734" lon="17.933980965752">
        <ele>60.2</ele>
        <time>2019-09-14T15:45:43Z</time>
      </trkpt>
      <trkpt lat="59.226150091259" lon="17.934107448623">
        <ele>59.8</ele>
        <time>2019-09-14T15:45:44Z</time>
      </trkpt>
      <trkpt lat="59.226143218101" lon="17.934222783567">
        <ele>59.4</ele>
        <time>2019-09-14T15:45:45Z</time>
      </trkpt>
      <trkpt lat="59.226140871169" lon="17.934322528177">
        <ele>58.8</ele>
        <time>2019-09-14T15:45:46Z</time>
      </trkpt>
      <trkpt lat="59.226145397395" lon="17.934410957222">
        <ele>58.4</ele>
        <time>2019-09-14T15:45:47Z</time>
      </trkpt>
      <trkpt lat="59.226156210046" lon="17.93447985644">
        <ele>57.6</ele>
        <time>2019-09-14T15:45:48Z</time>
      </trkpt>
      <trkpt lat="59.226168615258" lon="17.93452679508">
        <ele>57.2</ele>
        <time>2019-09-14T15:45:49Z</time>
      </trkpt>
      <trkpt lat="59.226177919167" lon="17.93455780811">
        <ele>57</ele>
        <time>2019-09-14T15:45:50Z</time>
      </trkpt>
      <trkpt lat="59.226185546696" lon="17.934582199439">
        <ele>56.8</ele>
        <time>2019-09-14T15:45:51Z</time>
      </trkpt>
      <trkpt lat="59.226194599148" lon="17.93460726132">
        <ele>56.6</ele>
        <time>2019-09-14T15:45:52Z</time>
      </trkpt>
      <trkpt lat="59.226204238333" lon="17.934636681789">
        <ele>56.6</ele>
        <time>2019-09-14T15:45:53Z</time>
      </trkpt>
      <trkpt lat="59.226212704052" lon="17.934665766982">
        <ele>56.6</ele>
        <time>2019-09-14T15:45:54Z</time>
      </trkpt>
      <trkpt lat="59.226221337409" lon="17.934692924338">
        <ele>56.6</ele>
        <time>2019-09-14T15:45:55Z</time>
      </trkpt>
      <trkpt lat="59.226232904431" lon="17.934725613748">
        <ele>56.4</ele>
        <time>2019-09-14T15:45:56Z</time>
      </trkpt>
      <trkpt lat="59.226248662403" lon="17.934776408062">
        <ele>56.4</ele>
        <time>2019-09-14T15:45:57Z</time>
      </trkpt>
      <trkpt lat="59.226265761479" lon="17.934844972004">
        <ele>56.4</ele>
        <time>2019-09-14T15:45:58Z</time>
      </trkpt>
      <trkpt lat="59.226286297134" lon="17.93491487705">
        <ele>56.4</ele>
        <time>2019-09-14T15:45:59Z</time>
      </trkpt>
      <trkpt lat="59.226310269368" lon="17.934985620286">
        <ele>56.4</ele>
        <time>2019-09-14T15:46:00Z</time>
      </trkpt>
      <trkpt lat="59.226335834163" lon="17.935054603323">
        <ele>56.2</ele>
        <time>2019-09-14T15:46:01Z</time>
      </trkpt>
      <trkpt lat="59.226362740062" lon="17.935124759826">
        <ele>56.2</ele>
        <time>2019-09-14T15:46:02Z</time>
      </trkpt>
      <trkpt lat="59.226392160531" lon="17.935199274917">
        <ele>56.2</ele>
        <time>2019-09-14T15:46:03Z</time>
      </trkpt>
      <trkpt lat="59.22642409557" lon="17.935276220759">
        <ele>56.2</ele>
        <time>2019-09-14T15:46:04Z</time>
      </trkpt>
      <trkpt lat="59.226458377541" lon="17.935355848809">
        <ele>56.2</ele>
        <time>2019-09-14T15:46:05Z</time>
      </trkpt>
      <trkpt lat="59.22649450353" lon="17.935438578162">
        <ele>56.2</ele>
        <time>2019-09-14T15:46:06Z</time>
      </trkpt>
      <trkpt lat="59.226534569012" lon="17.935525582284">
        <ele>56</ele>
        <time>2019-09-14T15:46:07Z</time>
      </trkpt>
      <trkpt lat="59.226576813788" lon="17.935613424596">
        <ele>55.6</ele>
        <time>2019-09-14T15:46:08Z</time>
      </trkpt>
      <trkpt lat="59.226622662781" lon="17.935701518365">
        <ele>55.2</ele>
        <time>2019-09-14T15:46:09Z</time>
      </trkpt>
      <trkpt lat="59.226671026344" lon="17.935790282686">
        <ele>54.8</ele>
        <time>2019-09-14T15:46:10Z</time>
      </trkpt>
      <trkpt lat="59.226718970812" lon="17.935875358971">
        <ele>54.6</ele>
        <time>2019-09-14T15:46:11Z</time>
      </trkpt>
      <trkpt lat="59.226766496185" lon="17.935955573754">
        <ele>54.2</ele>
        <time>2019-09-14T15:46:12Z</time>
      </trkpt>
      <trkpt lat="59.226811842264" lon="17.936031597587">
        <ele>54</ele>
        <time>2019-09-14T15:46:13Z</time>
      </trkpt>
      <trkpt lat="59.226856433972" lon="17.936103765746">
        <ele>53.6</ele>
        <time>2019-09-14T15:46:14Z</time>
      </trkpt>
      <trkpt lat="59.226901360956" lon="17.936169731299">
        <ele>53.4</ele>
        <time>2019-09-14T15:46:15Z</time>
      </trkpt>
      <trkpt lat="59.226951233261" lon="17.936235780671">
        <ele>53</ele>
        <time>2019-09-14T15:46:16Z</time>
      </trkpt>
      <trkpt lat="59.227002698127" lon="17.936300656577">
        <ele>52.4</ele>
        <time>2019-09-14T15:46:17Z</time>
      </trkpt>
      <trkpt lat="59.227054917364" lon="17.936361173895">
        <ele>51.8</ele>
        <time>2019-09-14T15:46:18Z</time>
      </trkpt>
      <trkpt lat="59.22710805861" lon="17.9364194281">
        <ele>51.2</ele>
        <time>2019-09-14T15:46:19Z</time>
      </trkpt>
      <trkpt lat="59.22716170277" lon="17.936478269038">
        <ele>50.8</ele>
        <time>2019-09-14T15:46:20Z</time>
      </trkpt>
      <trkpt lat="59.227222303907" lon="17.93654431841">
        <ele>50.8</ele>
        <time>2019-09-14T15:46:21Z</time>
      </trkpt>
      <trkpt lat="59.227285419614" lon="17.936604165176">
        <ele>50.6</ele>
        <time>2019-09-14T15:46:22Z</time>
      </trkpt>
      <trkpt lat="59.227349960244" lon="17.936655043309">
        <ele>50.4</ele>
        <time>2019-09-14T15:46:23Z</time>
      </trkpt>
      <trkpt lat="59.227412070123" lon="17.936700137931">
        <ele>49.8</ele>
        <time>2019-09-14T15:46:24Z</time>
      </trkpt>
      <trkpt lat="59.227470240509" lon="17.936743472354">
        <ele>49.6</ele>
        <time>2019-09-14T15:46:25Z</time>
      </trkpt>
      <trkpt lat="59.227527488886" lon="17.936782867284">
        <ele>49</ele>
        <time>2019-09-14T15:46:26Z</time>
      </trkpt>
      <trkpt lat="59.227586329824" lon="17.936814550866">
        <ele>48.8</ele>
        <time>2019-09-14T15:46:27Z</time>
      </trkpt>
      <trkpt lat="59.227644835486" lon="17.936848078466">
        <ele>48.6</ele>
        <time>2019-09-14T15:46:28Z</time>
      </trkpt>
      <trkpt lat="59.227697641456" lon="17.936885629378">
        <ele>48.2</ele>
        <time>2019-09-14T15:46:29Z</time>
      </trkpt>
      <trkpt lat="59.22774759758" lon="17.936925191946">
        <ele>47.6</ele>
        <time>2019-09-14T15:46:30Z</time>
      </trkpt>
      <trkpt lat="59.227807611984" lon="17.93696760436">
        <ele>47.2</ele>
        <time>2019-09-14T15:46:31Z</time>
      </trkpt>
      <trkpt lat="59.227865698551" lon="17.937012950439">
        <ele>47.2</ele>
        <time>2019-09-14T15:46:32Z</time>
      </trkpt>
      <trkpt lat="59.227924874765" lon="17.937058547975">
        <ele>47</ele>
        <time>2019-09-14T15:46:33Z</time>
      </trkpt>
      <trkpt lat="59.22798731992" lon="17.937104313149">
        <ele>46.8</ele>
        <time>2019-09-14T15:46:34Z</time>
      </trkpt>
      <trkpt lat="59.228049513618" lon="17.937148904857">
        <ele>46.8</ele>
        <time>2019-09-14T15:46:35Z</time>
      </trkpt>
      <trkpt lat="59.228112461687" lon="17.937191904004">
        <ele>46.6</ele>
        <time>2019-09-14T15:46:36Z</time>
      </trkpt>
      <trkpt lat="59.22817675086" lon="17.937233981142">
        <ele>46.4</ele>
        <time>2019-09-14T15:46:37Z</time>
      </trkpt>
      <trkpt lat="59.228243303146" lon="17.93727354371">
        <ele>46.4</ele>
        <time>2019-09-14T15:46:38Z</time>
      </trkpt>
      <trkpt lat="59.228309352518" lon="17.937312771002">
        <ele>46.2</ele>
        <time>2019-09-14T15:46:39Z</time>
      </trkpt>
      <trkpt lat="59.228373641691" lon="17.937352082113">
        <ele>46</ele>
        <time>2019-09-14T15:46:40Z</time>
      </trkpt>
      <trkpt lat="59.228438098502" lon="17.937391896138">
        <ele>45.6</ele>
        <time>2019-09-14T15:46:41Z</time>
      </trkpt>
      <trkpt lat="59.228506075711" lon="17.937434979104">
        <ele>45</ele>
        <time>2019-09-14T15:46:42Z</time>
      </trkpt>
      <trkpt lat="59.228573801463" lon="17.937475882776">
        <ele>44.4</ele>
        <time>2019-09-14T15:46:43Z</time>
      </trkpt>
      <trkpt lat="59.228642449224" lon="17.937517540819">
        <ele>43.8</ele>
        <time>2019-09-14T15:46:44Z</time>
      </trkpt>
      <trkpt lat="59.228711935175" lon="17.937559282681">
        <ele>43.4</ele>
        <time>2019-09-14T15:46:45Z</time>
      </trkpt>
      <trkpt lat="59.228786869361" lon="17.93760211419">
        <ele>43.2</ele>
        <time>2019-09-14T15:46:46Z</time>
      </trkpt>
      <trkpt lat="59.228862893194" lon="17.937646202984">
        <ele>42.8</ele>
        <time>2019-09-14T15:46:47Z</time>
      </trkpt>
      <trkpt lat="59.228935228991" lon="17.937690040321">
        <ele>42.6</ele>
        <time>2019-09-14T15:46:48Z</time>
      </trkpt>
      <trkpt lat="59.22900991172" lon="17.937736559866">
        <ele>42.2</ele>
        <time>2019-09-14T15:46:49Z</time>
      </trkpt>
      <trkpt lat="59.229088785399" lon="17.937785258705">
        <ele>41.8</ele>
        <time>2019-09-14T15:46:50Z</time>
      </trkpt>
      <trkpt lat="59.229166150336" lon="17.937834209001">
        <ele>41.2</ele>
        <time>2019-09-14T15:46:51Z</time>
      </trkpt>
      <trkpt lat="59.229241503617" lon="17.937884919496">
        <ele>40.8</ele>
        <time>2019-09-14T15:46:52Z</time>
      </trkpt>
      <trkpt lat="59.229313252681" lon="17.937935210896">
        <ele>40.4</ele>
        <time>2019-09-14T15:46:53Z</time>
      </trkpt>
      <trkpt lat="59.229383660641" lon="17.937986172848">
        <ele>39.6</ele>
        <time>2019-09-14T15:46:54Z</time>
      </trkpt>
      <trkpt lat="59.229452811316" lon="17.938035793696">
        <ele>38.8</ele>
        <time>2019-09-14T15:46:55Z</time>
      </trkpt>
      <trkpt lat="59.22952120762" lon="17.938083151431">
        <ele>38.4</ele>
        <time>2019-09-14T15:46:56Z</time>
      </trkpt>
      <trkpt lat="59.22958742463" lon="17.938128665148">
        <ele>37.8</ele>
        <time>2019-09-14T15:46:57Z</time>
      </trkpt>
      <trkpt lat="59.22965531802" lon="17.9381712452">
        <ele>37</ele>
        <time>2019-09-14T15:46:58Z</time>
      </trkpt>
      <trkpt lat="59.229721283573" lon="17.938212148872">
        <ele>36.4</ele>
        <time>2019-09-14T15:46:59Z</time>
      </trkpt>
      <trkpt lat="59.22978523747" lon="17.938254058372">
        <ele>36</ele>
        <time>2019-09-14T15:47:00Z</time>
      </trkpt>
      <trkpt lat="59.229846928254" lon="17.938298985356">
        <ele>36</ele>
        <time>2019-09-14T15:47:01Z</time>
      </trkpt>
      <trkpt lat="59.22989336398" lon="17.938362687796">
        <ele>36</ele>
        <time>2019-09-14T15:47:02Z</time>
      </trkpt>
      <trkpt lat="59.229914486368" lon="17.938455726886">
        <ele>36</ele>
        <time>2019-09-14T15:47:03Z</time>
      </trkpt>
      <trkpt lat="59.229913731997" lon="17.938558153704">
        <ele>35.8</ele>
        <time>2019-09-14T15:47:04Z</time>
      </trkpt>
      <trkpt lat="59.229905182459" lon="17.938658736504">
        <ele>35.8</ele>
        <time>2019-09-14T15:47:05Z</time>
      </trkpt>
      <trkpt lat="59.229893447799" lon="17.938757056191">
        <ele>35.8</ele>
        <time>2019-09-14T15:47:06Z</time>
      </trkpt>
      <trkpt lat="59.229879198569" lon="17.938854621507">
        <ele>36</ele>
        <time>2019-09-14T15:47:07Z</time>
      </trkpt>
      <trkpt lat="59.229863775873" lon="17.938949588434">
        <ele>36</ele>
        <time>2019-09-14T15:47:08Z</time>
      </trkpt>
      <trkpt lat="59.22984642534" lon="17.939043549533">
        <ele>36</ele>
        <time>2019-09-14T15:47:09Z</time>
      </trkpt>
      <trkpt lat="59.229828152798" lon="17.939134493148">
        <ele>36</ele>
        <time>2019-09-14T15:47:10Z</time>
      </trkpt>
      <trkpt lat="59.229809712618" lon="17.939222167822">
        <ele>36.2</ele>
        <time>2019-09-14T15:47:11Z</time>
      </trkpt>
      <trkpt lat="59.229792110628" lon="17.939314117265">
        <ele>36.2</ele>
        <time>2019-09-14T15:47:12Z</time>
      </trkpt>
      <trkpt lat="59.229773754267" lon="17.939419058653">
        <ele>36.2</ele>
        <time>2019-09-14T15:47:13Z</time>
      </trkpt>
      <trkpt lat="59.229756571372" lon="17.939529448276">
        <ele>36.2</ele>
        <time>2019-09-14T15:47:14Z</time>
      </trkpt>
      <trkpt lat="59.229739891391" lon="17.939639502623">
        <ele>36.2</ele>
        <time>2019-09-14T15:47:15Z</time>
      </trkpt>
      <trkpt lat="59.229720780659" lon="17.939758190327">
        <ele>36.2</ele>
        <time>2019-09-14T15:47:16Z</time>
      </trkpt>
      <trkpt lat="59.22969806571" lon="17.939887942139">
        <ele>36.2</ele>
        <time>2019-09-14T15:47:17Z</time>
      </trkpt>
      <trkpt lat="59.229674093476" lon="17.94002196872">
        <ele>36.4</ele>
        <time>2019-09-14T15:47:18Z</time>
      </trkpt>
      <trkpt lat="59.229651043251" lon="17.940155995301">
        <ele>36.4</ele>
        <time>2019-09-14T15:47:19Z</time>
      </trkpt>
      <trkpt lat="59.229626484284" lon="17.9402918659">
        <ele>36.4</ele>
        <time>2019-09-14T15:47:20Z</time>
      </trkpt>
      <trkpt lat="59.229602595869" lon="17.940427317404">
        <ele>36.2</ele>
        <time>2019-09-14T15:47:21Z</time>
      </trkpt>
      <trkpt lat="59.229580551472" lon="17.940563858555">
        <ele>36.2</ele>
        <time>2019-09-14T15:47:22Z</time>
      </trkpt>
      <trkpt lat="59.229559429084" lon="17.940698974783">
        <ele>36.2</ele>
        <time>2019-09-14T15:47:23Z</time>
      </trkpt>
      <trkpt lat="59.229537552325" lon="17.94083752759">
        <ele>36.2</ele>
        <time>2019-09-14T15:47:24Z</time>
      </trkpt>
      <trkpt lat="59.229515591747" lon="17.940979600795">
        <ele>36.2</ele>
        <time>2019-09-14T15:47:25Z</time>
      </trkpt>
      <trkpt lat="59.229495894282" lon="17.941124440027">
        <ele>36.2</ele>
        <time>2019-09-14T15:47:26Z</time>
      </trkpt>
      <trkpt lat="59.229476280636" lon="17.941269865992">
        <ele>36.2</ele>
        <time>2019-09-14T15:47:27Z</time>
      </trkpt>
      <trkpt lat="59.229456331714" lon="17.941412693568">
        <ele>36.2</ele>
        <time>2019-09-14T15:47:28Z</time>
      </trkpt>
      <trkpt lat="59.229436047516" lon="17.941552419841">
        <ele>36.2</ele>
        <time>2019-09-14T15:47:29Z</time>
      </trkpt>
      <trkpt lat="59.229415344223" lon="17.941689631544">
        <ele>36.4</ele>
        <time>2019-09-14T15:47:30Z</time>
      </trkpt>
      <trkpt lat="59.22939547912" lon="17.941827094704">
        <ele>36.4</ele>
        <time>2019-09-14T15:47:31Z</time>
      </trkpt>
      <trkpt lat="59.229374775827" lon="17.941970257556">
        <ele>36.4</ele>
        <time>2019-09-14T15:47:32Z</time>
      </trkpt>
      <trkpt lat="59.229352815249" lon="17.942121802308">
        <ele>36.4</ele>
        <time>2019-09-14T15:47:33Z</time>
      </trkpt>
      <trkpt lat="59.229329094472" lon="17.942273179422">
        <ele>36.4</ele>
        <time>2019-09-14T15:47:34Z</time>
      </trkpt>
      <trkpt lat="59.229305038419" lon="17.942423131613">
        <ele>36.4</ele>
        <time>2019-09-14T15:47:35Z</time>
      </trkpt>
      <trkpt lat="59.229282826384" lon="17.942570988329">
        <ele>36.4</ele>
        <time>2019-09-14T15:47:36Z</time>
      </trkpt>
      <trkpt lat="59.229261284901" lon="17.942717671579">
        <ele>36.4</ele>
        <time>2019-09-14T15:47:37Z</time>
      </trkpt>
      <trkpt lat="59.229238905228" lon="17.942860499155">
        <ele>36.4</ele>
        <time>2019-09-14T15:47:38Z</time>
      </trkpt>
      <trkpt lat="59.229218034297" lon="17.943000560704">
        <ele>36.4</ele>
        <time>2019-09-14T15:47:39Z</time>
      </trkpt>
      <trkpt lat="59.229197750099" lon="17.943137856226">
        <ele>36.4</ele>
        <time>2019-09-14T15:47:40Z</time>
      </trkpt>
      <trkpt lat="59.229177633539" lon="17.943273475368">
        <ele>36.4</ele>
        <time>2019-09-14T15:47:41Z</time>
      </trkpt>
      <trkpt lat="59.229157852255" lon="17.943407082854">
        <ele>36.4</ele>
        <time>2019-09-14T15:47:42Z</time>
      </trkpt>
      <trkpt lat="59.229138909161" lon="17.943538930141">
        <ele>36.4</ele>
        <time>2019-09-14T15:47:43Z</time>
      </trkpt>
      <trkpt lat="59.229120217524" lon="17.943667089392">
        <ele>36.4</ele>
        <time>2019-09-14T15:47:44Z</time>
      </trkpt>
      <trkpt lat="59.229101358249" lon="17.943793739901">
        <ele>36.4</ele>
        <time>2019-09-14T15:47:45Z</time>
      </trkpt>
      <trkpt lat="59.229082415155" lon="17.943919971315">
        <ele>36.4</ele>
        <time>2019-09-14T15:47:46Z</time>
      </trkpt>
      <trkpt lat="59.229062214776" lon="17.944046789462">
        <ele>36.4</ele>
        <time>2019-09-14T15:47:47Z</time>
      </trkpt>
      <trkpt lat="59.229039416008" lon="17.944170422487">
        <ele>36.4</ele>
        <time>2019-09-14T15:47:48Z</time>
      </trkpt>
      <trkpt lat="59.229018461258" lon="17.944294055512">
        <ele>36.4</ele>
        <time>2019-09-14T15:47:49Z</time>
      </trkpt>
      <trkpt lat="59.229002284191" lon="17.944419281098">
        <ele>36.4</ele>
        <time>2019-09-14T15:47:50Z</time>
      </trkpt>
      <trkpt lat="59.228986358581" lon="17.944545177236">
        <ele>36.4</ele>
        <time>2019-09-14T15:47:51Z</time>
      </trkpt>
      <trkpt lat="59.228969930057" lon="17.944669564632">
        <ele>36.4</ele>
        <time>2019-09-14T15:47:52Z</time>
      </trkpt>
      <trkpt lat="59.228952495705" lon="17.944793868209">
        <ele>36.4</ele>
        <time>2019-09-14T15:47:53Z</time>
      </trkpt>
      <trkpt lat="59.228933552611" lon="17.944915657216">
        <ele>36.4</ele>
        <time>2019-09-14T15:47:54Z</time>
      </trkpt>
      <trkpt lat="59.228914693336" lon="17.945036524214">
        <ele>36.4</ele>
        <time>2019-09-14T15:47:55Z</time>
      </trkpt>
      <trkpt lat="59.228896253156" lon="17.945153200262">
        <ele>36.4</ele>
        <time>2019-09-14T15:47:56Z</time>
      </trkpt>
      <trkpt lat="59.228878399709" lon="17.945265852998">
        <ele>36.6</ele>
        <time>2019-09-14T15:47:57Z</time>
      </trkpt>
      <trkpt lat="59.228860127167" lon="17.945375152974">
        <ele>36.6</ele>
        <time>2019-09-14T15:47:58Z</time>
      </trkpt>
      <trkpt lat="59.228839256236" lon="17.945483111846">
        <ele>36.6</ele>
        <time>2019-09-14T15:47:59Z</time>
      </trkpt>
      <trkpt lat="59.228811428328" lon="17.94558671213">
        <ele>36.8</ele>
        <time>2019-09-14T15:48:00Z</time>
      </trkpt>
      <trkpt lat="59.22877354214" lon="17.945682098152">
        <ele>36.8</ele>
        <time>2019-09-14T15:48:01Z</time>
      </trkpt>
      <trkpt lat="59.228723837473" lon="17.945770108102">
        <ele>37.2</ele>
        <time>2019-09-14T15:48:02Z</time>
      </trkpt>
      <trkpt lat="59.228661643775" lon="17.945856860767">
        <ele>37.2</ele>
        <time>2019-09-14T15:48:03Z</time>
      </trkpt>
      <trkpt lat="59.22858914034" lon="17.945939338663">
        <ele>37.2</ele>
        <time>2019-09-14T15:48:04Z</time>
      </trkpt>
      <trkpt lat="59.228509428471" lon="17.946020391636">
        <ele>37.2</ele>
        <time>2019-09-14T15:48:05Z</time>
      </trkpt>
      <trkpt lat="59.228427118213" lon="17.946107060482">
        <ele>37.2</ele>
        <time>2019-09-14T15:48:06Z</time>
      </trkpt>
      <trkpt lat="59.228347573982" lon="17.946197920278">
        <ele>37.2</ele>
        <time>2019-09-14T15:48:07Z</time>
      </trkpt>
      <trkpt lat="59.228274064719" lon="17.946287522789">
        <ele>37.2</ele>
        <time>2019-09-14T15:48:08Z</time>
      </trkpt>
      <trkpt lat="59.228205836053" lon="17.946370755056">
        <ele>37.2</ele>
        <time>2019-09-14T15:48:09Z</time>
      </trkpt>
      <trkpt lat="59.228142720346" lon="17.946448874364">
        <ele>37.2</ele>
        <time>2019-09-14T15:48:10Z</time>
      </trkpt>
      <trkpt lat="59.228085220512" lon="17.946520036695">
        <ele>37.4</ele>
        <time>2019-09-14T15:48:11Z</time>
      </trkpt>
      <trkpt lat="59.228032498361" lon="17.946585499334">
        <ele>37.4</ele>
        <time>2019-09-14T15:48:12Z</time>
      </trkpt>
      <trkpt lat="59.227982877513" lon="17.946639646408">
        <ele>37.6</ele>
        <time>2019-09-14T15:48:13Z</time>
      </trkpt>
      <trkpt lat="59.227937363796" lon="17.946684154297">
        <ele>37.6</ele>
        <time>2019-09-14T15:48:14Z</time>
      </trkpt>
      <trkpt lat="59.227897801228" lon="17.946724806512">
        <ele>37.6</ele>
        <time>2019-09-14T15:48:15Z</time>
      </trkpt>
      <trkpt lat="59.227862513429" lon="17.946762525062">
        <ele>37.8</ele>
        <time>2019-09-14T15:48:16Z</time>
      </trkpt>
      <trkpt lat="59.22783141658" lon="17.946798986327">
        <ele>37.8</ele>
        <time>2019-09-14T15:48:17Z</time>
      </trkpt>
      <trkpt lat="59.22780207993" lon="17.946833687393">
        <ele>37.8</ele>
        <time>2019-09-14T15:48:18Z</time>
      </trkpt>
      <trkpt lat="59.227773832927" lon="17.946865957708">
        <ele>38</ele>
        <time>2019-09-14T15:48:19Z</time>
      </trkpt>
      <trkpt lat="59.227746424114" lon="17.94689847948">
        <ele>38.6</ele>
        <time>2019-09-14T15:48:20Z</time>
      </trkpt>
      <trkpt lat="59.227719518215" lon="17.946927983768">
        <ele>39.4</ele>
        <time>2019-09-14T15:48:21Z</time>
      </trkpt>
      <trkpt lat="59.227694540153" lon="17.946953045649">
        <ele>40</ele>
        <time>2019-09-14T15:48:22Z</time>
      </trkpt>
      <trkpt lat="59.227670316462" lon="17.946973246028">
        <ele>40.6</ele>
        <time>2019-09-14T15:48:23Z</time>
      </trkpt>
      <trkpt lat="59.227646428047" lon="17.946993446407">
        <ele>41</ele>
        <time>2019-09-14T15:48:24Z</time>
      </trkpt>
      <trkpt lat="59.227625557116" lon="17.947019681754">
        <ele>41.6</ele>
        <time>2019-09-14T15:48:25Z</time>
      </trkpt>
      <trkpt lat="59.227608122764" lon="17.947051952069">
        <ele>42</ele>
        <time>2019-09-14T15:48:26Z</time>
      </trkpt>
      <trkpt lat="59.227593035344" lon="17.947082378366">
        <ele>42.4</ele>
        <time>2019-09-14T15:48:27Z</time>
      </trkpt>
      <trkpt lat="59.227577947924" lon="17.947106099143">
        <ele>42.6</ele>
        <time>2019-09-14T15:48:28Z</time>
      </trkpt>
      <trkpt lat="59.227561267943" lon="17.947128394997">
        <ele>43</ele>
        <time>2019-09-14T15:48:29Z</time>
      </trkpt>
      <trkpt lat="59.227544252686" lon="17.947146416082">
        <ele>43.2</ele>
        <time>2019-09-14T15:48:30Z</time>
      </trkpt>
      <trkpt lat="59.227525812506" lon="17.94715580381">
        <ele>43.2</ele>
        <time>2019-09-14T15:48:31Z</time>
      </trkpt>
      <trkpt lat="59.227510892724" lon="17.947170555954">
        <ele>43.2</ele>
        <time>2019-09-14T15:48:32Z</time>
      </trkpt>
      <trkpt lat="59.22749697877" lon="17.947185224279">
        <ele>43.2</ele>
        <time>2019-09-14T15:48:33Z</time>
      </trkpt>
      <trkpt lat="59.227481556074" lon="17.947194109093">
        <ele>43.2</ele>
        <time>2019-09-14T15:48:34Z</time>
      </trkpt>
      <trkpt lat="59.227462864437" lon="17.947214644748">
        <ele>43.2</ele>
        <time>2019-09-14T15:48:35Z</time>
      </trkpt>
      <trkpt lat="59.227451967967" lon="17.947240125724">
        <ele>43.2</ele>
        <time>2019-09-14T15:48:36Z</time>
      </trkpt>
      <trkpt lat="59.227436796728" lon="17.947258733542">
        <ele>43.2</ele>
        <time>2019-09-14T15:48:37Z</time>
      </trkpt>
      <trkpt lat="59.227421206394" lon="17.947276419351">
        <ele>43.4</ele>
        <time>2019-09-14T15:48:38Z</time>
      </trkpt>
      <trkpt lat="59.227404526413" lon="17.947291506771">
        <ele>43.4</ele>
        <time>2019-09-14T15:48:39Z</time>
      </trkpt>
      <trkpt lat="59.227386672966" lon="17.947306007458">
        <ele>43.4</ele>
        <time>2019-09-14T15:48:40Z</time>
      </trkpt>
      <trkpt lat="59.227370663537" lon="17.947323860905">
        <ele>43.4</ele>
        <time>2019-09-14T15:48:41Z</time>
      </trkpt>
      <trkpt lat="59.227354402651" lon="17.94734607294">
        <ele>43.4</ele>
        <time>2019-09-14T15:48:42Z</time>
      </trkpt>
      <trkpt lat="59.227339901964" lon="17.947367614423">
        <ele>43.4</ele>
        <time>2019-09-14T15:48:43Z</time>
      </trkpt>
      <trkpt lat="59.227325485096" lon="17.947387898621">
        <ele>43.4</ele>
        <time>2019-09-14T15:48:44Z</time>
      </trkpt>
      <trkpt lat="59.227312074056" lon="17.947408434276">
        <ele>43.4</ele>
        <time>2019-09-14T15:48:45Z</time>
      </trkpt>
      <trkpt lat="59.227300507034" lon="17.947431903596">
        <ele>43.4</ele>
        <time>2019-09-14T15:48:46Z</time>
      </trkpt>
      <trkpt lat="59.227288185641" lon="17.947450511414">
        <ele>43.4</ele>
        <time>2019-09-14T15:48:47Z</time>
      </trkpt>
      <trkpt lat="59.227273768773" lon="17.947465850291">
        <ele>43.4</ele>
        <time>2019-09-14T15:48:48Z</time>
      </trkpt>
      <trkpt lat="59.227258597534" lon="17.947481440625">
        <ele>43.4</ele>
        <time>2019-09-14T15:48:49Z</time>
      </trkpt>
      <trkpt lat="59.227243091019" lon="17.947504993764">
        <ele>43.4</ele>
        <time>2019-09-14T15:48:50Z</time>
      </trkpt>
      <trkpt lat="59.227226913952" lon="17.947531899663">
        <ele>43.6</ele>
        <time>2019-09-14T15:48:51Z</time>
      </trkpt>
      <trkpt lat="59.227209982514" lon="17.947556877725">
        <ele>43.6</ele>
        <time>2019-09-14T15:48:52Z</time>
      </trkpt>
      <trkpt lat="59.227192799619" lon="17.947582777796">
        <ele>43.6</ele>
        <time>2019-09-14T15:48:53Z</time>
      </trkpt>
      <trkpt lat="59.227175700543" lon="17.947602391442">
        <ele>43.6</ele>
        <time>2019-09-14T15:48:54Z</time>
      </trkpt>
      <trkpt lat="59.227157176544" lon="17.947618987604">
        <ele>43.6</ele>
        <time>2019-09-14T15:48:55Z</time>
      </trkpt>
      <trkpt lat="59.227140580382" lon="17.947640529087">
        <ele>43.6</ele>
        <time>2019-09-14T15:48:56Z</time>
      </trkpt>
      <trkpt lat="59.227127588437" lon="17.947659807457">
        <ele>43.6</ele>
        <time>2019-09-14T15:48:57Z</time>
      </trkpt>
      <trkpt lat="59.227115350863" lon="17.947674559601">
        <ele>43.8</ele>
        <time>2019-09-14T15:48:58Z</time>
      </trkpt>
      <trkpt lat="59.227098251787" lon="17.947694676161">
        <ele>43.8</ele>
        <time>2019-09-14T15:48:59Z</time>
      </trkpt>
      <trkpt lat="59.227082493815" lon="17.947720660051">
        <ele>43.8</ele>
        <time>2019-09-14T15:49:00Z</time>
      </trkpt>
      <trkpt lat="59.227067490214" lon="17.947749577606">
        <ele>43.8</ele>
        <time>2019-09-14T15:49:01Z</time>
      </trkpt>
      <trkpt lat="59.227052067518" lon="17.947776315867">
        <ele>43.8</ele>
        <time>2019-09-14T15:49:02Z</time>
      </trkpt>
      <trkpt lat="59.227032202415" lon="17.947800958653">
        <ele>44</ele>
        <time>2019-09-14T15:49:03Z</time>
      </trkpt>
      <trkpt lat="59.227012421131" lon="17.94782300305">
        <ele>44</ele>
        <time>2019-09-14T15:49:04Z</time>
      </trkpt>
      <trkpt lat="59.226994567684" lon="17.947844041619">
        <ele>44</ele>
        <time>2019-09-14T15:49:05Z</time>
      </trkpt>
      <trkpt lat="59.226976043685" lon="17.947869690233">
        <ele>44.2</ele>
        <time>2019-09-14T15:49:06Z</time>
      </trkpt>
      <trkpt lat="59.226958274057" lon="17.947898943064">
        <ele>44.2</ele>
        <time>2019-09-14T15:49:07Z</time>
      </trkpt>
      <trkpt lat="59.226941677895" lon="17.947930207551">
        <ele>44.4</ele>
        <time>2019-09-14T15:49:08Z</time>
      </trkpt>
      <trkpt lat="59.226925081733" lon="17.947965998264">
        <ele>44.4</ele>
        <time>2019-09-14T15:49:09Z</time>
      </trkpt>
      <trkpt lat="59.226903204974" lon="17.948004638823">
        <ele>44.4</ele>
        <time>2019-09-14T15:49:10Z</time>
      </trkpt>
      <trkpt lat="59.22688090912" lon="17.948045542495">
        <ele>44.6</ele>
        <time>2019-09-14T15:49:11Z</time>
      </trkpt>
      <trkpt lat="59.226860038189" lon="17.948087619633">
        <ele>44.6</ele>
        <time>2019-09-14T15:49:12Z</time>
      </trkpt>
      <trkpt lat="59.226837909973" lon="17.948131959884">
        <ele>44.8</ele>
        <time>2019-09-14T15:49:13Z</time>
      </trkpt>
      <trkpt lat="59.226814356834" lon="17.948174539936">
        <ele>44.8</ele>
        <time>2019-09-14T15:49:14Z</time>
      </trkpt>
      <trkpt lat="59.226790719876" lon="17.948218041997">
        <ele>44.8</ele>
        <time>2019-09-14T15:49:15Z</time>
      </trkpt>
      <trkpt lat="59.226769346031" lon="17.948259364764">
        <ele>44.8</ele>
        <time>2019-09-14T15:49:16Z</time>
      </trkpt>
      <trkpt lat="59.226748056005" lon="17.948304291748">
        <ele>45</ele>
        <time>2019-09-14T15:49:17Z</time>
      </trkpt>
      <trkpt lat="59.226729867282" lon="17.948342429393">
        <ele>45</ele>
        <time>2019-09-14T15:49:18Z</time>
      </trkpt>
      <trkpt lat="59.226709834541" lon="17.948385344721">
        <ele>45</ele>
        <time>2019-09-14T15:49:19Z</time>
      </trkpt>
      <trkpt lat="59.226686784316" lon="17.948435384664">
        <ele>45</ele>
        <time>2019-09-14T15:49:20Z</time>
      </trkpt>
      <trkpt lat="59.226664991376" lon="17.948492213946">
        <ele>45</ele>
        <time>2019-09-14T15:49:21Z</time>
      </trkpt>
      <trkpt lat="59.226643198436" lon="17.948547953581">
        <ele>45</ele>
        <time>2019-09-14T15:49:22Z</time>
      </trkpt>
      <trkpt lat="59.226622076048" lon="17.948598496438">
        <ele>45</ele>
        <time>2019-09-14T15:49:23Z</time>
      </trkpt>
      <trkpt lat="59.226597181805" lon="17.948645602716">
        <ele>45</ele>
        <time>2019-09-14T15:49:24Z</time>
      </trkpt>
      <trkpt lat="59.226564492395" lon="17.948696145573">
        <ele>45</ele>
        <time>2019-09-14T15:49:25Z</time>
      </trkpt>
      <trkpt lat="59.226528701682" lon="17.948751549932">
        <ele>44.8</ele>
        <time>2019-09-14T15:49:26Z</time>
      </trkpt>
      <trkpt lat="59.226496850462" lon="17.948802428065">
        <ele>44.8</ele>
        <time>2019-09-14T15:49:27Z</time>
      </trkpt>
      <trkpt lat="59.226467178536" lon="17.94885565313">
        <ele>44.6</ele>
        <time>2019-09-14T15:49:28Z</time>
      </trkpt>
      <trkpt lat="59.226436333144" lon="17.948908040005">
        <ele>44.6</ele>
        <time>2019-09-14T15:49:29Z</time>
      </trkpt>
      <trkpt lat="59.226404984838" lon="17.948962354717">
        <ele>44.6</ele>
        <time>2019-09-14T15:49:30Z</time>
      </trkpt>
      <trkpt lat="59.226375145274" lon="17.949020860379">
        <ele>44.6</ele>
        <time>2019-09-14T15:49:31Z</time>
      </trkpt>
      <trkpt lat="59.226345640986" lon="17.949079701317">
        <ele>44.6</ele>
        <time>2019-09-14T15:49:32Z</time>
      </trkpt>
      <trkpt lat="59.226316220517" lon="17.949136782056">
        <ele>44.6</ele>
        <time>2019-09-14T15:49:33Z</time>
      </trkpt>
      <trkpt lat="59.226288476428" lon="17.949195622994">
        <ele>44.6</ele>
        <time>2019-09-14T15:49:34Z</time>
      </trkpt>
      <trkpt lat="59.226260480882" lon="17.949258571063">
        <ele>44.6</ele>
        <time>2019-09-14T15:49:35Z</time>
      </trkpt>
      <trkpt lat="59.226230222223" lon="17.949328476109">
        <ele>44.6</ele>
        <time>2019-09-14T15:49:36Z</time>
      </trkpt>
      <trkpt lat="59.226203483962" lon="17.949400308992">
        <ele>44.6</ele>
        <time>2019-09-14T15:49:37Z</time>
      </trkpt>
      <trkpt lat="59.226177416253" lon="17.949478260662">
        <ele>44.6</ele>
        <time>2019-09-14T15:49:38Z</time>
      </trkpt>
      <trkpt lat="59.226152605829" lon="17.949560319463">
        <ele>44.6</ele>
        <time>2019-09-14T15:49:39Z</time>
      </trkpt>
      <trkpt lat="59.226128382138" lon="17.949646485395">
        <ele>44.6</ele>
        <time>2019-09-14T15:49:40Z</time>
      </trkpt>
      <trkpt lat="59.226104661361" lon="17.949736255544">
        <ele>44.6</ele>
        <time>2019-09-14T15:49:41Z</time>
      </trkpt>
      <trkpt lat="59.22608211405" lon="17.949825690417">
        <ele>44.6</ele>
        <time>2019-09-14T15:49:42Z</time>
      </trkpt>
      <trkpt lat="59.226060656386" lon="17.949912945996">
        <ele>44.4</ele>
        <time>2019-09-14T15:49:43Z</time>
      </trkpt>
      <trkpt lat="59.226040288369" lon="17.950003721973">
        <ele>44.4</ele>
        <time>2019-09-14T15:49:44Z</time>
      </trkpt>
      <trkpt lat="59.226020171809" lon="17.950096593425">
        <ele>44.4</ele>
        <time>2019-09-14T15:49:45Z</time>
      </trkpt>
      <trkpt lat="59.226001983086" lon="17.950180663882">
        <ele>44.4</ele>
        <time>2019-09-14T15:49:46Z</time>
      </trkpt>
      <trkpt lat="59.225983878182" lon="17.950266829814">
        <ele>44.4</ele>
        <time>2019-09-14T15:49:47Z</time>
      </trkpt>
      <trkpt lat="59.225965018907" lon="17.950353833936">
        <ele>44.4</ele>
        <time>2019-09-14T15:49:48Z</time>
      </trkpt>
      <trkpt lat="59.225939286474" lon="17.950452321261">
        <ele>44.4</ele>
        <time>2019-09-14T15:49:49Z</time>
      </trkpt>
      <trkpt lat="59.225909949824" lon="17.950555167174">
        <ele>44.2</ele>
        <time>2019-09-14T15:49:50Z</time>
      </trkpt>
      <trkpt lat="59.225873907654" lon="17.950664215693">
        <ele>44.2</ele>
        <time>2019-09-14T15:49:51Z</time>
      </trkpt>
      <trkpt lat="59.225834177448" lon="17.950766810149">
        <ele>44.2</ele>
        <time>2019-09-14T15:49:52Z</time>
      </trkpt>
      <trkpt lat="59.225791010663" lon="17.950873679374">
        <ele>44.2</ele>
        <time>2019-09-14T15:49:53Z</time>
      </trkpt>
      <trkpt lat="59.225738288512" lon="17.950966299369">
        <ele>44</ele>
        <time>2019-09-14T15:49:54Z</time>
      </trkpt>
      <trkpt lat="59.225673747882" lon="17.951014160018">
        <ele>44</ele>
        <time>2019-09-14T15:49:55Z</time>
      </trkpt>
      <trkpt lat="59.225600070981" lon="17.951023296289">
        <ele>44</ele>
        <time>2019-09-14T15:49:56Z</time>
      </trkpt>
      <trkpt lat="59.225520442931" lon="17.951023715384">
        <ele>43.6</ele>
        <time>2019-09-14T15:49:57Z</time>
      </trkpt>
      <trkpt lat="59.225437629759" lon="17.951028157791">
        <ele>43.4</ele>
        <time>2019-09-14T15:49:58Z</time>
      </trkpt>
      <trkpt lat="59.225353140207" lon="17.95103243256">
        <ele>43.2</ele>
        <time>2019-09-14T15:49:59Z</time>
      </trkpt>
      <trkpt lat="59.225269153569" lon="17.951036036777">
        <ele>42.8</ele>
        <time>2019-09-14T15:50:00Z</time>
      </trkpt>
      <trkpt lat="59.225187513863" lon="17.951039389537">
        <ele>42.4</ele>
        <time>2019-09-14T15:50:01Z</time>
      </trkpt>
      <trkpt lat="59.225110735659" lon="17.951042909935">
        <ele>42</ele>
        <time>2019-09-14T15:50:02Z</time>
      </trkpt>
      <trkpt lat="59.225040411518" lon="17.951045592143">
        <ele>41.6</ele>
        <time>2019-09-14T15:50:03Z</time>
      </trkpt>
      <trkpt lat="59.224975367974" lon="17.951048609627">
        <ele>40.6</ele>
        <time>2019-09-14T15:50:04Z</time>
      </trkpt>
      <trkpt lat="59.224919293063" lon="17.951048944903">
        <ele>39.6</ele>
        <time>2019-09-14T15:50:05Z</time>
      </trkpt>
      <trkpt lat="59.224873024975" lon="17.951062942676">
        <ele>39</ele>
        <time>2019-09-14T15:50:06Z</time>
      </trkpt>
      <trkpt lat="59.224835809339" lon="17.951100074493">
        <ele>38.8</ele>
        <time>2019-09-14T15:50:07Z</time>
      </trkpt>
      <trkpt lat="59.224807897612" lon="17.951159250707">
        <ele>38.6</ele>
        <time>2019-09-14T15:50:08Z</time>
      </trkpt>
      <trkpt lat="59.224794067477" lon="17.951235190721">
        <ele>38.6</ele>
        <time>2019-09-14T15:50:09Z</time>
      </trkpt>
      <trkpt lat="59.224791385269" lon="17.95132160811">
        <ele>38.4</ele>
        <time>2019-09-14T15:50:10Z</time>
      </trkpt>
      <trkpt lat="59.224791972002" lon="17.951409869517">
        <ele>38.4</ele>
        <time>2019-09-14T15:50:11Z</time>
      </trkpt>
      <trkpt lat="59.224789960346" lon="17.95158563796">
        <ele>38.4</ele>
        <time>2019-09-14T15:50:13Z</time>
      </trkpt>
      <trkpt lat="59.224788870699" lon="17.951675240471">
        <ele>38.4</ele>
        <time>2019-09-14T15:50:14Z</time>
      </trkpt>
      <trkpt lat="59.224786104672" lon="17.95176836338">
        <ele>38.4</ele>
        <time>2019-09-14T15:50:15Z</time>
      </trkpt>
      <trkpt lat="59.224784512111" lon="17.951862659755">
        <ele>38.6</ele>
        <time>2019-09-14T15:50:16Z</time>
      </trkpt>
      <trkpt lat="59.224784763568" lon="17.951959554519">
        <ele>38.6</ele>
        <time>2019-09-14T15:50:17Z</time>
      </trkpt>
      <trkpt lat="59.224786439948" lon="17.952058796215">
        <ele>38.6</ele>
        <time>2019-09-14T15:50:18Z</time>
      </trkpt>
      <trkpt lat="59.224787361957" lon="17.95215560716">
        <ele>38.6</ele>
        <time>2019-09-14T15:50:19Z</time>
      </trkpt>
      <trkpt lat="59.224786356129" lon="17.952253591571">
        <ele>38.6</ele>
        <time>2019-09-14T15:50:20Z</time>
      </trkpt>
      <trkpt lat="59.224787529595" lon="17.952353755276">
        <ele>38.6</ele>
        <time>2019-09-14T15:50:21Z</time>
      </trkpt>
      <trkpt lat="59.224791552907" lon="17.952454505714">
        <ele>38.6</ele>
        <time>2019-09-14T15:50:22Z</time>
      </trkpt>
      <trkpt lat="59.224797420237" lon="17.952551484297">
        <ele>38.6</ele>
        <time>2019-09-14T15:50:23Z</time>
      </trkpt>
      <trkpt lat="59.224800689178" lon="17.952646367405">
        <ele>38.6</ele>
        <time>2019-09-14T15:50:24Z</time>
      </trkpt>
      <trkpt lat="59.224797839332" lon="17.952737478658">
        <ele>38.6</ele>
        <time>2019-09-14T15:50:25Z</time>
      </trkpt>
      <trkpt lat="59.224790630898" lon="17.952823393133">
        <ele>38.6</ele>
        <time>2019-09-14T15:50:26Z</time>
      </trkpt>
      <trkpt lat="59.224776465487" lon="17.952901009527">
        <ele>38.6</ele>
        <time>2019-09-14T15:50:27Z</time>
      </trkpt>
      <trkpt lat="59.224750649235" lon="17.952962951768">
        <ele>38.6</ele>
        <time>2019-09-14T15:50:28Z</time>
      </trkpt>
      <trkpt lat="59.224718043644" lon="17.953014081358">
        <ele>38.6</ele>
        <time>2019-09-14T15:50:29Z</time>
      </trkpt>
      <trkpt lat="59.22468401313" lon="17.953066971147">
        <ele>38.6</ele>
        <time>2019-09-14T15:50:30Z</time>
      </trkpt>
      <trkpt lat="59.224649312064" lon="17.953120280031">
        <ele>38.6</ele>
        <time>2019-09-14T15:50:31Z</time>
      </trkpt>
      <trkpt lat="59.224613353713" lon="17.953169649422">
        <ele>38.6</ele>
        <time>2019-09-14T15:50:32Z</time>
      </trkpt>
      <trkpt lat="59.224576305715" lon="17.953218767356">
        <ele>38.6</ele>
        <time>2019-09-14T15:50:33Z</time>
      </trkpt>
      <trkpt lat="59.224537246061" lon="17.953270232222">
        <ele>38.6</ele>
        <time>2019-09-14T15:50:34Z</time>
      </trkpt>
      <trkpt lat="59.22449877314" lon="17.953323876382">
        <ele>38.6</ele>
        <time>2019-09-14T15:50:35Z</time>
      </trkpt>
      <trkpt lat="59.22446273097" lon="17.953373161954">
        <ele>38.6</ele>
        <time>2019-09-14T15:50:36Z</time>
      </trkpt>
      <trkpt lat="59.224426521162" lon="17.953413814169">
        <ele>38.6</ele>
        <time>2019-09-14T15:50:37Z</time>
      </trkpt>
      <trkpt lat="59.224387964422" lon="17.953448682873">
        <ele>38.6</ele>
        <time>2019-09-14T15:50:38Z</time>
      </trkpt>
      <trkpt lat="59.224350664967" lon="17.953491262925">
        <ele>38.6</ele>
        <time>2019-09-14T15:50:39Z</time>
      </trkpt>
      <trkpt lat="59.224316718272" lon="17.953548176026">
        <ele>38.6</ele>
        <time>2019-09-14T15:50:40Z</time>
      </trkpt>
      <trkpt lat="59.2242841965" lon="17.953610537362">
        <ele>38.6</ele>
        <time>2019-09-14T15:50:41Z</time>
      </trkpt>
      <trkpt lat="59.224252512918" lon="17.953670635585">
        <ele>38.4</ele>
        <time>2019-09-14T15:50:42Z</time>
      </trkpt>
      <trkpt lat="59.224222421897" lon="17.953748671074">
        <ele>38.4</ele>
        <time>2019-09-14T15:50:43Z</time>
      </trkpt>
      <trkpt lat="59.224195515998" lon="17.953826371287">
        <ele>38.4</ele>
        <time>2019-09-14T15:50:44Z</time>
      </trkpt>
      <trkpt lat="59.224165844072" lon="17.953902143663">
        <ele>38.4</ele>
        <time>2019-09-14T15:50:45Z</time>
      </trkpt>
      <trkpt lat="59.224129718083" lon="17.95398453774">
        <ele>38.4</ele>
        <time>2019-09-14T15:50:46Z</time>
      </trkpt>
      <trkpt lat="59.22409728013" lon="17.954065423075">
        <ele>38.4</ele>
        <time>2019-09-14T15:50:47Z</time>
      </trkpt>
      <trkpt lat="59.224066183281" lon="17.954151086093">
        <ele>38.4</ele>
        <time>2019-09-14T15:50:48Z</time>
      </trkpt>
      <trkpt lat="59.224032488043" lon="17.954235491826">
        <ele>38.4</ele>
        <time>2019-09-14T15:50:49Z</time>
      </trkpt>
      <trkpt lat="59.223997619339" lon="17.954327692726">
        <ele>38.4</ele>
        <time>2019-09-14T15:50:50Z</time>
      </trkpt>
      <trkpt lat="59.223964929929" lon="17.954411679364">
        <ele>38.2</ele>
        <time>2019-09-14T15:50:51Z</time>
      </trkpt>
      <trkpt lat="59.223936180012" lon="17.954464904429">
        <ele>38.2</ele>
        <time>2019-09-14T15:50:52Z</time>
      </trkpt>
      <trkpt lat="59.22391790747" lon="17.954525924661">
        <ele>38.2</ele>
        <time>2019-09-14T15:50:53Z</time>
      </trkpt>
      <trkpt lat="59.223909609389" lon="17.954619131389">
        <ele>38</ele>
        <time>2019-09-14T15:50:54Z</time>
      </trkpt>
      <trkpt lat="59.223907011" lon="17.954737651455">
        <ele>37.8</ele>
        <time>2019-09-14T15:50:55Z</time>
      </trkpt>
      <trkpt lat="59.223911704864" lon="17.954846448517">
        <ele>37.8</ele>
        <time>2019-09-14T15:50:56Z</time>
      </trkpt>
      <trkpt lat="59.223924445352" lon="17.954934039372">
        <ele>37.6</ele>
        <time>2019-09-14T15:50:57Z</time>
      </trkpt>
      <trkpt lat="59.223935677098" lon="17.955015762897">
        <ele>37.6</ele>
        <time>2019-09-14T15:50:58Z</time>
      </trkpt>
      <trkpt lat="59.223949339595" lon="17.955096732051">
        <ele>37.6</ele>
        <time>2019-09-14T15:50:59Z</time>
      </trkpt>
      <trkpt lat="59.223963588825" lon="17.955182395069">
        <ele>37.6</ele>
        <time>2019-09-14T15:51:00Z</time>
      </trkpt>
      <trkpt lat="59.223977921874" lon="17.955266381707">
        <ele>37.6</ele>
        <time>2019-09-14T15:51:01Z</time>
      </trkpt>
      <trkpt lat="59.223991500552" lon="17.95535162563">
        <ele>37.6</ele>
        <time>2019-09-14T15:51:02Z</time>
      </trkpt>
      <trkpt lat="59.224004073402" lon="17.955441395779">
        <ele>37.6</ele>
        <time>2019-09-14T15:51:03Z</time>
      </trkpt>
      <trkpt lat="59.224015305148" lon="17.955535273059">
        <ele>37.6</ele>
        <time>2019-09-14T15:51:04Z</time>
      </trkpt>
      <trkpt lat="59.224025363428" lon="17.955629234158">
        <ele>37.8</ele>
        <time>2019-09-14T15:51:05Z</time>
      </trkpt>
      <trkpt lat="59.224036595174" lon="17.955719507221">
        <ele>37.8</ele>
        <time>2019-09-14T15:51:06Z</time>
      </trkpt>
      <trkpt lat="59.224043468332" lon="17.955809864103">
        <ele>38</ele>
        <time>2019-09-14T15:51:07Z</time>
      </trkpt>
      <trkpt lat="59.224048246015" lon="17.95589980189">
        <ele>38</ele>
        <time>2019-09-14T15:51:08Z</time>
      </trkpt>
      <trkpt lat="59.224054867716" lon="17.955994098265">
        <ele>38</ele>
        <time>2019-09-14T15:51:09Z</time>
      </trkpt>
      <trkpt lat="59.22406207615" lon="17.956101135128">
        <ele>38</ele>
        <time>2019-09-14T15:51:10Z</time>
      </trkpt>
      <trkpt lat="59.224064255444" lon="17.956206663249">
        <ele>38</ele>
        <time>2019-09-14T15:51:11Z</time>
      </trkpt>
      <trkpt lat="59.224067524385" lon="17.956309928257">
        <ele>38</ele>
        <time>2019-09-14T15:51:12Z</time>
      </trkpt>
      <trkpt lat="59.224074481362" lon="17.956416294568">
        <ele>38</ele>
        <time>2019-09-14T15:51:13Z</time>
      </trkpt>
      <trkpt lat="59.224081773615" lon="17.956521319775">
        <ele>38</ele>
        <time>2019-09-14T15:51:14Z</time>
      </trkpt>
      <trkpt lat="59.224083366176" lon="17.956629446285">
        <ele>38</ele>
        <time>2019-09-14T15:51:15Z</time>
      </trkpt>
      <trkpt lat="59.2240830309" lon="17.956736231691">
        <ele>38</ele>
        <time>2019-09-14T15:51:16Z</time>
      </trkpt>
      <trkpt lat="59.224081857434" lon="17.956838742328">
        <ele>38</ele>
        <time>2019-09-14T15:51:17Z</time>
      </trkpt>
      <trkpt lat="59.224079845778" lon="17.956942677888">
        <ele>38</ele>
        <time>2019-09-14T15:51:18Z</time>
      </trkpt>
      <trkpt lat="59.224076073923" lon="17.957045104706">
        <ele>37.8</ele>
        <time>2019-09-14T15:51:19Z</time>
      </trkpt>
      <trkpt lat="59.224074565181" lon="17.957142921479">
        <ele>37.8</ele>
        <time>2019-09-14T15:51:20Z</time>
      </trkpt>
      <trkpt lat="59.224071966792" lon="17.957242749908">
        <ele>37.6</ele>
        <time>2019-09-14T15:51:21Z</time>
      </trkpt>
      <trkpt lat="59.224068949308" lon="17.957337968292">
        <ele>37.4</ele>
        <time>2019-09-14T15:51:22Z</time>
      </trkpt>
      <trkpt lat="59.224068111118" lon="17.957434360142">
        <ele>37.2</ele>
        <time>2019-09-14T15:51:23Z</time>
      </trkpt>
      <trkpt lat="59.224070793326" lon="17.957524968481">
        <ele>37</ele>
        <time>2019-09-14T15:51:24Z</time>
      </trkpt>
      <trkpt lat="59.224077917941" lon="17.95761557682">
        <ele>36.8</ele>
        <time>2019-09-14T15:51:25Z</time>
      </trkpt>
      <trkpt lat="59.22409225099" lon="17.957702832399">
        <ele>36.8</ele>
        <time>2019-09-14T15:51:26Z</time>
      </trkpt>
      <trkpt lat="59.224111277903" lon="17.957787741046">
        <ele>36.8</ele>
        <time>2019-09-14T15:51:27Z</time>
      </trkpt>
      <trkpt lat="59.224133573757" lon="17.957878600842">
        <ele>36.6</ele>
        <time>2019-09-14T15:51:28Z</time>
      </trkpt>
      <trkpt lat="59.224156456344" lon="17.957970717923">
        <ele>36.6</ele>
        <time>2019-09-14T15:51:29Z</time>
      </trkpt>
      <trkpt lat="59.224179758026" lon="17.958059985158">
        <ele>36.4</ele>
        <time>2019-09-14T15:51:30Z</time>
      </trkpt>
      <trkpt lat="59.224203478803" lon="17.958153862438">
        <ele>36.4</ele>
        <time>2019-09-14T15:51:31Z</time>
      </trkpt>
      <trkpt lat="59.224232396358" lon="17.958242794397">
        <ele>36.4</ele>
        <time>2019-09-14T15:51:32Z</time>
      </trkpt>
      <trkpt lat="59.224264499035" lon="17.958323428275">
        <ele>36.4</ele>
        <time>2019-09-14T15:51:33Z</time>
      </trkpt>
      <trkpt lat="59.224297942816" lon="17.958398613918">
        <ele>36.2</ele>
        <time>2019-09-14T15:51:34Z</time>
      </trkpt>
      <trkpt lat="59.224332308606" lon="17.958470698258">
        <ele>36.2</ele>
        <time>2019-09-14T15:51:35Z</time>
      </trkpt>
      <trkpt lat="59.224364495102" lon="17.958538004915">
        <ele>36.2</ele>
        <time>2019-09-14T15:51:36Z</time>
      </trkpt>
      <trkpt lat="59.224399112349" lon="17.958604724839">
        <ele>36.2</ele>
        <time>2019-09-14T15:51:37Z</time>
      </trkpt>
      <trkpt lat="59.224432639949" lon="17.958672869686">
        <ele>36</ele>
        <time>2019-09-14T15:51:38Z</time>
      </trkpt>
      <trkpt lat="59.22446356916" lon="17.958748977338">
        <ele>36</ele>
        <time>2019-09-14T15:51:39Z</time>
      </trkpt>
      <trkpt lat="59.224488547222" lon="17.958834472718">
        <ele>35.8</ele>
        <time>2019-09-14T15:51:40Z</time>
      </trkpt>
      <trkpt lat="59.224501622986" lon="17.958925835428">
        <ele>35.8</ele>
        <time>2019-09-14T15:51:41Z</time>
      </trkpt>
      <trkpt lat="59.224497264398" lon="17.959020047984">
        <ele>35.8</ele>
        <time>2019-09-14T15:51:42Z</time>
      </trkpt>
      <trkpt lat="59.224485529738" lon="17.959111997427">
        <ele>35.8</ele>
        <time>2019-09-14T15:51:43Z</time>
      </trkpt>
      <trkpt lat="59.224471029051" lon="17.959201851395">
        <ele>35.8</ele>
        <time>2019-09-14T15:51:44Z</time>
      </trkpt>
      <trkpt lat="59.224454768165" lon="17.959289777526">
        <ele>35.8</ele>
        <time>2019-09-14T15:51:45Z</time>
      </trkpt>
      <trkpt lat="59.224439764564" lon="17.959378709485">
        <ele>35.8</ele>
        <time>2019-09-14T15:51:46Z</time>
      </trkpt>
      <trkpt lat="59.224425096239" lon="17.959469234005">
        <ele>35.8</ele>
        <time>2019-09-14T15:51:47Z</time>
      </trkpt>
      <trkpt lat="59.224394669942" lon="17.959656150375">
        <ele>35.8</ele>
        <time>2019-09-14T15:51:49Z</time>
      </trkpt>
      <trkpt lat="59.224380085436" lon="17.959752374587">
        <ele>35.8</ele>
        <time>2019-09-14T15:51:50Z</time>
      </trkpt>
      <trkpt lat="59.224367009672" lon="17.95984600041">
        <ele>35.8</ele>
        <time>2019-09-14T15:51:51Z</time>
      </trkpt>
      <trkpt lat="59.224354017727" lon="17.95993652493">
        <ele>36</ele>
        <time>2019-09-14T15:51:52Z</time>
      </trkpt>
      <trkpt lat="59.224339852316" lon="17.960030234572">
        <ele>36.4</ele>
        <time>2019-09-14T15:51:53Z</time>
      </trkpt>
      <trkpt lat="59.22432694419" lon="17.96012847044">
        <ele>36.4</ele>
        <time>2019-09-14T15:51:54Z</time>
      </trkpt>
      <trkpt lat="59.224316718272" lon="17.960229388516">
        <ele>36.4</ele>
        <time>2019-09-14T15:51:55Z</time>
      </trkpt>
      <trkpt lat="59.224310934761" lon="17.96033047423">
        <ele>36.4</ele>
        <time>2019-09-14T15:51:56Z</time>
      </trkpt>
      <trkpt lat="59.224308084915" lon="17.960434828885">
        <ele>36.4</ele>
        <time>2019-09-14T15:51:57Z</time>
      </trkpt>
      <trkpt lat="59.224306995268" lon="17.960540440825">
        <ele>36.4</ele>
        <time>2019-09-14T15:51:58Z</time>
      </trkpt>
      <trkpt lat="59.224304732155" lon="17.960653680294">
        <ele>36.4</ele>
        <time>2019-09-14T15:51:59Z</time>
      </trkpt>
      <trkpt lat="59.224304815974" lon="17.960762058261">
        <ele>36.4</ele>
        <time>2019-09-14T15:52:00Z</time>
      </trkpt>
      <trkpt lat="59.224307498182" lon="17.960866412916">
        <ele>36.4</ele>
        <time>2019-09-14T15:52:01Z</time>
      </trkpt>
      <trkpt lat="59.224312862598" lon="17.960972108675">
        <ele>36.4</ele>
        <time>2019-09-14T15:52:02Z</time>
      </trkpt>
      <trkpt lat="59.224321495955" lon="17.961078307348">
        <ele>36.4</ele>
        <time>2019-09-14T15:52:03Z</time>
      </trkpt>
      <trkpt lat="59.224331805692" lon="17.961185847125">
        <ele>36.4</ele>
        <time>2019-09-14T15:52:04Z</time>
      </trkpt>
      <trkpt lat="59.224346138741" lon="17.961296572024">
        <ele>36.4</ele>
        <time>2019-09-14T15:52:05Z</time>
      </trkpt>
      <trkpt lat="59.224366255301" lon="17.961409811493">
        <ele>36.4</ele>
        <time>2019-09-14T15:52:06Z</time>
      </trkpt>
      <trkpt lat="59.224390730449" lon="17.96152657136">
        <ele>36.4</ele>
        <time>2019-09-14T15:52:07Z</time>
      </trkpt>
      <trkpt lat="59.224415205597" lon="17.961649869109">
        <ele>36.4</ele>
        <time>2019-09-14T15:52:08Z</time>
      </trkpt>
      <trkpt lat="59.224437082356" lon="17.961777525446">
        <ele>36.2</ele>
        <time>2019-09-14T15:52:09Z</time>
      </trkpt>
      <trkpt lat="59.224458875296" lon="17.961901074652">
        <ele>36.2</ele>
        <time>2019-09-14T15:52:10Z</time>
      </trkpt>
      <trkpt lat="59.224482596073" lon="17.962020013813">
        <ele>36.2</ele>
        <time>2019-09-14T15:52:11Z</time>
      </trkpt>
      <trkpt lat="59.224504808108" lon="17.962130738712">
        <ele>36</ele>
        <time>2019-09-14T15:52:12Z</time>
      </trkpt>
      <trkpt lat="59.224526684867" lon="17.962236602109">
        <ele>36</ele>
        <time>2019-09-14T15:52:13Z</time>
      </trkpt>
      <trkpt lat="59.224546969065" lon="17.962340705307">
        <ele>36</ele>
        <time>2019-09-14T15:52:14Z</time>
      </trkpt>
      <trkpt lat="59.224567588539" lon="17.962443048306">
        <ele>35.8</ele>
        <time>2019-09-14T15:52:15Z</time>
      </trkpt>
      <trkpt lat="59.22458762128" lon="17.962538015233">
        <ele>35.8</ele>
        <time>2019-09-14T15:52:16Z</time>
      </trkpt>
      <trkpt lat="59.2246027087" lon="17.962628372115">
        <ele>35.8</ele>
        <time>2019-09-14T15:52:17Z</time>
      </trkpt>
      <trkpt lat="59.224604804175" lon="17.96271009564">
        <ele>35.8</ele>
        <time>2019-09-14T15:52:18Z</time>
      </trkpt>
      <trkpt lat="59.224586699271" lon="17.962775223003">
        <ele>35.6</ele>
        <time>2019-09-14T15:52:19Z</time>
      </trkpt>
      <trkpt lat="59.224552333481" lon="17.962812522458">
        <ele>35.6</ele>
        <time>2019-09-14T15:52:20Z</time>
      </trkpt>
      <trkpt lat="59.224515788397" lon="17.962832974294">
        <ele>35.6</ele>
        <time>2019-09-14T15:52:21Z</time>
      </trkpt>
      <trkpt lat="59.224475890553" lon="17.962842445841">
        <ele>35.6</ele>
        <time>2019-09-14T15:52:22Z</time>
      </trkpt>
      <trkpt lat="59.224431801759" lon="17.962846217696">
        <ele>35.6</ele>
        <time>2019-09-14T15:52:23Z</time>
      </trkpt>
      <trkpt lat="59.224386539499" lon="17.962849067542">
        <ele>35.6</ele>
        <time>2019-09-14T15:52:24Z</time>
      </trkpt>
      <trkpt lat="59.224340941963" lon="17.962853090854">
        <ele>35.4</ele>
        <time>2019-09-14T15:52:25Z</time>
      </trkpt>
      <trkpt lat="59.224294003323" lon="17.96285929346">
        <ele>35.4</ele>
        <time>2019-09-14T15:52:26Z</time>
      </trkpt>
      <trkpt lat="59.224247986692" lon="17.962867842998">
        <ele>35.2</ele>
        <time>2019-09-14T15:52:27Z</time>
      </trkpt>
      <trkpt lat="59.224203143527" lon="17.962873794147">
        <ele>35.2</ele>
        <time>2019-09-14T15:52:28Z</time>
      </trkpt>
      <trkpt lat="59.224160228199" lon="17.962882511323">
        <ele>35</ele>
        <time>2019-09-14T15:52:29Z</time>
      </trkpt>
      <trkpt lat="59.224118653975" lon="17.962892988698">
        <ele>35</ele>
        <time>2019-09-14T15:52:30Z</time>
      </trkpt>
      <trkpt lat="59.224077666484" lon="17.962902963159">
        <ele>34.8</ele>
        <time>2019-09-14T15:52:31Z</time>
      </trkpt>
      <trkpt lat="59.224035756984" lon="17.962910506869">
        <ele>34.8</ele>
        <time>2019-09-14T15:52:32Z</time>
      </trkpt>
      <trkpt lat="59.223993428389" lon="17.962916458018">
        <ele>34.6</ele>
        <time>2019-09-14T15:52:33Z</time>
      </trkpt>
      <trkpt lat="59.223950680699" lon="17.96292215771">
        <ele>34.6</ele>
        <time>2019-09-14T15:52:34Z</time>
      </trkpt>
      <trkpt lat="59.223908016828" lon="17.96292718685">
        <ele>34.6</ele>
        <time>2019-09-14T15:52:35Z</time>
      </trkpt>
      <trkpt lat="59.223864179491" lon="17.962932299809">
        <ele>34.6</ele>
        <time>2019-09-14T15:52:36Z</time>
      </trkpt>
      <trkpt lat="59.223819503964" lon="17.962939005329">
        <ele>34.6</ele>
        <time>2019-09-14T15:52:37Z</time>
      </trkpt>
      <trkpt lat="59.22377457698" lon="17.962943615374">
        <ele>34.6</ele>
        <time>2019-09-14T15:52:38Z</time>
      </trkpt>
      <trkpt lat="59.223730069091" lon="17.962944118288">
        <ele>34.6</ele>
        <time>2019-09-14T15:52:39Z</time>
      </trkpt>
      <trkpt lat="59.223686231754" lon="17.962943196279">
        <ele>34.6</ele>
        <time>2019-09-14T15:52:40Z</time>
      </trkpt>
      <trkpt lat="59.223644825168" lon="17.96294562703">
        <ele>34.6</ele>
        <time>2019-09-14T15:52:41Z</time>
      </trkpt>
      <trkpt lat="59.223606352247" lon="17.962947471048">
        <ele>34.6</ele>
        <time>2019-09-14T15:52:42Z</time>
      </trkpt>
      <trkpt lat="59.223571064448" lon="17.962947973962">
        <ele>34.8</ele>
        <time>2019-09-14T15:52:43Z</time>
      </trkpt>
      <trkpt lat="59.22353904559" lon="17.962951829636">
        <ele>34.8</ele>
        <time>2019-09-14T15:52:44Z</time>
      </trkpt>
      <trkpt lat="59.223510128035" lon="17.962958870432">
        <ele>34.8</ele>
        <time>2019-09-14T15:52:45Z</time>
      </trkpt>
      <trkpt lat="59.223481629575" lon="17.962967922884">
        <ele>35</ele>
        <time>2019-09-14T15:52:46Z</time>
      </trkpt>
      <trkpt lat="59.223453382572" lon="17.962982255933">
        <ele>35.2</ele>
        <time>2019-09-14T15:52:47Z</time>
      </trkpt>
      <trkpt lat="59.223425387026" lon="17.963005222339">
        <ele>35.2</ele>
        <time>2019-09-14T15:52:48Z</time>
      </trkpt>
      <trkpt lat="59.223397559118" lon="17.963034558989">
        <ele>35.2</ele>
        <time>2019-09-14T15:52:49Z</time>
      </trkpt>
      <trkpt lat="59.223372581056" lon="17.963065655838">
        <ele>35.4</ele>
        <time>2019-09-14T15:52:50Z</time>
      </trkpt>
      <trkpt lat="59.22335548198" lon="17.963096668868">
        <ele>35.4</ele>
        <time>2019-09-14T15:52:51Z</time>
      </trkpt>
      <trkpt lat="59.22334793827" lon="17.963128436269">
        <ele>35.6</ele>
        <time>2019-09-14T15:52:52Z</time>
      </trkpt>
      <trkpt lat="59.223344920786" lon="17.963156347996">
        <ele>35.8</ele>
        <time>2019-09-14T15:52:53Z</time>
      </trkpt>
      <trkpt lat="59.223344920786" lon="17.963181242239">
        <ele>36</ele>
        <time>2019-09-14T15:52:54Z</time>
      </trkpt>
      <trkpt lat="59.223347267718" lon="17.963200855885">
        <ele>36</ele>
        <time>2019-09-14T15:52:55Z</time>
      </trkpt>
      <trkpt lat="59.223346178071" lon="17.96320965688">
        <ele>36</ele>
        <time>2019-09-14T15:52:56Z</time>
      </trkpt>
      <trkpt lat="59.223346932442" lon="17.963216110943">
        <ele>36.2</ele>
        <time>2019-09-14T15:52:57Z</time>
      </trkpt>
      <trkpt lat="59.22334961465" lon="17.96333035624">
        <ele>37</ele>
        <time>2019-09-14T15:53:44Z</time>
      </trkpt>
      <trkpt lat="59.223350955754" lon="17.963363380926">
        <ele>37</ele>
        <time>2019-09-14T15:53:45Z</time>
      </trkpt>
      <trkpt lat="59.223355901075" lon="17.963404368417">
        <ele>37</ele>
        <time>2019-09-14T15:53:46Z</time>
      </trkpt>
      <trkpt lat="59.223362103681" lon="17.963447283745">
        <ele>37</ele>
        <time>2019-09-14T15:53:47Z</time>
      </trkpt>
      <trkpt lat="59.223367551916" lon="17.963496653136">
        <ele>37</ele>
        <time>2019-09-14T15:53:48Z</time>
      </trkpt>
      <trkpt lat="59.223373000151" lon="17.963554404427">
        <ele>37</ele>
        <time>2019-09-14T15:53:49Z</time>
      </trkpt>
      <trkpt lat="59.223379035119" lon="17.963616765763">
        <ele>37</ele>
        <time>2019-09-14T15:53:50Z</time>
      </trkpt>
      <trkpt lat="59.22338565682" lon="17.963681222574">
        <ele>36.8</ele>
        <time>2019-09-14T15:53:51Z</time>
      </trkpt>
      <trkpt lat="59.223392529978" lon="17.963749032145">
        <ele>36.8</ele>
        <time>2019-09-14T15:53:52Z</time>
      </trkpt>
      <trkpt lat="59.223398816403" lon="17.963818099001">
        <ele>36.8</ele>
        <time>2019-09-14T15:53:53Z</time>
      </trkpt>
      <trkpt lat="59.223405186647" lon="17.963893368463">
        <ele>36.8</ele>
        <time>2019-09-14T15:53:54Z</time>
      </trkpt>
      <trkpt lat="59.223411556891" lon="17.963970398124">
        <ele>36.8</ele>
        <time>2019-09-14T15:53:55Z</time>
      </trkpt>
      <trkpt lat="59.223417843316" lon="17.964049439441">
        <ele>36.8</ele>
        <time>2019-09-14T15:53:56Z</time>
      </trkpt>
      <trkpt lat="59.223424465017" lon="17.964127894025">
        <ele>36.8</ele>
        <time>2019-09-14T15:53:57Z</time>
      </trkpt>
      <trkpt lat="59.22343175727" lon="17.964204756048">
        <ele>36.8</ele>
        <time>2019-09-14T15:53:58Z</time>
      </trkpt>
      <trkpt lat="59.223438127514" lon="17.964278852044">
        <ele>36.8</ele>
        <time>2019-09-14T15:53:59Z</time>
      </trkpt>
      <trkpt lat="59.223443743387" lon="17.964352528945">
        <ele>36.8</ele>
        <time>2019-09-14T15:54:00Z</time>
      </trkpt>
      <trkpt lat="59.223448940165" lon="17.964424445647">
        <ele>37</ele>
        <time>2019-09-14T15:54:01Z</time>
      </trkpt>
      <trkpt lat="59.223454975133" lon="17.964497032901">
        <ele>36.8</ele>
        <time>2019-09-14T15:54:02Z</time>
      </trkpt>
      <trkpt lat="59.223462015929" lon="17.96457339201">
        <ele>36.8</ele>
        <time>2019-09-14T15:54:03Z</time>
      </trkpt>
      <trkpt lat="59.223468302354" lon="17.964650840766">
        <ele>36.8</ele>
        <time>2019-09-14T15:54:04Z</time>
      </trkpt>
      <trkpt lat="59.223475929883" lon="17.964730384997">
        <ele>36.6</ele>
        <time>2019-09-14T15:54:05Z</time>
      </trkpt>
      <trkpt lat="59.223485233792" lon="17.964813617264">
        <ele>36.6</ele>
        <time>2019-09-14T15:54:06Z</time>
      </trkpt>
      <trkpt lat="59.223493950968" lon="17.964896430436">
        <ele>36.6</ele>
        <time>2019-09-14T15:54:07Z</time>
      </trkpt>
      <trkpt lat="59.223499063927" lon="17.964974214468">
        <ele>36.6</ele>
        <time>2019-09-14T15:54:08Z</time>
      </trkpt>
      <trkpt lat="59.223499566841" lon="17.965049903025">
        <ele>36.6</ele>
        <time>2019-09-14T15:54:09Z</time>
      </trkpt>
      <trkpt lat="59.223498141918" lon="17.96512995017">
        <ele>36.6</ele>
        <time>2019-09-14T15:54:10Z</time>
      </trkpt>
      <trkpt lat="59.223496884633" lon="17.965214523541">
        <ele>36.6</ele>
        <time>2019-09-14T15:54:11Z</time>
      </trkpt>
      <trkpt lat="59.223494872977" lon="17.96530261731">
        <ele>36.4</ele>
        <time>2019-09-14T15:54:12Z</time>
      </trkpt>
      <trkpt lat="59.223492609864" lon="17.965389705251">
        <ele>36.4</ele>
        <time>2019-09-14T15:54:13Z</time>
      </trkpt>
      <trkpt lat="59.223489508561" lon="17.96547444626">
        <ele>36.4</ele>
        <time>2019-09-14T15:54:14Z</time>
      </trkpt>
      <trkpt lat="59.223484311783" lon="17.96555826526">
        <ele>36.4</ele>
        <time>2019-09-14T15:54:15Z</time>
      </trkpt>
      <trkpt lat="59.223477606263" lon="17.965642419536">
        <ele>36.2</ele>
        <time>2019-09-14T15:54:16Z</time>
      </trkpt>
      <trkpt lat="59.223471822752" lon="17.965728501649">
        <ele>36.2</ele>
        <time>2019-09-14T15:54:17Z</time>
      </trkpt>
      <trkpt lat="59.223466290698" lon="17.965811314821">
        <ele>36.2</ele>
        <time>2019-09-14T15:54:18Z</time>
      </trkpt>
      <trkpt lat="59.223459920454" lon="17.96588851212">
        <ele>36.2</ele>
        <time>2019-09-14T15:54:19Z</time>
      </trkpt>
      <trkpt lat="59.223454975133" lon="17.965965877057">
        <ele>36</ele>
        <time>2019-09-14T15:54:20Z</time>
      </trkpt>
      <trkpt lat="59.223449778355" lon="17.966041733252">
        <ele>36</ele>
        <time>2019-09-14T15:54:21Z</time>
      </trkpt>
      <trkpt lat="59.22344265374" lon="17.966126474261">
        <ele>36</ele>
        <time>2019-09-14T15:54:22Z</time>
      </trkpt>
      <trkpt lat="59.223433768926" lon="17.966212137279">
        <ele>35.8</ele>
        <time>2019-09-14T15:54:23Z</time>
      </trkpt>
      <trkpt lat="59.223423710646" lon="17.966303835265">
        <ele>35.8</ele>
        <time>2019-09-14T15:54:24Z</time>
      </trkpt>
      <trkpt lat="59.223412897995" lon="17.966399305106">
        <ele>35.8</ele>
        <time>2019-09-14T15:54:25Z</time>
      </trkpt>
      <trkpt lat="59.223400073688" lon="17.966484884305">
        <ele>35.8</ele>
        <time>2019-09-14T15:54:26Z</time>
      </trkpt>
      <trkpt lat="59.22338900958" lon="17.96655990231">
        <ele>35.6</ele>
        <time>2019-09-14T15:54:27Z</time>
      </trkpt>
      <trkpt lat="59.223377694015" lon="17.96663198665">
        <ele>35.6</ele>
        <time>2019-09-14T15:54:28Z</time>
      </trkpt>
      <trkpt lat="59.223366797545" lon="17.966705495913">
        <ele>35.6</ele>
        <time>2019-09-14T15:54:29Z</time>
      </trkpt>
      <trkpt lat="59.223353051229" lon="17.966781687384">
        <ele>35.6</ele>
        <time>2019-09-14T15:54:30Z</time>
      </trkpt>
      <trkpt lat="59.223337796171" lon="17.966851089516">
        <ele>35.4</ele>
        <time>2019-09-14T15:54:31Z</time>
      </trkpt>
      <trkpt lat="59.223324049855" lon="17.966918479992">
        <ele>35.4</ele>
        <time>2019-09-14T15:54:32Z</time>
      </trkpt>
      <trkpt lat="59.223307537512" lon="17.966986373382">
        <ele>35.4</ele>
        <time>2019-09-14T15:54:33Z</time>
      </trkpt>
      <trkpt lat="59.223289600246" lon="17.967055021143">
        <ele>35.2</ele>
        <time>2019-09-14T15:54:34Z</time>
      </trkpt>
      <trkpt lat="59.223273255541" lon="17.967129536234">
        <ele>35.2</ele>
        <time>2019-09-14T15:54:35Z</time>
      </trkpt>
      <trkpt lat="59.223257749026" lon="17.967206398257">
        <ele>35.2</ele>
        <time>2019-09-14T15:54:36Z</time>
      </trkpt>
      <trkpt lat="59.223242829244" lon="17.967281835357">
        <ele>35.2</ele>
        <time>2019-09-14T15:54:37Z</time>
      </trkpt>
      <trkpt lat="59.223225143435" lon="17.967347884729">
        <ele>35</ele>
        <time>2019-09-14T15:54:38Z</time>
      </trkpt>
      <trkpt lat="59.22320376959" lon="17.967402702355">
        <ele>35</ele>
        <time>2019-09-14T15:54:39Z</time>
      </trkpt>
      <trkpt lat="59.223177282786" lon="17.967456681791">
        <ele>35</ele>
        <time>2019-09-14T15:54:40Z</time>
      </trkpt>
      <trkpt lat="59.223150041611" lon="17.967500435309">
        <ele>35</ele>
        <time>2019-09-14T15:54:41Z</time>
      </trkpt>
      <trkpt lat="59.223123722445" lon="17.967547625406">
        <ele>35</ele>
        <time>2019-09-14T15:54:42Z</time>
      </trkpt>
      <trkpt lat="59.223100001668" lon="17.967593893494">
        <ele>35</ele>
        <time>2019-09-14T15:54:43Z</time>
      </trkpt>
      <trkpt lat="59.223074772149" lon="17.967636389727">
        <ele>35</ele>
        <time>2019-09-14T15:54:44Z</time>
      </trkpt>
      <trkpt lat="59.223046273689" lon="17.967678718322">
        <ele>35</ele>
        <time>2019-09-14T15:54:45Z</time>
      </trkpt>
      <trkpt lat="59.223019619247" lon="17.967717023605">
        <ele>35</ele>
        <time>2019-09-14T15:54:46Z</time>
      </trkpt>
      <trkpt lat="59.22299254571" lon="17.967757340544">
        <ele>35</ele>
        <time>2019-09-14T15:54:47Z</time>
      </trkpt>
      <trkpt lat="59.222963963431" lon="17.96778952704">
        <ele>35</ele>
        <time>2019-09-14T15:54:48Z</time>
      </trkpt>
      <trkpt lat="59.222935464971" lon="17.967827329409">
        <ele>35</ele>
        <time>2019-09-14T15:54:49Z</time>
      </trkpt>
      <trkpt lat="59.22290872671" lon="17.967864377407">
        <ele>35</ele>
        <time>2019-09-14T15:54:50Z</time>
      </trkpt>
      <trkpt lat="59.222885425028" lon="17.967907795649">
        <ele>35</ele>
        <time>2019-09-14T15:54:51Z</time>
      </trkpt>
      <trkpt lat="59.222864554097" lon="17.96795967961">
        <ele>35</ele>
        <time>2019-09-14T15:54:52Z</time>
      </trkpt>
      <trkpt lat="59.222852232704" lon="17.968011982666">
        <ele>35</ele>
        <time>2019-09-14T15:54:53Z</time>
      </trkpt>
      <trkpt lat="59.222844269899" lon="17.968067973758">
        <ele>35</ele>
        <time>2019-09-14T15:54:54Z</time>
      </trkpt>
      <trkpt lat="59.222837229103" lon="17.968131424741">
        <ele>35.2</ele>
        <time>2019-09-14T15:54:55Z</time>
      </trkpt>
      <trkpt lat="59.222831110316" lon="17.968194624267">
        <ele>35.2</ele>
        <time>2019-09-14T15:54:56Z</time>
      </trkpt>
      <trkpt lat="59.222828931022" lon="17.968255141585">
        <ele>35.2</ele>
        <time>2019-09-14T15:54:57Z</time>
      </trkpt>
      <trkpt lat="59.222828428108" lon="17.968312054686">
        <ele>35.2</ele>
        <time>2019-09-14T15:54:58Z</time>
      </trkpt>
      <trkpt lat="59.222833457248" lon="17.968372404366">
        <ele>35.4</ele>
        <time>2019-09-14T15:54:59Z</time>
      </trkpt>
      <trkpt lat="59.222837899655" lon="17.968431077666">
        <ele>35.6</ele>
        <time>2019-09-14T15:55:00Z</time>
      </trkpt>
      <trkpt lat="59.22284334789" lon="17.968477932487">
        <ele>35.8</ele>
        <time>2019-09-14T15:55:01Z</time>
      </trkpt>
      <trkpt lat="59.222845443365" lon="17.968520261082">
        <ele>35.8</ele>
        <time>2019-09-14T15:55:02Z</time>
      </trkpt>
      <trkpt lat="59.222842006786" lon="17.968557225261">
        <ele>36</ele>
        <time>2019-09-14T15:55:03Z</time>
      </trkpt>
      <trkpt lat="59.222837145284" lon="17.968590752861">
        <ele>36</ele>
        <time>2019-09-14T15:55:04Z</time>
      </trkpt>
      <trkpt lat="59.222838486388" lon="17.968619502778">
        <ele>36.2</ele>
        <time>2019-09-14T15:55:05Z</time>
      </trkpt>
      <trkpt lat="59.222844102261" lon="17.968658646251">
        <ele>36.6</ele>
        <time>2019-09-14T15:55:06Z</time>
      </trkpt>
      <trkpt lat="59.222853238532" lon="17.968701142484">
        <ele>36.8</ele>
        <time>2019-09-14T15:55:07Z</time>
      </trkpt>
      <trkpt lat="59.222854914912" lon="17.968745147459">
        <ele>37.2</ele>
        <time>2019-09-14T15:55:08Z</time>
      </trkpt>
      <trkpt lat="59.222859189681" lon="17.968791667004">
        <ele>37.6</ele>
        <time>2019-09-14T15:55:09Z</time>
      </trkpt>
      <trkpt lat="59.222862710079" lon="17.968842461318">
        <ele>38.2</ele>
        <time>2019-09-14T15:55:10Z</time>
      </trkpt>
      <trkpt lat="59.222865057011" lon="17.968891998347">
        <ele>38.6</ele>
        <time>2019-09-14T15:55:11Z</time>
      </trkpt>
      <trkpt lat="59.222866314296" lon="17.968945307231">
        <ele>38.8</ele>
        <time>2019-09-14T15:55:12Z</time>
      </trkpt>
      <trkpt lat="59.222869080323" lon="17.968993000242">
        <ele>38.8</ele>
        <time>2019-09-14T15:55:13Z</time>
      </trkpt>
      <trkpt lat="59.222872935997" lon="17.969034909742">
        <ele>39</ele>
        <time>2019-09-14T15:55:14Z</time>
      </trkpt>
      <trkpt lat="59.222876959309" lon="17.969071873921">
        <ele>39.2</ele>
        <time>2019-09-14T15:55:15Z</time>
      </trkpt>
      <trkpt lat="59.222878803327" lon="17.969107748453">
        <ele>39.2</ele>
        <time>2019-09-14T15:55:16Z</time>
      </trkpt>
      <trkpt lat="59.222882239906" lon="17.969147646297">
        <ele>39.4</ele>
        <time>2019-09-14T15:55:17Z</time>
      </trkpt>
      <trkpt lat="59.222880144431" lon="17.969197602421">
        <ele>39.6</ele>
        <time>2019-09-14T15:55:18Z</time>
      </trkpt>
      <trkpt lat="59.222879809155" lon="17.969253174418">
        <ele>39.6</ele>
        <time>2019-09-14T15:55:19Z</time>
      </trkpt>
      <trkpt lat="59.222880814983" lon="17.969306734759">
        <ele>39.8</ele>
        <time>2019-09-14T15:55:20Z</time>
      </trkpt>
      <trkpt lat="59.222875534386" lon="17.969357026159">
        <ele>39.8</ele>
        <time>2019-09-14T15:55:21Z</time>
      </trkpt>
      <trkpt lat="59.222869750875" lon="17.969419136038">
        <ele>39.8</ele>
        <time>2019-09-14T15:55:22Z</time>
      </trkpt>
      <trkpt lat="59.222869834694" lon="17.969483173754">
        <ele>39.8</ele>
        <time>2019-09-14T15:55:23Z</time>
      </trkpt>
      <trkpt lat="59.22286849359" lon="17.969559449044">
        <ele>39.8</ele>
        <time>2019-09-14T15:55:24Z</time>
      </trkpt>
      <trkpt lat="59.222863967364" lon="17.969646872261">
        <ele>39.8</ele>
        <time>2019-09-14T15:55:25Z</time>
      </trkpt>
      <trkpt lat="59.222856591292" lon="17.969727254682">
        <ele>39.8</ele>
        <time>2019-09-14T15:55:26Z</time>
      </trkpt>
      <trkpt lat="59.222844605175" lon="17.969799003746">
        <ele>39.8</ele>
        <time>2019-09-14T15:55:27Z</time>
      </trkpt>
      <trkpt lat="59.222836139456" lon="17.969867567688">
        <ele>39.8</ele>
        <time>2019-09-14T15:55:28Z</time>
      </trkpt>
      <trkpt lat="59.222825410624" lon="17.969930096662">
        <ele>39.8</ele>
        <time>2019-09-14T15:55:29Z</time>
      </trkpt>
      <trkpt lat="59.222816609629" lon="17.969992877093">
        <ele>39.2</ele>
        <time>2019-09-14T15:55:30Z</time>
      </trkpt>
      <trkpt lat="59.222805126426" lon="17.970051885669">
        <ele>39</ele>
        <time>2019-09-14T15:55:31Z</time>
      </trkpt>
      <trkpt lat="59.222795403422" lon="17.970118605593">
        <ele>38.6</ele>
        <time>2019-09-14T15:55:32Z</time>
      </trkpt>
      <trkpt lat="59.222785177504" lon="17.970180799291">
        <ele>38.2</ele>
        <time>2019-09-14T15:55:33Z</time>
      </trkpt>
      <trkpt lat="59.222768916618" lon="17.9702403946">
        <ele>37.8</ele>
        <time>2019-09-14T15:55:34Z</time>
      </trkpt>
      <trkpt lat="59.222756092311" lon="17.970304180859">
        <ele>37.6</ele>
        <time>2019-09-14T15:55:35Z</time>
      </trkpt>
      <trkpt lat="59.222739496149" lon="17.970373163896">
        <ele>37.4</ele>
        <time>2019-09-14T15:55:36Z</time>
      </trkpt>
      <trkpt lat="59.222723905815" lon="17.970444242408">
        <ele>37.2</ele>
        <time>2019-09-14T15:55:37Z</time>
      </trkpt>
      <trkpt lat="59.222714937182" lon="17.970506352287">
        <ele>37</ele>
        <time>2019-09-14T15:55:38Z</time>
      </trkpt>
      <trkpt lat="59.222713512259" lon="17.970564019759">
        <ele>37</ele>
        <time>2019-09-14T15:55:39Z</time>
      </trkpt>
      <trkpt lat="59.22270756111" lon="17.970634260081">
        <ele>36.8</ele>
        <time>2019-09-14T15:55:40Z</time>
      </trkpt>
      <trkpt lat="59.222698005744" lon="17.97070307548">
        <ele>36.8</ele>
        <time>2019-09-14T15:55:41Z</time>
      </trkpt>
      <trkpt lat="59.222691216405" lon="17.970778428761">
        <ele>36.8</ele>
        <time>2019-09-14T15:55:42Z</time>
      </trkpt>
      <trkpt lat="59.222685349075" lon="17.970851938024">
        <ele>36.8</ele>
        <time>2019-09-14T15:55:43Z</time>
      </trkpt>
      <trkpt lat="59.222680152297" lon="17.970927794219">
        <ele>36.8</ele>
        <time>2019-09-14T15:55:44Z</time>
      </trkpt>
      <trkpt lat="59.222674620243" lon="17.970998788912">
        <ele>36.6</ele>
        <time>2019-09-14T15:55:45Z</time>
      </trkpt>
      <trkpt lat="59.22266397523" lon="17.971069448329">
        <ele>36.6</ele>
        <time>2019-09-14T15:55:46Z</time>
      </trkpt>
      <trkpt lat="59.222662215031" lon="17.97114396342">
        <ele>36.6</ele>
        <time>2019-09-14T15:55:47Z</time>
      </trkpt>
      <trkpt lat="59.222660287194" lon="17.971222418004">
        <ele>36.6</ele>
        <time>2019-09-14T15:55:48Z</time>
      </trkpt>
      <trkpt lat="59.22265559333" lon="17.971311349963">
        <ele>36.6</ele>
        <time>2019-09-14T15:55:49Z</time>
      </trkpt>
      <trkpt lat="59.222649893638" lon="17.971387792891">
        <ele>36.6</ele>
        <time>2019-09-14T15:55:50Z</time>
      </trkpt>
      <trkpt lat="59.222645032136" lon="17.971465241647">
        <ele>36.6</ele>
        <time>2019-09-14T15:55:51Z</time>
      </trkpt>
      <trkpt lat="59.222640338272" lon="17.971544366783">
        <ele>36.8</ele>
        <time>2019-09-14T15:55:52Z</time>
      </trkpt>
      <trkpt lat="59.222630615268" lon="17.971623827195">
        <ele>36.8</ele>
        <time>2019-09-14T15:55:53Z</time>
      </trkpt>
      <trkpt lat="59.222624831757" lon="17.971702114141">
        <ele>36.8</ele>
        <time>2019-09-14T15:55:54Z</time>
      </trkpt>
      <trkpt lat="59.2226161984" lon="17.971778221793">
        <ele>36.8</ele>
        <time>2019-09-14T15:55:55Z</time>
      </trkpt>
      <trkpt lat="59.222605553387" lon="17.971848378296">
        <ele>36.6</ele>
        <time>2019-09-14T15:55:56Z</time>
      </trkpt>
      <trkpt lat="59.222601194799" lon="17.971915601134">
        <ele>36.6</ele>
        <time>2019-09-14T15:55:57Z</time>
      </trkpt>
      <trkpt lat="59.222600775704" lon="17.971986092913">
        <ele>36.6</ele>
        <time>2019-09-14T15:55:58Z</time>
      </trkpt>
      <trkpt lat="59.22259859641" lon="17.972063290212">
        <ele>36.6</ele>
        <time>2019-09-14T15:55:59Z</time>
      </trkpt>
      <trkpt lat="59.222597339125" lon="17.972134704">
        <ele>36.6</ele>
        <time>2019-09-14T15:56:00Z</time>
      </trkpt>
      <trkpt lat="59.222592058528" lon="17.972208548539">
        <ele>36.6</ele>
        <time>2019-09-14T15:56:01Z</time>
      </trkpt>
      <trkpt lat="59.222587616121" lon="17.972281806345">
        <ele>36.6</ele>
        <time>2019-09-14T15:56:02Z</time>
      </trkpt>
      <trkpt lat="59.222584598637" lon="17.972354477418">
        <ele>36.6</ele>
        <time>2019-09-14T15:56:03Z</time>
      </trkpt>
      <trkpt lat="59.222582000248" lon="17.972440475712">
        <ele>36.6</ele>
        <time>2019-09-14T15:56:04Z</time>
      </trkpt>
      <trkpt lat="59.222580323868" lon="17.972527563653">
        <ele>36.6</ele>
        <time>2019-09-14T15:56:05Z</time>
      </trkpt>
      <trkpt lat="59.222578396031" lon="17.972616747069">
        <ele>36.6</ele>
        <time>2019-09-14T15:56:06Z</time>
      </trkpt>
      <trkpt lat="59.222576971108" lon="17.972709953797">
        <ele>36.4</ele>
        <time>2019-09-14T15:56:07Z</time>
      </trkpt>
      <trkpt lat="59.2225742889" lon="17.972795868272">
        <ele>36.4</ele>
        <time>2019-09-14T15:56:08Z</time>
      </trkpt>
      <trkpt lat="59.222570265588" lon="17.972876921245">
        <ele>36.4</ele>
        <time>2019-09-14T15:56:09Z</time>
      </trkpt>
      <trkpt lat="59.22256423062" lon="17.972952274526">
        <ele>36.4</ele>
        <time>2019-09-14T15:56:10Z</time>
      </trkpt>
      <trkpt lat="59.222557441281" lon="17.973033662775">
        <ele>36.4</ele>
        <time>2019-09-14T15:56:11Z</time>
      </trkpt>
      <trkpt lat="59.222550316666" lon="17.973106752943">
        <ele>36.2</ele>
        <time>2019-09-14T15:56:12Z</time>
      </trkpt>
      <trkpt lat="59.222541767128" lon="17.973162827854">
        <ele>36.2</ele>
        <time>2019-09-14T15:56:13Z</time>
      </trkpt>
      <trkpt lat="59.22253992311" lon="17.973215047091">
        <ele>36.2</ele>
        <time>2019-09-14T15:56:14Z</time>
      </trkpt>
      <trkpt lat="59.222543694965" lon="17.973261650455">
        <ele>36.2</ele>
        <time>2019-09-14T15:56:15Z</time>
      </trkpt>
      <trkpt lat="59.222547550639" lon="17.973321497221">
        <ele>36.2</ele>
        <time>2019-09-14T15:56:16Z</time>
      </trkpt>
      <trkpt lat="59.222545706621" lon="17.973384780566">
        <ele>36.2</ele>
        <time>2019-09-14T15:56:17Z</time>
      </trkpt>
      <trkpt lat="59.222539839291" lon="17.973448650644">
        <ele>36.2</ele>
        <time>2019-09-14T15:56:18Z</time>
      </trkpt>
      <trkpt lat="59.222531708848" lon="17.973519980613">
        <ele>36.2</ele>
        <time>2019-09-14T15:56:19Z</time>
      </trkpt>
      <trkpt lat="59.2225239975" lon="17.973594411885">
        <ele>36.2</ele>
        <time>2019-09-14T15:56:20Z</time>
      </trkpt>
      <trkpt lat="59.222517124342" lon="17.973665490397">
        <ele>36.2</ele>
        <time>2019-09-14T15:56:21Z</time>
      </trkpt>
      <trkpt lat="59.222507904252" lon="17.973740256945">
        <ele>36.4</ele>
        <time>2019-09-14T15:56:22Z</time>
      </trkpt>
      <trkpt lat="59.2224988518" lon="17.973811335457">
        <ele>36.4</ele>
        <time>2019-09-14T15:56:23Z</time>
      </trkpt>
      <trkpt lat="59.22248879352" lon="17.973881324322">
        <ele>36.4</ele>
        <time>2019-09-14T15:56:24Z</time>
      </trkpt>
      <trkpt lat="59.222481836543" lon="17.973950894092">
        <ele>36.4</ele>
        <time>2019-09-14T15:56:25Z</time>
      </trkpt>
      <trkpt lat="59.222470856254" lon="17.974022475518">
        <ele>36.4</ele>
        <time>2019-09-14T15:56:26Z</time>
      </trkpt>
      <trkpt lat="59.222462139078" lon="17.974092799659">
        <ele>36.4</ele>
        <time>2019-09-14T15:56:27Z</time>
      </trkpt>
      <trkpt lat="59.222453254264" lon="17.974162956162">
        <ele>36.6</ele>
        <time>2019-09-14T15:56:28Z</time>
      </trkpt>
      <trkpt lat="59.222440262319" lon="17.974230346638">
        <ele>36.6</ele>
        <time>2019-09-14T15:56:29Z</time>
      </trkpt>
      <trkpt lat="59.222431209867" lon="17.974297988571">
        <ele>36.6</ele>
        <time>2019-09-14T15:56:30Z</time>
      </trkpt>
      <trkpt lat="59.222424839623" lon="17.974364037943">
        <ele>36.6</ele>
        <time>2019-09-14T15:56:31Z</time>
      </trkpt>
      <trkpt lat="59.222413859334" lon="17.974435870826">
        <ele>36.6</ele>
        <time>2019-09-14T15:56:32Z</time>
      </trkpt>
      <trkpt lat="59.222404387787" lon="17.974519773645">
        <ele>36.6</ele>
        <time>2019-09-14T15:56:33Z</time>
      </trkpt>
      <trkpt lat="59.222388713634" lon="17.974606861586">
        <ele>36.6</ele>
        <time>2019-09-14T15:56:34Z</time>
      </trkpt>
      <trkpt lat="59.222368429436" lon="17.974693949527">
        <ele>36.8</ele>
        <time>2019-09-14T15:56:35Z</time>
      </trkpt>
      <trkpt lat="59.222346720315" lon="17.974792185395">
        <ele>36.8</ele>
        <time>2019-09-14T15:56:36Z</time>
      </trkpt>
      <trkpt lat="59.222321574615" lon="17.974893103471">
        <ele>36.8</ele>
        <time>2019-09-14T15:56:37Z</time>
      </trkpt>
      <trkpt lat="59.222295003992" lon="17.974997458126">
        <ele>36.8</ele>
        <time>2019-09-14T15:56:38Z</time>
      </trkpt>
      <trkpt lat="59.222266254075" lon="17.975104997903">
        <ele>36.8</ele>
        <time>2019-09-14T15:56:39Z</time>
      </trkpt>
      <trkpt lat="59.222236330692" lon="17.975204658694">
        <ele>36.8</ele>
        <time>2019-09-14T15:56:40Z</time>
      </trkpt>
      <trkpt lat="59.222212693734" lon="17.975292920101">
        <ele>36.8</ele>
        <time>2019-09-14T15:56:41Z</time>
      </trkpt>
      <trkpt lat="59.222188553862" lon="17.975376403825">
        <ele>36.6</ele>
        <time>2019-09-14T15:56:42Z</time>
      </trkpt>
      <trkpt lat="59.22216022304" lon="17.975468856182">
        <ele>36.4</ele>
        <time>2019-09-14T15:56:43Z</time>
      </trkpt>
      <trkpt lat="59.222134406788" lon="17.975556949951">
        <ele>36.2</ele>
        <time>2019-09-14T15:56:44Z</time>
      </trkpt>
      <trkpt lat="59.222108925812" lon="17.975645378996">
        <ele>36.2</ele>
        <time>2019-09-14T15:56:45Z</time>
      </trkpt>
      <trkpt lat="59.222081852275" lon="17.975743698683">
        <ele>36</ele>
        <time>2019-09-14T15:56:46Z</time>
      </trkpt>
      <trkpt lat="59.222061148982" lon="17.975844197664">
        <ele>35.8</ele>
        <time>2019-09-14T15:56:47Z</time>
      </trkpt>
      <trkpt lat="59.222042122069" lon="17.975948803776">
        <ele>35.4</ele>
        <time>2019-09-14T15:56:48Z</time>
      </trkpt>
      <trkpt lat="59.222019993853" lon="17.976049805671">
        <ele>35.2</ele>
        <time>2019-09-14T15:56:49Z</time>
      </trkpt>
      <trkpt lat="59.221996189257" lon="17.976146197521">
        <ele>35.2</ele>
        <time>2019-09-14T15:56:50Z</time>
      </trkpt>
      <trkpt lat="59.22196827753" lon="17.976236135308">
        <ele>35</ele>
        <time>2019-09-14T15:56:51Z</time>
      </trkpt>
      <trkpt lat="59.221940868717" lon="17.976325821638">
        <ele>35</ele>
        <time>2019-09-14T15:56:52Z</time>
      </trkpt>
      <trkpt lat="59.221914717189" lon="17.976414921235">
        <ele>35</ele>
        <time>2019-09-14T15:56:53Z</time>
      </trkpt>
      <trkpt lat="59.221890577317" lon="17.976507792687">
        <ele>35</ele>
        <time>2019-09-14T15:56:54Z</time>
      </trkpt>
      <trkpt lat="59.221866521264" lon="17.976602759614">
        <ele>34.8</ele>
        <time>2019-09-14T15:56:55Z</time>
      </trkpt>
      <trkpt lat="59.221840118279" lon="17.976704012966">
        <ele>34.8</ele>
        <time>2019-09-14T15:56:56Z</time>
      </trkpt>
      <trkpt lat="59.221813799113" lon="17.976802667929">
        <ele>34.8</ele>
        <time>2019-09-14T15:56:57Z</time>
      </trkpt>
      <trkpt lat="59.221787060852" lon="17.976901322892">
        <ele>34.8</ele>
        <time>2019-09-14T15:56:58Z</time>
      </trkpt>
      <trkpt lat="59.221759903496" lon="17.976992601783">
        <ele>34.8</ele>
        <time>2019-09-14T15:56:59Z</time>
      </trkpt>
      <trkpt lat="59.22173442252" lon="17.977079857362">
        <ele>34.8</ele>
        <time>2019-09-14T15:57:00Z</time>
      </trkpt>
      <trkpt lat="59.221711539933" lon="17.977163676362">
        <ele>34.8</ele>
        <time>2019-09-14T15:57:01Z</time>
      </trkpt>
      <trkpt lat="59.221689663174" lon="17.977243723507">
        <ele>34.8</ele>
        <time>2019-09-14T15:57:02Z</time>
      </trkpt>
      <trkpt lat="59.221669211338" lon="17.977318238598">
        <ele>34.8</ele>
        <time>2019-09-14T15:57:03Z</time>
      </trkpt>
      <trkpt lat="59.221647418398" lon="17.977391328766">
        <ele>35</ele>
        <time>2019-09-14T15:57:04Z</time>
      </trkpt>
      <trkpt lat="59.221626212191" lon="17.977459389794">
        <ele>35</ele>
        <time>2019-09-14T15:57:05Z</time>
      </trkpt>
      <trkpt lat="59.221605927993" lon="17.977521583492">
        <ele>35.2</ele>
        <time>2019-09-14T15:57:06Z</time>
      </trkpt>
      <trkpt lat="59.221586733442" lon="17.977579753878">
        <ele>35.2</ele>
        <time>2019-09-14T15:57:07Z</time>
      </trkpt>
      <trkpt lat="59.22156929909" lon="17.977634487685">
        <ele>35.4</ele>
        <time>2019-09-14T15:57:08Z</time>
      </trkpt>
      <trkpt lat="59.221552367652" lon="17.977685868732">
        <ele>35.4</ele>
        <time>2019-09-14T15:57:09Z</time>
      </trkpt>
      <trkpt lat="59.221536022947" lon="17.977733561743">
        <ele>35.6</ele>
        <time>2019-09-14T15:57:10Z</time>
      </trkpt>
      <trkpt lat="59.221520600251" lon="17.97777991365">
        <ele>35.6</ele>
        <time>2019-09-14T15:57:11Z</time>
      </trkpt>
      <trkpt lat="59.221509284686" lon="17.977823667168">
        <ele>35.8</ele>
        <time>2019-09-14T15:57:12Z</time>
      </trkpt>
      <trkpt lat="59.221499813139" lon="17.977867336867">
        <ele>35.8</ele>
        <time>2019-09-14T15:57:13Z</time>
      </trkpt>
      <trkpt lat="59.221491598877" lon="17.977904971598">
        <ele>36</ele>
        <time>2019-09-14T15:57:14Z</time>
      </trkpt>
      <trkpt lat="59.221485815366" lon="17.977944701804">
        <ele>36</ele>
        <time>2019-09-14T15:57:15Z</time>
      </trkpt>
      <trkpt lat="59.221479528941" lon="17.977989628788">
        <ele>36.2</ele>
        <time>2019-09-14T15:57:16Z</time>
      </trkpt>
      <trkpt lat="59.221469135385" lon="17.978034807229">
        <ele>36.4</ele>
        <time>2019-09-14T15:57:17Z</time>
      </trkpt>
      <trkpt lat="59.221459831476" lon="17.978086942647">
        <ele>37</ele>
        <time>2019-09-14T15:57:18Z</time>
      </trkpt>
      <trkpt lat="59.221449270282" lon="17.978146370318">
        <ele>37.4</ele>
        <time>2019-09-14T15:57:19Z</time>
      </trkpt>
      <trkpt lat="59.221434266681" lon="17.978206719998">
        <ele>37.8</ele>
        <time>2019-09-14T15:57:20Z</time>
      </trkpt>
      <trkpt lat="59.221414066302" lon="17.978263968375">
        <ele>38</ele>
        <time>2019-09-14T15:57:21Z</time>
      </trkpt>
      <trkpt lat="59.221392776276" lon="17.978317025802">
        <ele>38.2</ele>
        <time>2019-09-14T15:57:22Z</time>
      </trkpt>
      <trkpt lat="59.221373917001" lon="17.978371340514">
        <ele>38.2</ele>
        <time>2019-09-14T15:57:23Z</time>
      </trkpt>
      <trkpt lat="59.221353548984" lon="17.978431019642">
        <ele>38.2</ele>
        <time>2019-09-14T15:57:24Z</time>
      </trkpt>
      <trkpt lat="59.221332510415" lon="17.978494302987">
        <ele>38.2</ele>
        <time>2019-09-14T15:57:25Z</time>
      </trkpt>
      <trkpt lat="59.221313902597" lon="17.978559933264">
        <ele>38.2</ele>
        <time>2019-09-14T15:57:26Z</time>
      </trkpt>
      <trkpt lat="59.221294205132" lon="17.97862648555">
        <ele>38.2</ele>
        <time>2019-09-14T15:57:27Z</time>
      </trkpt>
      <trkpt lat="59.221273334201" lon="17.978696474415">
        <ele>38.2</ele>
        <time>2019-09-14T15:57:28Z</time>
      </trkpt>
      <trkpt lat="59.221250703071" lon="17.978770486592">
        <ele>38.2</ele>
        <time>2019-09-14T15:57:29Z</time>
      </trkpt>
      <trkpt lat="59.221226060285" lon="17.978847348615">
        <ele>38.2</ele>
        <time>2019-09-14T15:57:30Z</time>
      </trkpt>
      <trkpt lat="59.221202088051" lon="17.97892823395">
        <ele>38.2</ele>
        <time>2019-09-14T15:57:31Z</time>
      </trkpt>
      <trkpt lat="59.221179037826" lon="17.979010125113">
        <ele>38</ele>
        <time>2019-09-14T15:57:32Z</time>
      </trkpt>
      <trkpt lat="59.221156239058" lon="17.979089585525">
        <ele>37.8</ele>
        <time>2019-09-14T15:57:33Z</time>
      </trkpt>
      <trkpt lat="59.221132937376" lon="17.979170638498">
        <ele>37.6</ele>
        <time>2019-09-14T15:57:34Z</time>
      </trkpt>
      <trkpt lat="59.22110913278" lon="17.979249009263">
        <ele>37</ele>
        <time>2019-09-14T15:57:35Z</time>
      </trkpt>
      <trkpt lat="59.221088932401" lon="17.979326877114">
        <ele>36.8</ele>
        <time>2019-09-14T15:57:36Z</time>
      </trkpt>
      <trkpt lat="59.221068732022" lon="17.979398039445">
        <ele>36.2</ele>
        <time>2019-09-14T15:57:37Z</time>
      </trkpt>
      <trkpt lat="59.221048615462" lon="17.979473308907">
        <ele>35.8</ele>
        <time>2019-09-14T15:57:38Z</time>
      </trkpt>
      <trkpt lat="59.221029001816" lon="17.979553439871">
        <ele>35.6</ele>
        <time>2019-09-14T15:57:39Z</time>
      </trkpt>
      <trkpt lat="59.221010310179" lon="17.979632900283">
        <ele>35.6</ele>
        <time>2019-09-14T15:57:40Z</time>
      </trkpt>
      <trkpt lat="59.220991869999" lon="17.979712025419">
        <ele>35.4</ele>
        <time>2019-09-14T15:57:41Z</time>
      </trkpt>
      <trkpt lat="59.220973848914" lon="17.979792491659">
        <ele>35.4</ele>
        <time>2019-09-14T15:57:42Z</time>
      </trkpt>
      <trkpt lat="59.220955157277" lon="17.979867090569">
        <ele>35.4</ele>
        <time>2019-09-14T15:57:43Z</time>
      </trkpt>
      <trkpt lat="59.22093730383" lon="17.979937833805">
        <ele>35.4</ele>
        <time>2019-09-14T15:57:44Z</time>
      </trkpt>
      <trkpt lat="59.220920707668" lon="17.980006649204">
        <ele>35.4</ele>
        <time>2019-09-14T15:57:45Z</time>
      </trkpt>
      <trkpt lat="59.220904530601" lon="17.980068926721">
        <ele>35.4</ele>
        <time>2019-09-14T15:57:46Z</time>
      </trkpt>
      <trkpt lat="59.220886341878" lon="17.980134724636">
        <ele>35.4</ele>
        <time>2019-09-14T15:57:47Z</time>
      </trkpt>
      <trkpt lat="59.220868320793" lon="17.980196918334">
        <ele>35.4</ele>
        <time>2019-09-14T15:57:48Z</time>
      </trkpt>
      <trkpt lat="59.220852898097" lon="17.98026011786">
        <ele>35.4</ele>
        <time>2019-09-14T15:57:49Z</time>
      </trkpt>
      <trkpt lat="59.220837140125" lon="17.980323485024">
        <ele>35.4</ele>
        <time>2019-09-14T15:57:50Z</time>
      </trkpt>
      <trkpt lat="59.220819202859" lon="17.980385511084">
        <ele>35.4</ele>
        <time>2019-09-14T15:57:51Z</time>
      </trkpt>
      <trkpt lat="59.220800762679" lon="17.980450638447">
        <ele>35.4</ele>
        <time>2019-09-14T15:57:52Z</time>
      </trkpt>
      <trkpt lat="59.220783160689" lon="17.980512245412">
        <ele>35.6</ele>
        <time>2019-09-14T15:57:53Z</time>
      </trkpt>
      <trkpt lat="59.220765055785" lon="17.980573768558">
        <ele>35.6</ele>
        <time>2019-09-14T15:57:54Z</time>
      </trkpt>
      <trkpt lat="59.2207470347" lon="17.980630765478">
        <ele>35.8</ele>
        <time>2019-09-14T15:57:55Z</time>
      </trkpt>
      <trkpt lat="59.220730103262" lon="17.980687175665">
        <ele>35.8</ele>
        <time>2019-09-14T15:57:56Z</time>
      </trkpt>
      <trkpt lat="59.220717111317" lon="17.98074375349">
        <ele>36</ele>
        <time>2019-09-14T15:57:57Z</time>
      </trkpt>
      <trkpt lat="59.220702945906" lon="17.980796643279">
        <ele>36</ele>
        <time>2019-09-14T15:57:58Z</time>
      </trkpt>
      <trkpt lat="59.22068919959" lon="17.980848191964">
        <ele>36</ele>
        <time>2019-09-14T15:57:59Z</time>
      </trkpt>
      <trkpt lat="59.220676962016" lon="17.980897896631">
        <ele>36.2</ele>
        <time>2019-09-14T15:58:00Z</time>
      </trkpt>
      <trkpt lat="59.220664137709" lon="17.980951959886">
        <ele>36.2</ele>
        <time>2019-09-14T15:58:01Z</time>
      </trkpt>
      <trkpt lat="59.220652486868" lon="17.981008537711">
        <ele>36.4</ele>
        <time>2019-09-14T15:58:02Z</time>
      </trkpt>
      <trkpt lat="59.220640668389" lon="17.981069557943">
        <ele>36.6</ele>
        <time>2019-09-14T15:58:03Z</time>
      </trkpt>
      <trkpt lat="59.220628179358" lon="17.981131667822">
        <ele>36.6</ele>
        <time>2019-09-14T15:58:04Z</time>
      </trkpt>
      <trkpt lat="59.22061627706" lon="17.98119637609">
        <ele>36.8</ele>
        <time>2019-09-14T15:58:05Z</time>
      </trkpt>
      <trkpt lat="59.220605464409" lon="17.981258737426">
        <ele>36.8</ele>
        <time>2019-09-14T15:58:06Z</time>
      </trkpt>
      <trkpt lat="59.220592556283" lon="17.981323026599">
        <ele>37</ele>
        <time>2019-09-14T15:58:07Z</time>
      </trkpt>
      <trkpt lat="59.220579564338" lon="17.981390165618">
        <ele>37</ele>
        <time>2019-09-14T15:58:08Z</time>
      </trkpt>
      <trkpt lat="59.220566991488" lon="17.981454035696">
        <ele>37.2</ele>
        <time>2019-09-14T15:58:09Z</time>
      </trkpt>
      <trkpt lat="59.22055592738" lon="17.98151991743">
        <ele>37.2</ele>
        <time>2019-09-14T15:58:10Z</time>
      </trkpt>
      <trkpt lat="59.22054503091" lon="17.981581440576">
        <ele>37.4</ele>
        <time>2019-09-14T15:58:11Z</time>
      </trkpt>
      <trkpt lat="59.220533380069" lon="17.981640365333">
        <ele>37.4</ele>
        <time>2019-09-14T15:58:12Z</time>
      </trkpt>
      <trkpt lat="59.220522232142" lon="17.98169677552">
        <ele>37.4</ele>
        <time>2019-09-14T15:58:13Z</time>
      </trkpt>
      <trkpt lat="59.22050898874" lon="17.98175041968">
        <ele>37.4</ele>
        <time>2019-09-14T15:58:14Z</time>
      </trkpt>
      <trkpt lat="59.220498176089" lon="17.981807165143">
        <ele>37.4</ele>
        <time>2019-09-14T15:58:15Z</time>
      </trkpt>
      <trkpt lat="59.220485100325" lon="17.981860557846">
        <ele>37.4</ele>
        <time>2019-09-14T15:58:16Z</time>
      </trkpt>
      <trkpt lat="59.220469929086" lon="17.981914118187">
        <ele>37.4</ele>
        <time>2019-09-14T15:58:17Z</time>
      </trkpt>
      <trkpt lat="59.220455009304" lon="17.981970276917">
        <ele>37.2</ele>
        <time>2019-09-14T15:58:18Z</time>
      </trkpt>
      <trkpt lat="59.22044109535" lon="17.982027106199">
        <ele>37.2</ele>
        <time>2019-09-14T15:58:19Z</time>
      </trkpt>
      <trkpt lat="59.220429444509" lon="17.982077481418">
        <ele>37.2</ele>
        <time>2019-09-14T15:58:20Z</time>
      </trkpt>
      <trkpt lat="59.220421481704" lon="17.982125844981">
        <ele>37.2</ele>
        <time>2019-09-14T15:58:21Z</time>
      </trkpt>
      <trkpt lat="59.220417123116" lon="17.98217705839">
        <ele>37.2</ele>
        <time>2019-09-14T15:58:22Z</time>
      </trkpt>
      <trkpt lat="59.220417206935" lon="17.982239168269">
        <ele>37.2</ele>
        <time>2019-09-14T15:58:23Z</time>
      </trkpt>
      <trkpt lat="59.220420811152" lon="17.982327429676">
        <ele>37.2</ele>
        <time>2019-09-14T15:58:24Z</time>
      </trkpt>
      <trkpt lat="59.220420308238" lon="17.982410745762">
        <ele>37.2</ele>
        <time>2019-09-14T15:58:25Z</time>
      </trkpt>
      <trkpt lat="59.220411255786" lon="17.982495738228">
        <ele>37.2</ele>
        <time>2019-09-14T15:58:26Z</time>
      </trkpt>
      <trkpt lat="59.220393486158" lon="17.982578970495">
        <ele>37</ele>
        <time>2019-09-14T15:58:27Z</time>
      </trkpt>
      <trkpt lat="59.220371357942" lon="17.982658933821">
        <ele>37</ele>
        <time>2019-09-14T15:58:28Z</time>
      </trkpt>
      <trkpt lat="59.220349900278" lon="17.982735376749">
        <ele>37</ele>
        <time>2019-09-14T15:58:29Z</time>
      </trkpt>
      <trkpt lat="59.220331711555" lon="17.982809221288">
        <ele>37</ele>
        <time>2019-09-14T15:58:30Z</time>
      </trkpt>
      <trkpt lat="59.220314025746" lon="17.982876527945">
        <ele>36.6</ele>
        <time>2019-09-14T15:58:31Z</time>
      </trkpt>
      <trkpt lat="59.220297094308" lon="17.982940733299">
        <ele>36.2</ele>
        <time>2019-09-14T15:58:32Z</time>
      </trkpt>
      <trkpt lat="59.220282593621" lon="17.983002172626">
        <ele>36</ele>
        <time>2019-09-14T15:58:33Z</time>
      </trkpt>
      <trkpt lat="59.220268092934" lon="17.983058666632">
        <ele>35.8</ele>
        <time>2019-09-14T15:58:34Z</time>
      </trkpt>
      <trkpt lat="59.220251832048" lon="17.983112310792">
        <ele>35.8</ele>
        <time>2019-09-14T15:58:35Z</time>
      </trkpt>
      <trkpt lat="59.22023322423" lon="17.98316444621">
        <ele>35.6</ele>
        <time>2019-09-14T15:58:36Z</time>
      </trkpt>
      <trkpt lat="59.220212772394" lon="17.983215659619">
        <ele>35.6</ele>
        <time>2019-09-14T15:58:37Z</time>
      </trkpt>
      <trkpt lat="59.220191147092" lon="17.983265615743">
        <ele>35.6</ele>
        <time>2019-09-14T15:58:38Z</time>
      </trkpt>
      <trkpt lat="59.220169437971" lon="17.983311045641">
        <ele>35.6</ele>
        <time>2019-09-14T15:58:39Z</time>
      </trkpt>
      <trkpt lat="59.220147896488" lon="17.983351949313">
        <ele>35.6</ele>
        <time>2019-09-14T15:58:40Z</time>
      </trkpt>
      <trkpt lat="59.220126857919" lon="17.983390841329">
        <ele>35.6</ele>
        <time>2019-09-14T15:58:41Z</time>
      </trkpt>
      <trkpt lat="59.220104645884" lon="17.983428140784">
        <ele>35.6</ele>
        <time>2019-09-14T15:58:42Z</time>
      </trkpt>
      <trkpt lat="59.220081176564" lon="17.983464182954">
        <ele>35.8</ele>
        <time>2019-09-14T15:58:43Z</time>
      </trkpt>
      <trkpt lat="59.220057120511" lon="17.983497291459">
        <ele>35.8</ele>
        <time>2019-09-14T15:58:44Z</time>
      </trkpt>
      <trkpt lat="59.220032393906" lon="17.983529310317">
        <ele>35.8</ele>
        <time>2019-09-14T15:58:45Z</time>
      </trkpt>
      <trkpt lat="59.220007332025" lon="17.98355755732">
        <ele>36</ele>
        <time>2019-09-14T15:58:46Z</time>
      </trkpt>
      <trkpt lat="59.219983275972" lon="17.983580523726">
        <ele>36</ele>
        <time>2019-09-14T15:58:47Z</time>
      </trkpt>
      <trkpt lat="59.219959303738" lon="17.98360198139">
        <ele>36</ele>
        <time>2019-09-14T15:58:48Z</time>
      </trkpt>
      <trkpt lat="59.219938097531" lon="17.983616314439">
        <ele>36</ele>
        <time>2019-09-14T15:58:49Z</time>
      </trkpt>
      <trkpt lat="59.219919154437" lon="17.983628216737">
        <ele>36.2</ele>
        <time>2019-09-14T15:58:50Z</time>
      </trkpt>
      <trkpt lat="59.219902474456" lon="17.983643974709">
        <ele>36.2</ele>
        <time>2019-09-14T15:58:51Z</time>
      </trkpt>
      <trkpt lat="59.219889147235" lon="17.983657721025">
        <ele>36.2</ele>
        <time>2019-09-14T15:58:52Z</time>
      </trkpt>
      <trkpt lat="59.219879005136" lon="17.983667192572">
        <ele>36.2</ele>
        <time>2019-09-14T15:58:53Z</time>
      </trkpt>
      <trkpt lat="59.21986861158" lon="17.983676999395">
        <ele>36.4</ele>
        <time>2019-09-14T15:58:54Z</time>
      </trkpt>
      <trkpt lat="59.219856122549" lon="17.983689236969">
        <ele>36.4</ele>
        <time>2019-09-14T15:58:55Z</time>
      </trkpt>
      <trkpt lat="59.219840448396" lon="17.983706084588">
        <ele>36.6</ele>
        <time>2019-09-14T15:58:56Z</time>
      </trkpt>
      <trkpt lat="59.219824355148" lon="17.98372603351">
        <ele>36.6</ele>
        <time>2019-09-14T15:58:57Z</time>
      </trkpt>
      <trkpt lat="59.219810357375" lon="17.983747407355">
        <ele>36.8</ele>
        <time>2019-09-14T15:58:58Z</time>
      </trkpt>
      <trkpt lat="59.219796108145" lon="17.983766518087">
        <ele>37</ele>
        <time>2019-09-14T15:58:59Z</time>
      </trkpt>
      <trkpt lat="59.219781858915" lon="17.983783617163">
        <ele>37.4</ele>
        <time>2019-09-14T15:59:00Z</time>
      </trkpt>
      <trkpt lat="59.219767777323" lon="17.983801135334">
        <ele>37.6</ele>
        <time>2019-09-14T15:59:01Z</time>
      </trkpt>
      <trkpt lat="59.219752270808" lon="17.983819743152">
        <ele>37.8</ele>
        <time>2019-09-14T15:59:02Z</time>
      </trkpt>
      <trkpt lat="59.219733579171" lon="17.983837764237">
        <ele>37.8</ele>
        <time>2019-09-14T15:59:03Z</time>
      </trkpt>
      <trkpt lat="59.219711450955" lon="17.983863077575">
        <ele>37.8</ele>
        <time>2019-09-14T15:59:04Z</time>
      </trkpt>
      <trkpt lat="59.219681779029" lon="17.983892330406">
        <ele>37.8</ele>
        <time>2019-09-14T15:59:05Z</time>
      </trkpt>
      <trkpt lat="59.219654286397" lon="17.983919068667">
        <ele>37.8</ele>
        <time>2019-09-14T15:59:06Z</time>
      </trkpt>
      <trkpt lat="59.219628134869" lon="17.983945974566">
        <ele>37.8</ele>
        <time>2019-09-14T15:59:07Z</time>
      </trkpt>
      <trkpt lat="59.219601648065" lon="17.983973886293">
        <ele>37.8</ele>
        <time>2019-09-14T15:59:08Z</time>
      </trkpt>
      <trkpt lat="59.219574574528" lon="17.98400263621">
        <ele>37.8</ele>
        <time>2019-09-14T15:59:09Z</time>
      </trkpt>
      <trkpt lat="59.21954674662" lon="17.984031889041">
        <ele>37.8</ele>
        <time>2019-09-14T15:59:10Z</time>
      </trkpt>
      <trkpt lat="59.219519337807" lon="17.984066171012">
        <ele>37.8</ele>
        <time>2019-09-14T15:59:11Z</time>
      </trkpt>
      <trkpt lat="59.21949477884" lon="17.984103638105">
        <ele>37.8</ele>
        <time>2019-09-14T15:59:12Z</time>
      </trkpt>
      <trkpt lat="59.219470219873" lon="17.984138003895">
        <ele>37.8</ele>
        <time>2019-09-14T15:59:13Z</time>
      </trkpt>
      <trkpt lat="59.219445577087" lon="17.984168765468">
        <ele>37.8</ele>
        <time>2019-09-14T15:59:14Z</time>
      </trkpt>
      <trkpt lat="59.21942017993" lon="17.984199862317">
        <ele>37.6</ele>
        <time>2019-09-14T15:59:15Z</time>
      </trkpt>
      <trkpt lat="59.219394531316" lon="17.984229618062">
        <ele>37.6</ele>
        <time>2019-09-14T15:59:16Z</time>
      </trkpt>
      <trkpt lat="59.21936905034" lon="17.984255350495">
        <ele>37.6</ele>
        <time>2019-09-14T15:59:17Z</time>
      </trkpt>
      <trkpt lat="59.219345161925" lon="17.98428678262">
        <ele>37.6</ele>
        <time>2019-09-14T15:59:18Z</time>
      </trkpt>
      <trkpt lat="59.219323955718" lon="17.984325255541">
        <ele>37.6</ele>
        <time>2019-09-14T15:59:19Z</time>
      </trkpt>
      <trkpt lat="59.219302246597" lon="17.984360627159">
        <ele>37.6</ele>
        <time>2019-09-14T15:59:20Z</time>
      </trkpt>
      <trkpt lat="59.219280034562" lon="17.984391807827">
        <ele>37.6</ele>
        <time>2019-09-14T15:59:21Z</time>
      </trkpt>
      <trkpt lat="59.219257906346" lon="17.984422653219">
        <ele>37.6</ele>
        <time>2019-09-14T15:59:22Z</time>
      </trkpt>
      <trkpt lat="59.219236448682" lon="17.984451486955">
        <ele>37.8</ele>
        <time>2019-09-14T15:59:23Z</time>
      </trkpt>
      <trkpt lat="59.21921566157" lon="17.984481745614">
        <ele>37.8</ele>
        <time>2019-09-14T15:59:24Z</time>
      </trkpt>
      <trkpt lat="59.21919722139" lon="17.984514854119">
        <ele>37.8</ele>
        <time>2019-09-14T15:59:25Z</time>
      </trkpt>
      <trkpt lat="59.219178362115" lon="17.984549639004">
        <ele>37.8</ele>
        <time>2019-09-14T15:59:26Z</time>
      </trkpt>
      <trkpt lat="59.21915782646" lon="17.984581993138">
        <ele>37.8</ele>
        <time>2019-09-14T15:59:27Z</time>
      </trkpt>
      <trkpt lat="59.219134021864" lon="17.984610240141">
        <ele>37.8</ele>
        <time>2019-09-14T15:59:28Z</time>
      </trkpt>
      <trkpt lat="59.219112312743" lon="17.984635637298">
        <ele>37.8</ele>
        <time>2019-09-14T15:59:29Z</time>
      </trkpt>
      <trkpt lat="59.21909412402" lon="17.984659358075">
        <ele>37.8</ele>
        <time>2019-09-14T15:59:30Z</time>
      </trkpt>
      <trkpt lat="59.219077108763" lon="17.984677462979">
        <ele>37.8</ele>
        <time>2019-09-14T15:59:31Z</time>
      </trkpt>
      <trkpt lat="59.219061266972" lon="17.984691041657">
        <ele>37.8</ele>
        <time>2019-09-14T15:59:32Z</time>
      </trkpt>
      <trkpt lat="59.219038552023" lon="17.984703949783">
        <ele>37.8</ele>
        <time>2019-09-14T15:59:33Z</time>
      </trkpt>
      <trkpt lat="59.219014076875" lon="17.984711912588">
        <ele>37.8</ele>
        <time>2019-09-14T15:59:34Z</time>
      </trkpt>
      <trkpt lat="59.218985075501" lon="17.984724820714">
        <ele>37.8</ele>
        <time>2019-09-14T15:59:35Z</time>
      </trkpt>
      <trkpt lat="59.218964958941" lon="17.984729849854">
        <ele>37.8</ele>
        <time>2019-09-14T15:59:36Z</time>
      </trkpt>
      <trkpt lat="59.218947524589" lon="17.984735717184">
        <ele>37.8</ele>
        <time>2019-09-14T15:59:37Z</time>
      </trkpt>
      <trkpt lat="59.218930760789" lon="17.98474694893">
        <ele>37.6</ele>
        <time>2019-09-14T15:59:38Z</time>
      </trkpt>
      <trkpt lat="59.218919026129" lon="17.984756839572">
        <ele>37.6</ele>
        <time>2019-09-14T15:59:39Z</time>
      </trkpt>
      <trkpt lat="59.218911901514" lon="17.984760946703">
        <ele>37.6</ele>
        <time>2019-09-14T15:59:40Z</time>
      </trkpt>
      <trkpt lat="59.218850881282" lon="17.984722725239">
        <ele>37.4</ele>
        <time>2019-09-14T16:00:13Z</time>
      </trkpt>
      <trkpt lat="59.218835290948" lon="17.984685677241">
        <ele>37.4</ele>
        <time>2019-09-14T16:00:14Z</time>
      </trkpt>
      <trkpt lat="59.218821628451" lon="17.984647707234">
        <ele>37.4</ele>
        <time>2019-09-14T16:00:15Z</time>
      </trkpt>
      <trkpt lat="59.218809726153" lon="17.984605965372">
        <ele>37.4</ele>
        <time>2019-09-14T16:00:16Z</time>
      </trkpt>
      <trkpt lat="59.218799584054" lon="17.984562211854">
        <ele>37.4</ele>
        <time>2019-09-14T16:00:17Z</time>
      </trkpt>
      <trkpt lat="59.218789777231" lon="17.984522900743">
        <ele>37.4</ele>
        <time>2019-09-14T16:00:18Z</time>
      </trkpt>
      <trkpt lat="59.218779132218" lon="17.984479901596">
        <ele>37.4</ele>
        <time>2019-09-14T16:00:19Z</time>
      </trkpt>
      <trkpt lat="59.218766894644" lon="17.984427766178">
        <ele>37.4</ele>
        <time>2019-09-14T16:00:20Z</time>
      </trkpt>
      <trkpt lat="59.218753064509" lon="17.984379654072">
        <ele>37.4</ele>
        <time>2019-09-14T16:00:21Z</time>
      </trkpt>
      <trkpt lat="59.218739066736" lon="17.984329362672">
        <ele>37.4</ele>
        <time>2019-09-14T16:00:22Z</time>
      </trkpt>
      <trkpt lat="59.21872615861" lon="17.984277478711">
        <ele>37.4</ele>
        <time>2019-09-14T16:00:23Z</time>
      </trkpt>
      <trkpt lat="59.218713837217" lon="17.984226013845">
        <ele>37.4</ele>
        <time>2019-09-14T16:00:24Z</time>
      </trkpt>
      <trkpt lat="59.218703192204" lon="17.984172369685">
        <ele>37.4</ele>
        <time>2019-09-14T16:00:25Z</time>
      </trkpt>
      <trkpt lat="59.218693720657" lon="17.984123419389">
        <ele>37.4</ele>
        <time>2019-09-14T16:00:26Z</time>
      </trkpt>
      <trkpt lat="59.218682824187" lon="17.984073463265">
        <ele>37.4</ele>
        <time>2019-09-14T16:00:27Z</time>
      </trkpt>
      <trkpt lat="59.218669329328" lon="17.984018478001">
        <ele>37.6</ele>
        <time>2019-09-14T16:00:28Z</time>
      </trkpt>
      <trkpt lat="59.218653822813" lon="17.983961145805">
        <ele>38</ele>
        <time>2019-09-14T16:00:29Z</time>
      </trkpt>
      <trkpt lat="59.218637981022" lon="17.983905741446">
        <ele>38.2</ele>
        <time>2019-09-14T16:00:30Z</time>
      </trkpt>
      <trkpt lat="59.218624486163" lon="17.983847403422">
        <ele>38.6</ele>
        <time>2019-09-14T16:00:31Z</time>
      </trkpt>
      <trkpt lat="59.218612248589" lon="17.983787305199">
        <ele>38.6</ele>
        <time>2019-09-14T16:00:32Z</time>
      </trkpt>
      <trkpt lat="59.218601016843" lon="17.983728883356">
        <ele>38.8</ele>
        <time>2019-09-14T16:00:33Z</time>
      </trkpt>
      <trkpt lat="59.218590874744" lon="17.983677167033">
        <ele>38.8</ele>
        <time>2019-09-14T16:00:34Z</time>
      </trkpt>
      <trkpt lat="59.218583331034" lon="17.983625785986">
        <ele>39</ele>
        <time>2019-09-14T16:00:35Z</time>
      </trkpt>
      <trkpt lat="59.218575368229" lon="17.983578595889">
        <ele>39</ele>
        <time>2019-09-14T16:00:36Z</time>
      </trkpt>
      <trkpt lat="59.218565645225" lon="17.983529226498">
        <ele>39</ele>
        <time>2019-09-14T16:00:37Z</time>
      </trkpt>
      <trkpt lat="59.218556341316" lon="17.98347876746">
        <ele>39.2</ele>
        <time>2019-09-14T16:00:38Z</time>
      </trkpt>
      <trkpt lat="59.218547205045" lon="17.983430320078">
        <ele>39.2</ele>
        <time>2019-09-14T16:00:39Z</time>
      </trkpt>
      <trkpt lat="59.218539828973" lon="17.983382543248">
        <ele>39.4</ele>
        <time>2019-09-14T16:00:40Z</time>
      </trkpt>
      <trkpt lat="59.218532620539" lon="17.983334263504">
        <ele>39.6</ele>
        <time>2019-09-14T16:00:41Z</time>
      </trkpt>
      <trkpt lat="59.218524657734" lon="17.983284391199">
        <ele>39.8</ele>
        <time>2019-09-14T16:00:42Z</time>
      </trkpt>
      <trkpt lat="59.218517030205" lon="17.983234937989">
        <ele>40</ele>
        <time>2019-09-14T16:00:43Z</time>
      </trkpt>
      <trkpt lat="59.218508564486" lon="17.983186742064">
        <ele>40.4</ele>
        <time>2019-09-14T16:00:44Z</time>
      </trkpt>
      <trkpt lat="59.218501104595" lon="17.983142485632">
        <ele>40.4</ele>
        <time>2019-09-14T16:00:45Z</time>
      </trkpt>
      <trkpt lat="59.218493896161" lon="17.983095798449">
        <ele>40.6</ele>
        <time>2019-09-14T16:00:46Z</time>
      </trkpt>
      <trkpt lat="59.218485765718" lon="17.983053302216">
        <ele>40.8</ele>
        <time>2019-09-14T16:00:47Z</time>
      </trkpt>
      <trkpt lat="59.218480066026" lon="17.983020528987">
        <ele>41</ele>
        <time>2019-09-14T16:00:48Z</time>
      </trkpt>
      <trkpt lat="59.218474785429" lon="17.982990354147">
        <ele>41</ele>
        <time>2019-09-14T16:00:49Z</time>
      </trkpt>
      <trkpt lat="59.218470259203" lon="17.982960346945">
        <ele>41.2</ele>
        <time>2019-09-14T16:00:50Z</time>
      </trkpt>
      <trkpt lat="59.218467325538" lon="17.982932099942">
        <ele>41.6</ele>
        <time>2019-09-14T16:00:51Z</time>
      </trkpt>
      <trkpt lat="59.218463553683" lon="17.982906367509">
        <ele>41.8</ele>
        <time>2019-09-14T16:00:52Z</time>
      </trkpt>
      <trkpt lat="59.218458692181" lon="17.982881473266">
        <ele>42</ele>
        <time>2019-09-14T16:00:53Z</time>
      </trkpt>
      <trkpt lat="59.218453663041" lon="17.982860853792">
        <ele>42</ele>
        <time>2019-09-14T16:00:54Z</time>
      </trkpt>
      <trkpt lat="59.218446370788" lon="17.982837468291">
        <ele>42.2</ele>
        <time>2019-09-14T16:00:55Z</time>
      </trkpt>
      <trkpt lat="59.2184420122" lon="17.982802683406">
        <ele>42.2</ele>
        <time>2019-09-14T16:00:56Z</time>
      </trkpt>
      <trkpt lat="59.21844033582" lon="17.982775274593">
        <ele>42.4</ele>
        <time>2019-09-14T16:00:57Z</time>
      </trkpt>
      <trkpt lat="59.21843614487" lon="17.982751386178">
        <ele>42.6</ele>
        <time>2019-09-14T16:00:58Z</time>
      </trkpt>
      <trkpt lat="59.218429690807" lon="17.98272691103">
        <ele>42.8</ele>
        <time>2019-09-14T16:00:59Z</time>
      </trkpt>
      <trkpt lat="59.218422901468" lon="17.98270511809">
        <ele>43</ele>
        <time>2019-09-14T16:01:00Z</time>
      </trkpt>
      <trkpt lat="59.218417034138" lon="17.982681984046">
        <ele>43.4</ele>
        <time>2019-09-14T16:01:01Z</time>
      </trkpt>
      <trkpt lat="59.218412004998" lon="17.982654491414">
        <ele>43.4</ele>
        <time>2019-09-14T16:01:02Z</time>
      </trkpt>
      <trkpt lat="59.218403874555" lon="17.98262632823">
        <ele>43.4</ele>
        <time>2019-09-14T16:01:03Z</time>
      </trkpt>
      <trkpt lat="59.218395995569" lon="17.982603361824">
        <ele>43.6</ele>
        <time>2019-09-14T16:01:04Z</time>
      </trkpt>
      <trkpt lat="59.218390547334" lon="17.982583161445">
        <ele>43.6</ele>
        <time>2019-09-14T16:01:05Z</time>
      </trkpt>
      <trkpt lat="59.218383841814" lon="17.982558015745">
        <ele>43.6</ele>
        <time>2019-09-14T16:01:06Z</time>
      </trkpt>
      <trkpt lat="59.218378058303" lon="17.982536725719">
        <ele>43.8</ele>
        <time>2019-09-14T16:01:07Z</time>
      </trkpt>
      <trkpt lat="59.218375879009" lon="17.982529014371">
        <ele>44</ele>
        <time>2019-09-14T16:01:08Z</time>
      </trkpt>
      <trkpt lat="59.218375040819" lon="17.982525326335">
        <ele>44.2</ele>
        <time>2019-09-14T16:01:09Z</time>
      </trkpt>
      <trkpt lat="59.218345033617" lon="17.982490289993">
        <ele>44.6</ele>
        <time>2019-09-14T16:03:21Z</time>
      </trkpt>
      <trkpt lat="59.218336567898" lon="17.98246874851">
        <ele>44.6</ele>
        <time>2019-09-14T16:03:22Z</time>
      </trkpt>
      <trkpt lat="59.218329359464" lon="17.982440752964">
        <ele>44.6</ele>
        <time>2019-09-14T16:03:23Z</time>
      </trkpt>
      <trkpt lat="59.218321229021" lon="17.982408482649">
        <ele>44.6</ele>
        <time>2019-09-14T16:03:24Z</time>
      </trkpt>
      <trkpt lat="59.218312511845" lon="17.982376715248">
        <ele>44.6</ele>
        <time>2019-09-14T16:03:25Z</time>
      </trkpt>
      <trkpt lat="59.218302118289" lon="17.982344947847">
        <ele>44.4</ele>
        <time>2019-09-14T16:03:26Z</time>
      </trkpt>
      <trkpt lat="59.218290886543" lon="17.982313012808">
        <ele>44.4</ele>
        <time>2019-09-14T16:03:27Z</time>
      </trkpt>
      <trkpt lat="59.218280828263" lon="17.982280826312">
        <ele>44.4</ele>
        <time>2019-09-14T16:03:28Z</time>
      </trkpt>
      <trkpt lat="59.218272027268" lon="17.982247298712">
        <ele>44.2</ele>
        <time>2019-09-14T16:03:29Z</time>
      </trkpt>
      <trkpt lat="59.218265321748" lon="17.982210669809">
        <ele>44.2</ele>
        <time>2019-09-14T16:03:30Z</time>
      </trkpt>
      <trkpt lat="59.218256939848" lon="17.982174962915">
        <ele>44.2</ele>
        <time>2019-09-14T16:03:31Z</time>
      </trkpt>
      <trkpt lat="59.218246294835" lon="17.98213766346">
        <ele>44.2</ele>
        <time>2019-09-14T16:03:32Z</time>
      </trkpt>
      <trkpt lat="59.218234895451" lon="17.982098855263">
        <ele>44.2</ele>
        <time>2019-09-14T16:03:33Z</time>
      </trkpt>
      <trkpt lat="59.218222825515" lon="17.982061136713">
        <ele>44.2</ele>
        <time>2019-09-14T16:03:34Z</time>
      </trkpt>
      <trkpt lat="59.218210252665" lon="17.98202115505">
        <ele>44</ele>
        <time>2019-09-14T16:03:35Z</time>
      </trkpt>
      <trkpt lat="59.2181989371" lon="17.981981173387">
        <ele>44</ele>
        <time>2019-09-14T16:03:36Z</time>
      </trkpt>
      <trkpt lat="59.21818804063" lon="17.981943538656">
        <ele>44</ele>
        <time>2019-09-14T16:03:37Z</time>
      </trkpt>
      <trkpt lat="59.218176808884" lon="17.981906742115">
        <ele>43.8</ele>
        <time>2019-09-14T16:03:38Z</time>
      </trkpt>
      <trkpt lat="59.218165744776" lon="17.981869023565">
        <ele>43.6</ele>
        <time>2019-09-14T16:03:39Z</time>
      </trkpt>
      <trkpt lat="59.218153339564" lon="17.981831556472">
        <ele>43.6</ele>
        <time>2019-09-14T16:03:40Z</time>
      </trkpt>
      <trkpt lat="59.218140682895" lon="17.981794257017">
        <ele>43.6</ele>
        <time>2019-09-14T16:03:41Z</time>
      </trkpt>
      <trkpt lat="59.218128780597" lon="17.981753856259">
        <ele>43.6</ele>
        <time>2019-09-14T16:03:42Z</time>
      </trkpt>
      <trkpt lat="59.218117045937" lon="17.981711276207">
        <ele>43.6</ele>
        <time>2019-09-14T16:03:43Z</time>
      </trkpt>
      <trkpt lat="59.21810422163" lon="17.981668444698">
        <ele>43.6</ele>
        <time>2019-09-14T16:03:44Z</time>
      </trkpt>
      <trkpt lat="59.2180899724" lon="17.981625864646">
        <ele>43.6</ele>
        <time>2019-09-14T16:03:45Z</time>
      </trkpt>
      <trkpt lat="59.218076309903" lon="17.981582446404">
        <ele>43.6</ele>
        <time>2019-09-14T16:03:46Z</time>
      </trkpt>
      <trkpt lat="59.218066083985" lon="17.981536932687">
        <ele>43.8</ele>
        <time>2019-09-14T16:03:47Z</time>
      </trkpt>
      <trkpt lat="59.218057869723" lon="17.981493682083">
        <ele>43.8</ele>
        <time>2019-09-14T16:03:48Z</time>
      </trkpt>
      <trkpt lat="59.218051080384" lon="17.981456969361">
        <ele>43.8</ele>
        <time>2019-09-14T16:03:49Z</time>
      </trkpt>
      <trkpt lat="59.218044877778" lon="17.981423106485">
        <ele>44</ele>
        <time>2019-09-14T16:03:50Z</time>
      </trkpt>
      <trkpt lat="59.218039513362" lon="17.981394105111">
        <ele>44</ele>
        <time>2019-09-14T16:03:51Z</time>
      </trkpt>
      <trkpt lat="59.218034819498" lon="17.981370803429">
        <ele>44</ele>
        <time>2019-09-14T16:03:52Z</time>
      </trkpt>
      <trkpt lat="59.218030293272" lon="17.981347669385">
        <ele>44.2</ele>
        <time>2019-09-14T16:03:53Z</time>
      </trkpt>
      <trkpt lat="59.218024006847" lon="17.981318584192">
        <ele>44.2</ele>
        <time>2019-09-14T16:03:54Z</time>
      </trkpt>
      <trkpt lat="59.218016714594" lon="17.981283799307">
        <ele>44.4</ele>
        <time>2019-09-14T16:03:55Z</time>
      </trkpt>
      <trkpt lat="59.218008584151" lon="17.981247421861">
        <ele>44.6</ele>
        <time>2019-09-14T16:03:56Z</time>
      </trkpt>
      <trkpt lat="59.218002716821" lon="17.981205512361">
        <ele>44.6</ele>
        <time>2019-09-14T16:03:57Z</time>
      </trkpt>
      <trkpt lat="59.21799693331" lon="17.981151449106">
        <ele>44.8</ele>
        <time>2019-09-14T16:03:58Z</time>
      </trkpt>
      <trkpt lat="59.217987629401" lon="17.981088836313">
        <ele>44.8</ele>
        <time>2019-09-14T16:03:59Z</time>
      </trkpt>
      <trkpt lat="59.217978241673" lon="17.981021110561">
        <ele>44.8</ele>
        <time>2019-09-14T16:04:00Z</time>
      </trkpt>
      <trkpt lat="59.217969692135" lon="17.980950199687">
        <ele>45</ele>
        <time>2019-09-14T16:04:01Z</time>
      </trkpt>
      <trkpt lat="59.217960220588" lon="17.980881468107">
        <ele>44.8</ele>
        <time>2019-09-14T16:04:02Z</time>
      </trkpt>
      <trkpt lat="59.217949240299" lon="17.980821034608">
        <ele>45</ele>
        <time>2019-09-14T16:04:03Z</time>
      </trkpt>
      <trkpt lat="59.217937673277" lon="17.980767641905">
        <ele>45</ele>
        <time>2019-09-14T16:04:04Z</time>
      </trkpt>
      <trkpt lat="59.217925435703" lon="17.980717937238">
        <ele>45</ele>
        <time>2019-09-14T16:04:05Z</time>
      </trkpt>
      <trkpt lat="59.217909845369" lon="17.980669825132">
        <ele>45</ele>
        <time>2019-09-14T16:04:06Z</time>
      </trkpt>
      <trkpt lat="59.217891405189" lon="17.980613331126">
        <ele>44.8</ele>
        <time>2019-09-14T16:04:07Z</time>
      </trkpt>
      <trkpt lat="59.217874054656" lon="17.980567482133">
        <ele>44.4</ele>
        <time>2019-09-14T16:04:08Z</time>
      </trkpt>
      <trkpt lat="59.217856201209" lon="17.98052330952">
        <ele>44.2</ele>
        <time>2019-09-14T16:04:09Z</time>
      </trkpt>
      <trkpt lat="59.217841365246" lon="17.980481902934">
        <ele>44</ele>
        <time>2019-09-14T16:04:10Z</time>
      </trkpt>
      <trkpt lat="59.217828038025" lon="17.980445776945">
        <ele>44</ele>
        <time>2019-09-14T16:04:11Z</time>
      </trkpt>
      <trkpt lat="59.217815381356" lon="17.980414093363">
        <ele>43.8</ele>
        <time>2019-09-14T16:04:12Z</time>
      </trkpt>
      <trkpt lat="59.217803143782" lon="17.980379308478">
        <ele>43.8</ele>
        <time>2019-09-14T16:04:13Z</time>
      </trkpt>
      <trkpt lat="59.217791157665" lon="17.980338991539">
        <ele>43.8</ele>
        <time>2019-09-14T16:04:14Z</time>
      </trkpt>
      <trkpt lat="59.217778500996" lon="17.980299428971">
        <ele>43.8</ele>
        <time>2019-09-14T16:04:15Z</time>
      </trkpt>
      <trkpt lat="59.217764587042" lon="17.980261542783">
        <ele>43.8</ele>
        <time>2019-09-14T16:04:16Z</time>
      </trkpt>
      <trkpt lat="59.217749918717" lon="17.980222315491">
        <ele>43.8</ele>
        <time>2019-09-14T16:04:17Z</time>
      </trkpt>
      <trkpt lat="59.217735669487" lon="17.980181495638">
        <ele>44</ele>
        <time>2019-09-14T16:04:18Z</time>
      </trkpt>
      <trkpt lat="59.217720833524" lon="17.980142268346">
        <ele>44</ele>
        <time>2019-09-14T16:04:19Z</time>
      </trkpt>
      <trkpt lat="59.217708176855" lon="17.98010253814">
        <ele>44</ele>
        <time>2019-09-14T16:04:20Z</time>
      </trkpt>
      <trkpt lat="59.217697196566" lon="17.980059958088">
        <ele>44</ele>
        <time>2019-09-14T16:04:21Z</time>
      </trkpt>
      <trkpt lat="59.217688982304" lon="17.98001536638">
        <ele>44.2</ele>
        <time>2019-09-14T16:04:22Z</time>
      </trkpt>
      <trkpt lat="59.217683869345" lon="17.979969349749">
        <ele>44.4</ele>
        <time>2019-09-14T16:04:23Z</time>
      </trkpt>
      <trkpt lat="59.217679007843" lon="17.9799214891">
        <ele>44.6</ele>
        <time>2019-09-14T16:04:24Z</time>
      </trkpt>
      <trkpt lat="59.217675571264" lon="17.979873628451">
        <ele>44.8</ele>
        <time>2019-09-14T16:04:25Z</time>
      </trkpt>
      <trkpt lat="59.217672386142" lon="17.97982845001">
        <ele>45</ele>
        <time>2019-09-14T16:04:26Z</time>
      </trkpt>
      <trkpt lat="59.217669955391" lon="17.979791821107">
        <ele>45</ele>
        <time>2019-09-14T16:04:27Z</time>
      </trkpt>
      <trkpt lat="59.217669536296" lon="17.979754186376">
        <ele>45</ele>
        <time>2019-09-14T16:04:28Z</time>
      </trkpt>
      <trkpt lat="59.217669536296" lon="17.979703978795">
        <ele>45.2</ele>
        <time>2019-09-14T16:04:29Z</time>
      </trkpt>
      <trkpt lat="59.217672050866" lon="17.979651675739">
        <ele>45.2</ele>
        <time>2019-09-14T16:04:30Z</time>
      </trkpt>
      <trkpt lat="59.21767506835" lon="17.979609766239">
        <ele>45.2</ele>
        <time>2019-09-14T16:04:31Z</time>
      </trkpt>
      <trkpt lat="59.217679426938" lon="17.979571628594">
        <ele>45.2</ele>
        <time>2019-09-14T16:04:32Z</time>
      </trkpt>
      <trkpt lat="59.217688060295" lon="17.979533071854">
        <ele>45.2</ele>
        <time>2019-09-14T16:04:33Z</time>
      </trkpt>
      <trkpt lat="59.217696106919" lon="17.979499292797">
        <ele>45.2</ele>
        <time>2019-09-14T16:04:34Z</time>
      </trkpt>
      <trkpt lat="59.217701471335" lon="17.979467609215">
        <ele>45.2</ele>
        <time>2019-09-14T16:04:35Z</time>
      </trkpt>
      <trkpt lat="59.217705075552" lon="17.979426789362">
        <ele>45.2</ele>
        <time>2019-09-14T16:04:36Z</time>
      </trkpt>
      <trkpt lat="59.217708679769" lon="17.979370295356">
        <ele>45.2</ele>
        <time>2019-09-14T16:04:37Z</time>
      </trkpt>
      <trkpt lat="59.217713373633" lon="17.979313130798">
        <ele>45.2</ele>
        <time>2019-09-14T16:04:38Z</time>
      </trkpt>
      <trkpt lat="59.217719743877" lon="17.979266443615">
        <ele>45.2</ele>
        <time>2019-09-14T16:04:39Z</time>
      </trkpt>
      <trkpt lat="59.217726617035" lon="17.979221097536">
        <ele>45.2</ele>
        <time>2019-09-14T16:04:40Z</time>
      </trkpt>
      <trkpt lat="59.21773457984" lon="17.979174075077">
        <ele>45.2</ele>
        <time>2019-09-14T16:04:41Z</time>
      </trkpt>
      <trkpt lat="59.217744470482" lon="17.979120430917">
        <ele>45.2</ele>
        <time>2019-09-14T16:04:42Z</time>
      </trkpt>
      <trkpt lat="59.217756456599" lon="17.979070390974">
        <ele>45.2</ele>
        <time>2019-09-14T16:04:43Z</time>
      </trkpt>
      <trkpt lat="59.217768694173" lon="17.979024374343">
        <ele>45.2</ele>
        <time>2019-09-14T16:04:44Z</time>
      </trkpt>
      <trkpt lat="59.21778068029" lon="17.978979195902">
        <ele>45.2</ele>
        <time>2019-09-14T16:04:45Z</time>
      </trkpt>
      <trkpt lat="59.217793001683" lon="17.978936867307">
        <ele>45.2</ele>
        <time>2019-09-14T16:04:46Z</time>
      </trkpt>
      <trkpt lat="59.217805071619" lon="17.978895041626">
        <ele>45.2</ele>
        <time>2019-09-14T16:04:47Z</time>
      </trkpt>
      <trkpt lat="59.217814291709" lon="17.978852713031">
        <ele>45.2</ele>
        <time>2019-09-14T16:04:48Z</time>
      </trkpt>
      <trkpt lat="59.217825188179" lon="17.978804768563">
        <ele>45.2</ele>
        <time>2019-09-14T16:04:49Z</time>
      </trkpt>
      <trkpt lat="59.217833234803" lon="17.97875389043">
        <ele>45.2</ele>
        <time>2019-09-14T16:04:50Z</time>
      </trkpt>
      <trkpt lat="59.217837090477" lon="17.978705107772">
        <ele>45.2</ele>
        <time>2019-09-14T16:04:51Z</time>
      </trkpt>
      <trkpt lat="59.217840359418" lon="17.978658001494">
        <ele>45</ele>
        <time>2019-09-14T16:04:52Z</time>
      </trkpt>
      <trkpt lat="59.21784270635" lon="17.978614583252">
        <ele>45</ele>
        <time>2019-09-14T16:04:53Z</time>
      </trkpt>
      <trkpt lat="59.217843963635" lon="17.97856948863">
        <ele>45</ele>
        <time>2019-09-14T16:04:54Z</time>
      </trkpt>
      <trkpt lat="59.217844047454" lon="17.978524142551">
        <ele>45</ele>
        <time>2019-09-14T16:04:55Z</time>
      </trkpt>
      <trkpt lat="59.217843879816" lon="17.97848231687">
        <ele>45</ele>
        <time>2019-09-14T16:04:56Z</time>
      </trkpt>
      <trkpt lat="59.21784522092" lon="17.978434288583">
        <ele>45</ele>
        <time>2019-09-14T16:04:57Z</time>
      </trkpt>
      <trkpt lat="59.217845388558" lon="17.978384835373">
        <ele>45</ele>
        <time>2019-09-14T16:04:58Z</time>
      </trkpt>
      <trkpt lat="59.217842790169" lon="17.978330017747">
        <ele>45</ele>
        <time>2019-09-14T16:04:59Z</time>
      </trkpt>
      <trkpt lat="59.217837425753" lon="17.978272853189">
        <ele>45</ele>
        <time>2019-09-14T16:05:00Z</time>
      </trkpt>
      <trkpt lat="59.217833570079" lon="17.97821325788">
        <ele>45</ele>
        <time>2019-09-14T16:05:01Z</time>
      </trkpt>
      <trkpt lat="59.217829043853" lon="17.978154416942">
        <ele>45</ele>
        <time>2019-09-14T16:05:02Z</time>
      </trkpt>
      <trkpt lat="59.217820745772" lon="17.9780942349">
        <ele>44.8</ele>
        <time>2019-09-14T16:05:03Z</time>
      </trkpt>
      <trkpt lat="59.217811525682" lon="17.978035310143">
        <ele>44.8</ele>
        <time>2019-09-14T16:05:04Z</time>
      </trkpt>
      <trkpt lat="59.217803562877" lon="17.977974122273">
        <ele>44.8</ele>
        <time>2019-09-14T16:05:05Z</time>
      </trkpt>
      <trkpt lat="59.217794761882" lon="17.977912180032">
        <ele>44.8</ele>
        <time>2019-09-14T16:05:06Z</time>
      </trkpt>
      <trkpt lat="59.217785625611" lon="17.977846801212">
        <ele>44.6</ele>
        <time>2019-09-14T16:05:07Z</time>
      </trkpt>
      <trkpt lat="59.217777243711" lon="17.977785110428">
        <ele>44.6</ele>
        <time>2019-09-14T16:05:08Z</time>
      </trkpt>
      <trkpt lat="59.217766011965" lon="17.977720150703">
        <ele>44.6</ele>
        <time>2019-09-14T16:05:09Z</time>
      </trkpt>
      <trkpt lat="59.217753439115" lon="17.977656112987">
        <ele>44.6</ele>
        <time>2019-09-14T16:05:10Z</time>
      </trkpt>
      <trkpt lat="59.21773877079" lon="17.977597942601">
        <ele>44.6</ele>
        <time>2019-09-14T16:05:11Z</time>
      </trkpt>
      <trkpt lat="59.217721001162" lon="17.977541700052">
        <ele>44.6</ele>
        <time>2019-09-14T16:05:12Z</time>
      </trkpt>
      <trkpt lat="59.217705578466" lon="17.97748319439">
        <ele>44.4</ele>
        <time>2019-09-14T16:05:13Z</time>
      </trkpt>
      <trkpt lat="59.217691580693" lon="17.977426281289">
        <ele>44.4</ele>
        <time>2019-09-14T16:05:14Z</time>
      </trkpt>
      <trkpt lat="59.217678253472" lon="17.97736836236">
        <ele>44.4</ele>
        <time>2019-09-14T16:05:15Z</time>
      </trkpt>
      <trkpt lat="59.217666015898" lon="17.977305162834">
        <ele>44.2</ele>
        <time>2019-09-14T16:05:16Z</time>
      </trkpt>
      <trkpt lat="59.217651682849" lon="17.97724514843">
        <ele>44.2</ele>
        <time>2019-09-14T16:05:17Z</time>
      </trkpt>
      <trkpt lat="59.217636763067" lon="17.977184212017">
        <ele>44.2</ele>
        <time>2019-09-14T16:05:18Z</time>
      </trkpt>
      <trkpt lat="59.217623268208" lon="17.977120761034">
        <ele>44.2</ele>
        <time>2019-09-14T16:05:19Z</time>
      </trkpt>
      <trkpt lat="59.217610443901" lon="17.977060243716">
        <ele>44.2</ele>
        <time>2019-09-14T16:05:20Z</time>
      </trkpt>
      <trkpt lat="59.217596027033" lon="17.976997630923">
        <ele>44.2</ele>
        <time>2019-09-14T16:05:21Z</time>
      </trkpt>
      <trkpt lat="59.217582196898" lon="17.976943316211">
        <ele>44.2</ele>
        <time>2019-09-14T16:05:22Z</time>
      </trkpt>
      <trkpt lat="59.217568534401" lon="17.976892521897">
        <ele>44.2</ele>
        <time>2019-09-14T16:05:23Z</time>
      </trkpt>
      <trkpt lat="59.217554955723" lon="17.976846756723">
        <ele>44.2</ele>
        <time>2019-09-14T16:05:24Z</time>
      </trkpt>
      <trkpt lat="59.217543053425" lon="17.976799398988">
        <ele>44.2</ele>
        <time>2019-09-14T16:05:25Z</time>
      </trkpt>
      <trkpt lat="59.217535174439" lon="17.97675732185">
        <ele>44.2</ele>
        <time>2019-09-14T16:05:26Z</time>
      </trkpt>
      <trkpt lat="59.217525199978" lon="17.976716585816">
        <ele>44.2</ele>
        <time>2019-09-14T16:05:27Z</time>
      </trkpt>
      <trkpt lat="59.217514387327" lon="17.97667853199">
        <ele>44.2</ele>
        <time>2019-09-14T16:05:28Z</time>
      </trkpt>
      <trkpt lat="59.217502736486" lon="17.976635700481">
        <ele>44.2</ele>
        <time>2019-09-14T16:05:29Z</time>
      </trkpt>
      <trkpt lat="59.21748982836" lon="17.976600664139">
        <ele>44.2</ele>
        <time>2019-09-14T16:05:30Z</time>
      </trkpt>
      <trkpt lat="59.217479518623" lon="17.976572249498">
        <ele>44.2</ele>
        <time>2019-09-14T16:05:31Z</time>
      </trkpt>
      <trkpt lat="59.217469627981" lon="17.976539727726">
        <ele>44.2</ele>
        <time>2019-09-14T16:05:32Z</time>
      </trkpt>
      <trkpt lat="59.2174613299" lon="17.976503266461">
        <ele>44.2</ele>
        <time>2019-09-14T16:05:33Z</time>
      </trkpt>
      <trkpt lat="59.217449259964" lon="17.976463452436">
        <ele>44.2</ele>
        <time>2019-09-14T16:05:34Z</time>
      </trkpt>
      <trkpt lat="59.217435765105" lon="17.976413999226">
        <ele>44.4</ele>
        <time>2019-09-14T16:05:35Z</time>
      </trkpt>
      <trkpt lat="59.217417911658" lon="17.976368569328">
        <ele>44.4</ele>
        <time>2019-09-14T16:05:36Z</time>
      </trkpt>
      <trkpt lat="59.217407015188" lon="17.976312913512">
        <ele>44.4</ele>
        <time>2019-09-14T16:05:37Z</time>
      </trkpt>
      <trkpt lat="59.217394693795" lon="17.976267064519">
        <ele>44.4</ele>
        <time>2019-09-14T16:05:38Z</time>
      </trkpt>
      <trkpt lat="59.217378432909" lon="17.976221634621">
        <ele>44.4</ele>
        <time>2019-09-14T16:05:39Z</time>
      </trkpt>
      <trkpt lat="59.21736326167" lon="17.97617058885">
        <ele>44.4</ele>
        <time>2019-09-14T16:05:40Z</time>
      </trkpt>
      <trkpt lat="59.217345072947" lon="17.976125578047">
        <ele>44.4</ele>
        <time>2019-09-14T16:05:41Z</time>
      </trkpt>
      <trkpt lat="59.217324118197" lon="17.976083920004">
        <ele>44.6</ele>
        <time>2019-09-14T16:05:42Z</time>
      </trkpt>
      <trkpt lat="59.217304420732" lon="17.976039076839">
        <ele>44.6</ele>
        <time>2019-09-14T16:05:43Z</time>
      </trkpt>
      <trkpt lat="59.217280867593" lon="17.975988785439">
        <ele>44.8</ele>
        <time>2019-09-14T16:05:44Z</time>
      </trkpt>
      <trkpt lat="59.217256057169" lon="17.975938745496">
        <ele>44.8</ele>
        <time>2019-09-14T16:05:45Z</time>
      </trkpt>
      <trkpt lat="59.21723418041" lon="17.975883760232">
        <ele>44.8</ele>
        <time>2019-09-14T16:05:46Z</time>
      </trkpt>
      <trkpt lat="59.217214482945" lon="17.975826428036">
        <ele>44.8</ele>
        <time>2019-09-14T16:05:47Z</time>
      </trkpt>
      <trkpt lat="59.217194701661" lon="17.975767922374">
        <ele>44.8</ele>
        <time>2019-09-14T16:05:48Z</time>
      </trkpt>
      <trkpt lat="59.217168885409" lon="17.975677481673">
        <ele>44.6</ele>
        <time>2019-09-14T16:05:49Z</time>
      </trkpt>
      <trkpt lat="59.217151618695" lon="17.975602128392">
        <ele>44.6</ele>
        <time>2019-09-14T16:05:50Z</time>
      </trkpt>
      <trkpt lat="59.217133513791" lon="17.97552853531">
        <ele>44.6</ele>
        <time>2019-09-14T16:05:51Z</time>
      </trkpt>
      <trkpt lat="59.217120773303" lon="17.975451254192">
        <ele>44.4</ele>
        <time>2019-09-14T16:05:52Z</time>
      </trkpt>
      <trkpt lat="59.217107278444" lon="17.975379421309">
        <ele>44.4</ele>
        <time>2019-09-14T16:05:53Z</time>
      </trkpt>
      <trkpt lat="59.21709671725" lon="17.975315551231">
        <ele>44.4</ele>
        <time>2019-09-14T16:05:54Z</time>
      </trkpt>
      <trkpt lat="59.217083641486" lon="17.975250926782">
        <ele>44.4</ele>
        <time>2019-09-14T16:05:55Z</time>
      </trkpt>
      <trkpt lat="59.217070146627" lon="17.975193846043">
        <ele>44.4</ele>
        <time>2019-09-14T16:05:56Z</time>
      </trkpt>
      <trkpt lat="59.217057825234" lon="17.975135088924">
        <ele>44.4</ele>
        <time>2019-09-14T16:05:57Z</time>
      </trkpt>
      <trkpt lat="59.217047683135" lon="17.975079768384">
        <ele>44.6</ele>
        <time>2019-09-14T16:05:58Z</time>
      </trkpt>
      <trkpt lat="59.217036870484" lon="17.975014138107">
        <ele>44.6</ele>
        <time>2019-09-14T16:05:59Z</time>
      </trkpt>
      <trkpt lat="59.217025722557" lon="17.974954710436">
        <ele>44.6</ele>
        <time>2019-09-14T16:06:00Z</time>
      </trkpt>
      <trkpt lat="59.217010970413" lon="17.974900563362">
        <ele>44.6</ele>
        <time>2019-09-14T16:06:01Z</time>
      </trkpt>
      <trkpt lat="59.217000912133" lon="17.974840046044">
        <ele>44.6</ele>
        <time>2019-09-14T16:06:02Z</time>
      </trkpt>
      <trkpt lat="59.216992362595" lon="17.974774667224">
        <ele>44.6</ele>
        <time>2019-09-14T16:06:03Z</time>
      </trkpt>
      <trkpt lat="59.216981717582" lon="17.974719430503">
        <ele>44.6</ele>
        <time>2019-09-14T16:06:04Z</time>
      </trkpt>
      <trkpt lat="59.21697098875" lon="17.974668217094">
        <ele>44.6</ele>
        <time>2019-09-14T16:06:05Z</time>
      </trkpt>
      <trkpt lat="59.216960259918" lon="17.974626726689">
        <ele>44.6</ele>
        <time>2019-09-14T16:06:06Z</time>
      </trkpt>
      <trkpt lat="59.216951878018" lon="17.974583392266">
        <ele>44.6</ele>
        <time>2019-09-14T16:06:07Z</time>
      </trkpt>
      <trkpt lat="59.216943831394" lon="17.97454450025">
        <ele>44.8</ele>
        <time>2019-09-14T16:06:08Z</time>
      </trkpt>
      <trkpt lat="59.216931845277" lon="17.974512481392">
        <ele>44.8</ele>
        <time>2019-09-14T16:06:09Z</time>
      </trkpt>
      <trkpt lat="59.216920110617" lon="17.97447409229">
        <ele>44.8</ele>
        <time>2019-09-14T16:06:10Z</time>
      </trkpt>
      <trkpt lat="59.216910974346" lon="17.974432266609">
        <ele>44.8</ele>
        <time>2019-09-14T16:06:11Z</time>
      </trkpt>
      <trkpt lat="59.216905693749" lon="17.974392117308">
        <ele>44.8</ele>
        <time>2019-09-14T16:06:12Z</time>
      </trkpt>
      <trkpt lat="59.216902843903" lon="17.974349369618">
        <ele>44.8</ele>
        <time>2019-09-14T16:06:13Z</time>
      </trkpt>
      <trkpt lat="59.216900329333" lon="17.974309555593">
        <ele>44.8</ele>
        <time>2019-09-14T16:06:14Z</time>
      </trkpt>
      <trkpt lat="59.216895048736" lon="17.974258593641">
        <ele>44.8</ele>
        <time>2019-09-14T16:06:15Z</time>
      </trkpt>
      <trkpt lat="59.216891025424" lon="17.974206039128">
        <ele>45</ele>
        <time>2019-09-14T16:06:16Z</time>
      </trkpt>
      <trkpt lat="59.216884319904" lon="17.974147784923">
        <ele>45</ele>
        <time>2019-09-14T16:06:17Z</time>
      </trkpt>
      <trkpt lat="59.216875518909" lon="17.974088441071">
        <ele>45</ele>
        <time>2019-09-14T16:06:18Z</time>
      </trkpt>
      <trkpt lat="59.216864790077" lon="17.974028510486">
        <ele>45</ele>
        <time>2019-09-14T16:06:19Z</time>
      </trkpt>
      <trkpt lat="59.216853809788" lon="17.973967154978">
        <ele>45</ele>
        <time>2019-09-14T16:06:20Z</time>
      </trkpt>
      <trkpt lat="59.216840063472" lon="17.973913007904">
        <ele>45</ele>
        <time>2019-09-14T16:06:21Z</time>
      </trkpt>
      <trkpt lat="59.216827490622" lon="17.973853077319">
        <ele>45</ele>
        <time>2019-09-14T16:06:22Z</time>
      </trkpt>
      <trkpt lat="59.216815504505" lon="17.97378510011">
        <ele>45</ele>
        <time>2019-09-14T16:06:23Z</time>
      </trkpt>
      <trkpt lat="59.216802596379" lon="17.97371720672">
        <ele>45</ele>
        <time>2019-09-14T16:06:24Z</time>
      </trkpt>
      <trkpt lat="59.216797567239" lon="17.973646966398">
        <ele>44.8</ele>
        <time>2019-09-14T16:06:25Z</time>
      </trkpt>
      <trkpt lat="59.216785329665" lon="17.973565326692">
        <ele>44.8</ele>
        <time>2019-09-14T16:06:26Z</time>
      </trkpt>
      <trkpt lat="59.216768314408" lon="17.973470527403">
        <ele>44.8</ele>
        <time>2019-09-14T16:06:27Z</time>
      </trkpt>
      <trkpt lat="59.216755154825" lon="17.973368352042">
        <ele>44.8</ele>
        <time>2019-09-14T16:06:28Z</time>
      </trkpt>
      <trkpt lat="59.216740989414" lon="17.973273468934">
        <ele>44.8</ele>
        <time>2019-09-14T16:06:29Z</time>
      </trkpt>
      <trkpt lat="59.216726069632" lon="17.97318663245">
        <ele>44.6</ele>
        <time>2019-09-14T16:06:30Z</time>
      </trkpt>
      <trkpt lat="59.216709138194" lon="17.973106585305">
        <ele>44.6</ele>
        <time>2019-09-14T16:06:31Z</time>
      </trkpt>
      <trkpt lat="59.216692458213" lon="17.973032656947">
        <ele>44.6</ele>
        <time>2019-09-14T16:06:32Z</time>
      </trkpt>
      <trkpt lat="59.216681645562" lon="17.972958896227">
        <ele>44.6</ele>
        <time>2019-09-14T16:06:33Z</time>
      </trkpt>
      <trkpt lat="59.216672425472" lon="17.97288823681">
        <ele>44.6</ele>
        <time>2019-09-14T16:06:34Z</time>
      </trkpt>
      <trkpt lat="59.216664881762" lon="17.972815817194">
        <ele>44.6</ele>
        <time>2019-09-14T16:06:35Z</time>
      </trkpt>
      <trkpt lat="59.216659014432" lon="17.97274574451">
        <ele>44.6</ele>
        <time>2019-09-14T16:06:36Z</time>
      </trkpt>
      <trkpt lat="59.216653817654" lon="17.97266863103">
        <ele>44.6</ele>
        <time>2019-09-14T16:06:37Z</time>
      </trkpt>
      <trkpt lat="59.216645351935" lon="17.972593026292">
        <ele>44.6</ele>
        <time>2019-09-14T16:06:38Z</time>
      </trkpt>
      <trkpt lat="59.216636970035" lon="17.972520690495">
        <ele>44.6</ele>
        <time>2019-09-14T16:06:39Z</time>
      </trkpt>
      <trkpt lat="59.216628336678" lon="17.972449360526">
        <ele>44.6</ele>
        <time>2019-09-14T16:06:40Z</time>
      </trkpt>
      <trkpt lat="59.216619032769" lon="17.972379539299">
        <ele>44.6</ele>
        <time>2019-09-14T16:06:41Z</time>
      </trkpt>
      <trkpt lat="59.216610650869" lon="17.972296726127">
        <ele>44.4</ele>
        <time>2019-09-14T16:06:42Z</time>
      </trkpt>
      <trkpt lat="59.216600005856" lon="17.972221205208">
        <ele>44.4</ele>
        <time>2019-09-14T16:06:43Z</time>
      </trkpt>
      <trkpt lat="59.216588438834" lon="17.972146941574">
        <ele>44.4</ele>
        <time>2019-09-14T16:06:44Z</time>
      </trkpt>
      <trkpt lat="59.216577123269" lon="17.972073683768">
        <ele>44.2</ele>
        <time>2019-09-14T16:06:45Z</time>
      </trkpt>
      <trkpt lat="59.216564131324" lon="17.97200143179">
        <ele>44</ele>
        <time>2019-09-14T16:06:46Z</time>
      </trkpt>
      <trkpt lat="59.216547283705" lon="17.971934963323">
        <ele>43.8</ele>
        <time>2019-09-14T16:06:47Z</time>
      </trkpt>
      <trkpt lat="59.216528927344" lon="17.971870087417">
        <ele>43.8</ele>
        <time>2019-09-14T16:06:48Z</time>
      </trkpt>
      <trkpt lat="59.216510403345" lon="17.971810408289">
        <ele>43.8</ele>
        <time>2019-09-14T16:06:49Z</time>
      </trkpt>
      <trkpt lat="59.216491376432" lon="17.971759362518">
        <ele>43.8</ele>
        <time>2019-09-14T16:06:50Z</time>
      </trkpt>
      <trkpt lat="59.216472684795" lon="17.971710747498">
        <ele>43.8</ele>
        <time>2019-09-14T16:06:51Z</time>
      </trkpt>
      <trkpt lat="59.216455585719" lon="17.971658695899">
        <ele>43.8</ele>
        <time>2019-09-14T16:06:52Z</time>
      </trkpt>
      <trkpt lat="59.216439324833" lon="17.971600944608">
        <ele>43.8</ele>
        <time>2019-09-14T16:06:53Z</time>
      </trkpt>
      <trkpt lat="59.216425075603" lon="17.97153875091">
        <ele>43.8</ele>
        <time>2019-09-14T16:06:54Z</time>
      </trkpt>
      <trkpt lat="59.216410826373" lon="17.97147421028">
        <ele>43.8</ele>
        <time>2019-09-14T16:06:55Z</time>
      </trkpt>
      <trkpt lat="59.216395655134" lon="17.971408328546">
        <ele>43.8</ele>
        <time>2019-09-14T16:06:56Z</time>
      </trkpt>
      <trkpt lat="59.216381908818" lon="17.971345631934">
        <ele>43.8</ele>
        <time>2019-09-14T16:06:57Z</time>
      </trkpt>
      <trkpt lat="59.216369503606" lon="17.971288718833">
        <ele>43.8</ele>
        <time>2019-09-14T16:06:58Z</time>
      </trkpt>
      <trkpt lat="59.216360618792" lon="17.971238762709">
        <ele>43.8</ele>
        <time>2019-09-14T16:06:59Z</time>
      </trkpt>
      <trkpt lat="59.216357349851" lon="17.971197859037">
        <ele>43.8</ele>
        <time>2019-09-14T16:07:00Z</time>
      </trkpt>
      <trkpt lat="59.216357098394" lon="17.971158547926">
        <ele>44</ele>
        <time>2019-09-14T16:07:01Z</time>
      </trkpt>
      <trkpt lat="59.216357936584" lon="17.971120913195">
        <ele>44</ele>
        <time>2019-09-14T16:07:02Z</time>
      </trkpt>
      <trkpt lat="59.216359361507" lon="17.971085960672">
        <ele>44</ele>
        <time>2019-09-14T16:07:03Z</time>
      </trkpt>
      <trkpt lat="59.216360702611" lon="17.971040782231">
        <ele>44</ele>
        <time>2019-09-14T16:07:04Z</time>
      </trkpt>
      <trkpt lat="59.21635827186" lon="17.970984623501">
        <ele>44</ele>
        <time>2019-09-14T16:07:05Z</time>
      </trkpt>
      <trkpt lat="59.216350644331" lon="17.970927123667">
        <ele>44</ele>
        <time>2019-09-14T16:07:06Z</time>
      </trkpt>
      <trkpt lat="59.216339412585" lon="17.970868031272">
        <ele>44</ele>
        <time>2019-09-14T16:07:07Z</time>
      </trkpt>
      <trkpt lat="59.21632642064" lon="17.970808352144">
        <ele>44</ele>
        <time>2019-09-14T16:07:08Z</time>
      </trkpt>
      <trkpt lat="59.216312422867" lon="17.970748924473">
        <ele>44</ele>
        <time>2019-09-14T16:07:09Z</time>
      </trkpt>
      <trkpt lat="59.216299430922" lon="17.970688407155">
        <ele>44</ele>
        <time>2019-09-14T16:07:10Z</time>
      </trkpt>
      <trkpt lat="59.216290294651" lon="17.970630907321">
        <ele>44</ele>
        <time>2019-09-14T16:07:11Z</time>
      </trkpt>
      <trkpt lat="59.216284427321" lon="17.970576592609">
        <ele>44</ele>
        <time>2019-09-14T16:07:12Z</time>
      </trkpt>
      <trkpt lat="59.216278559991" lon="17.97053124653">
        <ele>44</ele>
        <time>2019-09-14T16:07:13Z</time>
      </trkpt>
      <trkpt lat="59.216271351557" lon="17.970492438333">
        <ele>44</ele>
        <time>2019-09-14T16:07:14Z</time>
      </trkpt>
      <trkpt lat="59.216265065132" lon="17.97045329486">
        <ele>44.2</ele>
        <time>2019-09-14T16:07:15Z</time>
      </trkpt>
      <trkpt lat="59.216257605241" lon="17.970411972093">
        <ele>44.2</ele>
        <time>2019-09-14T16:07:16Z</time>
      </trkpt>
      <trkpt lat="59.216247798418" lon="17.970367715661">
        <ele>44.2</ele>
        <time>2019-09-14T16:07:17Z</time>
      </trkpt>
      <trkpt lat="59.216236901948" lon="17.970323207772">
        <ele>44.4</ele>
        <time>2019-09-14T16:07:18Z</time>
      </trkpt>
      <trkpt lat="59.216226843668" lon="17.970276855865">
        <ele>44.4</ele>
        <time>2019-09-14T16:07:19Z</time>
      </trkpt>
      <trkpt lat="59.216220054329" lon="17.970228240845">
        <ele>44.4</ele>
        <time>2019-09-14T16:07:20Z</time>
      </trkpt>
      <trkpt lat="59.216217791216" lon="17.970174345228">
        <ele>44.4</ele>
        <time>2019-09-14T16:07:21Z</time>
      </trkpt>
      <trkpt lat="59.21621577956" lon="17.970119443783">
        <ele>44.4</ele>
        <time>2019-09-14T16:07:22Z</time>
      </trkpt>
      <trkpt lat="59.216209576954" lon="17.97006605108">
        <ele>44.4</ele>
        <time>2019-09-14T16:07:23Z</time>
      </trkpt>
      <trkpt lat="59.216201865606" lon="17.970015927318">
        <ele>44.4</ele>
        <time>2019-09-14T16:07:24Z</time>
      </trkpt>
      <trkpt lat="59.216194070439" lon="17.96996546828">
        <ele>44.6</ele>
        <time>2019-09-14T16:07:25Z</time>
      </trkpt>
      <trkpt lat="59.216186275272" lon="17.969912494672">
        <ele>44.6</ele>
        <time>2019-09-14T16:07:26Z</time>
      </trkpt>
      <trkpt lat="59.216177558096" lon="17.969855330114">
        <ele>44.6</ele>
        <time>2019-09-14T16:07:27Z</time>
      </trkpt>
      <trkpt lat="59.216167667454" lon="17.969796824452">
        <ele>44.6</ele>
        <time>2019-09-14T16:07:28Z</time>
      </trkpt>
      <trkpt lat="59.21615710626" lon="17.969739911351">
        <ele>44.8</ele>
        <time>2019-09-14T16:07:29Z</time>
      </trkpt>
      <trkpt lat="59.216146125971" lon="17.969681070413">
        <ele>44.8</ele>
        <time>2019-09-14T16:07:30Z</time>
      </trkpt>
      <trkpt lat="59.216135145682" lon="17.969621307466">
        <ele>44.8</ele>
        <time>2019-09-14T16:07:31Z</time>
      </trkpt>
      <trkpt lat="59.216126260868" lon="17.969564059089">
        <ele>44.8</ele>
        <time>2019-09-14T16:07:32Z</time>
      </trkpt>
      <trkpt lat="59.216114861484" lon="17.96950781654">
        <ele>44.8</ele>
        <time>2019-09-14T16:07:33Z</time>
      </trkpt>
      <trkpt lat="59.2161034621" lon="17.969447885955">
        <ele>44.8</ele>
        <time>2019-09-14T16:07:34Z</time>
      </trkpt>
      <trkpt lat="59.216094158191" lon="17.969397007822">
        <ele>44.8</ele>
        <time>2019-09-14T16:07:35Z</time>
      </trkpt>
      <trkpt lat="59.216086279205" lon="17.969349147173">
        <ele>45</ele>
        <time>2019-09-14T16:07:36Z</time>
      </trkpt>
      <trkpt lat="59.216078484038" lon="17.969301873257">
        <ele>45</ele>
        <time>2019-09-14T16:07:37Z</time>
      </trkpt>
      <trkpt lat="59.216072532889" lon="17.969273207159">
        <ele>45</ele>
        <time>2019-09-14T16:07:38Z</time>
      </trkpt>
      <trkpt lat="59.216067084654" lon="17.9692429485">
        <ele>45</ele>
        <time>2019-09-14T16:07:39Z</time>
      </trkpt>
      <trkpt lat="59.216062139333" lon="17.969203050656">
        <ele>45</ele>
        <time>2019-09-14T16:07:40Z</time>
      </trkpt>
      <trkpt lat="59.216055098537" lon="17.969154016541">
        <ele>45</ele>
        <time>2019-09-14T16:07:41Z</time>
      </trkpt>
      <trkpt lat="59.216049398845" lon="17.969100540019">
        <ele>45</ele>
        <time>2019-09-14T16:07:42Z</time>
      </trkpt>
      <trkpt lat="59.216040681669" lon="17.969053433741">
        <ele>45</ele>
        <time>2019-09-14T16:07:43Z</time>
      </trkpt>
      <trkpt lat="59.216036490719" lon="17.968999705762">
        <ele>45.2</ele>
        <time>2019-09-14T16:07:44Z</time>
      </trkpt>
      <trkpt lat="59.216029785199" lon="17.968940026634">
        <ele>45.2</ele>
        <time>2019-09-14T16:07:45Z</time>
      </trkpt>
      <trkpt lat="59.216025426611" lon="17.968889064682">
        <ele>45.2</ele>
        <time>2019-09-14T16:07:46Z</time>
      </trkpt>
      <trkpt lat="59.216017882901" lon="17.968837851273">
        <ele>45.2</ele>
        <time>2019-09-14T16:07:47Z</time>
      </trkpt>
      <trkpt lat="59.216008076078" lon="17.968772053358">
        <ele>45.2</ele>
        <time>2019-09-14T16:07:48Z</time>
      </trkpt>
      <trkpt lat="59.215998939807" lon="17.968701142484">
        <ele>45.4</ele>
        <time>2019-09-14T16:07:49Z</time>
      </trkpt>
      <trkpt lat="59.215989803536" lon="17.968625370108">
        <ele>45.4</ele>
        <time>2019-09-14T16:07:50Z</time>
      </trkpt>
      <trkpt lat="59.215982008369" lon="17.968546077334">
        <ele>45.6</ele>
        <time>2019-09-14T16:07:51Z</time>
      </trkpt>
      <trkpt lat="59.215973877926" lon="17.968471226967">
        <ele>45.6</ele>
        <time>2019-09-14T16:07:52Z</time>
      </trkpt>
      <trkpt lat="59.215970944261" lon="17.968391598917">
        <ele>45.6</ele>
        <time>2019-09-14T16:07:53Z</time>
      </trkpt>
      <trkpt lat="59.215968597329" lon="17.968318089654">
        <ele>45.6</ele>
        <time>2019-09-14T16:07:54Z</time>
      </trkpt>
      <trkpt lat="59.215968010596" lon="17.968245250943">
        <ele>45.6</ele>
        <time>2019-09-14T16:07:55Z</time>
      </trkpt>
      <trkpt lat="59.215965747483" lon="17.968171490223">
        <ele>45.6</ele>
        <time>2019-09-14T16:07:56Z</time>
      </trkpt>
      <trkpt lat="59.215965747483" lon="17.968098148598">
        <ele>45.8</ele>
        <time>2019-09-14T16:07:57Z</time>
      </trkpt>
      <trkpt lat="59.215964238741" lon="17.968029081742">
        <ele>45.8</ele>
        <time>2019-09-14T16:07:58Z</time>
      </trkpt>
      <trkpt lat="59.215960802162" lon="17.967960098705">
        <ele>45.8</ele>
        <time>2019-09-14T16:07:59Z</time>
      </trkpt>
      <trkpt lat="59.215958539049" lon="17.967888517279">
        <ele>45.8</ele>
        <time>2019-09-14T16:08:00Z</time>
      </trkpt>
      <trkpt lat="59.215955353927" lon="17.967821210622">
        <ele>45.8</ele>
        <time>2019-09-14T16:08:01Z</time>
      </trkpt>
      <trkpt lat="59.215954599556" lon="17.967746024979">
        <ele>46</ele>
        <time>2019-09-14T16:08:02Z</time>
      </trkpt>
      <trkpt lat="59.215948983683" lon="17.967676203752">
        <ele>46</ele>
        <time>2019-09-14T16:08:03Z</time>
      </trkpt>
      <trkpt lat="59.215942445801" lon="17.967601185747">
        <ele>46</ele>
        <time>2019-09-14T16:08:04Z</time>
      </trkpt>
      <trkpt lat="59.215938422489" lon="17.967523401715">
        <ele>46</ele>
        <time>2019-09-14T16:08:05Z</time>
      </trkpt>
      <trkpt lat="59.215932052245" lon="17.967448802805">
        <ele>46</ele>
        <time>2019-09-14T16:08:06Z</time>
      </trkpt>
      <trkpt lat="59.215924340897" lon="17.967379903587">
        <ele>46</ele>
        <time>2019-09-14T16:08:07Z</time>
      </trkpt>
      <trkpt lat="59.215916042816" lon="17.967318883355">
        <ele>46</ele>
        <time>2019-09-14T16:08:08Z</time>
      </trkpt>
      <trkpt lat="59.21590816383" lon="17.967256941114">
        <ele>46</ele>
        <time>2019-09-14T16:08:09Z</time>
      </trkpt>
      <trkpt lat="59.215902883233" lon="17.967185694964">
        <ele>46</ele>
        <time>2019-09-14T16:08:10Z</time>
      </trkpt>
      <trkpt lat="59.215895255704" lon="17.967119897049">
        <ele>46</ele>
        <time>2019-09-14T16:08:11Z</time>
      </trkpt>
      <trkpt lat="59.215886454709" lon="17.967057368075">
        <ele>46.2</ele>
        <time>2019-09-14T16:08:12Z</time>
      </trkpt>
      <trkpt lat="59.215877402257" lon="17.967001460802">
        <ele>46.2</ele>
        <time>2019-09-14T16:08:13Z</time>
      </trkpt>
      <trkpt lat="59.215866002873" lon="17.966937926">
        <ele>46.2</ele>
        <time>2019-09-14T16:08:14Z</time>
      </trkpt>
      <trkpt lat="59.215855525498" lon="17.966868691506">
        <ele>46.2</ele>
        <time>2019-09-14T16:08:15Z</time>
      </trkpt>
      <trkpt lat="59.215847059779" lon="17.96680046284">
        <ele>46.2</ele>
        <time>2019-09-14T16:08:16Z</time>
      </trkpt>
      <trkpt lat="59.215837672051" lon="17.966732234174">
        <ele>46.2</ele>
        <time>2019-09-14T16:08:17Z</time>
      </trkpt>
      <trkpt lat="59.215828954875" lon="17.966677835643">
        <ele>46.4</ele>
        <time>2019-09-14T16:08:18Z</time>
      </trkpt>
      <trkpt lat="59.215822500812" lon="17.966637267247">
        <ele>46.4</ele>
        <time>2019-09-14T16:08:19Z</time>
      </trkpt>
      <trkpt lat="59.215817806948" lon="17.966593849005">
        <ele>46.6</ele>
        <time>2019-09-14T16:08:20Z</time>
      </trkpt>
      <trkpt lat="59.215811101428" lon="17.966545066347">
        <ele>46.8</ele>
        <time>2019-09-14T16:08:21Z</time>
      </trkpt>
      <trkpt lat="59.215803641537" lon="17.966502151019">
        <ele>47</ele>
        <time>2019-09-14T16:08:22Z</time>
      </trkpt>
      <trkpt lat="59.215796768379" lon="17.966450602334">
        <ele>47</ele>
        <time>2019-09-14T16:08:23Z</time>
      </trkpt>
      <trkpt lat="59.215792325972" lon="17.966395700889">
        <ele>47.2</ele>
        <time>2019-09-14T16:08:24Z</time>
      </trkpt>
      <trkpt lat="59.215790314316" lon="17.966338033417">
        <ele>47.2</ele>
        <time>2019-09-14T16:08:25Z</time>
      </trkpt>
      <trkpt lat="59.215786877737" lon="17.966272738416">
        <ele>47.2</ele>
        <time>2019-09-14T16:08:26Z</time>
      </trkpt>
      <trkpt lat="59.21577992076" lon="17.966200151162">
        <ele>47.2</ele>
        <time>2019-09-14T16:08:27Z</time>
      </trkpt>
      <trkpt lat="59.215774975439" lon="17.966135107618">
        <ele>47.2</ele>
        <time>2019-09-14T16:08:28Z</time>
      </trkpt>
      <trkpt lat="59.215770784489" lon="17.966065537848">
        <ele>47.2</ele>
        <time>2019-09-14T16:08:29Z</time>
      </trkpt>
      <trkpt lat="59.215765168616" lon="17.965993034413">
        <ele>47.2</ele>
        <time>2019-09-14T16:08:30Z</time>
      </trkpt>
      <trkpt lat="59.215757792544" lon="17.965922207358">
        <ele>47.2</ele>
        <time>2019-09-14T16:08:31Z</time>
      </trkpt>
      <trkpt lat="59.215752679585" lon="17.965854062511">
        <ele>47.2</ele>
        <time>2019-09-14T16:08:32Z</time>
      </trkpt>
      <trkpt lat="59.215743710952" lon="17.96578709113">
        <ele>47.2</ele>
        <time>2019-09-14T16:08:33Z</time>
      </trkpt>
      <trkpt lat="59.215733149758" lon="17.965720119749">
        <ele>47</ele>
        <time>2019-09-14T16:08:34Z</time>
      </trkpt>
      <trkpt lat="59.215723594392" lon="17.965652645454">
        <ele>47</ele>
        <time>2019-09-14T16:08:35Z</time>
      </trkpt>
      <trkpt lat="59.215713284655" lon="17.96558676372">
        <ele>47</ele>
        <time>2019-09-14T16:08:36Z</time>
      </trkpt>
      <trkpt lat="59.215704651298" lon="17.965519959977">
        <ele>47</ele>
        <time>2019-09-14T16:08:37Z</time>
      </trkpt>
      <trkpt lat="59.21569610176" lon="17.965450557845">
        <ele>47</ele>
        <time>2019-09-14T16:08:38Z</time>
      </trkpt>
      <trkpt lat="59.215684618557" lon="17.965381826265">
        <ele>47</ele>
        <time>2019-09-14T16:08:39Z</time>
      </trkpt>
      <trkpt lat="59.215675314648" lon="17.965313681418">
        <ele>46.8</ele>
        <time>2019-09-14T16:08:40Z</time>
      </trkpt>
      <trkpt lat="59.215667687119" lon="17.965243189639">
        <ele>46.8</ele>
        <time>2019-09-14T16:08:41Z</time>
      </trkpt>
      <trkpt lat="59.215658467029" lon="17.965186695633">
        <ele>46.8</ele>
        <time>2019-09-14T16:08:42Z</time>
      </trkpt>
      <trkpt lat="59.215651929147" lon="17.96512995017">
        <ele>46.8</ele>
        <time>2019-09-14T16:08:43Z</time>
      </trkpt>
      <trkpt lat="59.215643966342" lon="17.965083095349">
        <ele>46.8</ele>
        <time>2019-09-14T16:08:44Z</time>
      </trkpt>
      <trkpt lat="59.215638015193" lon="17.965040180021">
        <ele>46.8</ele>
        <time>2019-09-14T16:08:45Z</time>
      </trkpt>
      <trkpt lat="59.215636338813" lon="17.964994750123">
        <ele>46.8</ele>
        <time>2019-09-14T16:08:46Z</time>
      </trkpt>
      <trkpt lat="59.215630555302" lon="17.964959294686">
        <ele>46.8</ele>
        <time>2019-09-14T16:08:47Z</time>
      </trkpt>
      <trkpt lat="59.215628376008" lon="17.964909338562">
        <ele>46.8</ele>
        <time>2019-09-14T16:08:48Z</time>
      </trkpt>
      <trkpt lat="59.21562737018" lon="17.964862148465">
        <ele>47</ele>
        <time>2019-09-14T16:08:49Z</time>
      </trkpt>
      <trkpt lat="59.215623682144" lon="17.964818227309">
        <ele>47</ele>
        <time>2019-09-14T16:08:50Z</time>
      </trkpt>
      <trkpt lat="59.215615970796" lon="17.964774138515">
        <ele>47</ele>
        <time>2019-09-14T16:08:51Z</time>
      </trkpt>
      <trkpt lat="59.215608175629" lon="17.964727870427">
        <ele>47</ele>
        <time>2019-09-14T16:08:52Z</time>
      </trkpt>
      <trkpt lat="59.215601470109" lon="17.964670705869">
        <ele>47.2</ele>
        <time>2019-09-14T16:08:53Z</time>
      </trkpt>
      <trkpt lat="59.215595267503" lon="17.964616642614">
        <ele>47.2</ele>
        <time>2019-09-14T16:08:54Z</time>
      </trkpt>
      <trkpt lat="59.215587053241" lon="17.964562244083">
        <ele>47.2</ele>
        <time>2019-09-14T16:08:55Z</time>
      </trkpt>
      <trkpt lat="59.215578084608" lon="17.964503989878">
        <ele>47.2</ele>
        <time>2019-09-14T16:08:56Z</time>
      </trkpt>
      <trkpt lat="59.215568529242" lon="17.964449591347">
        <ele>47.2</ele>
        <time>2019-09-14T16:08:57Z</time>
      </trkpt>
      <trkpt lat="59.21555780041" lon="17.964395276635">
        <ele>47.2</ele>
        <time>2019-09-14T16:08:58Z</time>
      </trkpt>
      <trkpt lat="59.215549250872" lon="17.9643479189">
        <ele>47.2</ele>
        <time>2019-09-14T16:08:59Z</time>
      </trkpt>
      <trkpt lat="59.215543215904" lon="17.964298633328">
        <ele>47.2</ele>
        <time>2019-09-14T16:09:00Z</time>
      </trkpt>
      <trkpt lat="59.215536761841" lon="17.96424230696">
        <ele>47.2</ele>
        <time>2019-09-14T16:09:01Z</time>
      </trkpt>
      <trkpt lat="59.215536678022" lon="17.964177431054">
        <ele>47.2</ele>
        <time>2019-09-14T16:09:02Z</time>
      </trkpt>
      <trkpt lat="59.215531481244" lon="17.964116243184">
        <ele>47.2</ele>
        <time>2019-09-14T16:09:03Z</time>
      </trkpt>
      <trkpt lat="59.21552930195" lon="17.964048936527">
        <ele>47.2</ele>
        <time>2019-09-14T16:09:04Z</time>
      </trkpt>
      <trkpt lat="59.215526116828" lon="17.963982887155">
        <ele>47</ele>
        <time>2019-09-14T16:09:05Z</time>
      </trkpt>
      <trkpt lat="59.215520584774" lon="17.963921531647">
        <ele>47</ele>
        <time>2019-09-14T16:09:06Z</time>
      </trkpt>
      <trkpt lat="59.215521674421" lon="17.963854811723">
        <ele>46.8</ele>
        <time>2019-09-14T16:09:07Z</time>
      </trkpt>
      <trkpt lat="59.215533409081" lon="17.963788091799">
        <ele>46.8</ele>
        <time>2019-09-14T16:09:08Z</time>
      </trkpt>
      <trkpt lat="59.215551681623" lon="17.963715420726">
        <ele>46.8</ele>
        <time>2019-09-14T16:09:09Z</time>
      </trkpt>
      <trkpt lat="59.21555444765" lon="17.963656495969">
        <ele>46.8</ele>
        <time>2019-09-14T16:09:10Z</time>
      </trkpt>
      <trkpt lat="59.215548747958" lon="17.963602851809">
        <ele>46.8</ele>
        <time>2019-09-14T16:09:11Z</time>
      </trkpt>
      <trkpt lat="59.215544557008" lon="17.963538981731">
        <ele>46.8</ele>
        <time>2019-09-14T16:09:12Z</time>
      </trkpt>
      <trkpt lat="59.215543802637" lon="17.963476033662">
        <ele>46.8</ele>
        <time>2019-09-14T16:09:13Z</time>
      </trkpt>
      <trkpt lat="59.215540282239" lon="17.963408224091">
        <ele>46.6</ele>
        <time>2019-09-14T16:09:14Z</time>
      </trkpt>
      <trkpt lat="59.215539444049" lon="17.963342509995">
        <ele>46.4</ele>
        <time>2019-09-14T16:09:15Z</time>
      </trkpt>
      <trkpt lat="59.215532906167" lon="17.963279645745">
        <ele>46.4</ele>
        <time>2019-09-14T16:09:16Z</time>
      </trkpt>
      <trkpt lat="59.215528044665" lon="17.963213512554">
        <ele>46.4</ele>
        <time>2019-09-14T16:09:17Z</time>
      </trkpt>
      <trkpt lat="59.215516980557" lon="17.963147044087">
        <ele>46.4</ele>
        <time>2019-09-14T16:09:18Z</time>
      </trkpt>
      <trkpt lat="59.215498456558" lon="17.96308476657">
        <ele>46.4</ele>
        <time>2019-09-14T16:09:19Z</time>
      </trkpt>
      <trkpt lat="59.215480519292" lon="17.963025757994">
        <ele>46.2</ele>
        <time>2019-09-14T16:09:20Z</time>
      </trkpt>
      <trkpt lat="59.215461911474" lon="17.962956272043">
        <ele>46.2</ele>
        <time>2019-09-14T16:09:21Z</time>
      </trkpt>
      <trkpt lat="59.215426372218" lon="17.96281486939">
        <ele>46.2</ele>
        <time>2019-09-14T16:09:23Z</time>
      </trkpt>
      <trkpt lat="59.215410195151" lon="17.962750244941">
        <ele>46.2</ele>
        <time>2019-09-14T16:09:24Z</time>
      </trkpt>
      <trkpt lat="59.215393682808" lon="17.962693499478">
        <ele>46</ele>
        <time>2019-09-14T16:09:25Z</time>
      </trkpt>
      <trkpt lat="59.215378930664" lon="17.962642118431">
        <ele>46</ele>
        <time>2019-09-14T16:09:26Z</time>
      </trkpt>
      <trkpt lat="59.215366609271" lon="17.962589647737">
        <ele>45.8</ele>
        <time>2019-09-14T16:09:27Z</time>
      </trkpt>
      <trkpt lat="59.215355042249" lon="17.962533572826">
        <ele>45.6</ele>
        <time>2019-09-14T16:09:28Z</time>
      </trkpt>
      <trkpt lat="59.215344145779" lon="17.962490573679">
        <ele>45.6</ele>
        <time>2019-09-14T16:09:29Z</time>
      </trkpt>
      <trkpt lat="59.2153323273" lon="17.962449334731">
        <ele>45.6</ele>
        <time>2019-09-14T16:09:30Z</time>
      </trkpt>
      <trkpt lat="59.215320844097" lon="17.962402731367">
        <ele>45.4</ele>
        <time>2019-09-14T16:09:31Z</time>
      </trkpt>
      <trkpt lat="59.215310031446" lon="17.962352020872">
        <ele>45.4</ele>
        <time>2019-09-14T16:09:32Z</time>
      </trkpt>
      <trkpt lat="59.215299386433" lon="17.962303489671">
        <ele>45.4</ele>
        <time>2019-09-14T16:09:33Z</time>
      </trkpt>
      <trkpt lat="59.215287232678" lon="17.962255880479">
        <ele>45.4</ele>
        <time>2019-09-14T16:09:34Z</time>
      </trkpt>
      <trkpt lat="59.215273737819" lon="17.962206594907">
        <ele>45.4</ele>
        <time>2019-09-14T16:09:35Z</time>
      </trkpt>
      <trkpt lat="59.215261416426" lon="17.962157141697">
        <ele>45.4</ele>
        <time>2019-09-14T16:09:36Z</time>
      </trkpt>
      <trkpt lat="59.215250017042" lon="17.962112047075">
        <ele>45.4</ele>
        <time>2019-09-14T16:09:37Z</time>
      </trkpt>
      <trkpt lat="59.215241048409" lon="17.962068964109">
        <ele>45.4</ele>
        <time>2019-09-14T16:09:38Z</time>
      </trkpt>
      <trkpt lat="59.215231660681" lon="17.962027557523">
        <ele>45.6</ele>
        <time>2019-09-14T16:09:39Z</time>
      </trkpt>
      <trkpt lat="59.215221183306" lon="17.961975422105">
        <ele>45.6</ele>
        <time>2019-09-14T16:09:40Z</time>
      </trkpt>
      <trkpt lat="59.215208945732" lon="17.961940721039">
        <ele>45.6</ele>
        <time>2019-09-14T16:09:41Z</time>
      </trkpt>
      <trkpt lat="59.215197211072" lon="17.961891938381">
        <ele>45.8</ele>
        <time>2019-09-14T16:09:42Z</time>
      </trkpt>
      <trkpt lat="59.215184889679" lon="17.961843742456">
        <ele>45.8</ele>
        <time>2019-09-14T16:09:43Z</time>
      </trkpt>
      <trkpt lat="59.215170388992" lon="17.961786996993">
        <ele>45.8</ele>
        <time>2019-09-14T16:09:44Z</time>
      </trkpt>
      <trkpt lat="59.215156223581" lon="17.961726228218">
        <ele>45.8</ele>
        <time>2019-09-14T16:09:45Z</time>
      </trkpt>
      <trkpt lat="59.215141387618" lon="17.961666213814">
        <ele>45.8</ele>
        <time>2019-09-14T16:09:46Z</time>
      </trkpt>
      <trkpt lat="59.215127306026" lon="17.961605780315">
        <ele>45.8</ele>
        <time>2019-09-14T16:09:47Z</time>
      </trkpt>
      <trkpt lat="59.215115487547" lon="17.961544676264">
        <ele>45.8</ele>
        <time>2019-09-14T16:09:48Z</time>
      </trkpt>
      <trkpt lat="59.215104255801" lon="17.961487092611">
        <ele>45.8</ele>
        <time>2019-09-14T16:09:49Z</time>
      </trkpt>
      <trkpt lat="59.215092185865" lon="17.961431101519">
        <ele>45.8</ele>
        <time>2019-09-14T16:09:50Z</time>
      </trkpt>
      <trkpt lat="59.215077852816" lon="17.961371087115">
        <ele>45.8</ele>
        <time>2019-09-14T16:09:51Z</time>
      </trkpt>
      <trkpt lat="59.215066201975" lon="17.961311491806">
        <ele>45.8</ele>
        <time>2019-09-14T16:09:52Z</time>
      </trkpt>
      <trkpt lat="59.215051952745" lon="17.961249801022">
        <ele>45.6</ele>
        <time>2019-09-14T16:09:53Z</time>
      </trkpt>
      <trkpt lat="59.215040134266" lon="17.96118458984">
        <ele>45.4</ele>
        <time>2019-09-14T16:09:54Z</time>
      </trkpt>
      <trkpt lat="59.215026304131" lon="17.961121557952">
        <ele>45</ele>
        <time>2019-09-14T16:09:55Z</time>
      </trkpt>
      <trkpt lat="59.215011468168" lon="17.961058358426">
        <ele>45</ele>
        <time>2019-09-14T16:09:56Z</time>
      </trkpt>
      <trkpt lat="59.214999230594" lon="17.960995577995">
        <ele>45</ele>
        <time>2019-09-14T16:09:57Z</time>
      </trkpt>
      <trkpt lat="59.214986406287" lon="17.960938078161">
        <ele>44.8</ele>
        <time>2019-09-14T16:09:58Z</time>
      </trkpt>
      <trkpt lat="59.214973917256" lon="17.960875046273">
        <ele>44.8</ele>
        <time>2019-09-14T16:09:59Z</time>
      </trkpt>
      <trkpt lat="59.214960673854" lon="17.960813020213">
        <ele>44.8</ele>
        <time>2019-09-14T16:10:00Z</time>
      </trkpt>
      <trkpt lat="59.214946592262" lon="17.960758537863">
        <ele>44.8</ele>
        <time>2019-09-14T16:10:01Z</time>
      </trkpt>
      <trkpt lat="59.214930666652" lon="17.9607101743">
        <ele>44.8</ele>
        <time>2019-09-14T16:10:02Z</time>
      </trkpt>
      <trkpt lat="59.214914154309" lon="17.960653596475">
        <ele>44.8</ele>
        <time>2019-09-14T16:10:03Z</time>
      </trkpt>
      <trkpt lat="59.214899485984" lon="17.960590732225">
        <ele>44.8</ele>
        <time>2019-09-14T16:10:04Z</time>
      </trkpt>
      <trkpt lat="59.214883728012" lon="17.96053163983">
        <ele>44.8</ele>
        <time>2019-09-14T16:10:05Z</time>
      </trkpt>
      <trkpt lat="59.214870316972" lon="17.960464836087">
        <ele>44.8</ele>
        <time>2019-09-14T16:10:06Z</time>
      </trkpt>
      <trkpt lat="59.214859252864" lon="17.960400044">
        <ele>44.8</ele>
        <time>2019-09-14T16:10:07Z</time>
      </trkpt>
      <trkpt lat="59.214847182928" lon="17.960332066791">
        <ele>44.8</ele>
        <time>2019-09-14T16:10:08Z</time>
      </trkpt>
      <trkpt lat="59.214834107164" lon="17.960258641347">
        <ele>44.8</ele>
        <time>2019-09-14T16:10:09Z</time>
      </trkpt>
      <trkpt lat="59.214821534314" lon="17.96018714374">
        <ele>44.6</ele>
        <time>2019-09-14T16:10:10Z</time>
      </trkpt>
      <trkpt lat="59.214808123274" lon="17.960116400504">
        <ele>44.6</ele>
        <time>2019-09-14T16:10:11Z</time>
      </trkpt>
      <trkpt lat="59.214794376958" lon="17.960045405811">
        <ele>44.6</ele>
        <time>2019-09-14T16:10:12Z</time>
      </trkpt>
      <trkpt lat="59.214783983402" lon="17.959974830213">
        <ele>44.6</ele>
        <time>2019-09-14T16:10:13Z</time>
      </trkpt>
      <trkpt lat="59.21477074" lon="17.959902829692">
        <ele>44.6</ele>
        <time>2019-09-14T16:10:14Z</time>
      </trkpt>
      <trkpt lat="59.214756658408" lon="17.9598300748">
        <ele>44.6</ele>
        <time>2019-09-14T16:10:15Z</time>
      </trkpt>
      <trkpt lat="59.214738553504" lon="17.959746842533">
        <ele>44.6</ele>
        <time>2019-09-14T16:10:16Z</time>
      </trkpt>
      <trkpt lat="59.214723466084" lon="17.959653468167">
        <ele>44.4</ele>
        <time>2019-09-14T16:10:17Z</time>
      </trkpt>
      <trkpt lat="59.214706367008" lon="17.959567302235">
        <ele>44.2</ele>
        <time>2019-09-14T16:10:18Z</time>
      </trkpt>
      <trkpt lat="59.214681640403" lon="17.959475688068">
        <ele>44</ele>
        <time>2019-09-14T16:10:19Z</time>
      </trkpt>
      <trkpt lat="59.214658087264" lon="17.959406705031">
        <ele>44</ele>
        <time>2019-09-14T16:10:20Z</time>
      </trkpt>
      <trkpt lat="59.21463160046" lon="17.959356748907">
        <ele>44</ele>
        <time>2019-09-14T16:10:21Z</time>
      </trkpt>
      <trkpt lat="59.214599330145" lon="17.959318024529">
        <ele>43.8</ele>
        <time>2019-09-14T16:10:22Z</time>
      </trkpt>
      <trkpt lat="59.21456454526" lon="17.959290028983">
        <ele>43.8</ele>
        <time>2019-09-14T16:10:23Z</time>
      </trkpt>
      <trkpt lat="59.214528670728" lon="17.959267481672">
        <ele>43.8</ele>
        <time>2019-09-14T16:10:24Z</time>
      </trkpt>
      <trkpt lat="59.214493215291" lon="17.959242587429">
        <ele>43.6</ele>
        <time>2019-09-14T16:10:25Z</time>
      </trkpt>
      <trkpt lat="59.214460190605" lon="17.959218950471">
        <ele>43.6</ele>
        <time>2019-09-14T16:10:26Z</time>
      </trkpt>
      <trkpt lat="59.214427501195" lon="17.959191625477">
        <ele>43.6</ele>
        <time>2019-09-14T16:10:27Z</time>
      </trkpt>
      <trkpt lat="59.214400008563" lon="17.959155750945">
        <ele>43.4</ele>
        <time>2019-09-14T16:10:28Z</time>
      </trkpt>
      <trkpt lat="59.214382155116" lon="17.95910671683">
        <ele>43.4</ele>
        <time>2019-09-14T16:10:29Z</time>
      </trkpt>
      <trkpt lat="59.214371342465" lon="17.959049552272">
        <ele>43.4</ele>
        <time>2019-09-14T16:10:30Z</time>
      </trkpt>
      <trkpt lat="59.214368241162" lon="17.95899356118">
        <ele>43.2</ele>
        <time>2019-09-14T16:10:31Z</time>
      </trkpt>
      <trkpt lat="59.214368744076" lon="17.95893572607">
        <ele>43.2</ele>
        <time>2019-09-14T16:10:32Z</time>
      </trkpt>
      <trkpt lat="59.214374108492" lon="17.958878142417">
        <ele>43.2</ele>
        <time>2019-09-14T16:10:33Z</time>
      </trkpt>
      <trkpt lat="59.214380227279" lon="17.958818798565">
        <ele>43</ele>
        <time>2019-09-14T16:10:34Z</time>
      </trkpt>
      <trkpt lat="59.214384502048" lon="17.958758700342">
        <ele>43.2</ele>
        <time>2019-09-14T16:10:35Z</time>
      </trkpt>
      <trkpt lat="59.214384082953" lon="17.95869684192">
        <ele>43.2</ele>
        <time>2019-09-14T16:10:36Z</time>
      </trkpt>
      <trkpt lat="59.214378047985" lon="17.95863900681">
        <ele>43.2</ele>
        <time>2019-09-14T16:10:37Z</time>
      </trkpt>
      <trkpt lat="59.214368241162" lon="17.958589805057">
        <ele>43.2</ele>
        <time>2019-09-14T16:10:38Z</time>
      </trkpt>
      <trkpt lat="59.21435751233" lon="17.958541273856">
        <ele>43.2</ele>
        <time>2019-09-14T16:10:39Z</time>
      </trkpt>
      <trkpt lat="59.214342592548" lon="17.95848645623">
        <ele>43.2</ele>
        <time>2019-09-14T16:10:40Z</time>
      </trkpt>
      <trkpt lat="59.214327169852" lon="17.95843365026">
        <ele>43.2</ele>
        <time>2019-09-14T16:10:41Z</time>
      </trkpt>
      <trkpt lat="59.214311244242" lon="17.958377240073">
        <ele>43.2</ele>
        <time>2019-09-14T16:10:42Z</time>
      </trkpt>
      <trkpt lat="59.214297414107" lon="17.958317560945">
        <ele>43.2</ele>
        <time>2019-09-14T16:10:43Z</time>
      </trkpt>
      <trkpt lat="59.214290205673" lon="17.9582542776">
        <ele>43</ele>
        <time>2019-09-14T16:10:44Z</time>
      </trkpt>
      <trkpt lat="59.21429380989" lon="17.958195855757">
        <ele>43</ele>
        <time>2019-09-14T16:10:45Z</time>
      </trkpt>
      <trkpt lat="59.214305628369" lon="17.958146737823">
        <ele>43</ele>
        <time>2019-09-14T16:10:46Z</time>
      </trkpt>
      <trkpt lat="59.214318536495" lon="17.958094434767">
        <ele>43</ele>
        <time>2019-09-14T16:10:47Z</time>
      </trkpt>
      <trkpt lat="59.214325242015" lon="17.958034168906">
        <ele>43.2</ele>
        <time>2019-09-14T16:10:48Z</time>
      </trkpt>
      <trkpt lat="59.214322895083" lon="17.957976082339">
        <ele>43.2</ele>
        <time>2019-09-14T16:10:49Z</time>
      </trkpt>
      <trkpt lat="59.214312417708" lon="17.957925455663">
        <ele>43.2</ele>
        <time>2019-09-14T16:10:50Z</time>
      </trkpt>
      <trkpt lat="59.214294061347" lon="17.957886228371">
        <ele>43.2</ele>
        <time>2019-09-14T16:10:51Z</time>
      </trkpt>
      <trkpt lat="59.214271933131" lon="17.957863261965">
        <ele>43.2</ele>
        <time>2019-09-14T16:10:52Z</time>
      </trkpt>
      <trkpt lat="59.214248296173" lon="17.957850940572">
        <ele>43.4</ele>
        <time>2019-09-14T16:10:53Z</time>
      </trkpt>
      <trkpt lat="59.214221390274" lon="17.957835014962">
        <ele>43.4</ele>
        <time>2019-09-14T16:10:54Z</time>
      </trkpt>
      <trkpt lat="59.214195825479" lon="17.957812383832">
        <ele>43.4</ele>
        <time>2019-09-14T16:10:55Z</time>
      </trkpt>
      <trkpt lat="59.214172942892" lon="17.957778018042">
        <ele>43.4</ele>
        <time>2019-09-14T16:10:56Z</time>
      </trkpt>
      <trkpt lat="59.214154335074" lon="17.9577345998">
        <ele>43.4</ele>
        <time>2019-09-14T16:10:57Z</time>
      </trkpt>
      <trkpt lat="59.21413874474" lon="17.95769520487">
        <ele>43.4</ele>
        <time>2019-09-14T16:10:58Z</time>
      </trkpt>
      <trkpt lat="59.214123489682" lon="17.957661761089">
        <ele>43.6</ele>
        <time>2019-09-14T16:10:59Z</time>
      </trkpt>
      <trkpt lat="59.214108653719" lon="17.957631670068">
        <ele>43.4</ele>
        <time>2019-09-14T16:11:00Z</time>
      </trkpt>
      <trkpt lat="59.214094907403" lon="17.957599064477">
        <ele>43.4</ele>
        <time>2019-09-14T16:11:01Z</time>
      </trkpt>
      <trkpt lat="59.214081328725" lon="17.957563944316">
        <ele>43.4</ele>
        <time>2019-09-14T16:11:02Z</time>
      </trkpt>
      <trkpt lat="59.214067917685" lon="17.957527902146">
        <ele>43.4</ele>
        <time>2019-09-14T16:11:03Z</time>
      </trkpt>
      <trkpt lat="59.214054255188" lon="17.957491943795">
        <ele>43.6</ele>
        <time>2019-09-14T16:11:04Z</time>
      </trkpt>
      <trkpt lat="59.214038245759" lon="17.95746051167">
        <ele>43.6</ele>
        <time>2019-09-14T16:11:05Z</time>
      </trkpt>
      <trkpt lat="59.214018715932" lon="17.957441484757">
        <ele>43.6</ele>
        <time>2019-09-14T16:11:06Z</time>
      </trkpt>
      <trkpt lat="59.213995665707" lon="17.95744207149">
        <ele>43.8</ele>
        <time>2019-09-14T16:11:07Z</time>
      </trkpt>
      <trkpt lat="59.213970603826" lon="17.957465876086">
        <ele>43.8</ele>
        <time>2019-09-14T16:11:08Z</time>
      </trkpt>
      <trkpt lat="59.213946966868" lon="17.957502672627">
        <ele>43.8</ele>
        <time>2019-09-14T16:11:09Z</time>
      </trkpt>
      <trkpt lat="59.213923497548" lon="17.957537206055">
        <ele>43.6</ele>
        <time>2019-09-14T16:11:10Z</time>
      </trkpt>
      <trkpt lat="59.213899273857" lon="17.957566375067">
        <ele>43.6</ele>
        <time>2019-09-14T16:11:11Z</time>
      </trkpt>
      <trkpt lat="59.213875050166" lon="17.957600824676">
        <ele>43.8</ele>
        <time>2019-09-14T16:11:12Z</time>
      </trkpt>
      <trkpt lat="59.213850826475" lon="17.957644159099">
        <ele>43.8</ele>
        <time>2019-09-14T16:11:13Z</time>
      </trkpt>
      <trkpt lat="59.21382693806" lon="17.957689421359">
        <ele>43.8</ele>
        <time>2019-09-14T16:11:14Z</time>
      </trkpt>
      <trkpt lat="59.21380346874" lon="17.957730157393">
        <ele>43.8</ele>
        <time>2019-09-14T16:11:15Z</time>
      </trkpt>
      <trkpt lat="59.21378083761" lon="17.9577681274">
        <ele>43.6</ele>
        <time>2019-09-14T16:11:16Z</time>
      </trkpt>
      <trkpt lat="59.213760385774" lon="17.957805762131">
        <ele>43.6</ele>
        <time>2019-09-14T16:11:17Z</time>
      </trkpt>
      <trkpt lat="59.21373892811" lon="17.957845911432">
        <ele>43.6</ele>
        <time>2019-09-14T16:11:18Z</time>
      </trkpt>
      <trkpt lat="59.213715039695" lon="17.957889329674">
        <ele>43.6</ele>
        <time>2019-09-14T16:11:19Z</time>
      </trkpt>
      <trkpt lat="59.21369115128" lon="17.957937190323">
        <ele>43.6</ele>
        <time>2019-09-14T16:11:20Z</time>
      </trkpt>
      <trkpt lat="59.213670112711" lon="17.957984548058">
        <ele>43.6</ele>
        <time>2019-09-14T16:11:21Z</time>
      </trkpt>
      <trkpt lat="59.21365175635" lon="17.958031989612">
        <ele>43.6</ele>
        <time>2019-09-14T16:11:22Z</time>
      </trkpt>
      <trkpt lat="59.213633651446" lon="17.95807741951">
        <ele>43.6</ele>
        <time>2019-09-14T16:11:23Z</time>
      </trkpt>
      <trkpt lat="59.213615462723" lon="17.958118407001">
        <ele>43.6</ele>
        <time>2019-09-14T16:11:24Z</time>
      </trkpt>
      <trkpt lat="59.213599034199" lon="17.95815788575">
        <ele>43.6</ele>
        <time>2019-09-14T16:11:25Z</time>
      </trkpt>
      <trkpt lat="59.213584365874" lon="17.958202477458">
        <ele>43.6</ele>
        <time>2019-09-14T16:11:26Z</time>
      </trkpt>
      <trkpt lat="59.213569865187" lon="17.958250589564">
        <ele>43.6</ele>
        <time>2019-09-14T16:11:27Z</time>
      </trkpt>
      <trkpt lat="59.213556118871" lon="17.958302138249">
        <ele>43.6</ele>
        <time>2019-09-14T16:11:28Z</time>
      </trkpt>
      <trkpt lat="59.213543881297" lon="17.958356033866">
        <ele>43.6</ele>
        <time>2019-09-14T16:11:29Z</time>
      </trkpt>
      <trkpt lat="59.213532062818" lon="17.958413198424">
        <ele>43.6</ele>
        <time>2019-09-14T16:11:30Z</time>
      </trkpt>
      <trkpt lat="59.213521501624" lon="17.95847304519">
        <ele>43.6</ele>
        <time>2019-09-14T16:11:31Z</time>
      </trkpt>
      <trkpt lat="59.213511191887" lon="17.958535574164">
        <ele>43.6</ele>
        <time>2019-09-14T16:11:32Z</time>
      </trkpt>
      <trkpt lat="59.213488393119" lon="17.958650154737">
        <ele>43.8</ele>
        <time>2019-09-14T16:11:34Z</time>
      </trkpt>
      <trkpt lat="59.213476239364" lon="17.958696339006">
        <ele>43.8</ele>
        <time>2019-09-14T16:11:35Z</time>
      </trkpt>
      <trkpt lat="59.213464672342" lon="17.958728525502">
        <ele>44</ele>
        <time>2019-09-14T16:11:36Z</time>
      </trkpt>
      <trkpt lat="59.213452518587" lon="17.958741098352">
        <ele>44</ele>
        <time>2019-09-14T16:11:37Z</time>
      </trkpt>
      <trkpt lat="59.213441789755" lon="17.958736655945">
        <ele>44</ele>
        <time>2019-09-14T16:11:38Z</time>
      </trkpt>
      <trkpt lat="59.213432904941" lon="17.958719053955">
        <ele>44.2</ele>
        <time>2019-09-14T16:11:39Z</time>
      </trkpt>
      <trkpt lat="59.213425361231" lon="17.958697009558">
        <ele>44.2</ele>
        <time>2019-09-14T16:11:40Z</time>
      </trkpt>
      <trkpt lat="59.213417985159" lon="17.958673624057">
        <ele>44.2</ele>
        <time>2019-09-14T16:11:41Z</time>
      </trkpt>
      <trkpt lat="59.213411279639" lon="17.958648729814">
        <ele>44.2</ele>
        <time>2019-09-14T16:11:42Z</time>
      </trkpt>
      <trkpt lat="59.213399628798" lon="17.958620147535">
        <ele>44.2</ele>
        <time>2019-09-14T16:11:43Z</time>
      </trkpt>
      <trkpt lat="59.213386720672" lon="17.958585530288">
        <ele>44.2</ele>
        <time>2019-09-14T16:11:44Z</time>
      </trkpt>
      <trkpt lat="59.213374399279" lon="17.958548649928">
        <ele>44.2</ele>
        <time>2019-09-14T16:11:45Z</time>
      </trkpt>
      <trkpt lat="59.213360233868" lon="17.958518139812">
        <ele>44.2</ele>
        <time>2019-09-14T16:11:46Z</time>
      </trkpt>
      <trkpt lat="59.213343721525" lon="17.958491066275">
        <ele>44.2</ele>
        <time>2019-09-14T16:11:47Z</time>
      </trkpt>
      <trkpt lat="59.213328298829" lon="17.958465752937">
        <ele>44.2</ele>
        <time>2019-09-14T16:11:48Z</time>
      </trkpt>
      <trkpt lat="59.213307679355" lon="17.958446306929">
        <ele>44.2</ele>
        <time>2019-09-14T16:11:49Z</time>
      </trkpt>
      <trkpt lat="59.213286892243" lon="17.958428704939">
        <ele>44.2</ele>
        <time>2019-09-14T16:11:50Z</time>
      </trkpt>
      <trkpt lat="59.213270547538" lon="17.958406995818">
        <ele>44.2</ele>
        <time>2019-09-14T16:11:51Z</time>
      </trkpt>
      <trkpt lat="59.213254370471" lon="17.958394422968">
        <ele>44.2</ele>
        <time>2019-09-14T16:11:52Z</time>
      </trkpt>
      <trkpt lat="59.213237019938" lon="17.958379251729">
        <ele>44.4</ele>
        <time>2019-09-14T16:11:53Z</time>
      </trkpt>
      <trkpt lat="59.213218915034" lon="17.958363661395">
        <ele>44.4</ele>
        <time>2019-09-14T16:11:54Z</time>
      </trkpt>
      <trkpt lat="59.2132033247" lon="17.958351088545">
        <ele>44.4</ele>
        <time>2019-09-14T16:11:55Z</time>
      </trkpt>
      <trkpt lat="59.213187231452" lon="17.958336168763">
        <ele>44.4</ele>
        <time>2019-09-14T16:11:56Z</time>
      </trkpt>
      <trkpt lat="59.213171389661" lon="17.958323763551">
        <ele>44.4</ele>
        <time>2019-09-14T16:11:57Z</time>
      </trkpt>
      <trkpt lat="59.213155631689" lon="17.958315297832">
        <ele>44.4</ele>
        <time>2019-09-14T16:11:58Z</time>
      </trkpt>
      <trkpt lat="59.213143226477" lon="17.958310520149">
        <ele>44.6</ele>
        <time>2019-09-14T16:11:59Z</time>
      </trkpt>
      <trkpt lat="59.213133419654" lon="17.958310520149">
        <ele>44.6</ele>
        <time>2019-09-14T16:12:00Z</time>
      </trkpt>
      <trkpt lat="59.213114057465" lon="17.958319153506">
        <ele>44.8</ele>
        <time>2019-09-14T16:12:01Z</time>
      </trkpt>
      <trkpt lat="59.213091258697" lon="17.958325691388">
        <ele>45</ele>
        <time>2019-09-14T16:12:02Z</time>
      </trkpt>
      <trkpt lat="59.213068879024" lon="17.958326278121">
        <ele>45.2</ele>
        <time>2019-09-14T16:12:03Z</time>
      </trkpt>
      <trkpt lat="59.213051025577" lon="17.958330971985">
        <ele>45.4</ele>
        <time>2019-09-14T16:12:04Z</time>
      </trkpt>
      <trkpt lat="59.213033591225" lon="17.958340108256">
        <ele>45.6</ele>
        <time>2019-09-14T16:12:05Z</time>
      </trkpt>
      <trkpt lat="59.21301305557" lon="17.958347903423">
        <ele>45.8</ele>
        <time>2019-09-14T16:12:06Z</time>
      </trkpt>
      <trkpt lat="59.212991681725" lon="17.958355950047">
        <ele>46</ele>
        <time>2019-09-14T16:12:07Z</time>
      </trkpt>
      <trkpt lat="59.212971565165" lon="17.958364415766">
        <ele>46</ele>
        <time>2019-09-14T16:12:08Z</time>
      </trkpt>
      <trkpt lat="59.212950526596" lon="17.958374054951">
        <ele>46.2</ele>
        <time>2019-09-14T16:12:09Z</time>
      </trkpt>
      <trkpt lat="59.212926973457" lon="17.958379084091">
        <ele>46.4</ele>
        <time>2019-09-14T16:12:10Z</time>
      </trkpt>
      <trkpt lat="59.212903839413" lon="17.958381933937">
        <ele>46.6</ele>
        <time>2019-09-14T16:12:11Z</time>
      </trkpt>
      <trkpt lat="59.212879448084" lon="17.958380592833">
        <ele>46.6</ele>
        <time>2019-09-14T16:12:12Z</time>
      </trkpt>
      <trkpt lat="59.212849859977" lon="17.958381598661">
        <ele>46.8</ele>
        <time>2019-09-14T16:12:13Z</time>
      </trkpt>
      <trkpt lat="59.212821026241" lon="17.958382604489">
        <ele>47</ele>
        <time>2019-09-14T16:12:14Z</time>
      </trkpt>
      <trkpt lat="59.212795042351" lon="17.958386376344">
        <ele>47.2</ele>
        <time>2019-09-14T16:12:15Z</time>
      </trkpt>
      <trkpt lat="59.212768555547" lon="17.958392159855">
        <ele>47.4</ele>
        <time>2019-09-14T16:12:16Z</time>
      </trkpt>
      <trkpt lat="59.212738883621" lon="17.958396686081">
        <ele>47.6</ele>
        <time>2019-09-14T16:12:17Z</time>
      </trkpt>
      <trkpt lat="59.212708289686" lon="17.958403391601">
        <ele>48</ele>
        <time>2019-09-14T16:12:18Z</time>
      </trkpt>
      <trkpt lat="59.212681216149" lon="17.958415126261">
        <ele>48.2</ele>
        <time>2019-09-14T16:12:19Z</time>
      </trkpt>
      <trkpt lat="59.212657243915" lon="17.958426860921">
        <ele>48.4</ele>
        <time>2019-09-14T16:12:20Z</time>
      </trkpt>
      <trkpt lat="59.21263167912" lon="17.958447228938">
        <ele>48.6</ele>
        <time>2019-09-14T16:12:21Z</time>
      </trkpt>
      <trkpt lat="59.212605862868" lon="17.958468351326">
        <ele>49</ele>
        <time>2019-09-14T16:12:22Z</time>
      </trkpt>
      <trkpt lat="59.212585411032" lon="17.958488886981">
        <ele>49.2</ele>
        <time>2019-09-14T16:12:23Z</time>
      </trkpt>
      <trkpt lat="59.2125663003" lon="17.95851160193">
        <ele>49.2</ele>
        <time>2019-09-14T16:12:24Z</time>
      </trkpt>
      <trkpt lat="59.21254786012" lon="17.958540603304">
        <ele>49.4</ele>
        <time>2019-09-14T16:12:25Z</time>
      </trkpt>
      <trkpt lat="59.212530341949" lon="17.958572957438">
        <ele>49.6</ele>
        <time>2019-09-14T16:12:26Z</time>
      </trkpt>
      <trkpt lat="59.212510560665" lon="17.958605060115">
        <ele>49.8</ele>
        <time>2019-09-14T16:12:27Z</time>
      </trkpt>
      <trkpt lat="59.212488683906" lon="17.958638000982">
        <ele>50</ele>
        <time>2019-09-14T16:12:28Z</time>
      </trkpt>
      <trkpt lat="59.212465466043" lon="17.958671863858">
        <ele>50</ele>
        <time>2019-09-14T16:12:29Z</time>
      </trkpt>
      <trkpt lat="59.212441493809" lon="17.958702876888">
        <ele>50.2</ele>
        <time>2019-09-14T16:12:30Z</time>
      </trkpt>
      <trkpt lat="59.212415677557" lon="17.958735650117">
        <ele>50.2</ele>
        <time>2019-09-14T16:12:31Z</time>
      </trkpt>
      <trkpt lat="59.212387933468" lon="17.958768004251">
        <ele>50.2</ele>
        <time>2019-09-14T16:12:32Z</time>
      </trkpt>
      <trkpt lat="59.212356249886" lon="17.958793904322">
        <ele>50.2</ele>
        <time>2019-09-14T16:12:33Z</time>
      </trkpt>
      <trkpt lat="59.212320291535" lon="17.958817792737">
        <ele>50.2</ele>
        <time>2019-09-14T16:12:34Z</time>
      </trkpt>
      <trkpt lat="59.212283662632" lon="17.958830533225">
        <ele>50.2</ele>
        <time>2019-09-14T16:12:35Z</time>
      </trkpt>
      <trkpt lat="59.212246195539" lon="17.958821564592">
        <ele>50.2</ele>
        <time>2019-09-14T16:12:36Z</time>
      </trkpt>
      <trkpt lat="59.212214931052" lon="17.958789294277">
        <ele>50.2</ele>
        <time>2019-09-14T16:12:37Z</time>
      </trkpt>
      <trkpt lat="59.212190707361" lon="17.958747049501">
        <ele>50.2</ele>
        <time>2019-09-14T16:12:38Z</time>
      </trkpt>
      <trkpt lat="59.212169417335" lon="17.958705642915">
        <ele>50.2</ele>
        <time>2019-09-14T16:12:39Z</time>
      </trkpt>
      <trkpt lat="59.212148630223" lon="17.958667840546">
        <ele>50</ele>
        <time>2019-09-14T16:12:40Z</time>
      </trkpt>
      <trkpt lat="59.21212625055" lon="17.958625260494">
        <ele>49.8</ele>
        <time>2019-09-14T16:12:41Z</time>
      </trkpt>
      <trkpt lat="59.212103200325" lon="17.958584943555">
        <ele>49.6</ele>
        <time>2019-09-14T16:12:42Z</time>
      </trkpt>
      <trkpt lat="59.21207763553" lon="17.958546302996">
        <ele>49.4</ele>
        <time>2019-09-14T16:12:43Z</time>
      </trkpt>
      <trkpt lat="59.212057686608" lon="17.958511015197">
        <ele>49.2</ele>
        <time>2019-09-14T16:12:44Z</time>
      </trkpt>
      <trkpt lat="59.212041677179" lon="17.958479415434">
        <ele>49</ele>
        <time>2019-09-14T16:12:45Z</time>
      </trkpt>
      <trkpt lat="59.212021895895" lon="17.95844119397">
        <ele>48.8</ele>
        <time>2019-09-14T16:12:46Z</time>
      </trkpt>
      <trkpt lat="59.212005970285" lon="17.958415545356">
        <ele>48.8</ele>
        <time>2019-09-14T16:12:47Z</time>
      </trkpt>
      <trkpt lat="59.211990547589" lon="17.958391237846">
        <ele>48.8</ele>
        <time>2019-09-14T16:12:48Z</time>
      </trkpt>
      <trkpt lat="59.211976465997" lon="17.958362823205">
        <ele>48.6</ele>
        <time>2019-09-14T16:12:49Z</time>
      </trkpt>
      <trkpt lat="59.211964144604" lon="17.958331055804">
        <ele>48.6</ele>
        <time>2019-09-14T16:12:50Z</time>
      </trkpt>
      <trkpt lat="59.211955343609" lon="17.958302724982">
        <ele>48.6</ele>
        <time>2019-09-14T16:12:51Z</time>
      </trkpt>
      <trkpt lat="59.211944447139" lon="17.958272466323">
        <ele>48.6</ele>
        <time>2019-09-14T16:12:52Z</time>
      </trkpt>
      <trkpt lat="59.211937406343" lon="17.958250757202">
        <ele>48.6</ele>
        <time>2019-09-14T16:12:53Z</time>
      </trkpt>
      <trkpt lat="59.211928772986" lon="17.958220582362">
        <ele>48.6</ele>
        <time>2019-09-14T16:12:54Z</time>
      </trkpt>
      <trkpt lat="59.211914523756" lon="17.95818638421">
        <ele>48.8</ele>
        <time>2019-09-14T16:12:55Z</time>
      </trkpt>
      <trkpt lat="59.211901196535" lon="17.958142211597">
        <ele>49</ele>
        <time>2019-09-14T16:12:56Z</time>
      </trkpt>
      <trkpt lat="59.211892227902" lon="17.958091584921">
        <ele>49.2</ele>
        <time>2019-09-14T16:12:57Z</time>
      </trkpt>
      <trkpt lat="59.211888288409" lon="17.958039533322">
        <ele>49.4</ele>
        <time>2019-09-14T16:12:58Z</time>
      </trkpt>
      <trkpt lat="59.211886695848" lon="17.957986727352">
        <ele>49.6</ele>
        <time>2019-09-14T16:12:59Z</time>
      </trkpt>
      <trkpt lat="59.211888288409" lon="17.957930903898">
        <ele>49.8</ele>
        <time>2019-09-14T16:13:00Z</time>
      </trkpt>
      <trkpt lat="59.21189155735" lon="17.957873152607">
        <ele>50</ele>
        <time>2019-09-14T16:13:01Z</time>
      </trkpt>
      <trkpt lat="59.211896921766" lon="17.957804672484">
        <ele>50</ele>
        <time>2019-09-14T16:13:02Z</time>
      </trkpt>
      <trkpt lat="59.211906980046" lon="17.957730660307">
        <ele>50</ele>
        <time>2019-09-14T16:13:03Z</time>
      </trkpt>
      <trkpt lat="59.211924330579" lon="17.957651116076">
        <ele>50</ele>
        <time>2019-09-14T16:13:04Z</time>
      </trkpt>
      <trkpt lat="59.211948386632" lon="17.957578361184">
        <ele>50</ele>
        <time>2019-09-14T16:13:05Z</time>
      </trkpt>
      <trkpt lat="59.211976382178" lon="17.957511473622">
        <ele>50</ele>
        <time>2019-09-14T16:13:06Z</time>
      </trkpt>
      <trkpt lat="59.212002785163" lon="17.957452884141">
        <ele>50</ele>
        <time>2019-09-14T16:13:07Z</time>
      </trkpt>
      <trkpt lat="59.212022063533" lon="17.957389852253">
        <ele>50</ele>
        <time>2019-09-14T16:13:08Z</time>
      </trkpt>
      <trkpt lat="59.212037150953" lon="17.957325898356">
        <ele>50</ele>
        <time>2019-09-14T16:13:09Z</time>
      </trkpt>
      <trkpt lat="59.212041760998" lon="17.957269907264">
        <ele>50</ele>
        <time>2019-09-14T16:13:10Z</time>
      </trkpt>
      <trkpt lat="59.212040252256" lon="17.957224812642">
        <ele>49.8</ele>
        <time>2019-09-14T16:13:11Z</time>
      </trkpt>
      <trkpt lat="59.21203907879" lon="17.957182567866">
        <ele>49.6</ele>
        <time>2019-09-14T16:13:12Z</time>
      </trkpt>
      <trkpt lat="59.212038072962" lon="17.957142334746">
        <ele>49.6</ele>
        <time>2019-09-14T16:13:13Z</time>
      </trkpt>
      <trkpt lat="59.212036983315" lon="17.957106208757">
        <ele>49.6</ele>
        <time>2019-09-14T16:13:14Z</time>
      </trkpt>
      <trkpt lat="59.212035306935" lon="17.957069328397">
        <ele>49.6</ele>
        <time>2019-09-14T16:13:15Z</time>
      </trkpt>
      <trkpt lat="59.212034636383" lon="17.95702800563">
        <ele>49.6</ele>
        <time>2019-09-14T16:13:16Z</time>
      </trkpt>
      <trkpt lat="59.212037067134" lon="17.956995064763">
        <ele>49.6</ele>
        <time>2019-09-14T16:13:17Z</time>
      </trkpt>
      <trkpt lat="59.212036480401" lon="17.95696681776">
        <ele>49.6</ele>
        <time>2019-09-14T16:13:18Z</time>
      </trkpt>
      <trkpt lat="59.212041006627" lon="17.956935972368">
        <ele>49.6</ele>
        <time>2019-09-14T16:13:19Z</time>
      </trkpt>
      <trkpt lat="59.212043688835" lon="17.95689138066">
        <ele>49.8</ele>
        <time>2019-09-14T16:13:20Z</time>
      </trkpt>
      <trkpt lat="59.212043856473" lon="17.956851818092">
        <ele>50.2</ele>
        <time>2019-09-14T16:13:21Z</time>
      </trkpt>
      <trkpt lat="59.212038994971" lon="17.956811417334">
        <ele>50.4</ele>
        <time>2019-09-14T16:13:22Z</time>
      </trkpt>
      <trkpt lat="59.21203404965" lon="17.956771603309">
        <ele>50.6</ele>
        <time>2019-09-14T16:13:23Z</time>
      </trkpt>
      <trkpt lat="59.212030864528" lon="17.956740255003">
        <ele>50.8</ele>
        <time>2019-09-14T16:13:24Z</time>
      </trkpt>
      <trkpt lat="59.212023739913" lon="17.956707230317">
        <ele>51</ele>
        <time>2019-09-14T16:13:25Z</time>
      </trkpt>
      <trkpt lat="59.212019381325" lon="17.956672026337">
        <ele>51.2</ele>
        <time>2019-09-14T16:13:26Z</time>
      </trkpt>
      <trkpt lat="59.212016531479" lon="17.95663992366">
        <ele>51.2</ele>
        <time>2019-09-14T16:13:27Z</time>
      </trkpt>
      <trkpt lat="59.21201477128" lon="17.956611760476">
        <ele>51.2</ele>
        <time>2019-09-14T16:13:28Z</time>
      </trkpt>
      <trkpt lat="59.212013597814" lon="17.956583178197">
        <ele>51.4</ele>
        <time>2019-09-14T16:13:29Z</time>
      </trkpt>
      <trkpt lat="59.21200890395" lon="17.956550991701">
        <ele>51.6</ele>
        <time>2019-09-14T16:13:30Z</time>
      </trkpt>
      <trkpt lat="59.212004126267" lon="17.956510758581">
        <ele>51.6</ele>
        <time>2019-09-14T16:13:31Z</time>
      </trkpt>
      <trkpt lat="59.212001695516" lon="17.956469016719">
        <ele>51.6</ele>
        <time>2019-09-14T16:13:32Z</time>
      </trkpt>
      <trkpt lat="59.211997420747" lon="17.956421658984">
        <ele>51.6</ele>
        <time>2019-09-14T16:13:33Z</time>
      </trkpt>
      <trkpt lat="59.211994906177" lon="17.956374971801">
        <ele>51.6</ele>
        <time>2019-09-14T16:13:34Z</time>
      </trkpt>
      <trkpt lat="59.211995660548" lon="17.956328536075">
        <ele>51.6</ele>
        <time>2019-09-14T16:13:35Z</time>
      </trkpt>
      <trkpt lat="59.211995157634" lon="17.956282687082">
        <ele>51.8</ele>
        <time>2019-09-14T16:13:36Z</time>
      </trkpt>
      <trkpt lat="59.211991218141" lon="17.956232898596">
        <ele>51.8</ele>
        <time>2019-09-14T16:13:37Z</time>
      </trkpt>
      <trkpt lat="59.211988033019" lon="17.956184032119">
        <ele>51.8</ele>
        <time>2019-09-14T16:13:38Z</time>
      </trkpt>
      <trkpt lat="59.211984261164" lon="17.956141032972">
        <ele>51.8</ele>
        <time>2019-09-14T16:13:39Z</time>
      </trkpt>
      <trkpt lat="59.211977723282" lon="17.956102140956">
        <ele>51.8</ele>
        <time>2019-09-14T16:13:40Z</time>
      </trkpt>
      <trkpt lat="59.211967078269" lon="17.95605654342">
        <ele>51.8</ele>
        <time>2019-09-14T16:13:41Z</time>
      </trkpt>
      <trkpt lat="59.211954253962" lon="17.956006084382">
        <ele>52</ele>
        <time>2019-09-14T16:13:42Z</time>
      </trkpt>
      <trkpt lat="59.211937825438" lon="17.95595596062">
        <ele>52</ele>
        <time>2019-09-14T16:13:43Z</time>
      </trkpt>
      <trkpt lat="59.211916367774" lon="17.955915811319">
        <ele>52</ele>
        <time>2019-09-14T16:13:44Z</time>
      </trkpt>
      <trkpt lat="59.211891892626" lon="17.955874740009">
        <ele>52</ele>
        <time>2019-09-14T16:13:45Z</time>
      </trkpt>
      <trkpt lat="59.211863226528" lon="17.955827214636">
        <ele>51.8</ele>
        <time>2019-09-14T16:13:46Z</time>
      </trkpt>
      <trkpt lat="59.211830537118" lon="17.955773905752">
        <ele>51.8</ele>
        <time>2019-09-14T16:13:47Z</time>
      </trkpt>
      <trkpt lat="59.211795584595" lon="17.955721686515">
        <ele>51.8</ele>
        <time>2019-09-14T16:13:48Z</time>
      </trkpt>
      <trkpt lat="59.211759458606" lon="17.955658570808">
        <ele>51.8</ele>
        <time>2019-09-14T16:13:49Z</time>
      </trkpt>
      <trkpt lat="59.211727104472" lon="17.955593275807">
        <ele>51.8</ele>
        <time>2019-09-14T16:13:50Z</time>
      </trkpt>
      <trkpt lat="59.211692403406" lon="17.955521107648">
        <ele>51.8</ele>
        <time>2019-09-14T16:13:51Z</time>
      </trkpt>
      <trkpt lat="59.211661641833" lon="17.9554463411">
        <ele>51.8</ele>
        <time>2019-09-14T16:13:52Z</time>
      </trkpt>
      <trkpt lat="59.211634400658" lon="17.955365455765">
        <ele>51.8</ele>
        <time>2019-09-14T16:13:53Z</time>
      </trkpt>
      <trkpt lat="59.211615876659" lon="17.955279038376">
        <ele>51.6</ele>
        <time>2019-09-14T16:13:54Z</time>
      </trkpt>
      <trkpt lat="59.211601878886" lon="17.955179880499">
        <ele>51.2</ele>
        <time>2019-09-14T16:13:55Z</time>
      </trkpt>
      <trkpt lat="59.211603471447" lon="17.95507418474">
        <ele>50.6</ele>
        <time>2019-09-14T16:13:56Z</time>
      </trkpt>
      <trkpt lat="59.211616211935" lon="17.95497779289">
        <ele>50.4</ele>
        <time>2019-09-14T16:13:57Z</time>
      </trkpt>
      <trkpt lat="59.211636915228" lon="17.954889950578">
        <ele>50.2</ele>
        <time>2019-09-14T16:13:58Z</time>
      </trkpt>
      <trkpt lat="59.211663737308" lon="17.954820380808">
        <ele>49.6</ele>
        <time>2019-09-14T16:13:59Z</time>
      </trkpt>
      <trkpt lat="59.211690810845" lon="17.954766736648">
        <ele>49.4</ele>
        <time>2019-09-14T16:14:00Z</time>
      </trkpt>
      <trkpt lat="59.211718219658" lon="17.954731951763">
        <ele>49</ele>
        <time>2019-09-14T16:14:01Z</time>
      </trkpt>
      <trkpt lat="59.21174319772" lon="17.954692305376">
        <ele>48.6</ele>
        <time>2019-09-14T16:14:02Z</time>
      </trkpt>
      <trkpt lat="59.211773959293" lon="17.954660873251">
        <ele>48.2</ele>
        <time>2019-09-14T16:14:03Z</time>
      </trkpt>
      <trkpt lat="59.211807989807" lon="17.954628183841">
        <ele>47.6</ele>
        <time>2019-09-14T16:14:04Z</time>
      </trkpt>
      <trkpt lat="59.211846211271" lon="17.954593231318">
        <ele>47.6</ele>
        <time>2019-09-14T16:14:05Z</time>
      </trkpt>
      <trkpt lat="59.211886779667" lon="17.95454528685">
        <ele>47.4</ele>
        <time>2019-09-14T16:14:06Z</time>
      </trkpt>
      <trkpt lat="59.211926258416" lon="17.95450421554">
        <ele>47.4</ele>
        <time>2019-09-14T16:14:07Z</time>
      </trkpt>
      <trkpt lat="59.211967916459" lon="17.95446314423">
        <ele>47.2</ele>
        <time>2019-09-14T16:14:08Z</time>
      </trkpt>
      <trkpt lat="59.21200890395" lon="17.954426096232">
        <ele>47</ele>
        <time>2019-09-14T16:14:09Z</time>
      </trkpt>
      <trkpt lat="59.212050142898" lon="17.954391395166">
        <ele>47</ele>
        <time>2019-09-14T16:14:10Z</time>
      </trkpt>
      <trkpt lat="59.212086687982" lon="17.954370608054">
        <ele>46.8</ele>
        <time>2019-09-14T16:14:11Z</time>
      </trkpt>
      <trkpt lat="59.212125328541" lon="17.954351078227">
        <ele>46.8</ele>
        <time>2019-09-14T16:14:12Z</time>
      </trkpt>
      <trkpt lat="59.212159861969" lon="17.954346384363">
        <ele>46.6</ele>
        <time>2019-09-14T16:14:13Z</time>
      </trkpt>
      <trkpt lat="59.212190539723" lon="17.954342947784">
        <ele>46.6</ele>
        <time>2019-09-14T16:14:14Z</time>
      </trkpt>
      <trkpt lat="59.212219205821" lon="17.954337583368">
        <ele>46.4</ele>
        <time>2019-09-14T16:14:15Z</time>
      </trkpt>
      <trkpt lat="59.212251308498" lon="17.954334649703">
        <ele>46.4</ele>
        <time>2019-09-14T16:14:16Z</time>
      </trkpt>
      <trkpt lat="59.212281902433" lon="17.954334146789">
        <ele>46.2</ele>
        <time>2019-09-14T16:14:17Z</time>
      </trkpt>
      <trkpt lat="59.212315430033" lon="17.954338840653">
        <ele>46.2</ele>
        <time>2019-09-14T16:14:18Z</time>
      </trkpt>
      <trkpt lat="59.212351136927" lon="17.954331129305">
        <ele>46.2</ele>
        <time>2019-09-14T16:14:19Z</time>
      </trkpt>
      <trkpt lat="59.212385837993" lon="17.95431813736">
        <ele>46.2</ele>
        <time>2019-09-14T16:14:20Z</time>
      </trkpt>
      <trkpt lat="59.212421712525" lon="17.954307073252">
        <ele>46</ele>
        <time>2019-09-14T16:14:21Z</time>
      </trkpt>
      <trkpt lat="59.212453815202" lon="17.954293997488">
        <ele>46</ele>
        <time>2019-09-14T16:14:22Z</time>
      </trkpt>
      <trkpt lat="59.212489270639" lon="17.954284106846">
        <ele>45.8</ele>
        <time>2019-09-14T16:14:23Z</time>
      </trkpt>
      <trkpt lat="59.212530677225" lon="17.954269857616">
        <ele>45.8</ele>
        <time>2019-09-14T16:14:24Z</time>
      </trkpt>
      <trkpt lat="59.212567389947" lon="17.954255943662">
        <ele>45.8</ele>
        <time>2019-09-14T16:14:25Z</time>
      </trkpt>
      <trkpt lat="59.212595469312" lon="17.954243957545">
        <ele>45.8</ele>
        <time>2019-09-14T16:14:26Z</time>
      </trkpt>
      <trkpt lat="59.21262162084" lon="17.954224511537">
        <ele>45.8</ele>
        <time>2019-09-14T16:14:27Z</time>
      </trkpt>
      <trkpt lat="59.212651292766" lon="17.954195091068">
        <ele>45.8</ele>
        <time>2019-09-14T16:14:28Z</time>
      </trkpt>
      <trkpt lat="59.212686832022" lon="17.954168436626">
        <ele>45.8</ele>
        <time>2019-09-14T16:14:29Z</time>
      </trkpt>
      <trkpt lat="59.212718431785" lon="17.954146811324">
        <ele>45.8</ele>
        <time>2019-09-14T16:14:30Z</time>
      </trkpt>
      <trkpt lat="59.212744331856" lon="17.954129879886">
        <ele>45.8</ele>
        <time>2019-09-14T16:14:31Z</time>
      </trkpt>
      <trkpt lat="59.212765873339" lon="17.954113283724">
        <ele>45.8</ele>
        <time>2019-09-14T16:14:32Z</time>
      </trkpt>
      <trkpt lat="59.212798898025" lon="17.954100962331">
        <ele>45.8</ele>
        <time>2019-09-14T16:14:33Z</time>
      </trkpt>
      <trkpt lat="59.21282949196" lon="17.954082857427">
        <ele>45.8</ele>
        <time>2019-09-14T16:14:34Z</time>
      </trkpt>
      <trkpt lat="59.212857319868" lon="17.954063495238">
        <ele>45.8</ele>
        <time>2019-09-14T16:14:35Z</time>
      </trkpt>
      <trkpt lat="59.212881878835" lon="17.954046312343">
        <ele>46</ele>
        <time>2019-09-14T16:14:36Z</time>
      </trkpt>
      <trkpt lat="59.212912640408" lon="17.954018316797">
        <ele>46</ele>
        <time>2019-09-14T16:14:37Z</time>
      </trkpt>
      <trkpt lat="59.21294432399" lon="17.953997362047">
        <ele>46.2</ele>
        <time>2019-09-14T16:14:38Z</time>
      </trkpt>
      <trkpt lat="59.212978438323" lon="17.953975820564">
        <ele>46.2</ele>
        <time>2019-09-14T16:14:39Z</time>
      </trkpt>
      <trkpt lat="59.213014145217" lon="17.953951513054">
        <ele>46.2</ele>
        <time>2019-09-14T16:14:40Z</time>
      </trkpt>
      <trkpt lat="59.213044236238" lon="17.953918739825">
        <ele>46.2</ele>
        <time>2019-09-14T16:14:41Z</time>
      </trkpt>
      <trkpt lat="59.213073908164" lon="17.95387473485">
        <ele>46.2</ele>
        <time>2019-09-14T16:14:42Z</time>
      </trkpt>
      <trkpt lat="59.213101149339" lon="17.953820755414">
        <ele>46.2</ele>
        <time>2019-09-14T16:14:43Z</time>
      </trkpt>
      <trkpt lat="59.213116907311" lon="17.953772810946">
        <ele>46.2</ele>
        <time>2019-09-14T16:14:44Z</time>
      </trkpt>
      <trkpt lat="59.213128139057" lon="17.953736265862">
        <ele>46.4</ele>
        <time>2019-09-14T16:14:45Z</time>
      </trkpt>
      <trkpt lat="59.213141885373" lon="17.953707348307">
        <ele>46.4</ele>
        <time>2019-09-14T16:14:46Z</time>
      </trkpt>
      <trkpt lat="59.213156637517" lon="17.953690919783">
        <ele>46.2</ele>
        <time>2019-09-14T16:14:47Z</time>
      </trkpt>
      <trkpt lat="59.213182453769" lon="17.953683292254">
        <ele>46.2</ele>
        <time>2019-09-14T16:14:48Z</time>
      </trkpt>
      <trkpt lat="59.213215478455" lon="17.953683795168">
        <ele>46.2</ele>
        <time>2019-09-14T16:14:49Z</time>
      </trkpt>
      <trkpt lat="59.213261998" lon="17.953675916182">
        <ele>46</ele>
        <time>2019-09-14T16:14:50Z</time>
      </trkpt>
      <trkpt lat="59.21330139293" lon="17.953658062735">
        <ele>45.8</ele>
        <time>2019-09-14T16:14:51Z</time>
      </trkpt>
      <trkpt lat="59.21334414062" lon="17.953629648094">
        <ele>45.8</ele>
        <time>2019-09-14T16:14:52Z</time>
      </trkpt>
      <trkpt lat="59.213374399279" lon="17.953595198485">
        <ele>45.6</ele>
        <time>2019-09-14T16:14:53Z</time>
      </trkpt>
      <trkpt lat="59.213390576346" lon="17.953551864062">
        <ele>45.4</ele>
        <time>2019-09-14T16:14:54Z</time>
      </trkpt>
      <trkpt lat="59.213401305178" lon="17.953514899883">
        <ele>45.2</ele>
        <time>2019-09-14T16:14:55Z</time>
      </trkpt>
      <trkpt lat="59.213410189992" lon="17.953477768066">
        <ele>45.2</ele>
        <time>2019-09-14T16:14:56Z</time>
      </trkpt>
      <trkpt lat="59.213423349575" lon="17.953431499978">
        <ele>45.2</ele>
        <time>2019-09-14T16:14:57Z</time>
      </trkpt>
      <trkpt lat="59.21343131238" lon="17.953391266858">
        <ele>45</ele>
        <time>2019-09-14T16:14:58Z</time>
      </trkpt>
      <trkpt lat="59.213435335692" lon="17.953355811421">
        <ele>45</ele>
        <time>2019-09-14T16:14:59Z</time>
      </trkpt>
      <trkpt lat="59.213440029556" lon="17.953328654065">
        <ele>45</ele>
        <time>2019-09-14T16:15:00Z</time>
      </trkpt>
      <trkpt lat="59.213443466135" lon="17.953296719026">
        <ele>45</ele>
        <time>2019-09-14T16:15:01Z</time>
      </trkpt>
      <trkpt lat="59.213445813067" lon="17.953259251933">
        <ele>45</ele>
        <time>2019-09-14T16:15:02Z</time>
      </trkpt>
      <trkpt lat="59.213444388144" lon="17.95321591751">
        <ele>45</ele>
        <time>2019-09-14T16:15:03Z</time>
      </trkpt>
      <trkpt lat="59.213446483619" lon="17.953173002182">
        <ele>44.8</ele>
        <time>2019-09-14T16:15:04Z</time>
      </trkpt>
      <trkpt lat="59.213443382316" lon="17.953134780718">
        <ele>44.8</ele>
        <time>2019-09-14T16:15:05Z</time>
      </trkpt>
      <trkpt lat="59.213437347348" lon="17.953096307797">
        <ele>44.8</ele>
        <time>2019-09-14T16:15:06Z</time>
      </trkpt>
      <trkpt lat="59.21343382695" lon="17.953061606731">
        <ele>44.6</ele>
        <time>2019-09-14T16:15:07Z</time>
      </trkpt>
      <trkpt lat="59.213431060923" lon="17.953027408579">
        <ele>44.6</ele>
        <time>2019-09-14T16:15:08Z</time>
      </trkpt>
      <trkpt lat="59.213429887457" lon="17.952990276762">
        <ele>44.6</ele>
        <time>2019-09-14T16:15:09Z</time>
      </trkpt>
      <trkpt lat="59.213425612688" lon="17.952952390574">
        <ele>44.6</ele>
        <time>2019-09-14T16:15:10Z</time>
      </trkpt>
      <trkpt lat="59.213421337919" lon="17.952914085291">
        <ele>44.4</ele>
        <time>2019-09-14T16:15:11Z</time>
      </trkpt>
      <trkpt lat="59.213415219132" lon="17.952873516895">
        <ele>44.4</ele>
        <time>2019-09-14T16:15:12Z</time>
      </trkpt>
      <trkpt lat="59.213408094517" lon="17.952828170816">
        <ele>44.4</ele>
        <time>2019-09-14T16:15:13Z</time>
      </trkpt>
      <trkpt lat="59.213397449504" lon="17.952780729262">
        <ele>44.4</ele>
        <time>2019-09-14T16:15:14Z</time>
      </trkpt>
      <trkpt lat="59.213388899966" lon="17.952710069845">
        <ele>44.2</ele>
        <time>2019-09-14T16:15:15Z</time>
      </trkpt>
      <trkpt lat="59.213380015152" lon="17.952630190338">
        <ele>44.2</ele>
        <time>2019-09-14T16:15:16Z</time>
      </trkpt>
      <trkpt lat="59.213369956872" lon="17.952548802089">
        <ele>44.2</ele>
        <time>2019-09-14T16:15:17Z</time>
      </trkpt>
      <trkpt lat="59.21336090442" lon="17.952484345278">
        <ele>44.2</ele>
        <time>2019-09-14T16:15:18Z</time>
      </trkpt>
      <trkpt lat="59.213355456185" lon="17.952426426349">
        <ele>44.2</ele>
        <time>2019-09-14T16:15:19Z</time>
      </trkpt>
      <trkpt lat="59.213350929959" lon="17.952371524904">
        <ele>44.2</ele>
        <time>2019-09-14T16:15:20Z</time>
      </trkpt>
      <trkpt lat="59.213342548059" lon="17.952304721161">
        <ele>44.2</ele>
        <time>2019-09-14T16:15:21Z</time>
      </trkpt>
      <trkpt lat="59.213338440928" lon="17.952222578541">
        <ele>44.2</ele>
        <time>2019-09-14T16:15:22Z</time>
      </trkpt>
      <trkpt lat="59.213332992693" lon="17.952148231088">
        <ele>44.2</ele>
        <time>2019-09-14T16:15:23Z</time>
      </trkpt>
      <trkpt lat="59.213323437327" lon="17.95207849368">
        <ele>44.2</ele>
        <time>2019-09-14T16:15:24Z</time>
      </trkpt>
      <trkpt lat="59.213317150902" lon="17.952008756272">
        <ele>44.2</ele>
        <time>2019-09-14T16:15:25Z</time>
      </trkpt>
      <trkpt lat="59.213312457038" lon="17.951933570629">
        <ele>44.2</ele>
        <time>2019-09-14T16:15:26Z</time>
      </trkpt>
      <trkpt lat="59.213306505889" lon="17.951857043882">
        <ele>44.2</ele>
        <time>2019-09-14T16:15:27Z</time>
      </trkpt>
      <trkpt lat="59.213301644387" lon="17.951789234311">
        <ele>44.4</ele>
        <time>2019-09-14T16:15:28Z</time>
      </trkpt>
      <trkpt lat="59.213296866704" lon="17.951727459708">
        <ele>44.4</ele>
        <time>2019-09-14T16:15:29Z</time>
      </trkpt>
      <trkpt lat="59.213290831736" lon="17.951667529123">
        <ele>44.4</ele>
        <time>2019-09-14T16:15:30Z</time>
      </trkpt>
      <trkpt lat="59.213285886415" lon="17.951609610194">
        <ele>44.4</ele>
        <time>2019-09-14T16:15:31Z</time>
      </trkpt>
      <trkpt lat="59.213281192551" lon="17.951545153383">
        <ele>44.4</ele>
        <time>2019-09-14T16:15:32Z</time>
      </trkpt>
      <trkpt lat="59.213277755972" lon="17.951476840898">
        <ele>44.4</ele>
        <time>2019-09-14T16:15:33Z</time>
      </trkpt>
      <trkpt lat="59.213271972461" lon="17.951411545897">
        <ele>44.4</ele>
        <time>2019-09-14T16:15:34Z</time>
      </trkpt>
      <trkpt lat="59.213264261113" lon="17.951348514009">
        <ele>44.4</ele>
        <time>2019-09-14T16:15:35Z</time>
      </trkpt>
      <trkpt lat="59.213253783738" lon="17.951286152673">
        <ele>44.4</ele>
        <time>2019-09-14T16:15:36Z</time>
      </trkpt>
      <trkpt lat="59.213237606671" lon="17.951231418866">
        <ele>44.4</ele>
        <time>2019-09-14T16:15:37Z</time>
      </trkpt>
      <trkpt lat="59.213214053532" lon="17.951193029764">
        <ele>44.2</ele>
        <time>2019-09-14T16:15:38Z</time>
      </trkpt>
      <trkpt lat="59.213190919488" lon="17.951175679231">
        <ele>44.2</ele>
        <time>2019-09-14T16:15:39Z</time>
      </trkpt>
      <trkpt lat="59.213167701625" lon="17.951169811901">
        <ele>44.2</ele>
        <time>2019-09-14T16:15:40Z</time>
      </trkpt>
      <trkpt lat="59.213144399943" lon="17.95117408667">
        <ele>44.2</ele>
        <time>2019-09-14T16:15:41Z</time>
      </trkpt>
      <trkpt lat="59.213122523184" lon="17.951175595412">
        <ele>44.2</ele>
        <time>2019-09-14T16:15:42Z</time>
      </trkpt>
      <trkpt lat="59.213100311149" lon="17.951177774706">
        <ele>44.2</ele>
        <time>2019-09-14T16:15:43Z</time>
      </trkpt>
      <trkpt lat="59.213072818517" lon="17.951181127466">
        <ele>44</ele>
        <time>2019-09-14T16:15:44Z</time>
      </trkpt>
      <trkpt lat="59.213046918446" lon="17.951183222941">
        <ele>44</ele>
        <time>2019-09-14T16:15:45Z</time>
      </trkpt>
      <trkpt lat="59.213019509633" lon="17.951185486054">
        <ele>43.8</ele>
        <time>2019-09-14T16:15:46Z</time>
      </trkpt>
      <trkpt lat="59.212992352277" lon="17.951185150778">
        <ele>43.6</ele>
        <time>2019-09-14T16:15:47Z</time>
      </trkpt>
      <trkpt lat="59.21296779331" lon="17.951180540733">
        <ele>43.4</ele>
        <time>2019-09-14T16:15:48Z</time>
      </trkpt>
      <trkpt lat="59.21294432399" lon="17.951178109982">
        <ele>43.4</ele>
        <time>2019-09-14T16:15:49Z</time>
      </trkpt>
      <trkpt lat="59.212919681204" lon="17.951176852697">
        <ele>43.2</ele>
        <time>2019-09-14T16:15:50Z</time>
      </trkpt>
      <trkpt lat="59.21289570897" lon="17.95117576305">
        <ele>43.2</ele>
        <time>2019-09-14T16:15:51Z</time>
      </trkpt>
      <trkpt lat="59.212871652917" lon="17.951175846869">
        <ele>43.2</ele>
        <time>2019-09-14T16:15:52Z</time>
      </trkpt>
      <trkpt lat="59.212849273244" lon="17.951173499937">
        <ele>43.2</ele>
        <time>2019-09-14T16:15:53Z</time>
      </trkpt>
      <trkpt lat="59.212827228847" lon="17.951168722254">
        <ele>43.2</ele>
        <time>2019-09-14T16:15:54Z</time>
      </trkpt>
      <trkpt lat="59.212803927165" lon="17.951163022562">
        <ele>43.2</ele>
        <time>2019-09-14T16:15:55Z</time>
      </trkpt>
      <trkpt lat="59.212779871112" lon="17.951162687286">
        <ele>43.2</ele>
        <time>2019-09-14T16:15:56Z</time>
      </trkpt>
      <trkpt lat="59.212751121195" lon="17.951159585983">
        <ele>43.2</ele>
        <time>2019-09-14T16:15:57Z</time>
      </trkpt>
      <trkpt lat="59.21272304183" lon="17.951152126092">
        <ele>43.2</ele>
        <time>2019-09-14T16:15:58Z</time>
      </trkpt>
      <trkpt lat="59.212694878646" lon="17.951138798871">
        <ele>43.4</ele>
        <time>2019-09-14T16:15:59Z</time>
      </trkpt>
      <trkpt lat="59.212667972747" lon="17.951125555469">
        <ele>43.6</ele>
        <time>2019-09-14T16:16:00Z</time>
      </trkpt>
      <trkpt lat="59.212640312477" lon="17.951111054782">
        <ele>43.8</ele>
        <time>2019-09-14T16:16:01Z</time>
      </trkpt>
      <trkpt lat="59.212612819845" lon="17.951095715905">
        <ele>44</ele>
        <time>2019-09-14T16:16:02Z</time>
      </trkpt>
      <trkpt lat="59.212585159575" lon="17.951082975417">
        <ele>44.2</ele>
        <time>2019-09-14T16:16:03Z</time>
      </trkpt>
      <trkpt lat="59.212555822925" lon="17.951074174422">
        <ele>44.2</ele>
        <time>2019-09-14T16:16:04Z</time>
      </trkpt>
      <trkpt lat="59.212524977533" lon="17.951064954332">
        <ele>44.2</ele>
        <time>2019-09-14T16:16:05Z</time>
      </trkpt>
      <trkpt lat="59.212493796865" lon="17.951054560776">
        <ele>44.2</ele>
        <time>2019-09-14T16:16:06Z</time>
      </trkpt>
      <trkpt lat="59.212459263437" lon="17.951043831944">
        <ele>44.2</ele>
        <time>2019-09-14T16:16:07Z</time>
      </trkpt>
      <trkpt lat="59.212426071113" lon="17.951033186931">
        <ele>44.2</ele>
        <time>2019-09-14T16:16:08Z</time>
      </trkpt>
      <trkpt lat="59.212393214065" lon="17.951027654877">
        <ele>44.2</ele>
        <time>2019-09-14T16:16:09Z</time>
      </trkpt>
      <trkpt lat="59.212322889924" lon="17.951026229954">
        <ele>44.2</ele>
        <time>2019-09-14T16:16:11Z</time>
      </trkpt>
      <trkpt lat="59.212289529962" lon="17.951028660705">
        <ele>44.2</ele>
        <time>2019-09-14T16:16:12Z</time>
      </trkpt>
      <trkpt lat="59.212256756733" lon="17.951033857483">
        <ele>44.2</ele>
        <time>2019-09-14T16:16:13Z</time>
      </trkpt>
      <trkpt lat="59.212224905513" lon="17.951039473356">
        <ele>44.4</ele>
        <time>2019-09-14T16:16:14Z</time>
      </trkpt>
      <trkpt lat="59.212192132284" lon="17.95104249084">
        <ele>44.4</ele>
        <time>2019-09-14T16:16:15Z</time>
      </trkpt>
      <trkpt lat="59.21216061634" lon="17.951049699274">
        <ele>44.4</ele>
        <time>2019-09-14T16:16:16Z</time>
      </trkpt>
      <trkpt lat="59.212127256378" lon="17.951057075346">
        <ele>44.4</ele>
        <time>2019-09-14T16:16:17Z</time>
      </trkpt>
      <trkpt lat="59.212091549484" lon="17.951063026495">
        <ele>44.4</ele>
        <time>2019-09-14T16:16:18Z</time>
      </trkpt>
      <trkpt lat="59.212056345504" lon="17.951071408395">
        <ele>44.4</ele>
        <time>2019-09-14T16:16:19Z</time>
      </trkpt>
      <trkpt lat="59.212022398809" lon="17.951080796123">
        <ele>44.4</ele>
        <time>2019-09-14T16:16:20Z</time>
      </trkpt>
      <trkpt lat="59.211990547589" lon="17.951089178023">
        <ele>44.4</ele>
        <time>2019-09-14T16:16:21Z</time>
      </trkpt>
      <trkpt lat="59.211958947826" lon="17.951096637914">
        <ele>44.4</ele>
        <time>2019-09-14T16:16:22Z</time>
      </trkpt>
      <trkpt lat="59.211934891773" lon="17.951099068665">
        <ele>44.2</ele>
        <time>2019-09-14T16:16:23Z</time>
      </trkpt>
      <trkpt lat="59.211916451593" lon="17.951099236303">
        <ele>44.2</ele>
        <time>2019-09-14T16:16:24Z</time>
      </trkpt>
      <trkpt lat="59.211893652825" lon="17.951104600719">
        <ele>44.4</ele>
        <time>2019-09-14T16:16:25Z</time>
      </trkpt>
      <trkpt lat="59.211867920392" lon="17.951110048954">
        <ele>44.4</ele>
        <time>2019-09-14T16:16:26Z</time>
      </trkpt>
      <trkpt lat="59.211837410276" lon="17.951112563524">
        <ele>44.4</ele>
        <time>2019-09-14T16:16:27Z</time>
      </trkpt>
      <trkpt lat="59.211809666187" lon="17.951122789442">
        <ele>44.4</ele>
        <time>2019-09-14T16:16:28Z</time>
      </trkpt>
      <trkpt lat="59.211781167727" lon="17.951138966509">
        <ele>44.4</ele>
        <time>2019-09-14T16:16:29Z</time>
      </trkpt>
      <trkpt lat="59.211757614588" lon="17.951157155232">
        <ele>44.6</ele>
        <time>2019-09-14T16:16:30Z</time>
      </trkpt>
      <trkpt lat="59.211738336218" lon="17.951177104154">
        <ele>44.6</ele>
        <time>2019-09-14T16:16:31Z</time>
      </trkpt>
      <trkpt lat="59.211722745884" lon="17.951197053076">
        <ele>44.6</ele>
        <time>2019-09-14T16:16:32Z</time>
      </trkpt>
      <trkpt lat="59.211705814446" lon="17.951218175464">
        <ele>44.6</ele>
        <time>2019-09-14T16:16:33Z</time>
      </trkpt>
      <trkpt lat="59.211689218284" lon="17.951246841562">
        <ele>44.6</ele>
        <time>2019-09-14T16:16:34Z</time>
      </trkpt>
      <trkpt lat="59.211669185543" lon="17.951277267859">
        <ele>44.6</ele>
        <time>2019-09-14T16:16:35Z</time>
      </trkpt>
      <trkpt lat="59.211646302956" lon="17.951313896762">
        <ele>44.8</ele>
        <time>2019-09-14T16:16:36Z</time>
      </trkpt>
      <trkpt lat="59.211624929111" lon="17.951342479041">
        <ele>44.8</ele>
        <time>2019-09-14T16:16:37Z</time>
      </trkpt>
      <trkpt lat="59.211593664624" lon="17.951375671365">
        <ele>44.8</ele>
        <time>2019-09-14T16:16:39Z</time>
      </trkpt>
      <trkpt lat="59.211576230272" lon="17.951402493445">
        <ele>44.8</ele>
        <time>2019-09-14T16:16:40Z</time>
      </trkpt>
      <trkpt lat="59.211560304662" lon="17.951428644973">
        <ele>45</ele>
        <time>2019-09-14T16:16:41Z</time>
      </trkpt>
      <trkpt lat="59.211544043776" lon="17.95144901299">
        <ele>45</ele>
        <time>2019-09-14T16:16:42Z</time>
      </trkpt>
      <trkpt lat="59.21152862108" lon="17.951468961912">
        <ele>45</ele>
        <time>2019-09-14T16:16:43Z</time>
      </trkpt>
      <trkpt lat="59.211513701298" lon="17.951483127323">
        <ele>45.2</ele>
        <time>2019-09-14T16:16:44Z</time>
      </trkpt>
      <trkpt lat="59.211499619706" lon="17.951505758453">
        <ele>45.4</ele>
        <time>2019-09-14T16:16:45Z</time>
      </trkpt>
      <trkpt lat="59.211492746548" lon="17.951530987972">
        <ele>45.6</ele>
        <time>2019-09-14T16:16:46Z</time>
      </trkpt>
      <trkpt lat="59.211479335508" lon="17.95155881588">
        <ele>45.6</ele>
        <time>2019-09-14T16:16:47Z</time>
      </trkpt>
      <trkpt lat="59.211473803454" lon="17.951587901073">
        <ele>45.6</ele>
        <time>2019-09-14T16:16:48Z</time>
      </trkpt>
      <trkpt lat="59.211463577536" lon="17.951613801144">
        <ele>45.6</ele>
        <time>2019-09-14T16:16:49Z</time>
      </trkpt>
      <trkpt lat="59.211454273627" lon="17.951633582428">
        <ele>45.8</ele>
        <time>2019-09-14T16:16:50Z</time>
      </trkpt>
      <trkpt lat="59.211434827619" lon="17.951654956273">
        <ele>45.8</ele>
        <time>2019-09-14T16:16:51Z</time>
      </trkpt>
      <trkpt lat="59.211421584217" lon="17.951685634027">
        <ele>45.8</ele>
        <time>2019-09-14T16:16:52Z</time>
      </trkpt>
      <trkpt lat="59.211404066046" lon="17.95171555741">
        <ele>45.8</ele>
        <time>2019-09-14T16:16:53Z</time>
      </trkpt>
      <trkpt lat="59.21138529059" lon="17.951731818296">
        <ele>45.8</ele>
        <time>2019-09-14T16:16:54Z</time>
      </trkpt>
      <trkpt lat="59.211372047188" lon="17.951751264304">
        <ele>45.8</ele>
        <time>2019-09-14T16:16:55Z</time>
      </trkpt>
      <trkpt lat="59.211353355551" lon="17.951781690601">
        <ele>45.8</ele>
        <time>2019-09-14T16:16:56Z</time>
      </trkpt>
      <trkpt lat="59.211330640602" lon="17.951809350871">
        <ele>45.8</ele>
        <time>2019-09-14T16:16:57Z</time>
      </trkpt>
      <trkpt lat="59.211320079408" lon="17.951818235685">
        <ele>45.8</ele>
        <time>2019-09-14T16:16:58Z</time>
      </trkpt>
      <trkpt lat="59.211301806866" lon="17.95184296229">
        <ele>45.8</ele>
        <time>2019-09-14T16:16:59Z</time>
      </trkpt>
      <trkpt lat="59.211267021981" lon="17.951873388587">
        <ele>45.8</ele>
        <time>2019-09-14T16:17:00Z</time>
      </trkpt>
      <trkpt lat="59.211245648136" lon="17.95188906274">
        <ele>45.8</ele>
        <time>2019-09-14T16:17:01Z</time>
      </trkpt>
      <trkpt lat="59.211215054201" lon="17.951931475154">
        <ele>45.8</ele>
        <time>2019-09-14T16:17:02Z</time>
      </trkpt>
      <trkpt lat="59.211180436954" lon="17.951970702446">
        <ele>46</ele>
        <time>2019-09-14T16:17:03Z</time>
      </trkpt>
      <trkpt lat="59.211152106132" lon="17.952003140399">
        <ele>46</ele>
        <time>2019-09-14T16:17:04Z</time>
      </trkpt>
      <trkpt lat="59.211122350387" lon="17.952011941394">
        <ele>46.2</ele>
        <time>2019-09-14T16:17:05Z</time>
      </trkpt>
      <trkpt lat="59.211093097556" lon="17.952031135945">
        <ele>46.2</ele>
        <time>2019-09-14T16:17:06Z</time>
      </trkpt>
      <trkpt lat="59.211035681541" lon="17.952031471221">
        <ele>46.6</ele>
        <time>2019-09-14T16:17:08Z</time>
      </trkpt>
      <trkpt lat="59.211016151714" lon="17.952034404886">
        <ele>46.8</ele>
        <time>2019-09-14T16:17:09Z</time>
      </trkpt>
      <trkpt lat="59.211000729018" lon="17.952026609719">
        <ele>47</ele>
        <time>2019-09-14T16:17:10Z</time>
      </trkpt>
      <trkpt lat="59.210980863915" lon="17.952023927511">
        <ele>47.2</ele>
        <time>2019-09-14T16:17:11Z</time>
      </trkpt>
      <trkpt lat="59.210958065147" lon="17.952010013557">
        <ele>47.2</ele>
        <time>2019-09-14T16:17:12Z</time>
      </trkpt>
      <trkpt lat="59.210922944986" lon="17.951992495386">
        <ele>47.4</ele>
        <time>2019-09-14T16:17:13Z</time>
      </trkpt>
      <trkpt lat="59.210905342996" lon="17.951982018011">
        <ele>47.4</ele>
        <time>2019-09-14T16:17:14Z</time>
      </trkpt>
      <trkpt lat="59.210889585024" lon="17.951961817632">
        <ele>47.4</ele>
        <time>2019-09-14T16:17:15Z</time>
      </trkpt>
      <trkpt lat="59.21087567107" lon="17.951933989724">
        <ele>47.6</ele>
        <time>2019-09-14T16:17:16Z</time>
      </trkpt>
      <trkpt lat="59.210859996917" lon="17.951900294486">
        <ele>47.8</ele>
        <time>2019-09-14T16:17:17Z</time>
      </trkpt>
      <trkpt lat="59.2108480108" lon="17.951877244261">
        <ele>48</ele>
        <time>2019-09-14T16:17:18Z</time>
      </trkpt>
      <trkpt lat="59.210835102674" lon="17.951837514055">
        <ele>48</ele>
        <time>2019-09-14T16:17:19Z</time>
      </trkpt>
      <trkpt lat="59.210827558964" lon="17.95180272917">
        <ele>48.2</ele>
        <time>2019-09-14T16:17:20Z</time>
      </trkpt>
      <trkpt lat="59.210823368014" lon="17.951770458855">
        <ele>48.4</ele>
        <time>2019-09-14T16:17:21Z</time>
      </trkpt>
      <trkpt lat="59.210815489028" lon="17.951710360632">
        <ele>48.6</ele>
        <time>2019-09-14T16:17:22Z</time>
      </trkpt>
      <trkpt lat="59.210812303906" lon="17.951668115856">
        <ele>48.8</ele>
        <time>2019-09-14T16:17:23Z</time>
      </trkpt>
      <trkpt lat="59.210808280594" lon="17.951618914103">
        <ele>49</ele>
        <time>2019-09-14T16:17:24Z</time>
      </trkpt>
      <trkpt lat="59.210803335273" lon="17.95156133045">
        <ele>49.4</ele>
        <time>2019-09-14T16:17:25Z</time>
      </trkpt>
      <trkpt lat="59.210804005825" lon="17.951515481457">
        <ele>49.6</ele>
        <time>2019-09-14T16:17:26Z</time>
      </trkpt>
      <trkpt lat="59.210803922006" lon="17.951460580012">
        <ele>49.8</ele>
        <time>2019-09-14T16:17:27Z</time>
      </trkpt>
      <trkpt lat="59.21080358673" lon="17.951404253644">
        <ele>49.8</ele>
        <time>2019-09-14T16:17:28Z</time>
      </trkpt>
      <trkpt lat="59.210806604214" lon="17.951355638624">
        <ele>49.8</ele>
        <time>2019-09-14T16:17:29Z</time>
      </trkpt>
      <trkpt lat="59.210808867327" lon="17.951316998065">
        <ele>50</ele>
        <time>2019-09-14T16:17:30Z</time>
      </trkpt>
      <trkpt lat="59.21080945406" lon="17.951274418013">
        <ele>50</ele>
        <time>2019-09-14T16:17:31Z</time>
      </trkpt>
      <trkpt lat="59.210811465716" lon="17.951235777454">
        <ele>50</ele>
        <time>2019-09-14T16:17:32Z</time>
      </trkpt>
      <trkpt lat="59.210816662494" lon="17.951187581529">
        <ele>50</ele>
        <time>2019-09-14T16:17:33Z</time>
      </trkpt>
      <trkpt lat="59.210822697462" lon="17.951135027016">
        <ele>50</ele>
        <time>2019-09-14T16:17:34Z</time>
      </trkpt>
      <trkpt lat="59.210829654439" lon="17.951078281553">
        <ele>50</ele>
        <time>2019-09-14T16:17:35Z</time>
      </trkpt>
      <trkpt lat="59.210834851217" lon="17.951021368452">
        <ele>50</ele>
        <time>2019-09-14T16:17:36Z</time>
      </trkpt>
      <trkpt lat="59.210836862873" lon="17.950965880274">
        <ele>50</ele>
        <time>2019-09-14T16:17:37Z</time>
      </trkpt>
      <trkpt lat="59.21084046709" lon="17.950912319933">
        <ele>50</ele>
        <time>2019-09-14T16:17:38Z</time>
      </trkpt>
      <trkpt lat="59.210841389099" lon="17.950856077384">
        <ele>50</ele>
        <time>2019-09-14T16:17:39Z</time>
      </trkpt>
      <trkpt lat="59.210842730203" lon="17.950810396029">
        <ele>50</ele>
        <time>2019-09-14T16:17:40Z</time>
      </trkpt>
      <trkpt lat="59.210848429895" lon="17.950772677479">
        <ele>50</ele>
        <time>2019-09-14T16:17:41Z</time>
      </trkpt>
      <trkpt lat="59.210854632501" lon="17.950733534006">
        <ele>50</ele>
        <time>2019-09-14T16:17:42Z</time>
      </trkpt>
      <trkpt lat="59.210859577822" lon="17.950695228723">
        <ele>50.2</ele>
        <time>2019-09-14T16:17:43Z</time>
      </trkpt>
      <trkpt lat="59.21086309822" lon="17.95064937973">
        <ele>50.2</ele>
        <time>2019-09-14T16:17:44Z</time>
      </trkpt>
      <trkpt lat="59.210868714093" lon="17.950597998683">
        <ele>50.2</ele>
        <time>2019-09-14T16:17:45Z</time>
      </trkpt>
      <trkpt lat="59.210876676898" lon="17.950543264876">
        <ele>50.2</ele>
        <time>2019-09-14T16:17:46Z</time>
      </trkpt>
      <trkpt lat="59.210881706038" lon="17.950488195793">
        <ele>50.2</ele>
        <time>2019-09-14T16:17:47Z</time>
      </trkpt>
      <trkpt lat="59.210890590852" lon="17.950437652936">
        <ele>50.2</ele>
        <time>2019-09-14T16:17:48Z</time>
      </trkpt>
      <trkpt lat="59.210900230037" lon="17.95038199712">
        <ele>50.2</ele>
        <time>2019-09-14T16:17:49Z</time>
      </trkpt>
      <trkpt lat="59.210908863394" lon="17.950326928037">
        <ele>50.2</ele>
        <time>2019-09-14T16:17:50Z</time>
      </trkpt>
      <trkpt lat="59.210914730724" lon="17.950210922541">
        <ele>50.4</ele>
        <time>2019-09-14T16:17:52Z</time>
      </trkpt>
      <trkpt lat="59.210916658561" lon="17.950150489042">
        <ele>50.4</ele>
        <time>2019-09-14T16:17:53Z</time>
      </trkpt>
      <trkpt lat="59.210918167303" lon="17.950096090511">
        <ele>50.4</ele>
        <time>2019-09-14T16:17:54Z</time>
      </trkpt>
      <trkpt lat="59.210921939158" lon="17.95003833922">
        <ele>50.4</ele>
        <time>2019-09-14T16:17:55Z</time>
      </trkpt>
      <trkpt lat="59.210923615538" lon="17.94997128402">
        <ele>50.4</ele>
        <time>2019-09-14T16:17:56Z</time>
      </trkpt>
      <trkpt lat="59.210924872823" lon="17.949909425598">
        <ele>50.4</ele>
        <time>2019-09-14T16:17:57Z</time>
      </trkpt>
      <trkpt lat="59.210921520063" lon="17.94984807009">
        <ele>50.6</ele>
        <time>2019-09-14T16:17:58Z</time>
      </trkpt>
      <trkpt lat="59.210917664389" lon="17.949811608825">
        <ele>50.8</ele>
        <time>2019-09-14T16:17:59Z</time>
      </trkpt>
      <trkpt lat="59.210920430416" lon="17.949766598022">
        <ele>50.8</ele>
        <time>2019-09-14T16:18:00Z</time>
      </trkpt>
      <trkpt lat="59.210920262778" lon="17.94971563607">
        <ele>51.2</ele>
        <time>2019-09-14T16:18:01Z</time>
      </trkpt>
      <trkpt lat="59.210919089312" lon="17.949673894208">
        <ele>51.2</ele>
        <time>2019-09-14T16:18:02Z</time>
      </trkpt>
      <trkpt lat="59.210916826199" lon="17.949627374663">
        <ele>51.4</ele>
        <time>2019-09-14T16:18:03Z</time>
      </trkpt>
      <trkpt lat="59.210907103195" lon="17.949520756895">
        <ele>52.2</ele>
        <time>2019-09-14T16:18:05Z</time>
      </trkpt>
      <trkpt lat="59.210898721295" lon="17.949472728608">
        <ele>52.6</ele>
        <time>2019-09-14T16:18:06Z</time>
      </trkpt>
      <trkpt lat="59.21089075849" lon="17.949438781913">
        <ele>53</ele>
        <time>2019-09-14T16:18:07Z</time>
      </trkpt>
      <trkpt lat="59.210882711866" lon="17.949402739743">
        <ele>53.4</ele>
        <time>2019-09-14T16:18:08Z</time>
      </trkpt>
      <trkpt lat="59.210873659414" lon="17.94937952188">
        <ele>54</ele>
        <time>2019-09-14T16:18:09Z</time>
      </trkpt>
      <trkpt lat="59.210868462636" lon="17.949358818587">
        <ele>54.8</ele>
        <time>2019-09-14T16:18:10Z</time>
      </trkpt>
      <trkpt lat="59.210833426294" lon="17.949176428443">
        <ele>58.2</ele>
        <time>2019-09-14T16:19:26Z</time>
      </trkpt>
      <trkpt lat="59.210828816249" lon="17.949101829533">
        <ele>58.2</ele>
        <time>2019-09-14T16:19:27Z</time>
      </trkpt>
      <trkpt lat="59.210822110729" lon="17.9490090419">
        <ele>58.2</ele>
        <time>2019-09-14T16:19:28Z</time>
      </trkpt>
      <trkpt lat="59.210811046621" lon="17.948905860711">
        <ele>58.2</ele>
        <time>2019-09-14T16:19:29Z</time>
      </trkpt>
      <trkpt lat="59.210800736884" lon="17.948805194092">
        <ele>58.2</ele>
        <time>2019-09-14T16:19:30Z</time>
      </trkpt>
      <trkpt lat="59.210789253681" lon="17.948709891889">
        <ele>58.2</ele>
        <time>2019-09-14T16:19:31Z</time>
      </trkpt>
      <trkpt lat="59.210780285048" lon="17.948621211387">
        <ele>58.2</ele>
        <time>2019-09-14T16:19:32Z</time>
      </trkpt>
      <trkpt lat="59.210767796017" lon="17.948541834794">
        <ele>58.2</ele>
        <time>2019-09-14T16:19:33Z</time>
      </trkpt>
      <trkpt lat="59.210754217339" lon="17.948466313875">
        <ele>57.8</ele>
        <time>2019-09-14T16:19:34Z</time>
      </trkpt>
      <trkpt lat="59.210739213738" lon="17.948400432141">
        <ele>57.4</ele>
        <time>2019-09-14T16:19:35Z</time>
      </trkpt>
      <trkpt lat="59.210724964508" lon="17.948342932307">
        <ele>57.4</ele>
        <time>2019-09-14T16:19:36Z</time>
      </trkpt>
      <trkpt lat="59.210708619803" lon="17.948281828256">
        <ele>57.2</ele>
        <time>2019-09-14T16:19:37Z</time>
      </trkpt>
      <trkpt lat="59.210690347261" lon="17.948227681182">
        <ele>57.2</ele>
        <time>2019-09-14T16:19:38Z</time>
      </trkpt>
      <trkpt lat="59.210676265669" lon="17.948182921836">
        <ele>57.2</ele>
        <time>2019-09-14T16:19:39Z</time>
      </trkpt>
      <trkpt lat="59.21066025624" lon="17.948141012336">
        <ele>57.2</ele>
        <time>2019-09-14T16:19:40Z</time>
      </trkpt>
      <trkpt lat="59.210648605399" lon="17.94810044394">
        <ele>57.2</ele>
        <time>2019-09-14T16:19:41Z</time>
      </trkpt>
      <trkpt lat="59.210631590142" lon="17.948057444793">
        <ele>57.2</ele>
        <time>2019-09-14T16:19:42Z</time>
      </trkpt>
      <trkpt lat="59.210612311772" lon="17.948008913592">
        <ele>57.2</ele>
        <time>2019-09-14T16:19:43Z</time>
      </trkpt>
      <trkpt lat="59.210600325655" lon="17.947958957468">
        <ele>57.4</ele>
        <time>2019-09-14T16:19:44Z</time>
      </trkpt>
      <trkpt lat="59.210596721438" lon="17.947902128186">
        <ele>57.6</ele>
        <time>2019-09-14T16:19:45Z</time>
      </trkpt>
      <trkpt lat="59.210600074198" lon="17.947858123211">
        <ele>58</ele>
        <time>2019-09-14T16:19:46Z</time>
      </trkpt>
      <trkpt lat="59.210608204641" lon="17.947826020534">
        <ele>58.2</ele>
        <time>2019-09-14T16:19:47Z</time>
      </trkpt>
      <trkpt lat="59.21061834674" lon="17.947794923685">
        <ele>58.4</ele>
        <time>2019-09-14T16:19:48Z</time>
      </trkpt>
      <trkpt lat="59.210633601798" lon="17.947771202908">
        <ele>58.4</ele>
        <time>2019-09-14T16:19:49Z</time>
      </trkpt>
      <trkpt lat="59.210652628711" lon="17.947748068864">
        <ele>58.6</ele>
        <time>2019-09-14T16:19:50Z</time>
      </trkpt>
      <trkpt lat="59.210677187678" lon="17.947720324775">
        <ele>58.6</ele>
        <time>2019-09-14T16:19:51Z</time>
      </trkpt>
      <trkpt lat="59.210703339206" lon="17.947684534062">
        <ele>58.6</ele>
        <time>2019-09-14T16:19:52Z</time>
      </trkpt>
      <trkpt lat="59.210732089123" lon="17.947649832996">
        <ele>58.6</ele>
        <time>2019-09-14T16:19:53Z</time>
      </trkpt>
      <trkpt lat="59.210762096325" lon="17.947608091134">
        <ele>58.6</ele>
        <time>2019-09-14T16:19:54Z</time>
      </trkpt>
      <trkpt lat="59.210792522622" lon="17.947564505254">
        <ele>58.6</ele>
        <time>2019-09-14T16:19:55Z</time>
      </trkpt>
      <trkpt lat="59.210822948919" lon="17.947526619066">
        <ele>58.6</ele>
        <time>2019-09-14T16:19:56Z</time>
      </trkpt>
      <trkpt lat="59.210854967777" lon="17.947484039014">
        <ele>58.4</ele>
        <time>2019-09-14T16:19:57Z</time>
      </trkpt>
      <trkpt lat="59.210888495377" lon="17.947431735958">
        <ele>58.2</ele>
        <time>2019-09-14T16:19:58Z</time>
      </trkpt>
      <trkpt lat="59.210924621366" lon="17.947381863653">
        <ele>58</ele>
        <time>2019-09-14T16:19:59Z</time>
      </trkpt>
      <trkpt lat="59.210961082631" lon="17.947333583909">
        <ele>57.8</ele>
        <time>2019-09-14T16:20:00Z</time>
      </trkpt>
      <trkpt lat="59.210993269127" lon="17.94727901774">
        <ele>57.6</ele>
        <time>2019-09-14T16:20:01Z</time>
      </trkpt>
      <trkpt lat="59.211032244962" lon="17.947228391064">
        <ele>57</ele>
        <time>2019-09-14T16:20:02Z</time>
      </trkpt>
      <trkpt lat="59.211069879693" lon="17.947181200967">
        <ele>56.6</ele>
        <time>2019-09-14T16:20:03Z</time>
      </trkpt>
      <trkpt lat="59.211109274623" lon="17.947131077205">
        <ele>56</ele>
        <time>2019-09-14T16:20:04Z</time>
      </trkpt>
      <trkpt lat="59.211149507743" lon="17.947080282891">
        <ele>55.8</ele>
        <time>2019-09-14T16:20:05Z</time>
      </trkpt>
      <trkpt lat="59.211194602365" lon="17.947036445554">
        <ele>55.6</ele>
        <time>2019-09-14T16:20:06Z</time>
      </trkpt>
      <trkpt lat="59.211246570145" lon="17.946995038968">
        <ele>55</ele>
        <time>2019-09-14T16:20:07Z</time>
      </trkpt>
      <trkpt lat="59.211301890685" lon="17.946974335675">
        <ele>55</ele>
        <time>2019-09-14T16:20:08Z</time>
      </trkpt>
      <trkpt lat="59.211357043587" lon="17.946966791965">
        <ele>54.4</ele>
        <time>2019-09-14T16:20:09Z</time>
      </trkpt>
      <trkpt lat="59.211410855385" lon="17.946960337902">
        <ele>54</ele>
        <time>2019-09-14T16:20:10Z</time>
      </trkpt>
      <trkpt lat="59.211459218948" lon="17.946958745341">
        <ele>53.4</ele>
        <time>2019-09-14T16:20:11Z</time>
      </trkpt>
      <trkpt lat="59.211511689642" lon="17.946953883839">
        <ele>53</ele>
        <time>2019-09-14T16:20:12Z</time>
      </trkpt>
      <trkpt lat="59.211570446761" lon="17.946940305161">
        <ele>52.2</ele>
        <time>2019-09-14T16:20:13Z</time>
      </trkpt>
      <trkpt lat="59.211633897744" lon="17.946926642664">
        <ele>51.4</ele>
        <time>2019-09-14T16:20:14Z</time>
      </trkpt>
      <trkpt lat="59.211702713143" lon="17.946914740366">
        <ele>50.4</ele>
        <time>2019-09-14T16:20:15Z</time>
      </trkpt>
      <trkpt lat="59.211773456379" lon="17.946908705398">
        <ele>49.8</ele>
        <time>2019-09-14T16:20:16Z</time>
      </trkpt>
      <trkpt lat="59.211837410276" lon="17.946899569127">
        <ele>49.2</ele>
        <time>2019-09-14T16:20:17Z</time>
      </trkpt>
      <trkpt lat="59.211895580662" lon="17.946891103408">
        <ele>48.6</ele>
        <time>2019-09-14T16:20:18Z</time>
      </trkpt>
      <trkpt lat="59.211939585637" lon="17.946880290757">
        <ele>48.2</ele>
        <time>2019-09-14T16:20:19Z</time>
      </trkpt>
      <trkpt lat="59.211965485708" lon="17.946858330179">
        <ele>48</ele>
        <time>2019-09-14T16:20:20Z</time>
      </trkpt>
      <trkpt lat="59.211988033019" lon="17.946823293837">
        <ele>47.4</ele>
        <time>2019-09-14T16:20:21Z</time>
      </trkpt>
      <trkpt lat="59.211993648892" lon="17.946787670762">
        <ele>47</ele>
        <time>2019-09-14T16:20:22Z</time>
      </trkpt>
      <trkpt lat="59.212004377724" lon="17.946750874221">
        <ele>46.6</ele>
        <time>2019-09-14T16:20:23Z</time>
      </trkpt>
      <trkpt lat="59.212017034393" lon="17.946712736576">
        <ele>46.4</ele>
        <time>2019-09-14T16:20:24Z</time>
      </trkpt>
      <trkpt lat="59.212026673578" lon="17.946670659438">
        <ele>46.2</ele>
        <time>2019-09-14T16:20:25Z</time>
      </trkpt>
      <trkpt lat="59.212033546736" lon="17.946623134065">
        <ele>46.2</ele>
        <time>2019-09-14T16:20:26Z</time>
      </trkpt>
      <trkpt lat="59.212028769053" lon="17.946580470194">
        <ele>46.2</ele>
        <time>2019-09-14T16:20:27Z</time>
      </trkpt>
      <trkpt lat="59.212026422121" lon="17.946536632857">
        <ele>46.2</ele>
        <time>2019-09-14T16:20:28Z</time>
      </trkpt>
      <trkpt lat="59.212033546736" lon="17.946489945674">
        <ele>46</ele>
        <time>2019-09-14T16:20:29Z</time>
      </trkpt>
      <trkpt lat="59.212041006627" lon="17.946444431957">
        <ele>46</ele>
        <time>2019-09-14T16:20:30Z</time>
      </trkpt>
      <trkpt lat="59.212047376871" lon="17.946403360647">
        <ele>46</ele>
        <time>2019-09-14T16:20:31Z</time>
      </trkpt>
      <trkpt lat="59.212056513142" lon="17.946350973772">
        <ele>46</ele>
        <time>2019-09-14T16:20:32Z</time>
      </trkpt>
      <trkpt lat="59.212062715748" lon="17.946295066499">
        <ele>46</ele>
        <time>2019-09-14T16:20:33Z</time>
      </trkpt>
      <trkpt lat="59.212066990517" lon="17.946248546954">
        <ele>46.2</ele>
        <time>2019-09-14T16:20:34Z</time>
      </trkpt>
      <trkpt lat="59.212072187295" lon="17.946197333545">
        <ele>46.2</ele>
        <time>2019-09-14T16:20:35Z</time>
      </trkpt>
      <trkpt lat="59.212079647186" lon="17.946142851195">
        <ele>46.4</ele>
        <time>2019-09-14T16:20:36Z</time>
      </trkpt>
      <trkpt lat="59.212082748489" lon="17.94608962613">
        <ele>46.6</ele>
        <time>2019-09-14T16:20:37Z</time>
      </trkpt>
      <trkpt lat="59.21208769381" lon="17.946034808504">
        <ele>46.6</ele>
        <time>2019-09-14T16:20:38Z</time>
      </trkpt>
      <trkpt lat="59.212094902244" lon="17.945983511276">
        <ele>46.4</ele>
        <time>2019-09-14T16:20:39Z</time>
      </trkpt>
      <trkpt lat="59.212103954696" lon="17.945933555152">
        <ele>46.6</ele>
        <time>2019-09-14T16:20:40Z</time>
      </trkpt>
      <trkpt lat="59.212114012976" lon="17.945880162449">
        <ele>46.4</ele>
        <time>2019-09-14T16:20:41Z</time>
      </trkpt>
      <trkpt lat="59.212124741808" lon="17.94583397818">
        <ele>46.4</ele>
        <time>2019-09-14T16:20:42Z</time>
      </trkpt>
      <trkpt lat="59.212136979382" lon="17.945797265458">
        <ele>46.6</ele>
        <time>2019-09-14T16:20:43Z</time>
      </trkpt>
      <trkpt lat="59.212153156449" lon="17.94575770289">
        <ele>46.4</ele>
        <time>2019-09-14T16:20:44Z</time>
      </trkpt>
      <trkpt lat="59.212163885281" lon="17.94570992606">
        <ele>46.6</ele>
        <time>2019-09-14T16:20:45Z</time>
      </trkpt>
      <trkpt lat="59.212161622168" lon="17.945669357664">
        <ele>46.6</ele>
        <time>2019-09-14T16:20:46Z</time>
      </trkpt>
      <trkpt lat="59.212151647707" lon="17.945617557522">
        <ele>46.6</ele>
        <time>2019-09-14T16:20:47Z</time>
      </trkpt>
      <trkpt lat="59.212138152848" lon="17.945564416276">
        <ele>46.6</ele>
        <time>2019-09-14T16:20:48Z</time>
      </trkpt>
      <trkpt lat="59.212119042116" lon="17.945524266975">
        <ele>46.6</ele>
        <time>2019-09-14T16:20:49Z</time>
      </trkpt>
      <trkpt lat="59.212096327167" lon="17.945476993059">
        <ele>46.6</ele>
        <time>2019-09-14T16:20:50Z</time>
      </trkpt>
      <trkpt lat="59.212075875331" lon="17.945433826274">
        <ele>46.6</ele>
        <time>2019-09-14T16:20:51Z</time>
      </trkpt>
      <trkpt lat="59.212055255857" lon="17.945391581498">
        <ele>46.8</ele>
        <time>2019-09-14T16:20:52Z</time>
      </trkpt>
      <trkpt lat="59.212032960003" lon="17.945351516016">
        <ele>46.8</ele>
        <time>2019-09-14T16:20:53Z</time>
      </trkpt>
      <trkpt lat="59.212012675805" lon="17.945314635656">
        <ele>46.8</ele>
        <time>2019-09-14T16:20:54Z</time>
      </trkpt>
      <trkpt lat="59.211987865381" lon="17.945280605142">
        <ele>46.8</ele>
        <time>2019-09-14T16:20:55Z</time>
      </trkpt>
      <trkpt lat="59.211960037473" lon="17.945244143877">
        <ele>46.8</ele>
        <time>2019-09-14T16:20:56Z</time>
      </trkpt>
      <trkpt lat="59.211933634488" lon="17.94521036482">
        <ele>46.8</ele>
        <time>2019-09-14T16:20:57Z</time>
      </trkpt>
      <trkpt lat="59.211907566779" lon="17.945184716206">
        <ele>46.6</ele>
        <time>2019-09-14T16:20:58Z</time>
      </trkpt>
      <trkpt lat="59.21187982269" lon="17.945168371501">
        <ele>46.8</ele>
        <time>2019-09-14T16:20:59Z</time>
      </trkpt>
      <trkpt lat="59.211851491868" lon="17.945172981546">
        <ele>46.6</ele>
        <time>2019-09-14T16:21:00Z</time>
      </trkpt>
      <trkpt lat="59.211822658132" lon="17.945186141129">
        <ele>46.6</ele>
        <time>2019-09-14T16:21:01Z</time>
      </trkpt>
      <trkpt lat="59.211799104993" lon="17.945203743119">
        <ele>46.6</ele>
        <time>2019-09-14T16:21:02Z</time>
      </trkpt>
      <trkpt lat="59.211778653157" lon="17.945234839968">
        <ele>46.8</ele>
        <time>2019-09-14T16:21:03Z</time>
      </trkpt>
      <trkpt lat="59.211762979004" lon="17.945274737812">
        <ele>46.8</ele>
        <time>2019-09-14T16:21:04Z</time>
      </trkpt>
      <trkpt lat="59.211748729774" lon="17.945308097774">
        <ele>46.6</ele>
        <time>2019-09-14T16:21:05Z</time>
      </trkpt>
      <trkpt lat="59.211733558535" lon="17.945339529899">
        <ele>46.6</ele>
        <time>2019-09-14T16:21:06Z</time>
      </trkpt>
      <trkpt lat="59.21171889021" lon="17.945373141318">
        <ele>46.6</ele>
        <time>2019-09-14T16:21:07Z</time>
      </trkpt>
      <trkpt lat="59.211708245197" lon="17.945406417461">
        <ele>46.6</ele>
        <time>2019-09-14T16:21:08Z</time>
      </trkpt>
      <trkpt lat="59.211695169433" lon="17.945441872898">
        <ele>46.8</ele>
        <time>2019-09-14T16:21:09Z</time>
      </trkpt>
      <trkpt lat="59.211687374266" lon="17.945473053566">
        <ele>46.8</ele>
        <time>2019-09-14T16:21:10Z</time>
      </trkpt>
      <trkpt lat="59.21167614252" lon="17.945493170126">
        <ele>46.8</ele>
        <time>2019-09-14T16:21:11Z</time>
      </trkpt>
      <trkpt lat="59.211661641833" lon="17.945510185383">
        <ele>46.8</ele>
        <time>2019-09-14T16:21:12Z</time>
      </trkpt>
      <trkpt lat="59.211651667372" lon="17.945530972495">
        <ele>46.8</ele>
        <time>2019-09-14T16:21:13Z</time>
      </trkpt>
      <trkpt lat="59.211641860549" lon="17.945553100711">
        <ele>46.8</ele>
        <time>2019-09-14T16:21:14Z</time>
      </trkpt>
      <trkpt lat="59.211629958251" lon="17.945570618882">
        <ele>46.8</ele>
        <time>2019-09-14T16:21:15Z</time>
      </trkpt>
      <trkpt lat="59.211620402885" lon="17.945586795949">
        <ele>47</ele>
        <time>2019-09-14T16:21:16Z</time>
      </trkpt>
      <trkpt lat="59.211613110632" lon="17.945610600545">
        <ele>47</ele>
        <time>2019-09-14T16:21:17Z</time>
      </trkpt>
      <trkpt lat="59.211604225818" lon="17.945629962734">
        <ele>47.2</ele>
        <time>2019-09-14T16:21:18Z</time>
      </trkpt>
      <trkpt lat="59.211595089547" lon="17.94564538543">
        <ele>47.4</ele>
        <time>2019-09-14T16:21:19Z</time>
      </trkpt>
      <trkpt lat="59.211586707647" lon="17.945651923312">
        <ele>47.6</ele>
        <time>2019-09-14T16:21:20Z</time>
      </trkpt>
      <trkpt lat="59.211581175593" lon="17.945661730135">
        <ele>47.6</ele>
        <time>2019-09-14T16:21:21Z</time>
      </trkpt>
      <trkpt lat="59.211571871684" lon="17.945675811727">
        <ele>47.6</ele>
        <time>2019-09-14T16:21:22Z</time>
      </trkpt>
      <trkpt lat="59.211563405965" lon="17.945684361265">
        <ele>47.8</ele>
        <time>2019-09-14T16:21:23Z</time>
      </trkpt>
      <trkpt lat="59.211554185875" lon="17.94569316226">
        <ele>48</ele>
        <time>2019-09-14T16:21:24Z</time>
      </trkpt>
      <trkpt lat="59.211542535034" lon="17.94570238235">
        <ele>48</ele>
        <time>2019-09-14T16:21:25Z</time>
      </trkpt>
      <trkpt lat="59.211531387107" lon="17.945706824757">
        <ele>48.2</ele>
        <time>2019-09-14T16:21:26Z</time>
      </trkpt>
      <trkpt lat="59.211522502293" lon="17.945712021535">
        <ele>48.2</ele>
        <time>2019-09-14T16:21:27Z</time>
      </trkpt>
      <trkpt lat="59.21151185728" lon="17.945713949372">
        <ele>48.4</ele>
        <time>2019-09-14T16:21:28Z</time>
      </trkpt>
      <trkpt lat="59.211500876991" lon="17.945719649064">
        <ele>48.6</ele>
        <time>2019-09-14T16:21:29Z</time>
      </trkpt>
      <trkpt lat="59.211486879218" lon="17.945719732883">
        <ele>48.6</ele>
        <time>2019-09-14T16:21:30Z</time>
      </trkpt>
      <trkpt lat="59.211471540341" lon="17.945724091471">
        <ele>48.8</ele>
        <time>2019-09-14T16:21:31Z</time>
      </trkpt>
      <trkpt lat="59.211458716034" lon="17.945730294077">
        <ele>48.8</ele>
        <time>2019-09-14T16:21:32Z</time>
      </trkpt>
      <trkpt lat="59.21144647846" lon="17.945737753968">
        <ele>48.8</ele>
        <time>2019-09-14T16:21:33Z</time>
      </trkpt>
      <trkpt lat="59.211434492343" lon="17.945738508339">
        <ele>49</ele>
        <time>2019-09-14T16:21:34Z</time>
      </trkpt>
      <trkpt lat="59.211416638896" lon="17.945748315162">
        <ele>49.2</ele>
        <time>2019-09-14T16:21:35Z</time>
      </trkpt>
      <trkpt lat="59.211397947259" lon="17.94575015918">
        <ele>49.2</ele>
        <time>2019-09-14T16:21:36Z</time>
      </trkpt>
      <trkpt lat="59.211378501251" lon="17.945750829732">
        <ele>49.4</ele>
        <time>2019-09-14T16:21:37Z</time>
      </trkpt>
      <trkpt lat="59.211354948112" lon="17.945748398981">
        <ele>49.4</ele>
        <time>2019-09-14T16:21:38Z</time>
      </trkpt>
      <trkpt lat="59.211335753561" lon="17.945746890239">
        <ele>49.4</ele>
        <time>2019-09-14T16:21:39Z</time>
      </trkpt>
      <trkpt lat="59.211315637001" lon="17.945743956574">
        <ele>49.6</ele>
        <time>2019-09-14T16:21:40Z</time>
      </trkpt>
      <trkpt lat="59.211296023355" lon="17.945730126439">
        <ele>49.6</ele>
        <time>2019-09-14T16:21:41Z</time>
      </trkpt>
      <trkpt lat="59.21128051684" lon="17.945716715399">
        <ele>49.8</ele>
        <time>2019-09-14T16:21:42Z</time>
      </trkpt>
      <trkpt lat="59.211259226814" lon="17.945699113409">
        <ele>49.8</ele>
        <time>2019-09-14T16:21:43Z</time>
      </trkpt>
      <trkpt lat="59.211240954272" lon="17.945681259962">
        <ele>50</ele>
        <time>2019-09-14T16:21:44Z</time>
      </trkpt>
      <trkpt lat="59.211221927359" lon="17.945668519474">
        <ele>50</ele>
        <time>2019-09-14T16:21:45Z</time>
      </trkpt>
      <trkpt lat="59.211204073912" lon="17.945652426226">
        <ele>50.2</ele>
        <time>2019-09-14T16:21:46Z</time>
      </trkpt>
      <trkpt lat="59.211183202981" lon="17.945638847548">
        <ele>50.4</ele>
        <time>2019-09-14T16:21:47Z</time>
      </trkpt>
      <trkpt lat="59.211166774457" lon="17.94562610706">
        <ele>50.4</ele>
        <time>2019-09-14T16:21:48Z</time>
      </trkpt>
      <trkpt lat="59.211152441408" lon="17.94561521059">
        <ele>50.6</ele>
        <time>2019-09-14T16:21:49Z</time>
      </trkpt>
      <trkpt lat="59.21113802454" lon="17.945596016039">
        <ele>50.8</ele>
        <time>2019-09-14T16:21:50Z</time>
      </trkpt>
      <trkpt lat="59.211123440034" lon="17.945581096257">
        <ele>51</ele>
        <time>2019-09-14T16:21:51Z</time>
      </trkpt>
      <trkpt lat="59.211112795021" lon="17.945567349941">
        <ele>51.2</ele>
        <time>2019-09-14T16:21:52Z</time>
      </trkpt>
      <trkpt lat="59.21110282056" lon="17.945557962213">
        <ele>51.4</ele>
        <time>2019-09-14T16:21:53Z</time>
      </trkpt>
      <trkpt lat="59.211088655149" lon="17.945539186757">
        <ele>51.6</ele>
        <time>2019-09-14T16:21:54Z</time>
      </trkpt>
      <trkpt lat="59.211078177774" lon="17.945524434613">
        <ele>51.8</ele>
        <time>2019-09-14T16:21:55Z</time>
      </trkpt>
      <trkpt lat="59.211067281304" lon="17.945499037456">
        <ele>52</ele>
        <time>2019-09-14T16:21:56Z</time>
      </trkpt>
      <trkpt lat="59.211059653775" lon="17.945489817366">
        <ele>52.2</ele>
        <time>2019-09-14T16:21:57Z</time>
      </trkpt>
      <trkpt lat="59.211050098409" lon="17.945464923123">
        <ele>52.6</ele>
        <time>2019-09-14T16:21:58Z</time>
      </trkpt>
      <trkpt lat="59.211041548871" lon="17.945443968373">
        <ele>52.8</ele>
        <time>2019-09-14T16:21:59Z</time>
      </trkpt>
      <trkpt lat="59.2110324126" lon="17.945422678347">
        <ele>53</ele>
        <time>2019-09-14T16:22:00Z</time>
      </trkpt>
      <trkpt lat="59.211022102863" lon="17.945404405805">
        <ele>53.2</ele>
        <time>2019-09-14T16:22:01Z</time>
      </trkpt>
      <trkpt lat="59.211014475334" lon="17.945391749136">
        <ele>53.2</ele>
        <time>2019-09-14T16:22:02Z</time>
      </trkpt>
      <trkpt lat="59.211003159769" lon="17.945382026132">
        <ele>53.2</ele>
        <time>2019-09-14T16:22:03Z</time>
      </trkpt>
      <trkpt lat="59.2106468452" lon="17.944618854137">
        <ele>60.2</ele>
        <time>2019-09-14T16:22:48Z</time>
      </trkpt>
      <trkpt lat="59.210628572658" lon="17.944591026229">
        <ele>60.2</ele>
        <time>2019-09-14T16:22:49Z</time>
      </trkpt>
      <trkpt lat="59.210608204641" lon="17.944561186665">
        <ele>60.2</ele>
        <time>2019-09-14T16:22:50Z</time>
      </trkpt>
      <trkpt lat="59.210585992606" lon="17.944524473943">
        <ele>60.2</ele>
        <time>2019-09-14T16:22:51Z</time>
      </trkpt>
      <trkpt lat="59.210562774743" lon="17.944487761221">
        <ele>60.2</ele>
        <time>2019-09-14T16:22:52Z</time>
      </trkpt>
      <trkpt lat="59.210538131957" lon="17.944457083467">
        <ele>60.2</ele>
        <time>2019-09-14T16:22:53Z</time>
      </trkpt>
      <trkpt lat="59.210517512483" lon="17.944432105405">
        <ele>60.2</ele>
        <time>2019-09-14T16:22:54Z</time>
      </trkpt>
      <trkpt lat="59.210498234113" lon="17.944412240302">
        <ele>60.2</ele>
        <time>2019-09-14T16:22:55Z</time>
      </trkpt>
      <trkpt lat="59.210479291019" lon="17.94439229138">
        <ele>60</ele>
        <time>2019-09-14T16:22:56Z</time>
      </trkpt>
      <trkpt lat="59.210457078984" lon="17.944370163164">
        <ele>59.8</ele>
        <time>2019-09-14T16:22:57Z</time>
      </trkpt>
      <trkpt lat="59.210435705139" lon="17.944345939473">
        <ele>59.6</ele>
        <time>2019-09-14T16:22:58Z</time>
      </trkpt>
      <trkpt lat="59.210416510588" lon="17.944312914787">
        <ele>59.6</ele>
        <time>2019-09-14T16:22:59Z</time>
      </trkpt>
      <trkpt lat="59.210397651313" lon="17.944284500146">
        <ele>59.4</ele>
        <time>2019-09-14T16:23:00Z</time>
      </trkpt>
      <trkpt lat="59.210376612744" lon="17.944263042482">
        <ele>59.2</ele>
        <time>2019-09-14T16:23:01Z</time>
      </trkpt>
      <trkpt lat="59.210356496184" lon="17.944232029452">
        <ele>59</ele>
        <time>2019-09-14T16:23:02Z</time>
      </trkpt>
      <trkpt lat="59.210336128167" lon="17.94420537501">
        <ele>58.8</ele>
        <time>2019-09-14T16:23:03Z</time>
      </trkpt>
      <trkpt lat="59.210313832313" lon="17.944184336441">
        <ele>58.6</ele>
        <time>2019-09-14T16:23:04Z</time>
      </trkpt>
      <trkpt lat="59.210289440984" lon="17.944165393347">
        <ele>58.4</ele>
        <time>2019-09-14T16:23:05Z</time>
      </trkpt>
      <trkpt lat="59.210265384931" lon="17.944134296498">
        <ele>58.2</ele>
        <time>2019-09-14T16:23:06Z</time>
      </trkpt>
      <trkpt lat="59.210244011086" lon="17.944107055323">
        <ele>58.2</ele>
        <time>2019-09-14T16:23:07Z</time>
      </trkpt>
      <trkpt lat="59.210223726888" lon="17.944085010926">
        <ele>58.2</ele>
        <time>2019-09-14T16:23:08Z</time>
      </trkpt>
      <trkpt lat="59.210206711631" lon="17.944053159706">
        <ele>58.2</ele>
        <time>2019-09-14T16:23:09Z</time>
      </trkpt>
      <trkpt lat="59.210187097985" lon="17.944026421445">
        <ele>58</ele>
        <time>2019-09-14T16:23:10Z</time>
      </trkpt>
      <trkpt lat="59.210159353896" lon="17.944002365392">
        <ele>58</ele>
        <time>2019-09-14T16:23:11Z</time>
      </trkpt>
      <trkpt lat="59.210134543472" lon="17.943969256887">
        <ele>58</ele>
        <time>2019-09-14T16:23:12Z</time>
      </trkpt>
      <trkpt lat="59.210112163799" lon="17.94393715421">
        <ele>58</ele>
        <time>2019-09-14T16:23:13Z</time>
      </trkpt>
      <trkpt lat="59.210091711963" lon="17.943903375153">
        <ele>57.8</ele>
        <time>2019-09-14T16:23:14Z</time>
      </trkpt>
      <trkpt lat="59.210071930679" lon="17.943867416802">
        <ele>57.6</ele>
        <time>2019-09-14T16:23:15Z</time>
      </trkpt>
      <trkpt lat="59.210048628997" lon="17.943825926397">
        <ele>57.4</ele>
        <time>2019-09-14T16:23:16Z</time>
      </trkpt>
      <trkpt lat="59.210010491352" lon="17.943767420735">
        <ele>57.4</ele>
        <time>2019-09-14T16:23:17Z</time>
      </trkpt>
      <trkpt lat="59.209976712295" lon="17.943702712467">
        <ele>57.2</ele>
        <time>2019-09-14T16:23:18Z</time>
      </trkpt>
      <trkpt lat="59.209933042596" lon="17.943650241773">
        <ele>57.2</ele>
        <time>2019-09-14T16:23:19Z</time>
      </trkpt>
      <trkpt lat="59.209894318218" lon="17.943605901522">
        <ele>57.2</ele>
        <time>2019-09-14T16:23:20Z</time>
      </trkpt>
      <trkpt lat="59.209852743994" lon="17.943558124692">
        <ele>57.2</ele>
        <time>2019-09-14T16:23:21Z</time>
      </trkpt>
      <trkpt lat="59.209812175598" lon="17.943517388658">
        <ele>57</ele>
        <time>2019-09-14T16:23:22Z</time>
      </trkpt>
      <trkpt lat="59.209773535039" lon="17.943472545493">
        <ele>57</ele>
        <time>2019-09-14T16:23:23Z</time>
      </trkpt>
      <trkpt lat="59.209738414878" lon="17.943428121423">
        <ele>57</ele>
        <time>2019-09-14T16:23:24Z</time>
      </trkpt>
      <trkpt lat="59.209709329685" lon="17.943388642674">
        <ele>57</ele>
        <time>2019-09-14T16:23:25Z</time>
      </trkpt>
      <trkpt lat="59.209673958067" lon="17.943343631871">
        <ele>57</ele>
        <time>2019-09-14T16:23:26Z</time>
      </trkpt>
      <trkpt lat="59.209639508458" lon="17.943303314932">
        <ele>57</ele>
        <time>2019-09-14T16:23:27Z</time>
      </trkpt>
      <trkpt lat="59.209603633926" lon="17.943267524219">
        <ele>56.8</ele>
        <time>2019-09-14T16:23:28Z</time>
      </trkpt>
      <trkpt lat="59.20956474191" lon="17.943242127062">
        <ele>56.8</ele>
        <time>2019-09-14T16:23:29Z</time>
      </trkpt>
      <trkpt lat="59.209525011704" lon="17.943200133743">
        <ele>56.8</ele>
        <time>2019-09-14T16:23:30Z</time>
      </trkpt>
      <trkpt lat="59.209488131344" lon="17.943176496785">
        <ele>56.6</ele>
        <time>2019-09-14T16:23:31Z</time>
      </trkpt>
      <trkpt lat="59.20945326264" lon="17.943152105456">
        <ele>56.6</ele>
        <time>2019-09-14T16:23:32Z</time>
      </trkpt>
      <trkpt lat="59.209418980669" lon="17.943129725783">
        <ele>56.4</ele>
        <time>2019-09-14T16:23:33Z</time>
      </trkpt>
      <trkpt lat="59.209384111965" lon="17.943100137676">
        <ele>56.2</ele>
        <time>2019-09-14T16:23:34Z</time>
      </trkpt>
      <trkpt lat="59.209355110591" lon="17.943072812682">
        <ele>56.2</ele>
        <time>2019-09-14T16:23:35Z</time>
      </trkpt>
      <trkpt lat="59.209332395642" lon="17.94305202557">
        <ele>56</ele>
        <time>2019-09-14T16:23:36Z</time>
      </trkpt>
      <trkpt lat="59.209313787824" lon="17.943041799652">
        <ele>56</ele>
        <time>2019-09-14T16:23:37Z</time>
      </trkpt>
      <trkpt lat="59.209293755083" lon="17.943034675037">
        <ele>56</ele>
        <time>2019-09-14T16:23:38Z</time>
      </trkpt>
      <trkpt lat="59.209281852785" lon="17.943023946205">
        <ele>56</ele>
        <time>2019-09-14T16:23:39Z</time>
      </trkpt>
      <trkpt lat="59.209271207772" lon="17.943018246513">
        <ele>56</ele>
        <time>2019-09-14T16:23:40Z</time>
      </trkpt>
      <trkpt lat="59.209171211705" lon="17.943001817989">
        <ele>56.4</ele>
        <time>2019-09-14T16:24:02Z</time>
      </trkpt>
      <trkpt lat="59.209148329118" lon="17.943005757482">
        <ele>56.4</ele>
        <time>2019-09-14T16:24:03Z</time>
      </trkpt>
      <trkpt lat="59.209123602513" lon="17.943008355871">
        <ele>56.4</ele>
        <time>2019-09-14T16:24:04Z</time>
      </trkpt>
      <trkpt lat="59.209096780433" lon="17.943007936776">
        <ele>56.4</ele>
        <time>2019-09-14T16:24:05Z</time>
      </trkpt>
      <trkpt lat="59.209070545086" lon="17.943009948432">
        <ele>56.4</ele>
        <time>2019-09-14T16:24:06Z</time>
      </trkpt>
      <trkpt lat="59.209039615875" lon="17.943007182405">
        <ele>56.4</ele>
        <time>2019-09-14T16:24:07Z</time>
      </trkpt>
      <trkpt lat="59.20900315461" lon="17.942999806333">
        <ele>56.2</ele>
        <time>2019-09-14T16:24:08Z</time>
      </trkpt>
      <trkpt lat="59.208957221798" lon="17.942982623438">
        <ele>56.2</ele>
        <time>2019-09-14T16:24:09Z</time>
      </trkpt>
      <trkpt lat="59.208915563755" lon="17.942967452199">
        <ele>56.2</ele>
        <time>2019-09-14T16:24:10Z</time>
      </trkpt>
      <trkpt lat="59.208874408626" lon="17.942938115549">
        <ele>56.2</ele>
        <time>2019-09-14T16:24:11Z</time>
      </trkpt>
      <trkpt lat="59.20884138394" lon="17.942910287641">
        <ele>56</ele>
        <time>2019-09-14T16:24:12Z</time>
      </trkpt>
      <trkpt lat="59.208802994838" lon="17.942878771697">
        <ele>55.8</ele>
        <time>2019-09-14T16:24:13Z</time>
      </trkpt>
      <trkpt lat="59.208771478894" lon="17.942846333744">
        <ele>55.8</ele>
        <time>2019-09-14T16:24:14Z</time>
      </trkpt>
      <trkpt lat="59.208742812796" lon="17.942804591882">
        <ele>55.6</ele>
        <time>2019-09-14T16:24:15Z</time>
      </trkpt>
      <trkpt lat="59.208717080363" lon="17.942754049025">
        <ele>55.6</ele>
        <time>2019-09-14T16:24:16Z</time>
      </trkpt>
      <trkpt lat="59.208693443405" lon="17.942708451489">
        <ele>55.6</ele>
        <time>2019-09-14T16:24:17Z</time>
      </trkpt>
      <trkpt lat="59.208667291877" lon="17.942650197284">
        <ele>55.6</ele>
        <time>2019-09-14T16:24:18Z</time>
      </trkpt>
      <trkpt lat="59.208639044874" lon="17.942576185107">
        <ele>55.6</ele>
        <time>2019-09-14T16:24:19Z</time>
      </trkpt>
      <trkpt lat="59.208609959681" lon="17.942483481293">
        <ele>55.6</ele>
        <time>2019-09-14T16:24:20Z</time>
      </trkpt>
      <trkpt lat="59.208586406542" lon="17.942391867126">
        <ele>55.4</ele>
        <time>2019-09-14T16:24:21Z</time>
      </trkpt>
      <trkpt lat="59.208563691593" lon="17.942298744217">
        <ele>55.4</ele>
        <time>2019-09-14T16:24:22Z</time>
      </trkpt>
      <trkpt lat="59.20854131192" lon="17.942205872765">
        <ele>55.4</ele>
        <time>2019-09-14T16:24:23Z</time>
      </trkpt>
      <trkpt lat="59.208519183704" lon="17.942108475087">
        <ele>55.4</ele>
        <time>2019-09-14T16:24:24Z</time>
      </trkpt>
      <trkpt lat="59.20849688785" lon="17.942022225336">
        <ele>55.2</ele>
        <time>2019-09-14T16:24:25Z</time>
      </trkpt>
      <trkpt lat="59.208471825969" lon="17.941940669449">
        <ele>55</ele>
        <time>2019-09-14T16:24:26Z</time>
      </trkpt>
      <trkpt lat="59.208450284486" lon="17.941869926213">
        <ele>54.6</ele>
        <time>2019-09-14T16:24:27Z</time>
      </trkpt>
      <trkpt lat="59.20843067084" lon="17.941802451918">
        <ele>54.6</ele>
        <time>2019-09-14T16:24:28Z</time>
      </trkpt>
      <trkpt lat="59.208412314479" lon="17.941744113894">
        <ele>54.6</ele>
        <time>2019-09-14T16:24:29Z</time>
      </trkpt>
      <trkpt lat="59.208389934806" lon="17.941693571037">
        <ele>54.4</ele>
        <time>2019-09-14T16:24:30Z</time>
      </trkpt>
      <trkpt lat="59.208369315332" lon="17.941644788379">
        <ele>54.4</ele>
        <time>2019-09-14T16:24:31Z</time>
      </trkpt>
      <trkpt lat="59.208360598156" lon="17.941606483096">
        <ele>54.4</ele>
        <time>2019-09-14T16:24:32Z</time>
      </trkpt>
      <trkpt lat="59.208349617867" lon="17.941562813397">
        <ele>54.4</ele>
        <time>2019-09-14T16:24:33Z</time>
      </trkpt>
      <trkpt lat="59.20833679356" lon="17.941517215861">
        <ele>54.4</ele>
        <time>2019-09-14T16:24:34Z</time>
      </trkpt>
      <trkpt lat="59.208330842411" lon="17.941471283049">
        <ele>54.4</ele>
        <time>2019-09-14T16:24:35Z</time>
      </trkpt>
      <trkpt lat="59.208326483823" lon="17.941427864807">
        <ele>54.4</ele>
        <time>2019-09-14T16:24:36Z</time>
      </trkpt>
      <trkpt lat="59.20831583881" lon="17.941373214819">
        <ele>54.6</ele>
        <time>2019-09-14T16:24:37Z</time>
      </trkpt>
      <trkpt lat="59.208312318412" lon="17.941329461301">
        <ele>54.8</ele>
        <time>2019-09-14T16:24:38Z</time>
      </trkpt>
      <trkpt lat="59.208308881833" lon="17.941285456326">
        <ele>54.8</ele>
        <time>2019-09-14T16:24:39Z</time>
      </trkpt>
      <trkpt lat="59.208304690883" lon="17.941222759714">
        <ele>55</ele>
        <time>2019-09-14T16:24:40Z</time>
      </trkpt>
      <trkpt lat="59.208300667571" lon="17.941167355355">
        <ele>55</ele>
        <time>2019-09-14T16:24:41Z</time>
      </trkpt>
      <trkpt lat="59.208291028386" lon="17.941118991792">
        <ele>55</ele>
        <time>2019-09-14T16:24:42Z</time>
      </trkpt>
      <trkpt lat="59.208283652314" lon="17.941071298781">
        <ele>55.2</ele>
        <time>2019-09-14T16:24:43Z</time>
      </trkpt>
      <trkpt lat="59.208273174939" lon="17.941022264666">
        <ele>55.2</ele>
        <time>2019-09-14T16:24:44Z</time>
      </trkpt>
      <trkpt lat="59.208262949021" lon="17.940977253863">
        <ele>55.2</ele>
        <time>2019-09-14T16:24:45Z</time>
      </trkpt>
      <trkpt lat="59.208248532153" lon="17.940928219748">
        <ele>55.4</ele>
        <time>2019-09-14T16:24:46Z</time>
      </trkpt>
      <trkpt lat="59.208231935991" lon="17.940880526737">
        <ele>55.4</ele>
        <time>2019-09-14T16:24:47Z</time>
      </trkpt>
      <trkpt lat="59.208223889367" lon="17.940836940857">
        <ele>55.4</ele>
        <time>2019-09-14T16:24:48Z</time>
      </trkpt>
      <trkpt lat="59.208217267666" lon="17.940785140715">
        <ele>55.6</ele>
        <time>2019-09-14T16:24:49Z</time>
      </trkpt>
      <trkpt lat="59.208207377024" lon="17.940734262582">
        <ele>55.6</ele>
        <time>2019-09-14T16:24:50Z</time>
      </trkpt>
      <trkpt lat="59.20819346307" lon="17.940674331997">
        <ele>55.8</ele>
        <time>2019-09-14T16:24:51Z</time>
      </trkpt>
      <trkpt lat="59.208184745894" lon="17.94060618715">
        <ele>55.8</ele>
        <time>2019-09-14T16:24:52Z</time>
      </trkpt>
      <trkpt lat="59.20818172841" lon="17.940552123895">
        <ele>56</ele>
        <time>2019-09-14T16:24:53Z</time>
      </trkpt>
      <trkpt lat="59.208180974039" lon="17.940496887174">
        <ele>56</ele>
        <time>2019-09-14T16:24:54Z</time>
      </trkpt>
      <trkpt lat="59.20817669927" lon="17.94044106372">
        <ele>56.2</ele>
        <time>2019-09-14T16:24:55Z</time>
      </trkpt>
      <trkpt lat="59.2081741847" lon="17.940387000465">
        <ele>56.2</ele>
        <time>2019-09-14T16:24:56Z</time>
      </trkpt>
      <trkpt lat="59.208176280175" lon="17.94034634825">
        <ele>56.2</ele>
        <time>2019-09-14T16:24:57Z</time>
      </trkpt>
      <trkpt lat="59.208180722582" lon="17.940303349103">
        <ele>56.2</ele>
        <time>2019-09-14T16:24:58Z</time>
      </trkpt>
      <trkpt lat="59.208183237152" lon="17.940256913377">
        <ele>56.2</ele>
        <time>2019-09-14T16:24:59Z</time>
      </trkpt>
      <trkpt lat="59.208186422274" lon="17.94020385595">
        <ele>56.2</ele>
        <time>2019-09-14T16:25:00Z</time>
      </trkpt>
      <trkpt lat="59.208191367595" lon="17.940147194306">
        <ele>56.2</ele>
        <time>2019-09-14T16:25:01Z</time>
      </trkpt>
      <trkpt lat="59.208194049803" lon="17.940088856282">
        <ele>56.2</ele>
        <time>2019-09-14T16:25:02Z</time>
      </trkpt>
      <trkpt lat="59.208197234925" lon="17.940032194638">
        <ele>56.2</ele>
        <time>2019-09-14T16:25:03Z</time>
      </trkpt>
      <trkpt lat="59.208207544662" lon="17.939976957917">
        <ele>56.2</ele>
        <time>2019-09-14T16:25:04Z</time>
      </trkpt>
      <trkpt lat="59.208219279322" lon="17.939917949341">
        <ele>56.2</ele>
        <time>2019-09-14T16:25:05Z</time>
      </trkpt>
      <trkpt lat="59.208228750869" lon="17.939854833634">
        <ele>56.2</ele>
        <time>2019-09-14T16:25:06Z</time>
      </trkpt>
      <trkpt lat="59.208237132769" lon="17.939793478126">
        <ele>56.2</ele>
        <time>2019-09-14T16:25:07Z</time>
      </trkpt>
      <trkpt lat="59.208242245728" lon="17.939720304139">
        <ele>56.2</ele>
        <time>2019-09-14T16:25:08Z</time>
      </trkpt>
      <trkpt lat="59.208254818578" lon="17.93965819426">
        <ele>55.8</ele>
        <time>2019-09-14T16:25:09Z</time>
      </trkpt>
      <trkpt lat="59.20827057655" lon="17.939598096037">
        <ele>55.6</ele>
        <time>2019-09-14T16:25:10Z</time>
      </trkpt>
      <trkpt lat="59.208290357834" lon="17.939556857089">
        <ele>55.4</ele>
        <time>2019-09-14T16:25:11Z</time>
      </trkpt>
      <trkpt lat="59.208310139118" lon="17.939515618141">
        <ele>55.2</ele>
        <time>2019-09-14T16:25:12Z</time>
      </trkpt>
      <trkpt lat="59.208330171859" lon="17.939466835483">
        <ele>55</ele>
        <time>2019-09-14T16:25:13Z</time>
      </trkpt>
      <trkpt lat="59.208350539876" lon="17.939427775829">
        <ele>54.8</ele>
        <time>2019-09-14T16:25:14Z</time>
      </trkpt>
      <trkpt lat="59.208374763567" lon="17.939400786111">
        <ele>54.6</ele>
        <time>2019-09-14T16:25:15Z</time>
      </trkpt>
      <trkpt lat="59.208394712489" lon="17.939379244628">
        <ele>54.4</ele>
        <time>2019-09-14T16:25:16Z</time>
      </trkpt>
      <trkpt lat="59.208409464633" lon="17.939360133896">
        <ele>54.4</ele>
        <time>2019-09-14T16:25:17Z</time>
      </trkpt>
      <trkpt lat="59.208424971148" lon="17.939327276848">
        <ele>54.4</ele>
        <time>2019-09-14T16:25:18Z</time>
      </trkpt>
      <trkpt lat="59.208438549826" lon="17.939295090352">
        <ele>54.2</ele>
        <time>2019-09-14T16:25:19Z</time>
      </trkpt>
      <trkpt lat="59.208455145988" lon="17.939250917739">
        <ele>54.2</ele>
        <time>2019-09-14T16:25:20Z</time>
      </trkpt>
      <trkpt lat="59.208471490693" lon="17.939216049035">
        <ele>54.2</ele>
        <time>2019-09-14T16:25:21Z</time>
      </trkpt>
      <trkpt lat="59.208481968068" lon="17.93917036768">
        <ele>54.2</ele>
        <time>2019-09-14T16:25:22Z</time>
      </trkpt>
      <trkpt lat="59.208482722439" lon="17.939133738777">
        <ele>54</ele>
        <time>2019-09-14T16:25:23Z</time>
      </trkpt>
      <trkpt lat="59.208482303344" lon="17.939116220606">
        <ele>53.8</ele>
        <time>2019-09-14T16:25:24Z</time>
      </trkpt>
      <trkpt lat="59.208482890077" lon="17.93910247429">
        <ele>53.6</ele>
        <time>2019-09-14T16:25:25Z</time>
      </trkpt>
      <trkpt lat="59.208365878753" lon="17.939119824823">
        <ele>53.8</ele>
        <time>2019-09-14T16:27:17Z</time>
      </trkpt>
      <trkpt lat="59.208345594555" lon="17.939123931954">
        <ele>53.8</ele>
        <time>2019-09-14T16:27:18Z</time>
      </trkpt>
      <trkpt lat="59.208319526846" lon="17.93912510542">
        <ele>53.8</ele>
        <time>2019-09-14T16:27:19Z</time>
      </trkpt>
      <trkpt lat="59.208296644259" lon="17.939119154271">
        <ele>53.8</ele>
        <time>2019-09-14T16:27:20Z</time>
      </trkpt>
      <trkpt lat="59.208277701165" lon="17.939108006344">
        <ele>53.8</ele>
        <time>2019-09-14T16:27:21Z</time>
      </trkpt>
      <trkpt lat="59.20826303284" lon="17.939098786254">
        <ele>53.8</ele>
        <time>2019-09-14T16:27:22Z</time>
      </trkpt>
      <trkpt lat="59.208251381999" lon="17.939088979431">
        <ele>53.8</ele>
        <time>2019-09-14T16:27:23Z</time>
      </trkpt>
      <trkpt lat="59.208243503013" lon="17.93907397583">
        <ele>53.8</ele>
        <time>2019-09-14T16:27:24Z</time>
      </trkpt>
      <trkpt lat="59.208236881312" lon="17.939054529822">
        <ele>54</ele>
        <time>2019-09-14T16:27:25Z</time>
      </trkpt>
      <trkpt lat="59.20822950524" lon="17.939029300303">
        <ele>54</ele>
        <time>2019-09-14T16:27:26Z</time>
      </trkpt>
      <trkpt lat="59.208225146652" lon="17.93900272968">
        <ele>54</ele>
        <time>2019-09-14T16:27:27Z</time>
      </trkpt>
      <trkpt lat="59.20822112334" lon="17.938978086894">
        <ele>54</ele>
        <time>2019-09-14T16:27:28Z</time>
      </trkpt>
      <trkpt lat="59.208211735612" lon="17.938963753845">
        <ele>54</ele>
        <time>2019-09-14T16:27:29Z</time>
      </trkpt>
      <trkpt lat="59.208204443359" lon="17.938942296181">
        <ele>54</ele>
        <time>2019-09-14T16:27:30Z</time>
      </trkpt>
      <trkpt lat="59.208193211613" lon="17.938911702246">
        <ele>54</ele>
        <time>2019-09-14T16:27:31Z</time>
      </trkpt>
      <trkpt lat="59.20818340479" lon="17.938880270121">
        <ele>54</ele>
        <time>2019-09-14T16:27:32Z</time>
      </trkpt>
      <trkpt lat="59.208175609623" lon="17.938852358394">
        <ele>54</ele>
        <time>2019-09-14T16:27:33Z</time>
      </trkpt>
      <trkpt lat="59.208166976266" lon="17.938816148586">
        <ele>54</ele>
        <time>2019-09-14T16:27:34Z</time>
      </trkpt>
      <trkpt lat="59.208155493063" lon="17.938785722289">
        <ele>54</ele>
        <time>2019-09-14T16:27:35Z</time>
      </trkpt>
      <trkpt lat="59.208144680412" lon="17.938757475286">
        <ele>54</ele>
        <time>2019-09-14T16:27:36Z</time>
      </trkpt>
      <trkpt lat="59.2081322752" lon="17.938728893007">
        <ele>54</ele>
        <time>2019-09-14T16:27:37Z</time>
      </trkpt>
      <trkpt lat="59.208116014314" lon="17.938699807814">
        <ele>54</ele>
        <time>2019-09-14T16:27:38Z</time>
      </trkpt>
      <trkpt lat="59.208106123672" lon="17.938668543327">
        <ele>53.8</ele>
        <time>2019-09-14T16:27:39Z</time>
      </trkpt>
      <trkpt lat="59.208100088704" lon="17.938631998243">
        <ele>53.8</ele>
        <time>2019-09-14T16:27:40Z</time>
      </trkpt>
      <trkpt lat="59.208091622985" lon="17.938600985213">
        <ele>53.8</ele>
        <time>2019-09-14T16:27:41Z</time>
      </trkpt>
      <trkpt lat="59.208088354044" lon="17.938567122337">
        <ele>53.8</ele>
        <time>2019-09-14T16:27:42Z</time>
      </trkpt>
      <trkpt lat="59.208080810334" lon="17.938528817054">
        <ele>53.8</ele>
        <time>2019-09-14T16:27:43Z</time>
      </trkpt>
      <trkpt lat="59.208072679891" lon="17.938480453491">
        <ele>53.8</ele>
        <time>2019-09-14T16:27:44Z</time>
      </trkpt>
      <trkpt lat="59.208065052362" lon="17.938429323901">
        <ele>53.8</ele>
        <time>2019-09-14T16:27:45Z</time>
      </trkpt>
      <trkpt lat="59.208053150064" lon="17.93837492537">
        <ele>53.8</ele>
        <time>2019-09-14T16:27:46Z</time>
      </trkpt>
      <trkpt lat="59.208038817015" lon="17.938326394169">
        <ele>53.8</ele>
        <time>2019-09-14T16:27:47Z</time>
      </trkpt>
      <trkpt lat="59.208022807586" lon="17.938287921248">
        <ele>53.8</ele>
        <time>2019-09-14T16:27:48Z</time>
      </trkpt>
      <trkpt lat="59.20801073765" lon="17.938246263205">
        <ele>53.8</ele>
        <time>2019-09-14T16:27:49Z</time>
      </trkpt>
      <trkpt lat="59.207995398773" lon="17.938198234918">
        <ele>53.8</ele>
        <time>2019-09-14T16:27:50Z</time>
      </trkpt>
      <trkpt lat="59.207979221706" lon="17.938160432549">
        <ele>53.8</ele>
        <time>2019-09-14T16:27:51Z</time>
      </trkpt>
      <trkpt lat="59.207960362431" lon="17.938117181945">
        <ele>54</ele>
        <time>2019-09-14T16:27:52Z</time>
      </trkpt>
      <trkpt lat="59.207941251699" lon="17.938066639088">
        <ele>54</ele>
        <time>2019-09-14T16:27:53Z</time>
      </trkpt>
      <trkpt lat="59.207924320261" lon="17.93801785643">
        <ele>53.8</ele>
        <time>2019-09-14T16:27:54Z</time>
      </trkpt>
      <trkpt lat="59.207909903393" lon="17.937960356596">
        <ele>54</ele>
        <time>2019-09-14T16:27:55Z</time>
      </trkpt>
      <trkpt lat="59.207895570344" lon="17.937903359676">
        <ele>54</ele>
        <time>2019-09-14T16:27:56Z</time>
      </trkpt>
      <trkpt lat="59.207882913675" lon="17.93785440938">
        <ele>53.8</ele>
        <time>2019-09-14T16:27:57Z</time>
      </trkpt>
      <trkpt lat="59.207867323341" lon="17.93779573608">
        <ele>53.6</ele>
        <time>2019-09-14T16:27:58Z</time>
      </trkpt>
      <trkpt lat="59.207849721351" lon="17.937738152427">
        <ele>53.6</ele>
        <time>2019-09-14T16:27:59Z</time>
      </trkpt>
      <trkpt lat="59.20783639413" lon="17.937687441932">
        <ele>53.6</ele>
        <time>2019-09-14T16:28:00Z</time>
      </trkpt>
      <trkpt lat="59.207820300882" lon="17.937624577682">
        <ele>53.6</ele>
        <time>2019-09-14T16:28:01Z</time>
      </trkpt>
      <trkpt lat="59.207783671979" lon="17.937480073726">
        <ele>53.8</ele>
        <time>2019-09-14T16:28:03Z</time>
      </trkpt>
      <trkpt lat="59.207765650894" lon="17.937407151196">
        <ele>53.8</ele>
        <time>2019-09-14T16:28:04Z</time>
      </trkpt>
      <trkpt lat="59.207749641465" lon="17.937347136792">
        <ele>53.8</ele>
        <time>2019-09-14T16:28:05Z</time>
      </trkpt>
      <trkpt lat="59.207744360868" lon="17.937304305283">
        <ele>53.8</ele>
        <time>2019-09-14T16:28:06Z</time>
      </trkpt>
      <trkpt lat="59.207743019764" lon="17.937267508742">
        <ele>53.8</ele>
        <time>2019-09-14T16:28:07Z</time>
      </trkpt>
      <trkpt lat="59.207742852126" lon="17.937234484056">
        <ele>53.8</ele>
        <time>2019-09-14T16:28:08Z</time>
      </trkpt>
      <trkpt lat="59.207743690316" lon="17.937209338356">
        <ele>53.8</ele>
        <time>2019-09-14T16:28:09Z</time>
      </trkpt>
      <trkpt lat="59.207749306189" lon="17.937185198484">
        <ele>53.8</ele>
        <time>2019-09-14T16:28:10Z</time>
      </trkpt>
      <trkpt lat="59.20775089875" lon="17.93717715186">
        <ele>53.8</ele>
        <time>2019-09-14T16:28:11Z</time>
      </trkpt>
      <trkpt lat="59.207751820759" lon="17.937165249562">
        <ele>54</ele>
        <time>2019-09-14T16:28:12Z</time>
      </trkpt>
      <trkpt lat="59.207754502967" lon="17.937139098034">
        <ele>54</ele>
        <time>2019-09-14T16:28:13Z</time>
      </trkpt>
      <trkpt lat="59.207895737982" lon="17.936843803697">
        <ele>54.4</ele>
        <time>2019-09-14T16:28:38Z</time>
      </trkpt>
      <trkpt lat="59.20791937494" lon="17.936808515898">
        <ele>54.4</ele>
        <time>2019-09-14T16:28:39Z</time>
      </trkpt>
      <trkpt lat="59.207933707989" lon="17.936778592515">
        <ele>54.4</ele>
        <time>2019-09-14T16:28:40Z</time>
      </trkpt>
      <trkpt lat="59.207943850088" lon="17.936753446815">
        <ele>54.2</ele>
        <time>2019-09-14T16:28:41Z</time>
      </trkpt>
      <trkpt lat="59.207950052694" lon="17.936735509549">
        <ele>54.2</ele>
        <time>2019-09-14T16:28:42Z</time>
      </trkpt>
      <trkpt lat="59.207953153997" lon="17.936707597822">
        <ele>54.2</ele>
        <time>2019-09-14T16:28:43Z</time>
      </trkpt>
      <trkpt lat="59.207951896712" lon="17.936682703579">
        <ele>54.2</ele>
        <time>2019-09-14T16:28:44Z</time>
      </trkpt>
      <trkpt lat="59.207951729074" lon="17.936653953662">
        <ele>54.2</ele>
        <time>2019-09-14T16:28:45Z</time>
      </trkpt>
      <trkpt lat="59.207949885056" lon="17.936623695003">
        <ele>54.2</ele>
        <time>2019-09-14T16:28:46Z</time>
      </trkpt>
      <trkpt lat="59.207943850088" lon="17.936596872923">
        <ele>54.4</ele>
        <time>2019-09-14T16:28:47Z</time>
      </trkpt>
      <trkpt lat="59.207940413509" lon="17.936559657287">
        <ele>54.4</ele>
        <time>2019-09-14T16:28:48Z</time>
      </trkpt>
      <trkpt lat="59.207931528695" lon="17.936516574321">
        <ele>54.6</ele>
        <time>2019-09-14T16:28:49Z</time>
      </trkpt>
      <trkpt lat="59.207927673021" lon="17.936475251554">
        <ele>54.8</ele>
        <time>2019-09-14T16:28:50Z</time>
      </trkpt>
      <trkpt lat="59.207923901166" lon="17.936450022035">
        <ele>54.8</ele>
        <time>2019-09-14T16:28:51Z</time>
      </trkpt>
      <trkpt lat="59.207919542578" lon="17.936430576027">
        <ele>55</ele>
        <time>2019-09-14T16:28:52Z</time>
      </trkpt>
      <trkpt lat="59.207912082687" lon="17.936400401187">
        <ele>55</ele>
        <time>2019-09-14T16:28:53Z</time>
      </trkpt>
      <trkpt lat="59.207906466814" lon="17.936359832791">
        <ele>55</ele>
        <time>2019-09-14T16:28:54Z</time>
      </trkpt>
      <trkpt lat="59.207898504009" lon="17.936319934947">
        <ele>55</ele>
        <time>2019-09-14T16:28:55Z</time>
      </trkpt>
      <trkpt lat="59.20789506743" lon="17.936265620235">
        <ele>55</ele>
        <time>2019-09-14T16:28:56Z</time>
      </trkpt>
      <trkpt lat="59.207897498181" lon="17.936214239188">
        <ele>55</ele>
        <time>2019-09-14T16:28:57Z</time>
      </trkpt>
      <trkpt lat="59.207902778778" lon="17.936167552005">
        <ele>55</ele>
        <time>2019-09-14T16:28:58Z</time>
      </trkpt>
      <trkpt lat="59.207899426018" lon="17.936117344424">
        <ele>55</ele>
        <time>2019-09-14T16:28:59Z</time>
      </trkpt>
      <trkpt lat="59.207893055774" lon="17.936075602562">
        <ele>55</ele>
        <time>2019-09-14T16:29:00Z</time>
      </trkpt>
      <trkpt lat="59.207885176788" lon="17.936034195976">
        <ele>55</ele>
        <time>2019-09-14T16:29:01Z</time>
      </trkpt>
      <trkpt lat="59.207879812372" lon="17.935987005879">
        <ele>55</ele>
        <time>2019-09-14T16:29:02Z</time>
      </trkpt>
      <trkpt lat="59.20786740716" lon="17.93593243971">
        <ele>55</ele>
        <time>2019-09-14T16:29:03Z</time>
      </trkpt>
      <trkpt lat="59.207855085767" lon="17.935893463875">
        <ele>55</ele>
        <time>2019-09-14T16:29:04Z</time>
      </trkpt>
      <trkpt lat="59.207841842365" lon="17.935852895479">
        <ele>55</ele>
        <time>2019-09-14T16:29:05Z</time>
      </trkpt>
      <trkpt lat="59.207827090221" lon="17.935799335138">
        <ele>55</ele>
        <time>2019-09-14T16:29:06Z</time>
      </trkpt>
      <trkpt lat="59.20781124843" lon="17.9357404942">
        <ele>55</ele>
        <time>2019-09-14T16:29:07Z</time>
      </trkpt>
      <trkpt lat="59.207789874585" lon="17.93567846814">
        <ele>55</ele>
        <time>2019-09-14T16:29:08Z</time>
      </trkpt>
      <trkpt lat="59.207772272595" lon="17.935606299981">
        <ele>54.8</ele>
        <time>2019-09-14T16:29:09Z</time>
      </trkpt>
      <trkpt lat="59.207764477428" lon="17.935551230898">
        <ele>54.8</ele>
        <time>2019-09-14T16:29:10Z</time>
      </trkpt>
      <trkpt lat="59.207756346985" lon="17.935492809055">
        <ele>54.6</ele>
        <time>2019-09-14T16:29:11Z</time>
      </trkpt>
      <trkpt lat="59.207756263166" lon="17.935437153239">
        <ele>54.6</ele>
        <time>2019-09-14T16:29:12Z</time>
      </trkpt>
      <trkpt lat="59.207751066388" lon="17.93537839612">
        <ele>54.6</ele>
        <time>2019-09-14T16:29:13Z</time>
      </trkpt>
      <trkpt lat="59.207738242081" lon="17.935333469136">
        <ele>54.6</ele>
        <time>2019-09-14T16:29:14Z</time>
      </trkpt>
      <trkpt lat="59.207729021991" lon="17.935277897139">
        <ele>54.4</ele>
        <time>2019-09-14T16:29:15Z</time>
      </trkpt>
      <trkpt lat="59.207722819385" lon="17.93522333097">
        <ele>54.4</ele>
        <time>2019-09-14T16:29:16Z</time>
      </trkpt>
      <trkpt lat="59.207712425829" lon="17.935156611046">
        <ele>54.4</ele>
        <time>2019-09-14T16:29:17Z</time>
      </trkpt>
      <trkpt lat="59.207704211567" lon="17.935097099556">
        <ele>54.4</ele>
        <time>2019-09-14T16:29:18Z</time>
      </trkpt>
      <trkpt lat="59.20768887269" lon="17.935027362148">
        <ele>54.4</ele>
        <time>2019-09-14T16:29:19Z</time>
      </trkpt>
      <trkpt lat="59.207672276528" lon="17.934974472359">
        <ele>54.4</ele>
        <time>2019-09-14T16:29:20Z</time>
      </trkpt>
      <trkpt lat="59.207656853832" lon="17.934911272833">
        <ele>54.4</ele>
        <time>2019-09-14T16:29:21Z</time>
      </trkpt>
      <trkpt lat="59.207642017869" lon="17.934856371388">
        <ele>54.4</ele>
        <time>2019-09-14T16:29:22Z</time>
      </trkpt>
      <trkpt lat="59.207621398395" lon="17.934780179917">
        <ele>54.4</ele>
        <time>2019-09-14T16:29:23Z</time>
      </trkpt>
      <trkpt lat="59.207611926848" lon="17.934717483305">
        <ele>54.4</ele>
        <time>2019-09-14T16:29:24Z</time>
      </trkpt>
      <trkpt lat="59.207607316803" lon="17.934660151109">
        <ele>54.4</ele>
        <time>2019-09-14T16:29:25Z</time>
      </trkpt>
      <trkpt lat="59.20760337731" lon="17.934604914388">
        <ele>54.4</ele>
        <time>2019-09-14T16:29:26Z</time>
      </trkpt>
      <trkpt lat="59.207604886052" lon="17.934559065395">
        <ele>54.4</ele>
        <time>2019-09-14T16:29:27Z</time>
      </trkpt>
      <trkpt lat="59.207601784749" lon="17.934511959117">
        <ele>54.4</ele>
        <time>2019-09-14T16:29:28Z</time>
      </trkpt>
      <trkpt lat="59.207600778921" lon="17.934459991337">
        <ele>54.4</ele>
        <time>2019-09-14T16:29:29Z</time>
      </trkpt>
      <trkpt lat="59.207593235211" lon="17.934419590579">
        <ele>54.4</ele>
        <time>2019-09-14T16:29:30Z</time>
      </trkpt>
      <trkpt lat="59.207585020949" lon="17.934373490129">
        <ele>54.4</ele>
        <time>2019-09-14T16:29:31Z</time>
      </trkpt>
      <trkpt lat="59.207570604081" lon="17.934326635308">
        <ele>54.4</ele>
        <time>2019-09-14T16:29:32Z</time>
      </trkpt>
      <trkpt lat="59.207558869421" lon="17.934287156559">
        <ele>54.4</ele>
        <time>2019-09-14T16:29:33Z</time>
      </trkpt>
      <trkpt lat="59.207545374562" lon="17.934232506571">
        <ele>54.4</ele>
        <time>2019-09-14T16:29:34Z</time>
      </trkpt>
      <trkpt lat="59.207532047341" lon="17.934182634266">
        <ele>54.4</ele>
        <time>2019-09-14T16:29:35Z</time>
      </trkpt>
      <trkpt lat="59.207520312681" lon="17.934137372006">
        <ele>54.4</ele>
        <time>2019-09-14T16:29:36Z</time>
      </trkpt>
      <trkpt lat="59.207511260229" lon="17.934092025927">
        <ele>54.4</ele>
        <time>2019-09-14T16:29:37Z</time>
      </trkpt>
      <trkpt lat="59.207505728175" lon="17.934047266581">
        <ele>54.4</ele>
        <time>2019-09-14T16:29:38Z</time>
      </trkpt>
      <trkpt lat="59.207501704863" lon="17.934000914674">
        <ele>54.6</ele>
        <time>2019-09-14T16:29:39Z</time>
      </trkpt>
      <trkpt lat="59.207503800338" lon="17.933958586079">
        <ele>54.6</ele>
        <time>2019-09-14T16:29:40Z</time>
      </trkpt>
      <trkpt lat="59.207502962148" lon="17.933924723203">
        <ele>54.6</ele>
        <time>2019-09-14T16:29:41Z</time>
      </trkpt>
      <trkpt lat="59.207497849189" lon="17.933890189775">
        <ele>54.6</ele>
        <time>2019-09-14T16:29:42Z</time>
      </trkpt>
      <trkpt lat="59.207493406782" lon="17.933852135949">
        <ele>54.6</ele>
        <time>2019-09-14T16:29:43Z</time>
      </trkpt>
      <trkpt lat="59.207500196121" lon="17.933809723535">
        <ele>54.6</ele>
        <time>2019-09-14T16:29:44Z</time>
      </trkpt>
      <trkpt lat="59.207494161153" lon="17.933772172623">
        <ele>54.8</ele>
        <time>2019-09-14T16:29:45Z</time>
      </trkpt>
      <trkpt lat="59.207497597732" lon="17.933733532064">
        <ele>54.8</ele>
        <time>2019-09-14T16:29:46Z</time>
      </trkpt>
      <trkpt lat="59.207495669895" lon="17.933693885677">
        <ele>54.8</ele>
        <time>2019-09-14T16:29:47Z</time>
      </trkpt>
      <trkpt lat="59.207488210004" lon="17.933644013372">
        <ele>54.8</ele>
        <time>2019-09-14T16:29:48Z</time>
      </trkpt>
      <trkpt lat="59.207487287995" lon="17.933596487999">
        <ele>54.8</ele>
        <time>2019-09-14T16:29:49Z</time>
      </trkpt>
      <trkpt lat="59.207485360158" lon="17.933538904346">
        <ele>54.8</ele>
        <time>2019-09-14T16:29:50Z</time>
      </trkpt>
      <trkpt lat="59.207478319362" lon="17.933475369544">
        <ele>54.8</ele>
        <time>2019-09-14T16:29:51Z</time>
      </trkpt>
      <trkpt lat="59.207473960774" lon="17.933410493638">
        <ele>54.8</ele>
        <time>2019-09-14T16:29:52Z</time>
      </trkpt>
      <trkpt lat="59.207465495055" lon="17.933339247488">
        <ele>54.8</ele>
        <time>2019-09-14T16:29:53Z</time>
      </trkpt>
      <trkpt lat="59.20745753225" lon="17.933281160921">
        <ele>55</ele>
        <time>2019-09-14T16:29:54Z</time>
      </trkpt>
      <trkpt lat="59.207446468142" lon="17.933227935856">
        <ele>55</ele>
        <time>2019-09-14T16:29:55Z</time>
      </trkpt>
      <trkpt lat="59.207438421518" lon="17.933185188166">
        <ele>55</ele>
        <time>2019-09-14T16:29:56Z</time>
      </trkpt>
      <trkpt lat="59.207426016306" lon="17.933123329744">
        <ele>55</ele>
        <time>2019-09-14T16:29:57Z</time>
      </trkpt>
      <trkpt lat="59.207415119836" lon="17.933041354762">
        <ele>55</ele>
        <time>2019-09-14T16:29:58Z</time>
      </trkpt>
      <trkpt lat="59.207409001049" lon="17.932986453317">
        <ele>55</ele>
        <time>2019-09-14T16:29:59Z</time>
      </trkpt>
      <trkpt lat="59.207401876434" lon="17.932928115293">
        <ele>55.2</ele>
        <time>2019-09-14T16:30:00Z</time>
      </trkpt>
      <trkpt lat="59.207398523674" lon="17.932866424509">
        <ele>55.2</ele>
        <time>2019-09-14T16:30:01Z</time>
      </trkpt>
      <trkpt lat="59.207394165086" lon="17.932823425362">
        <ele>55.2</ele>
        <time>2019-09-14T16:30:02Z</time>
      </trkpt>
      <trkpt lat="59.207386705195" lon="17.932756705438">
        <ele>55.2</ele>
        <time>2019-09-14T16:30:03Z</time>
      </trkpt>
      <trkpt lat="59.207376730734" lon="17.932681855071">
        <ele>55.2</ele>
        <time>2019-09-14T16:30:04Z</time>
      </trkpt>
      <trkpt lat="59.207362732961" lon="17.932588564524">
        <ele>55.2</ele>
        <time>2019-09-14T16:30:05Z</time>
      </trkpt>
      <trkpt lat="59.207348651369" lon="17.932509942302">
        <ele>55.2</ele>
        <time>2019-09-14T16:30:06Z</time>
      </trkpt>
      <trkpt lat="59.207333061035" lon="17.932437103591">
        <ele>55.2</ele>
        <time>2019-09-14T16:30:07Z</time>
      </trkpt>
      <trkpt lat="59.207321913108" lon="17.932359403378">
        <ele>55.2</ele>
        <time>2019-09-14T16:30:08Z</time>
      </trkpt>
      <trkpt lat="59.207310346086" lon="17.932282289898">
        <ele>55.2</ele>
        <time>2019-09-14T16:30:09Z</time>
      </trkpt>
      <trkpt lat="59.20729743796" lon="17.932209786463">
        <ele>55.2</ele>
        <time>2019-09-14T16:30:10Z</time>
      </trkpt>
      <trkpt lat="59.207287798775" lon="17.932145245833">
        <ele>55.2</ele>
        <time>2019-09-14T16:30:11Z</time>
      </trkpt>
      <trkpt lat="59.207272376079" lon="17.932073999683">
        <ele>55</ele>
        <time>2019-09-14T16:30:12Z</time>
      </trkpt>
      <trkpt lat="59.207262736894" lon="17.93201473965">
        <ele>55</ele>
        <time>2019-09-14T16:30:13Z</time>
      </trkpt>
      <trkpt lat="59.207253935899" lon="17.931966292268">
        <ele>55</ele>
        <time>2019-09-14T16:30:14Z</time>
      </trkpt>
      <trkpt lat="59.207242620334" lon="17.931912564289">
        <ele>55</ele>
        <time>2019-09-14T16:30:15Z</time>
      </trkpt>
      <trkpt lat="59.207236333909" lon="17.931843245976">
        <ele>55</ele>
        <time>2019-09-14T16:30:16Z</time>
      </trkpt>
      <trkpt lat="59.207226275629" lon="17.931770239627">
        <ele>55</ele>
        <time>2019-09-14T16:30:17Z</time>
      </trkpt>
      <trkpt lat="59.20721948629" lon="17.931718774761">
        <ele>55</ele>
        <time>2019-09-14T16:30:18Z</time>
      </trkpt>
      <trkpt lat="59.207211020571" lon="17.931652138656">
        <ele>55</ele>
        <time>2019-09-14T16:30:19Z</time>
      </trkpt>
      <trkpt lat="59.207205823793" lon="17.93158474818">
        <ele>55</ele>
        <time>2019-09-14T16:30:20Z</time>
      </trkpt>
      <trkpt lat="59.207201800481" lon="17.931518866446">
        <ele>55</ele>
        <time>2019-09-14T16:30:21Z</time>
      </trkpt>
      <trkpt lat="59.207197022798" lon="17.93145399054">
        <ele>55</ele>
        <time>2019-09-14T16:30:22Z</time>
      </trkpt>
      <trkpt lat="59.207191323106" lon="17.931385007503">
        <ele>55</ele>
        <time>2019-09-14T16:30:23Z</time>
      </trkpt>
      <trkpt lat="59.207189479088" lon="17.93133329118">
        <ele>55</ele>
        <time>2019-09-14T16:30:24Z</time>
      </trkpt>
      <trkpt lat="59.207187886527" lon="17.931276042803">
        <ele>55</ele>
        <time>2019-09-14T16:30:25Z</time>
      </trkpt>
      <trkpt lat="59.207188892355" lon="17.931225416127">
        <ele>55</ele>
        <time>2019-09-14T16:30:26Z</time>
      </trkpt>
      <trkpt lat="59.207191490744" lon="17.931190128328">
        <ele>55</ele>
        <time>2019-09-14T16:30:27Z</time>
      </trkpt>
      <trkpt lat="59.207191909839" lon="17.931159199117">
        <ele>55.2</ele>
        <time>2019-09-14T16:30:28Z</time>
      </trkpt>
      <trkpt lat="59.207194424409" lon="17.931130197743">
        <ele>55.4</ele>
        <time>2019-09-14T16:30:29Z</time>
      </trkpt>
      <trkpt lat="59.207193167124" lon="17.931096670143">
        <ele>55.6</ele>
        <time>2019-09-14T16:30:30Z</time>
      </trkpt>
      <trkpt lat="59.207193418581" lon="17.931067333493">
        <ele>55.8</ele>
        <time>2019-09-14T16:30:31Z</time>
      </trkpt>
      <trkpt lat="59.207192580391" lon="17.931035482273">
        <ele>56</ele>
        <time>2019-09-14T16:30:32Z</time>
      </trkpt>
      <trkpt lat="59.207185623414" lon="17.930991728755">
        <ele>56.2</ele>
        <time>2019-09-14T16:30:33Z</time>
      </trkpt>
      <trkpt lat="59.20718176774" lon="17.930947388504">
        <ele>56.4</ele>
        <time>2019-09-14T16:30:34Z</time>
      </trkpt>
      <trkpt lat="59.20718009136" lon="17.930896929466">
        <ele>57</ele>
        <time>2019-09-14T16:30:35Z</time>
      </trkpt>
      <trkpt lat="59.20717506222" lon="17.930843452944">
        <ele>57</ele>
        <time>2019-09-14T16:30:36Z</time>
      </trkpt>
      <trkpt lat="59.20716919489" lon="17.930794083553">
        <ele>57.2</ele>
        <time>2019-09-14T16:30:37Z</time>
      </trkpt>
      <trkpt lat="59.20716081299" lon="17.930741780497">
        <ele>57.6</ele>
        <time>2019-09-14T16:30:38Z</time>
      </trkpt>
      <trkpt lat="59.207154275108" lon="17.930686962871">
        <ele>57.8</ele>
        <time>2019-09-14T16:30:39Z</time>
      </trkpt>
      <trkpt lat="59.20714572557" lon="17.930587553537">
        <ele>58.4</ele>
        <time>2019-09-14T16:30:41Z</time>
      </trkpt>
      <trkpt lat="59.207142959543" lon="17.930540195802">
        <ele>58.6</ele>
        <time>2019-09-14T16:30:42Z</time>
      </trkpt>
      <trkpt lat="59.207141450801" lon="17.930501136148">
        <ele>58.6</ele>
        <time>2019-09-14T16:30:43Z</time>
      </trkpt>
      <trkpt lat="59.207139355326" lon="17.930477834466">
        <ele>58.8</ele>
        <time>2019-09-14T16:30:44Z</time>
      </trkpt>
      <trkpt lat="59.207137008394" lon="17.930468195281">
        <ele>59.2</ele>
        <time>2019-09-14T16:30:45Z</time>
      </trkpt>
      <trkpt lat="59.207123178259" lon="17.930351016319">
        <ele>60.2</ele>
        <time>2019-09-14T16:30:55Z</time>
      </trkpt>
      <trkpt lat="59.207119238766" lon="17.930306424611">
        <ele>60.2</ele>
        <time>2019-09-14T16:30:56Z</time>
      </trkpt>
      <trkpt lat="59.207116053644" lon="17.930259821247">
        <ele>60.2</ele>
        <time>2019-09-14T16:30:57Z</time>
      </trkpt>
      <trkpt lat="59.207112449427" lon="17.93020676382">
        <ele>60.2</ele>
        <time>2019-09-14T16:30:58Z</time>
      </trkpt>
      <trkpt lat="59.207109348124" lon="17.930147168511">
        <ele>60.2</ele>
        <time>2019-09-14T16:30:59Z</time>
      </trkpt>
      <trkpt lat="59.207105408631" lon="17.930081622053">
        <ele>60.2</ele>
        <time>2019-09-14T16:31:00Z</time>
      </trkpt>
      <trkpt lat="59.207101050043" lon="17.930011717007">
        <ele>60.2</ele>
        <time>2019-09-14T16:31:01Z</time>
      </trkpt>
      <trkpt lat="59.207097194369" lon="17.929935776993">
        <ele>60.2</ele>
        <time>2019-09-14T16:31:02Z</time>
      </trkpt>
      <trkpt lat="59.207093003419" lon="17.929850449251">
        <ele>60.2</ele>
        <time>2019-09-14T16:31:03Z</time>
      </trkpt>
      <trkpt lat="59.207088309555" lon="17.929757996894">
        <ele>60.2</ele>
        <time>2019-09-14T16:31:04Z</time>
      </trkpt>
      <trkpt lat="59.207086549356" lon="17.929664706347">
        <ele>60.2</ele>
        <time>2019-09-14T16:31:05Z</time>
      </trkpt>
      <trkpt lat="59.20708872865" lon="17.929571834895">
        <ele>60</ele>
        <time>2019-09-14T16:31:06Z</time>
      </trkpt>
      <trkpt lat="59.207096356179" lon="17.929481142737">
        <ele>60</ele>
        <time>2019-09-14T16:31:07Z</time>
      </trkpt>
      <trkpt lat="59.207108929029" lon="17.929394725348">
        <ele>60</ele>
        <time>2019-09-14T16:31:08Z</time>
      </trkpt>
      <trkpt lat="59.207120328413" lon="17.929308727054">
        <ele>60.2</ele>
        <time>2019-09-14T16:31:09Z</time>
      </trkpt>
      <trkpt lat="59.207129716141" lon="17.929224321321">
        <ele>60</ele>
        <time>2019-09-14T16:31:10Z</time>
      </trkpt>
      <trkpt lat="59.207140444973" lon="17.9291439389">
        <ele>59.6</ele>
        <time>2019-09-14T16:31:11Z</time>
      </trkpt>
      <trkpt lat="59.207153185461" lon="17.929061628642">
        <ele>59.2</ele>
        <time>2019-09-14T16:31:12Z</time>
      </trkpt>
      <trkpt lat="59.207165674492" lon="17.928973534873">
        <ele>59</ele>
        <time>2019-09-14T16:31:13Z</time>
      </trkpt>
      <trkpt lat="59.207177660609" lon="17.9288841">
        <ele>58.8</ele>
        <time>2019-09-14T16:31:14Z</time>
      </trkpt>
      <trkpt lat="59.207192245115" lon="17.928792821109">
        <ele>58.6</ele>
        <time>2019-09-14T16:31:15Z</time>
      </trkpt>
      <trkpt lat="59.207207416354" lon="17.928693495594">
        <ele>58.4</ele>
        <time>2019-09-14T16:31:16Z</time>
      </trkpt>
      <trkpt lat="59.207222084679" lon="17.928595175907">
        <ele>58.2</ele>
        <time>2019-09-14T16:31:17Z</time>
      </trkpt>
      <trkpt lat="59.207235579538" lon="17.928504986663">
        <ele>58.2</ele>
        <time>2019-09-14T16:31:18Z</time>
      </trkpt>
      <trkpt lat="59.207246643646" lon="17.928420245654">
        <ele>58.2</ele>
        <time>2019-09-14T16:31:19Z</time>
      </trkpt>
      <trkpt lat="59.207256450469" lon="17.928342293984">
        <ele>58</ele>
        <time>2019-09-14T16:31:20Z</time>
      </trkpt>
      <trkpt lat="59.207266173473" lon="17.928269874368">
        <ele>58</ele>
        <time>2019-09-14T16:31:21Z</time>
      </trkpt>
      <trkpt lat="59.207277824314" lon="17.928204998462">
        <ele>58</ele>
        <time>2019-09-14T16:31:22Z</time>
      </trkpt>
      <trkpt lat="59.207288888422" lon="17.92815068375">
        <ele>58</ele>
        <time>2019-09-14T16:31:23Z</time>
      </trkpt>
      <trkpt lat="59.207300036349" lon="17.928102655463">
        <ele>58</ele>
        <time>2019-09-14T16:31:24Z</time>
      </trkpt>
      <trkpt lat="59.207312106285" lon="17.92805345371">
        <ele>58</ele>
        <time>2019-09-14T16:31:25Z</time>
      </trkpt>
      <trkpt lat="59.207322248384" lon="17.928010035468">
        <ele>58</ele>
        <time>2019-09-14T16:31:26Z</time>
      </trkpt>
      <trkpt lat="59.207331384655" lon="17.927978603343">
        <ele>58</ele>
        <time>2019-09-14T16:31:27Z</time>
      </trkpt>
      <trkpt lat="59.20733767108" lon="17.9279537091">
        <ele>58</ele>
        <time>2019-09-14T16:31:28Z</time>
      </trkpt>
      <trkpt lat="59.207344544238" lon="17.9279285634">
        <ele>58</ele>
        <time>2019-09-14T16:31:29Z</time>
      </trkpt>
      <trkpt lat="59.20735443488" lon="17.927908782116">
        <ele>58.2</ele>
        <time>2019-09-14T16:31:30Z</time>
      </trkpt>
      <trkpt lat="59.207369689938" lon="17.92789000666">
        <ele>58.2</ele>
        <time>2019-09-14T16:31:31Z</time>
      </trkpt>
      <trkpt lat="59.207387375747" lon="17.927874500145">
        <ele>58.2</ele>
        <time>2019-09-14T16:31:32Z</time>
      </trkpt>
      <trkpt lat="59.207402044072" lon="17.927851869015">
        <ele>58.2</ele>
        <time>2019-09-14T16:31:33Z</time>
      </trkpt>
      <trkpt lat="59.207413527275" lon="17.927820520709">
        <ele>58.4</ele>
        <time>2019-09-14T16:31:34Z</time>
      </trkpt>
      <trkpt lat="59.207422998822" lon="17.927783053616">
        <ele>58.8</ele>
        <time>2019-09-14T16:31:35Z</time>
      </trkpt>
      <trkpt lat="59.207432805645" lon="17.927744748333">
        <ele>59</ele>
        <time>2019-09-14T16:31:36Z</time>
      </trkpt>
      <trkpt lat="59.207440265536" lon="17.927705269584">
        <ele>59.2</ele>
        <time>2019-09-14T16:31:37Z</time>
      </trkpt>
      <trkpt lat="59.207449904721" lon="17.927667299577">
        <ele>59.4</ele>
        <time>2019-09-14T16:31:38Z</time>
      </trkpt>
      <trkpt lat="59.20745920863" lon="17.927627150276">
        <ele>59.4</ele>
        <time>2019-09-14T16:31:39Z</time>
      </trkpt>
      <trkpt lat="59.207465746512" lon="17.927580966007">
        <ele>59.6</ele>
        <time>2019-09-14T16:31:40Z</time>
      </trkpt>
      <trkpt lat="59.207472452032" lon="17.927534865557">
        <ele>59.6</ele>
        <time>2019-09-14T16:31:41Z</time>
      </trkpt>
      <trkpt lat="59.207480582475" lon="17.927487340184">
        <ele>59.8</ele>
        <time>2019-09-14T16:31:42Z</time>
      </trkpt>
      <trkpt lat="59.207487790909" lon="17.927439395716">
        <ele>59.8</ele>
        <time>2019-09-14T16:31:43Z</time>
      </trkpt>
      <trkpt lat="59.207493322963" lon="17.927392457076">
        <ele>59.8</ele>
        <time>2019-09-14T16:31:44Z</time>
      </trkpt>
      <trkpt lat="59.20749860356" lon="17.927346105169">
        <ele>60</ele>
        <time>2019-09-14T16:31:45Z</time>
      </trkpt>
      <trkpt lat="59.20750279451" lon="17.927299585624">
        <ele>60</ele>
        <time>2019-09-14T16:31:46Z</time>
      </trkpt>
      <trkpt lat="59.207506901641" lon="17.927248288396">
        <ele>60.2</ele>
        <time>2019-09-14T16:31:47Z</time>
      </trkpt>
      <trkpt lat="59.207509164754" lon="17.927191123838">
        <ele>60.2</ele>
        <time>2019-09-14T16:31:48Z</time>
      </trkpt>
      <trkpt lat="59.207512182238" lon="17.927140832438">
        <ele>60.2</ele>
        <time>2019-09-14T16:31:49Z</time>
      </trkpt>
      <trkpt lat="59.207513858618" lon="17.927079560749">
        <ele>60.6</ele>
        <time>2019-09-14T16:31:50Z</time>
      </trkpt>
      <trkpt lat="59.20752123469" lon="17.927021725639">
        <ele>60.6</ele>
        <time>2019-09-14T16:31:51Z</time>
      </trkpt>
      <trkpt lat="59.207528359305" lon="17.926964058167">
        <ele>60.6</ele>
        <time>2019-09-14T16:31:52Z</time>
      </trkpt>
      <trkpt lat="59.207528694581" lon="17.926907899437">
        <ele>60.6</ele>
        <time>2019-09-14T16:31:53Z</time>
      </trkpt>
      <trkpt lat="59.207525174183" lon="17.926842939712">
        <ele>60.8</ele>
        <time>2019-09-14T16:31:54Z</time>
      </trkpt>
      <trkpt lat="59.20752207288" lon="17.926776638883">
        <ele>60.8</ele>
        <time>2019-09-14T16:31:55Z</time>
      </trkpt>
      <trkpt lat="59.207517965749" lon="17.926711343882">
        <ele>60.8</ele>
        <time>2019-09-14T16:31:56Z</time>
      </trkpt>
      <trkpt lat="59.207509667668" lon="17.92664277994">
        <ele>61</ele>
        <time>2019-09-14T16:31:57Z</time>
      </trkpt>
      <trkpt lat="59.207502878329" lon="17.926576646749">
        <ele>61.2</ele>
        <time>2019-09-14T16:31:58Z</time>
      </trkpt>
      <trkpt lat="59.207496340447" lon="17.926511519386">
        <ele>61.2</ele>
        <time>2019-09-14T16:31:59Z</time>
      </trkpt>
      <trkpt lat="59.207490556936" lon="17.926453013724">
        <ele>61.2</ele>
        <time>2019-09-14T16:32:00Z</time>
      </trkpt>
      <trkpt lat="59.207485276339" lon="17.926399285745">
        <ele>61.2</ele>
        <time>2019-09-14T16:32:01Z</time>
      </trkpt>
      <trkpt lat="59.207484689606" lon="17.926349078164">
        <ele>61.2</ele>
        <time>2019-09-14T16:32:02Z</time>
      </trkpt>
      <trkpt lat="59.207487120357" lon="17.926305492284">
        <ele>61.2</ele>
        <time>2019-09-14T16:32:03Z</time>
      </trkpt>
      <trkpt lat="59.207487036538" lon="17.926262912232">
        <ele>61.2</ele>
        <time>2019-09-14T16:32:04Z</time>
      </trkpt>
      <trkpt lat="59.207482510312" lon="17.926211866461">
        <ele>61.2</ele>
        <time>2019-09-14T16:32:05Z</time>
      </trkpt>
      <trkpt lat="59.207476056249" lon="17.926160233957">
        <ele>61.2</ele>
        <time>2019-09-14T16:32:06Z</time>
      </trkpt>
      <trkpt lat="59.207475553335" lon="17.92610801472">
        <ele>61.2</ele>
        <time>2019-09-14T16:32:07Z</time>
      </trkpt>
      <trkpt lat="59.207478906095" lon="17.926056633673">
        <ele>61.2</ele>
        <time>2019-09-14T16:32:08Z</time>
      </trkpt>
      <trkpt lat="59.207484186692" lon="17.926010868499">
        <ele>61.2</ele>
        <time>2019-09-14T16:32:09Z</time>
      </trkpt>
      <trkpt lat="59.207489551108" lon="17.925962756393">
        <ele>61.2</ele>
        <time>2019-09-14T16:32:10Z</time>
      </trkpt>
      <trkpt lat="59.207494747886" lon="17.925905759473">
        <ele>61.2</ele>
        <time>2019-09-14T16:32:11Z</time>
      </trkpt>
      <trkpt lat="59.207499357931" lon="17.925850187476">
        <ele>61.2</ele>
        <time>2019-09-14T16:32:12Z</time>
      </trkpt>
      <trkpt lat="59.207503129786" lon="17.925793609651">
        <ele>61</ele>
        <time>2019-09-14T16:32:13Z</time>
      </trkpt>
      <trkpt lat="59.207507153098" lon="17.925733762885">
        <ele>61</ele>
        <time>2019-09-14T16:32:14Z</time>
      </trkpt>
      <trkpt lat="59.207511511686" lon="17.925669976626">
        <ele>61</ele>
        <time>2019-09-14T16:32:15Z</time>
      </trkpt>
      <trkpt lat="59.207517798111" lon="17.925615075181">
        <ele>61</ele>
        <time>2019-09-14T16:32:16Z</time>
      </trkpt>
      <trkpt lat="59.207523078708" lon="17.925556150424">
        <ele>61</ele>
        <time>2019-09-14T16:32:17Z</time>
      </trkpt>
      <trkpt lat="59.207528359305" lon="17.925493956726">
        <ele>61</ele>
        <time>2019-09-14T16:32:18Z</time>
      </trkpt>
      <trkpt lat="59.207534058997" lon="17.925437881815">
        <ele>61</ele>
        <time>2019-09-14T16:32:19Z</time>
      </trkpt>
      <trkpt lat="59.207539088137" lon="17.925383148008">
        <ele>61</ele>
        <time>2019-09-14T16:32:20Z</time>
      </trkpt>
      <trkpt lat="59.207545039286" lon="17.925325312898">
        <ele>61</ele>
        <time>2019-09-14T16:32:21Z</time>
      </trkpt>
      <trkpt lat="59.207553002091" lon="17.925265466132">
        <ele>61</ele>
        <time>2019-09-14T16:32:22Z</time>
      </trkpt>
      <trkpt lat="59.207560378163" lon="17.92521450418">
        <ele>61</ele>
        <time>2019-09-14T16:32:23Z</time>
      </trkpt>
      <trkpt lat="59.207566999864" lon="17.925167397902">
        <ele>61</ele>
        <time>2019-09-14T16:32:24Z</time>
      </trkpt>
      <trkpt lat="59.207571861366" lon="17.925116100674">
        <ele>61</ele>
        <time>2019-09-14T16:32:25Z</time>
      </trkpt>
      <trkpt lat="59.207578566886" lon="17.925061534505">
        <ele>61</ele>
        <time>2019-09-14T16:32:26Z</time>
      </trkpt>
      <trkpt lat="59.207590133908" lon="17.925006297784">
        <ele>61</ele>
        <time>2019-09-14T16:32:27Z</time>
      </trkpt>
      <trkpt lat="59.20760924464" lon="17.924956760755">
        <ele>61</ele>
        <time>2019-09-14T16:32:28Z</time>
      </trkpt>
      <trkpt lat="59.207629947933" lon="17.924919126024">
        <ele>61</ele>
        <time>2019-09-14T16:32:29Z</time>
      </trkpt>
      <trkpt lat="59.207647214647" lon="17.924888029175">
        <ele>61.2</ele>
        <time>2019-09-14T16:32:30Z</time>
      </trkpt>
      <trkpt lat="59.207664481361" lon="17.924861207095">
        <ele>61.2</ele>
        <time>2019-09-14T16:32:31Z</time>
      </trkpt>
      <trkpt lat="59.20768216717" lon="17.924845784399">
        <ele>61.2</ele>
        <time>2019-09-14T16:32:32Z</time>
      </trkpt>
      <trkpt lat="59.207701026445" lon="17.924842012544">
        <ele>61.2</ele>
        <time>2019-09-14T16:32:33Z</time>
      </trkpt>
      <trkpt lat="59.207719718082" lon="17.924845616761">
        <ele>61.2</ele>
        <time>2019-09-14T16:32:34Z</time>
      </trkpt>
      <trkpt lat="59.207739667004" lon="17.924849304797">
        <ele>61.4</ele>
        <time>2019-09-14T16:32:35Z</time>
      </trkpt>
      <trkpt lat="59.207759699745" lon="17.924856513231">
        <ele>61.4</ele>
        <time>2019-09-14T16:32:36Z</time>
      </trkpt>
      <trkpt lat="59.207784342531" lon="17.924865146588">
        <ele>61.8</ele>
        <time>2019-09-14T16:32:37Z</time>
      </trkpt>
      <trkpt lat="59.207805800195" lon="17.924874701954">
        <ele>62.2</ele>
        <time>2019-09-14T16:32:38Z</time>
      </trkpt>
      <trkpt lat="59.207827006402" lon="17.924888196813">
        <ele>62.6</ele>
        <time>2019-09-14T16:32:39Z</time>
      </trkpt>
      <trkpt lat="59.207848380247" lon="17.924898003636">
        <ele>62.8</ele>
        <time>2019-09-14T16:32:40Z</time>
      </trkpt>
      <trkpt lat="59.207871262834" lon="17.924904709156">
        <ele>62.8</ele>
        <time>2019-09-14T16:32:41Z</time>
      </trkpt>
      <trkpt lat="59.207894564516" lon="17.924911666133">
        <ele>63</ele>
        <time>2019-09-14T16:32:42Z</time>
      </trkpt>
      <trkpt lat="59.207915603085" lon="17.924922394965">
        <ele>63.2</ele>
        <time>2019-09-14T16:32:43Z</time>
      </trkpt>
      <trkpt lat="59.207934713817" lon="17.924934297263">
        <ele>63.4</ele>
        <time>2019-09-14T16:32:44Z</time>
      </trkpt>
      <trkpt lat="59.207953992187" lon="17.924943852629">
        <ele>63.8</ele>
        <time>2019-09-14T16:32:45Z</time>
      </trkpt>
      <trkpt lat="59.207974527842" lon="17.924953659452">
        <ele>64</ele>
        <time>2019-09-14T16:32:46Z</time>
      </trkpt>
      <trkpt lat="59.207996236963" lon="17.924963633913">
        <ele>64.2</ele>
        <time>2019-09-14T16:32:47Z</time>
      </trkpt>
      <trkpt lat="59.208015934428" lon="17.924970507071">
        <ele>64.2</ele>
        <time>2019-09-14T16:32:48Z</time>
      </trkpt>
      <trkpt lat="59.208034709884" lon="17.924979559523">
        <ele>64.4</ele>
        <time>2019-09-14T16:32:49Z</time>
      </trkpt>
      <trkpt lat="59.20805348534" lon="17.92498903107">
        <ele>64.6</ele>
        <time>2019-09-14T16:32:50Z</time>
      </trkpt>
      <trkpt lat="59.20807276371" lon="17.924999592264">
        <ele>64.8</ele>
        <time>2019-09-14T16:32:51Z</time>
      </trkpt>
      <trkpt lat="59.208090533338" lon="17.925008560897">
        <ele>65</ele>
        <time>2019-09-14T16:32:52Z</time>
      </trkpt>
      <trkpt lat="59.208106458948" lon="17.925018116263">
        <ele>65.2</ele>
        <time>2019-09-14T16:32:53Z</time>
      </trkpt>
      <trkpt lat="59.208124815309" lon="17.925030689113">
        <ele>65.2</ele>
        <time>2019-09-14T16:32:54Z</time>
      </trkpt>
      <trkpt lat="59.208144931869" lon="17.925041417945">
        <ele>65.4</ele>
        <time>2019-09-14T16:32:55Z</time>
      </trkpt>
      <trkpt lat="59.20816077366" lon="17.925050805673">
        <ele>65.4</ele>
        <time>2019-09-14T16:32:56Z</time>
      </trkpt>
      <trkpt lat="59.208176447813" lon="17.925055499537">
        <ele>65.6</ele>
        <time>2019-09-14T16:32:57Z</time>
      </trkpt>
      <trkpt lat="59.208188769206" lon="17.925062707971">
        <ele>65.6</ele>
        <time>2019-09-14T16:32:58Z</time>
      </trkpt>
      <trkpt lat="59.208197570201" lon="17.925068240025">
        <ele>65.6</ele>
        <time>2019-09-14T16:32:59Z</time>
      </trkpt>
      <trkpt lat="59.20821357963" lon="17.925077460115">
        <ele>65.8</ele>
        <time>2019-09-14T16:33:00Z</time>
      </trkpt>
      <trkpt lat="59.208231265439" lon="17.925082153979">
        <ele>66</ele>
        <time>2019-09-14T16:33:01Z</time>
      </trkpt>
      <trkpt lat="59.208246855773" lon="17.925087015481">
        <ele>66.2</ele>
        <time>2019-09-14T16:33:02Z</time>
      </trkpt>
      <trkpt lat="59.208261943193" lon="17.925095984114">
        <ele>66.2</ele>
        <time>2019-09-14T16:33:03Z</time>
      </trkpt>
      <trkpt lat="59.208275857147" lon="17.925104114557">
        <ele>66.2</ele>
        <time>2019-09-14T16:33:04Z</time>
      </trkpt>
      <trkpt lat="59.20829320768" lon="17.925109395154">
        <ele>66.4</ele>
        <time>2019-09-14T16:33:05Z</time>
      </trkpt>
      <trkpt lat="59.208310642032" lon="17.925113250828">
        <ele>66.6</ele>
        <time>2019-09-14T16:33:06Z</time>
      </trkpt>
      <trkpt lat="59.208327741108" lon="17.9251206269">
        <ele>66.6</ele>
        <time>2019-09-14T16:33:07Z</time>
      </trkpt>
      <trkpt lat="59.208343834356" lon="17.925126410411">
        <ele>66.8</ele>
        <time>2019-09-14T16:33:08Z</time>
      </trkpt>
      <trkpt lat="59.208363280364" lon="17.925131774827">
        <ele>67</ele>
        <time>2019-09-14T16:33:09Z</time>
      </trkpt>
      <trkpt lat="59.208379876526" lon="17.925140072908">
        <ele>67.2</ele>
        <time>2019-09-14T16:33:10Z</time>
      </trkpt>
      <trkpt lat="59.208394796308" lon="17.925144599134">
        <ele>67.2</ele>
        <time>2019-09-14T16:33:11Z</time>
      </trkpt>
      <trkpt lat="59.208408458805" lon="17.925150885559">
        <ele>67.4</ele>
        <time>2019-09-14T16:33:12Z</time>
      </trkpt>
      <trkpt lat="59.208425893157" lon="17.92515834545">
        <ele>67.4</ele>
        <time>2019-09-14T16:33:13Z</time>
      </trkpt>
      <trkpt lat="59.208446177355" lon="17.925167816997">
        <ele>67.4</ele>
        <time>2019-09-14T16:33:14Z</time>
      </trkpt>
      <trkpt lat="59.208469059942" lon="17.925176115078">
        <ele>67.4</ele>
        <time>2019-09-14T16:33:15Z</time>
      </trkpt>
      <trkpt lat="59.208491523434" lon="17.925185586625">
        <ele>67.4</ele>
        <time>2019-09-14T16:33:16Z</time>
      </trkpt>
      <trkpt lat="59.208508287234" lon="17.925193381792">
        <ele>67.6</ele>
        <time>2019-09-14T16:33:17Z</time>
      </trkpt>
      <trkpt lat="59.20852454812" lon="17.925203356253">
        <ele>67.6</ele>
        <time>2019-09-14T16:33:18Z</time>
      </trkpt>
      <trkpt lat="59.208538713531" lon="17.925212660162">
        <ele>67.6</ele>
        <time>2019-09-14T16:33:19Z</time>
      </trkpt>
      <trkpt lat="59.20855388477" lon="17.925218108397">
        <ele>67.6</ele>
        <time>2019-09-14T16:33:20Z</time>
      </trkpt>
      <trkpt lat="59.208571235303" lon="17.925225065374">
        <ele>68</ele>
        <time>2019-09-14T16:33:21Z</time>
      </trkpt>
      <trkpt lat="59.208586993275" lon="17.925232022351">
        <ele>68.2</ele>
        <time>2019-09-14T16:33:22Z</time>
      </trkpt>
      <trkpt lat="59.208602583609" lon="17.925238476414">
        <ele>68.4</ele>
        <time>2019-09-14T16:33:23Z</time>
      </trkpt>
      <trkpt lat="59.208620437056" lon="17.925247025952">
        <ele>68.6</ele>
        <time>2019-09-14T16:33:24Z</time>
      </trkpt>
      <trkpt lat="59.208637536132" lon="17.92525976644">
        <ele>68.6</ele>
        <time>2019-09-14T16:33:25Z</time>
      </trkpt>
      <trkpt lat="59.208651701543" lon="17.925271249643">
        <ele>68.8</ele>
        <time>2019-09-14T16:33:26Z</time>
      </trkpt>
      <trkpt lat="59.208667124239" lon="17.925276865516">
        <ele>69</ele>
        <time>2019-09-14T16:33:27Z</time>
      </trkpt>
      <trkpt lat="59.208682044021" lon="17.925280972647">
        <ele>69</ele>
        <time>2019-09-14T16:33:28Z</time>
      </trkpt>
      <trkpt lat="59.208694030138" lon="17.925283738674">
        <ele>69.2</ele>
        <time>2019-09-14T16:33:29Z</time>
      </trkpt>
      <trkpt lat="59.208701825305" lon="17.925290025099">
        <ele>69.2</ele>
        <time>2019-09-14T16:33:30Z</time>
      </trkpt>
      <trkpt lat="59.208710877757" lon="17.925300334836">
        <ele>69.2</ele>
        <time>2019-09-14T16:33:31Z</time>
      </trkpt>
      <trkpt lat="59.208723115331" lon="17.92530419051">
        <ele>69.2</ele>
        <time>2019-09-14T16:33:32Z</time>
      </trkpt>
      <trkpt lat="59.208734598534" lon="17.925302765587">
        <ele>69.4</ele>
        <time>2019-09-14T16:33:33Z</time>
      </trkpt>
      <trkpt lat="59.208746919927" lon="17.925305447795">
        <ele>69.4</ele>
        <time>2019-09-14T16:33:34Z</time>
      </trkpt>
      <trkpt lat="59.208760330967" lon="17.925311482763">
        <ele>69.6</ele>
        <time>2019-09-14T16:33:35Z</time>
      </trkpt>
      <trkpt lat="59.208776424215" lon="17.925312488591">
        <ele>69.8</ele>
        <time>2019-09-14T16:33:36Z</time>
      </trkpt>
      <trkpt lat="59.208792182187" lon="17.925319529387">
        <ele>70</ele>
        <time>2019-09-14T16:33:37Z</time>
      </trkpt>
      <trkpt lat="59.208806934331" lon="17.925324390889">
        <ele>70.2</ele>
        <time>2019-09-14T16:33:38Z</time>
      </trkpt>
      <trkpt lat="59.208819171905" lon="17.925330425857">
        <ele>70.4</ele>
        <time>2019-09-14T16:33:39Z</time>
      </trkpt>
      <trkpt lat="59.208830571289" lon="17.925338723938">
        <ele>70.4</ele>
        <time>2019-09-14T16:33:40Z</time>
      </trkpt>
      <trkpt lat="59.208841551578" lon="17.925351296788">
        <ele>70.4</ele>
        <time>2019-09-14T16:33:41Z</time>
      </trkpt>
      <trkpt lat="59.208856890455" lon="17.925352637892">
        <ele>70.6</ele>
        <time>2019-09-14T16:33:42Z</time>
      </trkpt>
      <trkpt lat="59.208870301495" lon="17.925357164118">
        <ele>70.6</ele>
        <time>2019-09-14T16:33:43Z</time>
      </trkpt>
      <trkpt lat="59.208885556553" lon="17.925360935973">
        <ele>70.6</ele>
        <time>2019-09-14T16:33:44Z</time>
      </trkpt>
      <trkpt lat="59.208905421656" lon="17.925358169946">
        <ele>70.8</ele>
        <time>2019-09-14T16:33:45Z</time>
      </trkpt>
      <trkpt lat="59.208920089981" lon="17.925362696172">
        <ele>71</ele>
        <time>2019-09-14T16:33:46Z</time>
      </trkpt>
      <trkpt lat="59.208928639519" lon="17.925362947629">
        <ele>71</ele>
        <time>2019-09-14T16:33:47Z</time>
      </trkpt>
      <trkpt lat="59.208941212369" lon="17.925365210742">
        <ele>71</ele>
        <time>2019-09-14T16:33:48Z</time>
      </trkpt>
      <trkpt lat="59.208953952857" lon="17.925369988425">
        <ele>71</ele>
        <time>2019-09-14T16:33:49Z</time>
      </trkpt>
      <trkpt lat="59.208967447716" lon="17.925375604298">
        <ele>71.2</ele>
        <time>2019-09-14T16:33:50Z</time>
      </trkpt>
      <trkpt lat="59.208983624783" lon="17.925381974542">
        <ele>71.2</ele>
        <time>2019-09-14T16:33:51Z</time>
      </trkpt>
      <trkpt lat="59.209002064963" lon="17.925385914035">
        <ele>71.4</ele>
        <time>2019-09-14T16:33:52Z</time>
      </trkpt>
      <trkpt lat="59.209017990573" lon="17.925389769709">
        <ele>71.6</ele>
        <time>2019-09-14T16:33:53Z</time>
      </trkpt>
      <trkpt lat="59.20904087316" lon="17.925397397238">
        <ele>71.8</ele>
        <time>2019-09-14T16:33:54Z</time>
      </trkpt>
      <trkpt lat="59.209061576453" lon="17.925405862957">
        <ele>72.2</ele>
        <time>2019-09-14T16:33:55Z</time>
      </trkpt>
      <trkpt lat="59.209080184271" lon="17.925416005056">
        <ele>72.4</ele>
        <time>2019-09-14T16:33:56Z</time>
      </trkpt>
      <trkpt lat="59.20909703189" lon="17.92542572806">
        <ele>72.4</ele>
        <time>2019-09-14T16:33:57Z</time>
      </trkpt>
      <trkpt lat="59.209114550061" lon="17.92543746272">
        <ele>72.4</ele>
        <time>2019-09-14T16:33:58Z</time>
      </trkpt>
      <trkpt lat="59.20913139768" lon="17.925451376674">
        <ele>72.6</ele>
        <time>2019-09-14T16:33:59Z</time>
      </trkpt>
      <trkpt lat="59.209146066005" lon="17.925465625904">
        <ele>72.6</ele>
        <time>2019-09-14T16:34:00Z</time>
      </trkpt>
      <trkpt lat="59.209159644683" lon="17.925476438555">
        <ele>72.8</ele>
        <time>2019-09-14T16:34:01Z</time>
      </trkpt>
      <trkpt lat="59.209173642456" lon="17.925484736636">
        <ele>73</ele>
        <time>2019-09-14T16:34:02Z</time>
      </trkpt>
      <trkpt lat="59.209194597206" lon="17.925493286174">
        <ele>73.2</ele>
        <time>2019-09-14T16:34:03Z</time>
      </trkpt>
      <trkpt lat="59.209214965223" lon="17.925502925359">
        <ele>73.2</ele>
        <time>2019-09-14T16:34:04Z</time>
      </trkpt>
      <trkpt lat="59.209232148118" lon="17.92551289982">
        <ele>73.4</ele>
        <time>2019-09-14T16:34:05Z</time>
      </trkpt>
      <trkpt lat="59.209245978253" lon="17.925518264236">
        <ele>73.6</ele>
        <time>2019-09-14T16:34:06Z</time>
      </trkpt>
      <trkpt lat="59.209257796732" lon="17.92551541439">
        <ele>73.8</ele>
        <time>2019-09-14T16:34:07Z</time>
      </trkpt>
      <trkpt lat="59.209267435917" lon="17.925501751893">
        <ele>73.8</ele>
        <time>2019-09-14T16:34:08Z</time>
      </trkpt>
      <trkpt lat="59.209272297419" lon="17.925480629505">
        <ele>74</ele>
        <time>2019-09-14T16:34:09Z</time>
      </trkpt>
      <trkpt lat="59.209272800333" lon="17.925451795769">
        <ele>74</ele>
        <time>2019-09-14T16:34:10Z</time>
      </trkpt>
      <trkpt lat="59.209265591899" lon="17.925422459119">
        <ele>74.2</ele>
        <time>2019-09-14T16:34:11Z</time>
      </trkpt>
      <trkpt lat="59.209251342669" lon="17.925406784966">
        <ele>74.2</ele>
        <time>2019-09-14T16:34:12Z</time>
      </trkpt>
      <trkpt lat="59.209239021276" lon="17.925403599844">
        <ele>74.2</ele>
        <time>2019-09-14T16:34:13Z</time>
      </trkpt>
      <trkpt lat="59.209233992136" lon="17.925402845473">
        <ele>74.4</ele>
        <time>2019-09-14T16:34:14Z</time>
      </trkpt>
      <trkpt lat="59.209234075955" lon="17.925404354215">
        <ele>74.4</ele>
        <time>2019-09-14T16:34:15Z</time>
      </trkpt>
      <trkpt lat="59.209200632174" lon="17.925391781365">
        <ele>74.6</ele>
        <time>2019-09-14T16:34:30Z</time>
      </trkpt>
      <trkpt lat="59.209185125659" lon="17.925380214343">
        <ele>74.6</ele>
        <time>2019-09-14T16:34:31Z</time>
      </trkpt>
      <trkpt lat="59.209167104574" lon="17.925362193258">
        <ele>74.4</ele>
        <time>2019-09-14T16:34:32Z</time>
      </trkpt>
      <trkpt lat="59.209145814548" lon="17.925345848553">
        <ele>74.4</ele>
        <time>2019-09-14T16:34:33Z</time>
      </trkpt>
      <trkpt lat="59.209124608341" lon="17.925339897404">
        <ele>74.4</ele>
        <time>2019-09-14T16:34:34Z</time>
      </trkpt>
      <trkpt lat="59.209104994695" lon="17.925336460825">
        <ele>74.4</ele>
        <time>2019-09-14T16:34:35Z</time>
      </trkpt>
      <trkpt lat="59.20908697361" lon="17.925327827468">
        <ele>74.2</ele>
        <time>2019-09-14T16:34:36Z</time>
      </trkpt>
      <trkpt lat="59.209068617249" lon="17.925319361749">
        <ele>74.2</ele>
        <time>2019-09-14T16:34:37Z</time>
      </trkpt>
      <trkpt lat="59.20904841687" lon="17.925311147487">
        <ele>74</ele>
        <time>2019-09-14T16:34:38Z</time>
      </trkpt>
      <trkpt lat="59.209025953378" lon="17.925298574637">
        <ele>74.2</ele>
        <time>2019-09-14T16:34:39Z</time>
      </trkpt>
      <trkpt lat="59.209001059135" lon="17.92527653024">
        <ele>74</ele>
        <time>2019-09-14T16:34:40Z</time>
      </trkpt>
      <trkpt lat="59.208974320874" lon="17.925248199418">
        <ele>73.8</ele>
        <time>2019-09-14T16:34:41Z</time>
      </trkpt>
      <trkpt lat="59.208948336984" lon="17.925218946587">
        <ele>73.6</ele>
        <time>2019-09-14T16:34:42Z</time>
      </trkpt>
      <trkpt lat="59.208924616207" lon="17.925190280489">
        <ele>73.4</ele>
        <time>2019-09-14T16:34:43Z</time>
      </trkpt>
      <trkpt lat="59.208902823267" lon="17.925166308255">
        <ele>73.4</ele>
        <time>2019-09-14T16:34:44Z</time>
      </trkpt>
      <trkpt lat="59.208880527413" lon="17.925154070681">
        <ele>73.2</ele>
        <time>2019-09-14T16:34:45Z</time>
      </trkpt>
      <trkpt lat="59.208856387541" lon="17.92514493441">
        <ele>73</ele>
        <time>2019-09-14T16:34:46Z</time>
      </trkpt>
      <trkpt lat="59.208830319832" lon="17.925133618845">
        <ele>72.8</ele>
        <time>2019-09-14T16:34:47Z</time>
      </trkpt>
      <trkpt lat="59.208801905191" lon="17.925119453434">
        <ele>72.6</ele>
        <time>2019-09-14T16:34:48Z</time>
      </trkpt>
      <trkpt lat="59.208771143618" lon="17.925102941091">
        <ele>72.4</ele>
        <time>2019-09-14T16:34:49Z</time>
      </trkpt>
      <trkpt lat="59.208737783656" lon="17.925086177291">
        <ele>72</ele>
        <time>2019-09-14T16:34:50Z</time>
      </trkpt>
      <trkpt lat="59.208701741486" lon="17.925068742939">
        <ele>71.8</ele>
        <time>2019-09-14T16:34:51Z</time>
      </trkpt>
      <trkpt lat="59.208663771479" lon="17.925050302759">
        <ele>71.6</ele>
        <time>2019-09-14T16:34:52Z</time>
      </trkpt>
      <trkpt lat="59.208623789816" lon="17.925031275846">
        <ele>71.6</ele>
        <time>2019-09-14T16:34:53Z</time>
      </trkpt>
      <trkpt lat="59.208582718506" lon="17.925014009132">
        <ele>71.4</ele>
        <time>2019-09-14T16:34:54Z</time>
      </trkpt>
      <trkpt lat="59.208540557549" lon="17.924997915884">
        <ele>71.2</ele>
        <time>2019-09-14T16:34:55Z</time>
      </trkpt>
      <trkpt lat="59.208496804031" lon="17.924980816808">
        <ele>71.2</ele>
        <time>2019-09-14T16:34:56Z</time>
      </trkpt>
      <trkpt lat="59.208451709409" lon="17.924960197334">
        <ele>71</ele>
        <time>2019-09-14T16:34:57Z</time>
      </trkpt>
      <trkpt lat="59.208406530968" lon="17.924938152937">
        <ele>70.8</ele>
        <time>2019-09-14T16:34:58Z</time>
      </trkpt>
      <trkpt lat="59.208361184889" lon="17.924912085228">
        <ele>70.4</ele>
        <time>2019-09-14T16:34:59Z</time>
      </trkpt>
      <trkpt lat="59.20832002976" lon="17.92486833171">
        <ele>70.2</ele>
        <time>2019-09-14T16:35:00Z</time>
      </trkpt>
      <trkpt lat="59.208287172712" lon="17.924808987858">
        <ele>69.8</ele>
        <time>2019-09-14T16:35:01Z</time>
      </trkpt>
      <trkpt lat="59.20826554741" lon="17.924749644006">
        <ele>69.4</ele>
        <time>2019-09-14T16:35:02Z</time>
      </trkpt>
      <trkpt lat="59.208253645112" lon="17.924690216335">
        <ele>69</ele>
        <time>2019-09-14T16:35:03Z</time>
      </trkpt>
      <trkpt lat="59.208246436678" lon="17.924631459216">
        <ele>68.6</ele>
        <time>2019-09-14T16:35:04Z</time>
      </trkpt>
      <trkpt lat="59.208245766126" lon="17.924573624106">
        <ele>68.2</ele>
        <time>2019-09-14T16:35:05Z</time>
      </trkpt>
      <trkpt lat="59.208249202705" lon="17.924514531711">
        <ele>68</ele>
        <time>2019-09-14T16:35:06Z</time>
      </trkpt>
      <trkpt lat="59.208253896569" lon="17.924452673289">
        <ele>67.6</ele>
        <time>2019-09-14T16:35:07Z</time>
      </trkpt>
      <trkpt lat="59.208259093347" lon="17.924392575066">
        <ele>67.2</ele>
        <time>2019-09-14T16:35:08Z</time>
      </trkpt>
      <trkpt lat="59.208264876858" lon="17.924337338345">
        <ele>67</ele>
        <time>2019-09-14T16:35:09Z</time>
      </trkpt>
      <trkpt lat="59.208273258758" lon="17.924285370565">
        <ele>66.8</ele>
        <time>2019-09-14T16:35:10Z</time>
      </trkpt>
      <trkpt lat="59.208284574323" lon="17.924236084993">
        <ele>66.8</ele>
        <time>2019-09-14T16:35:11Z</time>
      </trkpt>
      <trkpt lat="59.208298488277" lon="17.92418855962">
        <ele>66.8</ele>
        <time>2019-09-14T16:35:12Z</time>
      </trkpt>
      <trkpt lat="59.208312653688" lon="17.924140615152">
        <ele>66.8</ele>
        <time>2019-09-14T16:35:13Z</time>
      </trkpt>
      <trkpt lat="59.208317599009" lon="17.924089569381">
        <ele>66.8</ele>
        <time>2019-09-14T16:35:14Z</time>
      </trkpt>
      <trkpt lat="59.2083082951" lon="17.924047324605">
        <ele>66.8</ele>
        <time>2019-09-14T16:35:15Z</time>
      </trkpt>
      <trkpt lat="59.208293626775" lon="17.92402008343">
        <ele>66.8</ele>
        <time>2019-09-14T16:35:16Z</time>
      </trkpt>
      <trkpt lat="59.208281724477" lon="17.923997871395">
        <ele>66.8</ele>
        <time>2019-09-14T16:35:17Z</time>
      </trkpt>
      <trkpt lat="59.208276527699" lon="17.923981694328">
        <ele>66.8</ele>
        <time>2019-09-14T16:35:18Z</time>
      </trkpt>
      <trkpt lat="59.208276862975" lon="17.923959230836">
        <ele>66.8</ele>
        <time>2019-09-14T16:35:19Z</time>
      </trkpt>
      <trkpt lat="59.208279964278" lon="17.923925954693">
        <ele>67</ele>
        <time>2019-09-14T16:35:20Z</time>
      </trkpt>
      <trkpt lat="59.208283903771" lon="17.923892427093">
        <ele>67</ele>
        <time>2019-09-14T16:35:21Z</time>
      </trkpt>
      <trkpt lat="59.208285915427" lon="17.923861916977">
        <ele>67</ele>
        <time>2019-09-14T16:35:22Z</time>
      </trkpt>
      <trkpt lat="59.208289268187" lon="17.923830820128">
        <ele>67.2</ele>
        <time>2019-09-14T16:35:23Z</time>
      </trkpt>
      <trkpt lat="59.208292034214" lon="17.923797376347">
        <ele>67.4</ele>
        <time>2019-09-14T16:35:24Z</time>
      </trkpt>
      <trkpt lat="59.208295470793" lon="17.923769380801">
        <ele>67.6</ele>
        <time>2019-09-14T16:35:25Z</time>
      </trkpt>
      <trkpt lat="59.208298572096" lon="17.923740379427">
        <ele>67.8</ele>
        <time>2019-09-14T16:35:26Z</time>
      </trkpt>
      <trkpt lat="59.208298991191" lon="17.923715401365">
        <ele>67.8</ele>
        <time>2019-09-14T16:35:27Z</time>
      </trkpt>
      <trkpt lat="59.208300080838" lon="17.923690590941">
        <ele>68</ele>
        <time>2019-09-14T16:35:28Z</time>
      </trkpt>
      <trkpt lat="59.208303098322" lon="17.92365211802">
        <ele>68</ele>
        <time>2019-09-14T16:35:29Z</time>
      </trkpt>
      <trkpt lat="59.20830661872" lon="17.923610543796">
        <ele>68.2</ele>
        <time>2019-09-14T16:35:30Z</time>
      </trkpt>
      <trkpt lat="59.208312821326" lon="17.923569640124">
        <ele>68.2</ele>
        <time>2019-09-14T16:35:31Z</time>
      </trkpt>
      <trkpt lat="59.208321203226" lon="17.923544410605">
        <ele>68.2</ele>
        <time>2019-09-14T16:35:32Z</time>
      </trkpt>
      <trkpt lat="59.208325729452" lon="17.923537034533">
        <ele>68.4</ele>
        <time>2019-09-14T16:35:33Z</time>
      </trkpt>
      <trkpt lat="59.208326986737" lon="17.923528568814">
        <ele>68.6</ele>
        <time>2019-09-14T16:35:35Z</time>
      </trkpt>
      <trkpt lat="59.208327322013" lon="17.92352387495">
        <ele>68.8</ele>
        <time>2019-09-14T16:35:36Z</time>
      </trkpt>
      <trkpt lat="59.208352551532" lon="17.923448605488">
        <ele>69</ele>
        <time>2019-09-14T16:35:56Z</time>
      </trkpt>
      <trkpt lat="59.208364370011" lon="17.923416921906">
        <ele>69</ele>
        <time>2019-09-14T16:35:57Z</time>
      </trkpt>
      <trkpt lat="59.208373757739" lon="17.923381969383">
        <ele>69</ele>
        <time>2019-09-14T16:35:58Z</time>
      </trkpt>
      <trkpt lat="59.208384067476" lon="17.923347435955">
        <ele>69</ele>
        <time>2019-09-14T16:35:59Z</time>
      </trkpt>
      <trkpt lat="59.208400328362" lon="17.92330762193">
        <ele>69</ele>
        <time>2019-09-14T16:36:00Z</time>
      </trkpt>
      <trkpt lat="59.208422875673" lon="17.923265041878">
        <ele>69</ele>
        <time>2019-09-14T16:36:01Z</time>
      </trkpt>
      <trkpt lat="59.208448021373" lon="17.92321709741">
        <ele>69</ele>
        <time>2019-09-14T16:36:02Z</time>
      </trkpt>
      <trkpt lat="59.208472915616" lon="17.923170745503">
        <ele>69.2</ele>
        <time>2019-09-14T16:36:03Z</time>
      </trkpt>
      <trkpt lat="59.20849940242" lon="17.923126237614">
        <ele>69</ele>
        <time>2019-09-14T16:36:04Z</time>
      </trkpt>
      <trkpt lat="59.208529996355" lon="17.923075946214">
        <ele>68.8</ele>
        <time>2019-09-14T16:36:05Z</time>
      </trkpt>
      <trkpt lat="59.20856478124" lon="17.923028839936">
        <ele>68.8</ele>
        <time>2019-09-14T16:36:06Z</time>
      </trkpt>
      <trkpt lat="59.208601074867" lon="17.922982823305">
        <ele>68.8</ele>
        <time>2019-09-14T16:36:07Z</time>
      </trkpt>
      <trkpt lat="59.208632004078" lon="17.922931526077">
        <ele>69</ele>
        <time>2019-09-14T16:36:08Z</time>
      </trkpt>
      <trkpt lat="59.208659831986" lon="17.922881150858">
        <ele>68.8</ele>
        <time>2019-09-14T16:36:09Z</time>
      </trkpt>
      <trkpt lat="59.208684474772" lon="17.922835469503">
        <ele>68.8</ele>
        <time>2019-09-14T16:36:10Z</time>
      </trkpt>
      <trkpt lat="59.208708530825" lon="17.922790542519">
        <ele>68.8</ele>
        <time>2019-09-14T16:36:11Z</time>
      </trkpt>
      <trkpt lat="59.208729653213" lon="17.922736730721">
        <ele>68.8</ele>
        <time>2019-09-14T16:36:12Z</time>
      </trkpt>
      <trkpt lat="59.208750188868" lon="17.922682667466">
        <ele>68.6</ele>
        <time>2019-09-14T16:36:13Z</time>
      </trkpt>
      <trkpt lat="59.208771395075" lon="17.922634890636">
        <ele>68.6</ele>
        <time>2019-09-14T16:36:14Z</time>
      </trkpt>
      <trkpt lat="59.208795199671" lon="17.92259348405">
        <ele>68.4</ele>
        <time>2019-09-14T16:36:15Z</time>
      </trkpt>
      <trkpt lat="59.208819339543" lon="17.92255241274">
        <ele>68.4</ele>
        <time>2019-09-14T16:36:16Z</time>
      </trkpt>
      <trkpt lat="59.208842725044" lon="17.922510587059">
        <ele>68.4</ele>
        <time>2019-09-14T16:36:17Z</time>
      </trkpt>
      <trkpt lat="59.208865272355" lon="17.922470437758">
        <ele>68.4</ele>
        <time>2019-09-14T16:36:18Z</time>
      </trkpt>
      <trkpt lat="59.208888574037" lon="17.922418972892">
        <ele>68.4</ele>
        <time>2019-09-14T16:36:19Z</time>
      </trkpt>
      <trkpt lat="59.208913552099" lon="17.922378320677">
        <ele>68.4</ele>
        <time>2019-09-14T16:36:20Z</time>
      </trkpt>
      <trkpt lat="59.208935680315" lon="17.922346720914">
        <ele>68.4</ele>
        <time>2019-09-14T16:36:21Z</time>
      </trkpt>
      <trkpt lat="59.208955796875" lon="17.922307242165">
        <ele>68.2</ele>
        <time>2019-09-14T16:36:22Z</time>
      </trkpt>
      <trkpt lat="59.208976416349" lon="17.922270529443">
        <ele>68.2</ele>
        <time>2019-09-14T16:36:23Z</time>
      </trkpt>
      <trkpt lat="59.208997790194" lon="17.922226440649">
        <ele>68.2</ele>
        <time>2019-09-14T16:36:24Z</time>
      </trkpt>
      <trkpt lat="59.209018912582" lon="17.922184363511">
        <ele>68.4</ele>
        <time>2019-09-14T16:36:25Z</time>
      </trkpt>
      <trkpt lat="59.209041208436" lon="17.922145136219">
        <ele>68.4</ele>
        <time>2019-09-14T16:36:26Z</time>
      </trkpt>
      <trkpt lat="59.209060570625" lon="17.922104232547">
        <ele>68.4</ele>
        <time>2019-09-14T16:36:27Z</time>
      </trkpt>
      <trkpt lat="59.209079597538" lon="17.922058635011">
        <ele>68.2</ele>
        <time>2019-09-14T16:36:28Z</time>
      </trkpt>
      <trkpt lat="59.20910206103" lon="17.922009517077">
        <ele>68.2</ele>
        <time>2019-09-14T16:36:29Z</time>
      </trkpt>
      <trkpt lat="59.209127039092" lon="17.921953693623">
        <ele>68.2</ele>
        <time>2019-09-14T16:36:30Z</time>
      </trkpt>
      <trkpt lat="59.209151598059" lon="17.921888901536">
        <ele>68.4</ele>
        <time>2019-09-14T16:36:31Z</time>
      </trkpt>
      <trkpt lat="59.209168948592" lon="17.921816901015">
        <ele>68.4</ele>
        <time>2019-09-14T16:36:32Z</time>
      </trkpt>
      <trkpt lat="59.20917917451" lon="17.921748839987">
        <ele>68.4</ele>
        <time>2019-09-14T16:36:33Z</time>
      </trkpt>
      <trkpt lat="59.209182024356" lon="17.921683377348">
        <ele>68.4</ele>
        <time>2019-09-14T16:36:34Z</time>
      </trkpt>
      <trkpt lat="59.209177833406" lon="17.921620596917">
        <ele>68.4</ele>
        <time>2019-09-14T16:36:35Z</time>
      </trkpt>
      <trkpt lat="59.209166685479" lon="17.921562091255">
        <ele>68.4</ele>
        <time>2019-09-14T16:36:36Z</time>
      </trkpt>
      <trkpt lat="59.209155872828" lon="17.921501490118">
        <ele>68.4</ele>
        <time>2019-09-14T16:36:37Z</time>
      </trkpt>
      <trkpt lat="59.209140785408" lon="17.921438709687">
        <ele>68.2</ele>
        <time>2019-09-14T16:36:38Z</time>
      </trkpt>
      <trkpt lat="59.209123937789" lon="17.921372325039">
        <ele>68.2</ele>
        <time>2019-09-14T16:36:39Z</time>
      </trkpt>
      <trkpt lat="59.209107676903" lon="17.921304934563">
        <ele>68.2</ele>
        <time>2019-09-14T16:36:40Z</time>
      </trkpt>
      <trkpt lat="59.209092170388" lon="17.921235197155">
        <ele>68.2</ele>
        <time>2019-09-14T16:36:41Z</time>
      </trkpt>
      <trkpt lat="59.209077166787" lon="17.921162106987">
        <ele>68.2</ele>
        <time>2019-09-14T16:36:42Z</time>
      </trkpt>
      <trkpt lat="59.209060402987" lon="17.921088765362">
        <ele>68.2</ele>
        <time>2019-09-14T16:36:43Z</time>
      </trkpt>
      <trkpt lat="59.209044142101" lon="17.921013663538">
        <ele>68.2</ele>
        <time>2019-09-14T16:36:44Z</time>
      </trkpt>
      <trkpt lat="59.209032072165" lon="17.920934454583">
        <ele>68.2</ele>
        <time>2019-09-14T16:36:45Z</time>
      </trkpt>
      <trkpt lat="59.209024025541" lon="17.920850803221">
        <ele>68.2</ele>
        <time>2019-09-14T16:36:46Z</time>
      </trkpt>
      <trkpt lat="59.20901824203" lon="17.920764134375">
        <ele>68</ele>
        <time>2019-09-14T16:36:47Z</time>
      </trkpt>
      <trkpt lat="59.209012290881" lon="17.920675956787">
        <ele>68</ele>
        <time>2019-09-14T16:36:48Z</time>
      </trkpt>
      <trkpt lat="59.209007010284" lon="17.92058685719">
        <ele>67.8</ele>
        <time>2019-09-14T16:36:49Z</time>
      </trkpt>
      <trkpt lat="59.209006255913" lon="17.920497925231">
        <ele>67.8</ele>
        <time>2019-09-14T16:36:50Z</time>
      </trkpt>
      <trkpt lat="59.209012542338" lon="17.920410250557">
        <ele>67.6</ele>
        <time>2019-09-14T16:36:51Z</time>
      </trkpt>
      <trkpt lat="59.209023606446" lon="17.920324252263">
        <ele>67.2</ele>
        <time>2019-09-14T16:36:52Z</time>
      </trkpt>
      <trkpt lat="59.209033161812" lon="17.920239092159">
        <ele>67</ele>
        <time>2019-09-14T16:36:53Z</time>
      </trkpt>
      <trkpt lat="59.209039532056" lon="17.920156614263">
        <ele>67</ele>
        <time>2019-09-14T16:36:54Z</time>
      </trkpt>
      <trkpt lat="59.209045147929" lon="17.920073549634">
        <ele>66.8</ele>
        <time>2019-09-14T16:36:55Z</time>
      </trkpt>
      <trkpt lat="59.209049422698" lon="17.919990149729">
        <ele>66.6</ele>
        <time>2019-09-14T16:36:56Z</time>
      </trkpt>
      <trkpt lat="59.209047830137" lon="17.919905995453">
        <ele>66.4</ele>
        <time>2019-09-14T16:36:57Z</time>
      </trkpt>
      <trkpt lat="59.209042381902" lon="17.919821254444">
        <ele>66.2</ele>
        <time>2019-09-14T16:36:58Z</time>
      </trkpt>
      <trkpt lat="59.209038442409" lon="17.919735339969">
        <ele>66</ele>
        <time>2019-09-14T16:36:59Z</time>
      </trkpt>
      <trkpt lat="59.209032155984" lon="17.919650766598">
        <ele>65.8</ele>
        <time>2019-09-14T16:37:00Z</time>
      </trkpt>
      <trkpt lat="59.209022852075" lon="17.919571054729">
        <ele>65.8</ele>
        <time>2019-09-14T16:37:01Z</time>
      </trkpt>
      <trkpt lat="59.209008435207" lon="17.919499389484">
        <ele>65.6</ele>
        <time>2019-09-14T16:37:02Z</time>
      </trkpt>
      <trkpt lat="59.208993012511" lon="17.919437531062">
        <ele>65.6</ele>
        <time>2019-09-14T16:37:03Z</time>
      </trkpt>
      <trkpt lat="59.208980439661" lon="17.919382713436">
        <ele>65.4</ele>
        <time>2019-09-14T16:37:04Z</time>
      </trkpt>
      <trkpt lat="59.208970549019" lon="17.919335020425">
        <ele>65.4</ele>
        <time>2019-09-14T16:37:05Z</time>
      </trkpt>
      <trkpt lat="59.208965016965" lon="17.919292943287">
        <ele>65.2</ele>
        <time>2019-09-14T16:37:06Z</time>
      </trkpt>
      <trkpt lat="59.208962167119" lon="17.919259080411">
        <ele>65.2</ele>
        <time>2019-09-14T16:37:07Z</time>
      </trkpt>
      <trkpt lat="59.208960490739" lon="17.919235527272">
        <ele>65.2</ele>
        <time>2019-09-14T16:37:08Z</time>
      </trkpt>
      <trkpt lat="59.208960742196" lon="17.919224211707">
        <ele>65.2</ele>
        <time>2019-09-14T16:37:09Z</time>
      </trkpt>
      <trkpt lat="59.20896124511" lon="17.919219601662">
        <ele>65.2</ele>
        <time>2019-09-14T16:37:10Z</time>
      </trkpt>
      <trkpt lat="59.208946912061" lon="17.919178781809">
        <ele>65.2</ele>
        <time>2019-09-14T16:37:13Z</time>
      </trkpt>
      <trkpt lat="59.208940122722" lon="17.919152378824">
        <ele>65.2</ele>
        <time>2019-09-14T16:37:14Z</time>
      </trkpt>
      <trkpt lat="59.208933668659" lon="17.919116923387">
        <ele>65.4</ele>
        <time>2019-09-14T16:37:15Z</time>
      </trkpt>
      <trkpt lat="59.208926544044" lon="17.91907895338">
        <ele>65.6</ele>
        <time>2019-09-14T16:37:16Z</time>
      </trkpt>
      <trkpt lat="59.208916066669" lon="17.919049197635">
        <ele>65.8</ele>
        <time>2019-09-14T16:37:17Z</time>
      </trkpt>
      <trkpt lat="59.208904080552" lon="17.919023381383">
        <ele>65.8</ele>
        <time>2019-09-14T16:37:18Z</time>
      </trkpt>
      <trkpt lat="59.208890501874" lon="17.918993877095">
        <ele>66</ele>
        <time>2019-09-14T16:37:19Z</time>
      </trkpt>
      <trkpt lat="59.208876252644" lon="17.918956745278">
        <ele>66</ele>
        <time>2019-09-14T16:37:20Z</time>
      </trkpt>
      <trkpt lat="59.208863093061" lon="17.918916260701">
        <ele>66</ele>
        <time>2019-09-14T16:37:21Z</time>
      </trkpt>
      <trkpt lat="59.2088615005" lon="17.918866975129">
        <ele>66</ele>
        <time>2019-09-14T16:37:22Z</time>
      </trkpt>
      <trkpt lat="59.208874576264" lon="17.918818863023">
        <ele>66</ele>
        <time>2019-09-14T16:37:23Z</time>
      </trkpt>
      <trkpt lat="59.208893938453" lon="17.918780390102">
        <ele>66</ele>
        <time>2019-09-14T16:37:24Z</time>
      </trkpt>
      <trkpt lat="59.208914641746" lon="17.918744850846">
        <ele>66</ele>
        <time>2019-09-14T16:37:25Z</time>
      </trkpt>
      <trkpt lat="59.208937943428" lon="17.918706880839">
        <ele>66</ele>
        <time>2019-09-14T16:37:26Z</time>
      </trkpt>
      <trkpt lat="59.208965016965" lon="17.918663714054">
        <ele>66</ele>
        <time>2019-09-14T16:37:27Z</time>
      </trkpt>
      <trkpt lat="59.208989995027" lon="17.918623229477">
        <ele>66</ele>
        <time>2019-09-14T16:37:28Z</time>
      </trkpt>
      <trkpt lat="59.209012123243" lon="17.918586181479">
        <ele>66</ele>
        <time>2019-09-14T16:37:29Z</time>
      </trkpt>
      <trkpt lat="59.209034419097" lon="17.918551983327">
        <ele>66</ele>
        <time>2019-09-14T16:37:30Z</time>
      </trkpt>
      <trkpt lat="59.209059397159" lon="17.918511750207">
        <ele>66</ele>
        <time>2019-09-14T16:37:31Z</time>
      </trkpt>
      <trkpt lat="59.209084291402" lon="17.918467158499">
        <ele>66</ele>
        <time>2019-09-14T16:37:32Z</time>
      </trkpt>
      <trkpt lat="59.209106419618" lon="17.918430864872">
        <ele>65.8</ele>
        <time>2019-09-14T16:37:33Z</time>
      </trkpt>
      <trkpt lat="59.209126955273" lon="17.91839750491">
        <ele>65.8</ele>
        <time>2019-09-14T16:37:34Z</time>
      </trkpt>
      <trkpt lat="59.209146988014" lon="17.918361295102">
        <ele>65.8</ele>
        <time>2019-09-14T16:37:35Z</time>
      </trkpt>
      <trkpt lat="59.20916911623" lon="17.918323995647">
        <ele>65.8</ele>
        <time>2019-09-14T16:37:36Z</time>
      </trkpt>
      <trkpt lat="59.209189987161" lon="17.918284433079">
        <ele>65.8</ele>
        <time>2019-09-14T16:37:37Z</time>
      </trkpt>
      <trkpt lat="59.209208930255" lon="17.918247971814">
        <ele>65.8</ele>
        <time>2019-09-14T16:37:38Z</time>
      </trkpt>
      <trkpt lat="59.209227370435" lon="17.918215785318">
        <ele>65.8</ele>
        <time>2019-09-14T16:37:39Z</time>
      </trkpt>
      <trkpt lat="59.209247570814" lon="17.918181084252">
        <ele>65.8</ele>
        <time>2019-09-14T16:37:40Z</time>
      </trkpt>
      <trkpt lat="59.209269363754" lon="17.918142778969">
        <ele>65.8</ele>
        <time>2019-09-14T16:37:41Z</time>
      </trkpt>
      <trkpt lat="59.209287971572" lon="17.918106736799">
        <ele>65.8</ele>
        <time>2019-09-14T16:37:42Z</time>
      </trkpt>
      <trkpt lat="59.209303142811" lon="17.918081004366">
        <ele>65.8</ele>
        <time>2019-09-14T16:37:43Z</time>
      </trkpt>
      <trkpt lat="59.2093141231" lon="17.918069102068">
        <ele>65.8</ele>
        <time>2019-09-14T16:37:44Z</time>
      </trkpt>
      <trkpt lat="59.209316805308" lon="17.918065497851">
        <ele>65.8</ele>
        <time>2019-09-14T16:37:45Z</time>
      </trkpt>
      <trkpt lat="59.209319068421" lon="17.918061725996">
        <ele>65.8</ele>
        <time>2019-09-14T16:37:46Z</time>
      </trkpt>
      <trkpt lat="59.20935770898" lon="17.918028533672">
        <ele>65.8</ele>
        <time>2019-09-14T16:38:08Z</time>
      </trkpt>
      <trkpt lat="59.209375897703" lon="17.918014116804">
        <ele>65.8</ele>
        <time>2019-09-14T16:38:09Z</time>
      </trkpt>
      <trkpt lat="59.209398277376" lon="17.917993664968">
        <ele>65.8</ele>
        <time>2019-09-14T16:38:10Z</time>
      </trkpt>
      <trkpt lat="59.209424345085" lon="17.917970530924">
        <ele>65.8</ele>
        <time>2019-09-14T16:38:11Z</time>
      </trkpt>
      <trkpt lat="59.209452592088" lon="17.917947145423">
        <ele>65.8</ele>
        <time>2019-09-14T16:38:12Z</time>
      </trkpt>
      <trkpt lat="59.2094817611" lon="17.917921915904">
        <ele>65.8</ele>
        <time>2019-09-14T16:38:13Z</time>
      </trkpt>
      <trkpt lat="59.20951109775" lon="17.917895512919">
        <ele>65.6</ele>
        <time>2019-09-14T16:38:14Z</time>
      </trkpt>
      <trkpt lat="59.209538171287" lon="17.917869864305">
        <ele>65.6</ele>
        <time>2019-09-14T16:38:15Z</time>
      </trkpt>
      <trkpt lat="59.209569938688" lon="17.917849663926">
        <ele>65.6</ele>
        <time>2019-09-14T16:38:16Z</time>
      </trkpt>
      <trkpt lat="59.209611596731" lon="17.917843126044">
        <ele>65.4</ele>
        <time>2019-09-14T16:38:17Z</time>
      </trkpt>
      <trkpt lat="59.209655350249" lon="17.917846227347">
        <ele>65.4</ele>
        <time>2019-09-14T16:38:18Z</time>
      </trkpt>
      <trkpt lat="59.20969801412" lon="17.917838264542">
        <ele>65.4</ele>
        <time>2019-09-14T16:38:19Z</time>
      </trkpt>
      <trkpt lat="59.209738414878" lon="17.917814627584">
        <ele>65.4</ele>
        <time>2019-09-14T16:38:20Z</time>
      </trkpt>
      <trkpt lat="59.209775881971" lon="17.917786548219">
        <ele>65.4</ele>
        <time>2019-09-14T16:38:21Z</time>
      </trkpt>
      <trkpt lat="59.209811756503" lon="17.917762408347">
        <ele>65.4</ele>
        <time>2019-09-14T16:38:22Z</time>
      </trkpt>
      <trkpt lat="59.209847379578" lon="17.91774371671">
        <ele>65.2</ele>
        <time>2019-09-14T16:38:23Z</time>
      </trkpt>
      <trkpt lat="59.209880823359" lon="17.917726282358">
        <ele>65.2</ele>
        <time>2019-09-14T16:38:24Z</time>
      </trkpt>
      <trkpt lat="59.209912926036" lon="17.917710943481">
        <ele>65.2</ele>
        <time>2019-09-14T16:38:25Z</time>
      </trkpt>
      <trkpt lat="59.209945615446" lon="17.917700298468">
        <ele>65.2</ele>
        <time>2019-09-14T16:38:26Z</time>
      </trkpt>
      <trkpt lat="59.209976125562" lon="17.91769258712">
        <ele>65.2</ele>
        <time>2019-09-14T16:38:27Z</time>
      </trkpt>
      <trkpt lat="59.210001774176" lon="17.917694766414">
        <ele>65.2</ele>
        <time>2019-09-14T16:38:28Z</time>
      </trkpt>
      <trkpt lat="59.210019962899" lon="17.917707758359">
        <ele>65.2</ele>
        <time>2019-09-14T16:38:29Z</time>
      </trkpt>
      <trkpt lat="59.210031194645" lon="17.917720666485">
        <ele>65.2</ele>
        <time>2019-09-14T16:38:30Z</time>
      </trkpt>
      <trkpt lat="59.210041085287" lon="17.917736759733">
        <ele>65.2</ele>
        <time>2019-09-14T16:38:31Z</time>
      </trkpt>
      <trkpt lat="59.21004921573" lon="17.917756624836">
        <ele>65.2</ele>
        <time>2019-09-14T16:38:32Z</time>
      </trkpt>
      <trkpt lat="59.21005843582" lon="17.917782524907">
        <ele>65.4</ele>
        <time>2019-09-14T16:38:33Z</time>
      </trkpt>
      <trkpt lat="59.210077211276" lon="17.917799288707">
        <ele>65.8</ele>
        <time>2019-09-14T16:38:34Z</time>
      </trkpt>
      <trkpt lat="59.210102189338" lon="17.917796103585">
        <ele>66</ele>
        <time>2019-09-14T16:38:35Z</time>
      </trkpt>
      <trkpt lat="59.210125742477" lon="17.917781016165">
        <ele>66</ele>
        <time>2019-09-14T16:38:36Z</time>
      </trkpt>
      <trkpt lat="59.210153402747" lon="17.917762743623">
        <ele>66</ele>
        <time>2019-09-14T16:38:37Z</time>
      </trkpt>
      <trkpt lat="59.21018164975" lon="17.917747991479">
        <ele>66</ele>
        <time>2019-09-14T16:38:38Z</time>
      </trkpt>
      <trkpt lat="59.210206879269" lon="17.917734999534">
        <ele>66</ele>
        <time>2019-09-14T16:38:39Z</time>
      </trkpt>
      <trkpt lat="59.210230432408" lon="17.917719912114">
        <ele>66</ele>
        <time>2019-09-14T16:38:40Z</time>
      </trkpt>
      <trkpt lat="59.210295895047" lon="17.917683953763">
        <ele>66</ele>
        <time>2019-09-14T16:38:42Z</time>
      </trkpt>
      <trkpt lat="59.210330093199" lon="17.917666267954">
        <ele>66</ele>
        <time>2019-09-14T16:38:43Z</time>
      </trkpt>
      <trkpt lat="59.210363788437" lon="17.917646738127">
        <ele>66</ele>
        <time>2019-09-14T16:38:44Z</time>
      </trkpt>
      <trkpt lat="59.210397986589" lon="17.917629555232">
        <ele>66</ele>
        <time>2019-09-14T16:38:45Z</time>
      </trkpt>
      <trkpt lat="59.210429921628" lon="17.917611198871">
        <ele>66.2</ele>
        <time>2019-09-14T16:38:46Z</time>
      </trkpt>
      <trkpt lat="59.210461772848" lon="17.917593093967">
        <ele>66.2</ele>
        <time>2019-09-14T16:38:47Z</time>
      </trkpt>
      <trkpt lat="59.210494210801" lon="17.917568451181">
        <ele>66.2</ele>
        <time>2019-09-14T16:38:48Z</time>
      </trkpt>
      <trkpt lat="59.210526313478" lon="17.917540287997">
        <ele>66.2</ele>
        <time>2019-09-14T16:38:49Z</time>
      </trkpt>
      <trkpt lat="59.210556907413" lon="17.917518075962">
        <ele>66.2</ele>
        <time>2019-09-14T16:38:50Z</time>
      </trkpt>
      <trkpt lat="59.210587752805" lon="17.917500054877">
        <ele>66.2</ele>
        <time>2019-09-14T16:38:51Z</time>
      </trkpt>
      <trkpt lat="59.210620609853" lon="17.917479519222">
        <ele>66.2</ele>
        <time>2019-09-14T16:38:52Z</time>
      </trkpt>
      <trkpt lat="59.210653466901" lon="17.917453451513">
        <ele>66.2</ele>
        <time>2019-09-14T16:38:53Z</time>
      </trkpt>
      <trkpt lat="59.210685150483" lon="17.91742939546">
        <ele>66.2</ele>
        <time>2019-09-14T16:38:54Z</time>
      </trkpt>
      <trkpt lat="59.210716498789" lon="17.91739922062">
        <ele>66.2</ele>
        <time>2019-09-14T16:38:55Z</time>
      </trkpt>
      <trkpt lat="59.210746170715" lon="17.917374661653">
        <ele>66.6</ele>
        <time>2019-09-14T16:38:56Z</time>
      </trkpt>
      <trkpt lat="59.210774836813" lon="17.917351862885">
        <ele>66.6</ele>
        <time>2019-09-14T16:38:57Z</time>
      </trkpt>
      <trkpt lat="59.210802999997" lon="17.917328393565">
        <ele>66.8</ele>
        <time>2019-09-14T16:38:58Z</time>
      </trkpt>
      <trkpt lat="59.210834180665" lon="17.917306768263">
        <ele>67</ele>
        <time>2019-09-14T16:38:59Z</time>
      </trkpt>
      <trkpt lat="59.210866367161" lon="17.91728606497">
        <ele>67</ele>
        <time>2019-09-14T16:39:00Z</time>
      </trkpt>
      <trkpt lat="59.210894446526" lon="17.917268379161">
        <ele>67.2</ele>
        <time>2019-09-14T16:39:01Z</time>
      </trkpt>
      <trkpt lat="59.210921855339" lon="17.917249100791">
        <ele>67.4</ele>
        <time>2019-09-14T16:39:02Z</time>
      </trkpt>
      <trkpt lat="59.210950018523" lon="17.917232253172">
        <ele>67.6</ele>
        <time>2019-09-14T16:39:03Z</time>
      </trkpt>
      <trkpt lat="59.210978936078" lon="17.917211130784">
        <ele>67.6</ele>
        <time>2019-09-14T16:39:04Z</time>
      </trkpt>
      <trkpt lat="59.211008524185" lon="17.917190930405">
        <ele>67.6</ele>
        <time>2019-09-14T16:39:05Z</time>
      </trkpt>
      <trkpt lat="59.211040962138" lon="17.917170813845">
        <ele>67.8</ele>
        <time>2019-09-14T16:39:06Z</time>
      </trkpt>
      <trkpt lat="59.211070801702" lon="17.917160085013">
        <ele>67.8</ele>
        <time>2019-09-14T16:39:07Z</time>
      </trkpt>
      <trkpt lat="59.211104748397" lon="17.917143656489">
        <ele>68</ele>
        <time>2019-09-14T16:39:08Z</time>
      </trkpt>
      <trkpt lat="59.211140120015" lon="17.917126976508">
        <ele>68</ele>
        <time>2019-09-14T16:39:09Z</time>
      </trkpt>
      <trkpt lat="59.21117825766" lon="17.917099064781">
        <ele>68</ele>
        <time>2019-09-14T16:39:10Z</time>
      </trkpt>
      <trkpt lat="59.211216898219" lon="17.917068806122">
        <ele>68</ele>
        <time>2019-09-14T16:39:11Z</time>
      </trkpt>
      <trkpt lat="59.211254784407" lon="17.917042906051">
        <ele>68</ele>
        <time>2019-09-14T16:39:12Z</time>
      </trkpt>
      <trkpt lat="59.211292670595" lon="17.91701784417">
        <ele>68</ele>
        <time>2019-09-14T16:39:13Z</time>
      </trkpt>
      <trkpt lat="59.211329383317" lon="17.916993955755">
        <ele>68</ele>
        <time>2019-09-14T16:39:14Z</time>
      </trkpt>
      <trkpt lat="59.211364084383" lon="17.916968726236">
        <ele>68</ele>
        <time>2019-09-14T16:39:15Z</time>
      </trkpt>
      <trkpt lat="59.211398785449" lon="17.91693905431">
        <ele>68</ele>
        <time>2019-09-14T16:39:16Z</time>
      </trkpt>
      <trkpt lat="59.211432815963" lon="17.916913824791">
        <ele>68</ele>
        <time>2019-09-14T16:39:17Z</time>
      </trkpt>
      <trkpt lat="59.211469528685" lon="17.916888679091">
        <ele>68</ele>
        <time>2019-09-14T16:39:18Z</time>
      </trkpt>
      <trkpt lat="59.211505738493" lon="17.916866802332">
        <ele>67.8</ele>
        <time>2019-09-14T16:39:19Z</time>
      </trkpt>
      <trkpt lat="59.211541696844" lon="17.916838890605">
        <ele>67.8</ele>
        <time>2019-09-14T16:39:20Z</time>
      </trkpt>
      <trkpt lat="59.21157807429" lon="17.916813577267">
        <ele>67.6</ele>
        <time>2019-09-14T16:39:21Z</time>
      </trkpt>
      <trkpt lat="59.211617050125" lon="17.916788263929">
        <ele>67.6</ele>
        <time>2019-09-14T16:39:22Z</time>
      </trkpt>
      <trkpt lat="59.211653846666" lon="17.916765046066">
        <ele>67.4</ele>
        <time>2019-09-14T16:39:23Z</time>
      </trkpt>
      <trkpt lat="59.211692654863" lon="17.916743001669">
        <ele>67.4</ele>
        <time>2019-09-14T16:39:24Z</time>
      </trkpt>
      <trkpt lat="59.211733390897" lon="17.916731099371">
        <ele>67.2</ele>
        <time>2019-09-14T16:39:25Z</time>
      </trkpt>
      <trkpt lat="59.211772115275" lon="17.916713916476">
        <ele>67.2</ele>
        <time>2019-09-14T16:39:26Z</time>
      </trkpt>
      <trkpt lat="59.211811761662" lon="17.916694135192">
        <ele>67.2</ele>
        <time>2019-09-14T16:39:27Z</time>
      </trkpt>
      <trkpt lat="59.211854006438" lon="17.916678544858">
        <ele>67</ele>
        <time>2019-09-14T16:39:28Z</time>
      </trkpt>
      <trkpt lat="59.211898346689" lon="17.916655243176">
        <ele>67</ele>
        <time>2019-09-14T16:39:29Z</time>
      </trkpt>
      <trkpt lat="59.211941178198" lon="17.916632612046">
        <ele>67</ele>
        <time>2019-09-14T16:39:30Z</time>
      </trkpt>
      <trkpt lat="59.211984261164" lon="17.916604784138">
        <ele>66.8</ele>
        <time>2019-09-14T16:39:31Z</time>
      </trkpt>
      <trkpt lat="59.212028098501" lon="17.916581314818">
        <ele>66.8</ele>
        <time>2019-09-14T16:39:32Z</time>
      </trkpt>
      <trkpt lat="59.212073360761" lon="17.916574106384">
        <ele>66.6</ele>
        <time>2019-09-14T16:39:33Z</time>
      </trkpt>
      <trkpt lat="59.212120131763" lon="17.916575698945">
        <ele>66.6</ele>
        <time>2019-09-14T16:39:34Z</time>
      </trkpt>
      <trkpt lat="59.212160700159" lon="17.916586008682">
        <ele>66.6</ele>
        <time>2019-09-14T16:39:35Z</time>
      </trkpt>
      <trkpt lat="59.21219330575" lon="17.916599252084">
        <ele>66.6</ele>
        <time>2019-09-14T16:39:36Z</time>
      </trkpt>
      <trkpt lat="59.21221845145" lon="17.916609561821">
        <ele>66.4</ele>
        <time>2019-09-14T16:39:37Z</time>
      </trkpt>
      <trkpt lat="59.212238987105" lon="17.916609142726">
        <ele>66.2</ele>
        <time>2019-09-14T16:39:38Z</time>
      </trkpt>
      <trkpt lat="59.212258516932" lon="17.916598246256">
        <ele>66</ele>
        <time>2019-09-14T16:39:39Z</time>
      </trkpt>
      <trkpt lat="59.212274442542" lon="17.916585170492">
        <ele>66</ele>
        <time>2019-09-14T16:39:40Z</time>
      </trkpt>
      <trkpt lat="59.212296235482" lon="17.916572597642">
        <ele>66</ele>
        <time>2019-09-14T16:39:41Z</time>
      </trkpt>
      <trkpt lat="59.212323057562" lon="17.916553319272">
        <ele>65.8</ele>
        <time>2019-09-14T16:39:42Z</time>
      </trkpt>
      <trkpt lat="59.212356166067" lon="17.916532615979">
        <ele>65.8</ele>
        <time>2019-09-14T16:39:43Z</time>
      </trkpt>
      <trkpt lat="59.212392459694" lon="17.916510906858">
        <ele>65.8</ele>
        <time>2019-09-14T16:39:44Z</time>
      </trkpt>
      <trkpt lat="59.212432608995" lon="17.916483749502">
        <ele>65.8</ele>
        <time>2019-09-14T16:39:45Z</time>
      </trkpt>
      <trkpt lat="59.212473764124" lon="17.916447288237">
        <ele>65.8</ele>
        <time>2019-09-14T16:39:46Z</time>
      </trkpt>
      <trkpt lat="59.21251684709" lon="17.916406719841">
        <ele>65.8</ele>
        <time>2019-09-14T16:39:47Z</time>
      </trkpt>
      <trkpt lat="59.21256210935" lon="17.916369001291">
        <ele>65.8</ele>
        <time>2019-09-14T16:39:48Z</time>
      </trkpt>
      <trkpt lat="59.212609634723" lon="17.916343017401">
        <ele>65.6</ele>
        <time>2019-09-14T16:39:49Z</time>
      </trkpt>
      <trkpt lat="59.212661183408" lon="17.916326169782">
        <ele>65.6</ele>
        <time>2019-09-14T16:39:50Z</time>
      </trkpt>
      <trkpt lat="59.212716671586" lon="17.916316865873">
        <ele>65.6</ele>
        <time>2019-09-14T16:39:51Z</time>
      </trkpt>
      <trkpt lat="59.212772997954" lon="17.91630202991">
        <ele>65.6</ele>
        <time>2019-09-14T16:39:52Z</time>
      </trkpt>
      <trkpt lat="59.212833766729" lon="17.916280991341">
        <ele>65.4</ele>
        <time>2019-09-14T16:39:53Z</time>
      </trkpt>
      <trkpt lat="59.212899564644" lon="17.916254755994">
        <ele>65.2</ele>
        <time>2019-09-14T16:39:54Z</time>
      </trkpt>
      <trkpt lat="59.212969050595" lon="17.916223072412">
        <ele>64.8</ele>
        <time>2019-09-14T16:39:55Z</time>
      </trkpt>
      <trkpt lat="59.213035016148" lon="17.916186946423">
        <ele>64.6</ele>
        <time>2019-09-14T16:39:56Z</time>
      </trkpt>
      <trkpt lat="59.213101316977" lon="17.916145372199">
        <ele>64.6</ele>
        <time>2019-09-14T16:39:57Z</time>
      </trkpt>
      <trkpt lat="59.213168791272" lon="17.916100445215">
        <ele>64.4</ele>
        <time>2019-09-14T16:39:58Z</time>
      </trkpt>
      <trkpt lat="59.213238696318" lon="17.916049650901">
        <ele>64</ele>
        <time>2019-09-14T16:39:59Z</time>
      </trkpt>
      <trkpt lat="59.213309439554" lon="17.915995839103">
        <ele>63.6</ele>
        <time>2019-09-14T16:40:00Z</time>
      </trkpt>
      <trkpt lat="59.2133793446" lon="17.91594328459">
        <ele>63</ele>
        <time>2019-09-14T16:40:01Z</time>
      </trkpt>
      <trkpt lat="59.213455368433" lon="17.915888131688">
        <ele>62.2</ele>
        <time>2019-09-14T16:40:02Z</time>
      </trkpt>
      <trkpt lat="59.21353105699" lon="17.915838762297">
        <ele>61.8</ele>
        <time>2019-09-14T16:40:03Z</time>
      </trkpt>
      <trkpt lat="59.2136056559" lon="17.91579324858">
        <ele>61.2</ele>
        <time>2019-09-14T16:40:04Z</time>
      </trkpt>
      <trkpt lat="59.21368025481" lon="17.915744382103">
        <ele>60.6</ele>
        <time>2019-09-14T16:40:05Z</time>
      </trkpt>
      <trkpt lat="59.213750998046" lon="17.915695599445">
        <ele>60.2</ele>
        <time>2019-09-14T16:40:06Z</time>
      </trkpt>
      <trkpt lat="59.213821322187" lon="17.915648828443">
        <ele>59.6</ele>
        <time>2019-09-14T16:40:07Z</time>
      </trkpt>
      <trkpt lat="59.213891981604" lon="17.915601470708">
        <ele>59.2</ele>
        <time>2019-09-14T16:40:08Z</time>
      </trkpt>
      <trkpt lat="59.213956354596" lon="17.915553945335">
        <ele>58.6</ele>
        <time>2019-09-14T16:40:09Z</time>
      </trkpt>
      <trkpt lat="59.214020392312" lon="17.915507593428">
        <ele>58.2</ele>
        <time>2019-09-14T16:40:10Z</time>
      </trkpt>
      <trkpt lat="59.214083843295" lon="17.915462582625">
        <ele>57.8</ele>
        <time>2019-09-14T16:40:11Z</time>
      </trkpt>
      <trkpt lat="59.214147210459" lon="17.915420337849">
        <ele>57.8</ele>
        <time>2019-09-14T16:40:12Z</time>
      </trkpt>
      <trkpt lat="59.21420831451" lon="17.915384547136">
        <ele>57.6</ele>
        <time>2019-09-14T16:40:13Z</time>
      </trkpt>
      <trkpt lat="59.214267658362" lon="17.915344481654">
        <ele>57.6</ele>
        <time>2019-09-14T16:40:14Z</time>
      </trkpt>
      <trkpt lat="59.214326331662" lon="17.915307266018">
        <ele>57.6</ele>
        <time>2019-09-14T16:40:15Z</time>
      </trkpt>
      <trkpt lat="59.214386429885" lon="17.915270637115">
        <ele>57.4</ele>
        <time>2019-09-14T16:40:16Z</time>
      </trkpt>
      <trkpt lat="59.214449126497" lon="17.91522495576">
        <ele>57.4</ele>
        <time>2019-09-14T16:40:17Z</time>
      </trkpt>
      <trkpt lat="59.214510230548" lon="17.915179358224">
        <ele>57.4</ele>
        <time>2019-09-14T16:40:18Z</time>
      </trkpt>
      <trkpt lat="59.214573094798" lon="17.915139292742">
        <ele>57.2</ele>
        <time>2019-09-14T16:40:19Z</time>
      </trkpt>
      <trkpt lat="59.214633360659" lon="17.915096628871">
        <ele>57.2</ele>
        <time>2019-09-14T16:40:20Z</time>
      </trkpt>
      <trkpt lat="59.214693877977" lon="17.915055725199">
        <ele>57.2</ele>
        <time>2019-09-14T16:40:21Z</time>
      </trkpt>
      <trkpt lat="59.214753557105" lon="17.915013396604">
        <ele>57</ele>
        <time>2019-09-14T16:40:22Z</time>
      </trkpt>
      <trkpt lat="59.214811056939" lon="17.914966206507">
        <ele>56.8</ele>
        <time>2019-09-14T16:40:23Z</time>
      </trkpt>
      <trkpt lat="59.214865204013" lon="17.914916585659">
        <ele>56.6</ele>
        <time>2019-09-14T16:40:24Z</time>
      </trkpt>
      <trkpt lat="59.214919351087" lon="17.91486369587">
        <ele>56.4</ele>
        <time>2019-09-14T16:40:25Z</time>
      </trkpt>
      <trkpt lat="59.214972240876" lon="17.9148108899">
        <ele>56.4</ele>
        <time>2019-09-14T16:40:26Z</time>
      </trkpt>
      <trkpt lat="59.215024041018" lon="17.914754395894">
        <ele>56.2</ele>
        <time>2019-09-14T16:40:27Z</time>
      </trkpt>
      <trkpt lat="59.21506913564" lon="17.914696644603">
        <ele>56.2</ele>
        <time>2019-09-14T16:40:28Z</time>
      </trkpt>
      <trkpt lat="59.215115403728" lon="17.914643503357">
        <ele>56.2</ele>
        <time>2019-09-14T16:40:29Z</time>
      </trkpt>
      <trkpt lat="59.215150691527" lon="17.91460218059">
        <ele>56.2</ele>
        <time>2019-09-14T16:40:30Z</time>
      </trkpt>
      <trkpt lat="59.215180195815" lon="17.914566222239">
        <ele>56.2</ele>
        <time>2019-09-14T16:40:31Z</time>
      </trkpt>
      <trkpt lat="59.215206766438" lon="17.914529928612">
        <ele>56.2</ele>
        <time>2019-09-14T16:40:32Z</time>
      </trkpt>
      <trkpt lat="59.215231828319" lon="17.91448818675">
        <ele>56.2</ele>
        <time>2019-09-14T16:40:33Z</time>
      </trkpt>
      <trkpt lat="59.215250771413" lon="17.914439823187">
        <ele>56</ele>
        <time>2019-09-14T16:40:34Z</time>
      </trkpt>
      <trkpt lat="59.215268038127" lon="17.91439682404">
        <ele>56</ele>
        <time>2019-09-14T16:40:35Z</time>
      </trkpt>
      <trkpt lat="59.215287819411" lon="17.91435239997">
        <ele>56.2</ele>
        <time>2019-09-14T16:40:36Z</time>
      </trkpt>
      <trkpt lat="59.215320676459" lon="17.914241255976">
        <ele>56.2</ele>
        <time>2019-09-14T16:40:38Z</time>
      </trkpt>
      <trkpt lat="59.215330734739" lon="17.914171183292">
        <ele>56</ele>
        <time>2019-09-14T16:40:39Z</time>
      </trkpt>
      <trkpt lat="59.215337691716" lon="17.914100607694">
        <ele>56</ele>
        <time>2019-09-14T16:40:40Z</time>
      </trkpt>
      <trkpt lat="59.215340960657" lon="17.914032881942">
        <ele>56</ele>
        <time>2019-09-14T16:40:41Z</time>
      </trkpt>
      <trkpt lat="59.215340960657" lon="17.913961887249">
        <ele>56</ele>
        <time>2019-09-14T16:40:42Z</time>
      </trkpt>
      <trkpt lat="59.215347498539" lon="17.913882007742">
        <ele>56</ele>
        <time>2019-09-14T16:40:43Z</time>
      </trkpt>
      <trkpt lat="59.215359400837" lon="17.913803972253">
        <ele>56</ele>
        <time>2019-09-14T16:40:44Z</time>
      </trkpt>
      <trkpt lat="59.215375242628" lon="17.913729373343">
        <ele>56</ele>
        <time>2019-09-14T16:40:45Z</time>
      </trkpt>
      <trkpt lat="59.215396448835" lon="17.913650499664">
        <ele>56</ele>
        <time>2019-09-14T16:40:46Z</time>
      </trkpt>
      <trkpt lat="59.215420588707" lon="17.913565423379">
        <ele>56</ele>
        <time>2019-09-14T16:40:47Z</time>
      </trkpt>
      <trkpt lat="59.21544296838" lon="17.913473725393">
        <ele>56</ele>
        <time>2019-09-14T16:40:48Z</time>
      </trkpt>
      <trkpt lat="59.215462665845" lon="17.913385044891">
        <ele>56</ele>
        <time>2019-09-14T16:40:49Z</time>
      </trkpt>
      <trkpt lat="59.215476747437" lon="17.913298962778">
        <ele>56</ele>
        <time>2019-09-14T16:40:50Z</time>
      </trkpt>
      <trkpt lat="59.215487560088" lon="17.913232661949">
        <ele>56</ele>
        <time>2019-09-14T16:40:51Z</time>
      </trkpt>
      <trkpt lat="59.215496528721" lon="17.913178850151">
        <ele>55.8</ele>
        <time>2019-09-14T16:40:52Z</time>
      </trkpt>
      <trkpt lat="59.215506754639" lon="17.913120931222">
        <ele>55.8</ele>
        <time>2019-09-14T16:40:53Z</time>
      </trkpt>
      <trkpt lat="59.215518824575" lon="17.913054798031">
        <ele>55.8</ele>
        <time>2019-09-14T16:40:54Z</time>
      </trkpt>
      <trkpt lat="59.215526619742" lon="17.912982629872">
        <ele>55.8</ele>
        <time>2019-09-14T16:40:55Z</time>
      </trkpt>
      <trkpt lat="59.215531565063" lon="17.912904762021">
        <ele>55.8</ele>
        <time>2019-09-14T16:40:56Z</time>
      </trkpt>
      <trkpt lat="59.21553516928" lon="17.912819769555">
        <ele>55.8</ele>
        <time>2019-09-14T16:40:57Z</time>
      </trkpt>
      <trkpt lat="59.215540449877" lon="17.912732933071">
        <ele>55.6</ele>
        <time>2019-09-14T16:40:58Z</time>
      </trkpt>
      <trkpt lat="59.215548999415" lon="17.912651880098">
        <ele>55.6</ele>
        <time>2019-09-14T16:40:59Z</time>
      </trkpt>
      <trkpt lat="59.215559225333" lon="17.912572587324">
        <ele>55.6</ele>
        <time>2019-09-14T16:41:00Z</time>
      </trkpt>
      <trkpt lat="59.215566517586" lon="17.91249664731">
        <ele>55.6</ele>
        <time>2019-09-14T16:41:01Z</time>
      </trkpt>
      <trkpt lat="59.215571714364" lon="17.912425484979">
        <ele>55.6</ele>
        <time>2019-09-14T16:41:02Z</time>
      </trkpt>
      <trkpt lat="59.215577749332" lon="17.912357843046">
        <ele>55.6</ele>
        <time>2019-09-14T16:41:03Z</time>
      </trkpt>
      <trkpt lat="59.215585125404" lon="17.912290536389">
        <ele>55.6</ele>
        <time>2019-09-14T16:41:04Z</time>
      </trkpt>
      <trkpt lat="59.215591663286" lon="17.912220631343">
        <ele>55.8</ele>
        <time>2019-09-14T16:41:05Z</time>
      </trkpt>
      <trkpt lat="59.215597865892" lon="17.912146619166">
        <ele>55.8</ele>
        <time>2019-09-14T16:41:06Z</time>
      </trkpt>
      <trkpt lat="59.215604403774" lon="17.912070427695">
        <ele>55.8</ele>
        <time>2019-09-14T16:41:07Z</time>
      </trkpt>
      <trkpt lat="59.215610941656" lon="17.911993481853">
        <ele>56</ele>
        <time>2019-09-14T16:41:08Z</time>
      </trkpt>
      <trkpt lat="59.215616808986" lon="17.911916536011">
        <ele>56</ele>
        <time>2019-09-14T16:41:09Z</time>
      </trkpt>
      <trkpt lat="59.215621921945" lon="17.911842104739">
        <ele>56</ele>
        <time>2019-09-14T16:41:10Z</time>
      </trkpt>
      <trkpt lat="59.215629381836" lon="17.911770942408">
        <ele>56</ele>
        <time>2019-09-14T16:41:11Z</time>
      </trkpt>
      <trkpt lat="59.215639021021" lon="17.911698019878">
        <ele>56</ele>
        <time>2019-09-14T16:41:12Z</time>
      </trkpt>
      <trkpt lat="59.215647905835" lon="17.911621241674">
        <ele>56.2</ele>
        <time>2019-09-14T16:41:13Z</time>
      </trkpt>
      <trkpt lat="59.21565419226" lon="17.911544966384">
        <ele>56.2</ele>
        <time>2019-09-14T16:41:14Z</time>
      </trkpt>
      <trkpt lat="59.215659891952" lon="17.911470283655">
        <ele>56.2</ele>
        <time>2019-09-14T16:41:15Z</time>
      </trkpt>
      <trkpt lat="59.215665591644" lon="17.911397277306">
        <ele>56.2</ele>
        <time>2019-09-14T16:41:16Z</time>
      </trkpt>
      <trkpt lat="59.215670704603" lon="17.911322594577">
        <ele>56.2</ele>
        <time>2019-09-14T16:41:17Z</time>
      </trkpt>
      <trkpt lat="59.215676655752" lon="17.911239529948">
        <ele>56.2</ele>
        <time>2019-09-14T16:41:18Z</time>
      </trkpt>
      <trkpt lat="59.21568352891" lon="17.911148334876">
        <ele>56.2</ele>
        <time>2019-09-14T16:41:19Z</time>
      </trkpt>
      <trkpt lat="59.21569107262" lon="17.911057726537">
        <ele>56.2</ele>
        <time>2019-09-14T16:41:20Z</time>
      </trkpt>
      <trkpt lat="59.215698448692" lon="17.910968375483">
        <ele>56</ele>
        <time>2019-09-14T16:41:21Z</time>
      </trkpt>
      <trkpt lat="59.215707584963" lon="17.91088229337">
        <ele>56</ele>
        <time>2019-09-14T16:41:22Z</time>
      </trkpt>
      <trkpt lat="59.215715044854" lon="17.91079679799">
        <ele>56</ele>
        <time>2019-09-14T16:41:23Z</time>
      </trkpt>
      <trkpt lat="59.215721415098" lon="17.910712224619">
        <ele>56</ele>
        <time>2019-09-14T16:41:24Z</time>
      </trkpt>
      <trkpt lat="59.215727282428" lon="17.910629830542">
        <ele>56</ele>
        <time>2019-09-14T16:41:25Z</time>
      </trkpt>
      <trkpt lat="59.215733736491" lon="17.910551124501">
        <ele>56</ele>
        <time>2019-09-14T16:41:26Z</time>
      </trkpt>
      <trkpt lat="59.215740693468" lon="17.910473508107">
        <ele>55.8</ele>
        <time>2019-09-14T16:41:27Z</time>
      </trkpt>
      <trkpt lat="59.215746476979" lon="17.910396897541">
        <ele>55.8</ele>
        <time>2019-09-14T16:41:28Z</time>
      </trkpt>
      <trkpt lat="59.215752428128" lon="17.910321628079">
        <ele>55.8</ele>
        <time>2019-09-14T16:41:29Z</time>
      </trkpt>
      <trkpt lat="59.215757541087" lon="17.910249543739">
        <ele>55.8</ele>
        <time>2019-09-14T16:41:30Z</time>
      </trkpt>
      <trkpt lat="59.215762570227" lon="17.910181482711">
        <ele>55.8</ele>
        <time>2019-09-14T16:41:31Z</time>
      </trkpt>
      <trkpt lat="59.215766928815" lon="17.910117109719">
        <ele>55.8</ele>
        <time>2019-09-14T16:41:32Z</time>
      </trkpt>
      <trkpt lat="59.215772209412" lon="17.910055335116">
        <ele>55.8</ele>
        <time>2019-09-14T16:41:33Z</time>
      </trkpt>
      <trkpt lat="59.215778495837" lon="17.909991800314">
        <ele>55.8</ele>
        <time>2019-09-14T16:41:34Z</time>
      </trkpt>
      <trkpt lat="59.21578411171" lon="17.909923320191">
        <ele>55.8</ele>
        <time>2019-09-14T16:41:35Z</time>
      </trkpt>
      <trkpt lat="59.215788470298" lon="17.90985215786">
        <ele>55.8</ele>
        <time>2019-09-14T16:41:36Z</time>
      </trkpt>
      <trkpt lat="59.215793415619" lon="17.909779570606">
        <ele>55.8</ele>
        <time>2019-09-14T16:41:37Z</time>
      </trkpt>
      <trkpt lat="59.215799366768" lon="17.909705809886">
        <ele>55.8</ele>
        <time>2019-09-14T16:41:38Z</time>
      </trkpt>
      <trkpt lat="59.215804731184" lon="17.909629534596">
        <ele>55.8</ele>
        <time>2019-09-14T16:41:39Z</time>
      </trkpt>
      <trkpt lat="59.215809844143" lon="17.909552169659">
        <ele>56</ele>
        <time>2019-09-14T16:41:40Z</time>
      </trkpt>
      <trkpt lat="59.215815292378" lon="17.909473882713">
        <ele>56</ele>
        <time>2019-09-14T16:41:41Z</time>
      </trkpt>
      <trkpt lat="59.215820656794" lon="17.909394673758">
        <ele>56.2</ele>
        <time>2019-09-14T16:41:42Z</time>
      </trkpt>
      <trkpt lat="59.215827949047" lon="17.909316973545">
        <ele>56.2</ele>
        <time>2019-09-14T16:41:43Z</time>
      </trkpt>
      <trkpt lat="59.215836498585" lon="17.909241536445">
        <ele>56.2</ele>
        <time>2019-09-14T16:41:44Z</time>
      </trkpt>
      <trkpt lat="59.215844209933" lon="17.909168027182">
        <ele>56.2</ele>
        <time>2019-09-14T16:41:45Z</time>
      </trkpt>
      <trkpt lat="59.215853010928" lon="17.909096026661">
        <ele>56.2</ele>
        <time>2019-09-14T16:41:46Z</time>
      </trkpt>
      <trkpt lat="59.215861728104" lon="17.909025367244">
        <ele>56.2</ele>
        <time>2019-09-14T16:41:47Z</time>
      </trkpt>
      <trkpt lat="59.215867679253" lon="17.90895529456">
        <ele>56.2</ele>
        <time>2019-09-14T16:41:48Z</time>
      </trkpt>
      <trkpt lat="59.215870361461" lon="17.90888572479">
        <ele>56.2</ele>
        <time>2019-09-14T16:41:49Z</time>
      </trkpt>
      <trkpt lat="59.215870110004" lon="17.908815652106">
        <ele>56.2</ele>
        <time>2019-09-14T16:41:50Z</time>
      </trkpt>
      <trkpt lat="59.215864997045" lon="17.908747591078">
        <ele>56.2</ele>
        <time>2019-09-14T16:41:51Z</time>
      </trkpt>
      <trkpt lat="59.215857704792" lon="17.908680703516">
        <ele>56.4</ele>
        <time>2019-09-14T16:41:52Z</time>
      </trkpt>
      <trkpt lat="59.215852424195" lon="17.908612558669">
        <ele>56.4</ele>
        <time>2019-09-14T16:41:53Z</time>
      </trkpt>
      <trkpt lat="59.215850747815" lon="17.908541144881">
        <ele>56.4</ele>
        <time>2019-09-14T16:41:54Z</time>
      </trkpt>
      <trkpt lat="59.215850412539" lon="17.908469395817">
        <ele>56.4</ele>
        <time>2019-09-14T16:41:55Z</time>
      </trkpt>
      <trkpt lat="59.215848987616" lon="17.908397562934">
        <ele>56.4</ele>
        <time>2019-09-14T16:41:56Z</time>
      </trkpt>
      <trkpt lat="59.215847143598" lon="17.90832749025">
        <ele>56.4</ele>
        <time>2019-09-14T16:41:57Z</time>
      </trkpt>
      <trkpt lat="59.215844712847" lon="17.908256998471">
        <ele>56.4</ele>
        <time>2019-09-14T16:41:58Z</time>
      </trkpt>
      <trkpt lat="59.215843790838" lon="17.908185500864">
        <ele>56.4</ele>
        <time>2019-09-14T16:41:59Z</time>
      </trkpt>
      <trkpt lat="59.215844377571" lon="17.908113416524">
        <ele>56.4</ele>
        <time>2019-09-14T16:42:00Z</time>
      </trkpt>
      <trkpt lat="59.215844545209" lon="17.908042673288">
        <ele>56.6</ele>
        <time>2019-09-14T16:42:01Z</time>
      </trkpt>
      <trkpt lat="59.215845131942" lon="17.907973690251">
        <ele>56.6</ele>
        <time>2019-09-14T16:42:02Z</time>
      </trkpt>
      <trkpt lat="59.215847478874" lon="17.907904455757">
        <ele>56.8</ele>
        <time>2019-09-14T16:42:03Z</time>
      </trkpt>
      <trkpt lat="59.215850244901" lon="17.90783547272">
        <ele>56.8</ele>
        <time>2019-09-14T16:42:04Z</time>
      </trkpt>
      <trkpt lat="59.215853849118" lon="17.907766070588">
        <ele>57</ele>
        <time>2019-09-14T16:42:05Z</time>
      </trkpt>
      <trkpt lat="59.215867846891" lon="17.907626176677">
        <ele>57.2</ele>
        <time>2019-09-14T16:42:07Z</time>
      </trkpt>
      <trkpt lat="59.215877653714" lon="17.907557445097">
        <ele>57.4</ele>
        <time>2019-09-14T16:42:08Z</time>
      </trkpt>
      <trkpt lat="59.215888801641" lon="17.907488126784">
        <ele>57.4</ele>
        <time>2019-09-14T16:42:09Z</time>
      </trkpt>
      <trkpt lat="59.215902631776" lon="17.907419227566">
        <ele>57.4</ele>
        <time>2019-09-14T16:42:10Z</time>
      </trkpt>
      <trkpt lat="59.215921407232" lon="17.907354184022">
        <ele>57.4</ele>
        <time>2019-09-14T16:42:11Z</time>
      </trkpt>
      <trkpt lat="59.215942697258" lon="17.907289475754">
        <ele>57.6</ele>
        <time>2019-09-14T16:42:12Z</time>
      </trkpt>
      <trkpt lat="59.215966585673" lon="17.907226443866">
        <ele>57.6</ele>
        <time>2019-09-14T16:42:13Z</time>
      </trkpt>
      <trkpt lat="59.215994245943" lon="17.907167602928">
        <ele>57.6</ele>
        <time>2019-09-14T16:42:14Z</time>
      </trkpt>
      <trkpt lat="59.216027438267" lon="17.907110019275">
        <ele>57.6</ele>
        <time>2019-09-14T16:42:15Z</time>
      </trkpt>
      <trkpt lat="59.216063396618" lon="17.907051429794">
        <ele>57.6</ele>
        <time>2019-09-14T16:42:16Z</time>
      </trkpt>
      <trkpt lat="59.216100779892" lon="17.906993259408">
        <ele>57.6</ele>
        <time>2019-09-14T16:42:17Z</time>
      </trkpt>
      <trkpt lat="59.216140510098" lon="17.906939196153">
        <ele>57.6</ele>
        <time>2019-09-14T16:42:18Z</time>
      </trkpt>
      <trkpt lat="59.216181078494" lon="17.906883037423">
        <ele>57.6</ele>
        <time>2019-09-14T16:42:19Z</time>
      </trkpt>
      <trkpt lat="59.216220641062" lon="17.906815814585">
        <ele>57.4</ele>
        <time>2019-09-14T16:42:20Z</time>
      </trkpt>
      <trkpt lat="59.216259616897" lon="17.906743562607">
        <ele>57.2</ele>
        <time>2019-09-14T16:42:21Z</time>
      </trkpt>
      <trkpt lat="59.216298005999" lon="17.906673238466">
        <ele>57.2</ele>
        <time>2019-09-14T16:42:22Z</time>
      </trkpt>
      <trkpt lat="59.216337233291" lon="17.906615319537">
        <ele>57</ele>
        <time>2019-09-14T16:42:23Z</time>
      </trkpt>
      <trkpt lat="59.21637587385" lon="17.906579696462">
        <ele>56.8</ele>
        <time>2019-09-14T16:42:24Z</time>
      </trkpt>
      <trkpt lat="59.216408395622" lon="17.906577433349">
        <ele>56.6</ele>
        <time>2019-09-14T16:42:25Z</time>
      </trkpt>
      <trkpt lat="59.216445192163" lon="17.90659830428">
        <ele>56.2</ele>
        <time>2019-09-14T16:42:26Z</time>
      </trkpt>
      <trkpt lat="59.216480144686" lon="17.906634597907">
        <ele>56</ele>
        <time>2019-09-14T16:42:27Z</time>
      </trkpt>
      <trkpt lat="59.216518701426" lon="17.906666868222">
        <ele>55.6</ele>
        <time>2019-09-14T16:42:28Z</time>
      </trkpt>
      <trkpt lat="59.216558934546" lon="17.906688493524">
        <ele>54.6</ele>
        <time>2019-09-14T16:42:29Z</time>
      </trkpt>
      <trkpt lat="59.216594725259" lon="17.90669888708">
        <ele>54.4</ele>
        <time>2019-09-14T16:42:30Z</time>
      </trkpt>
      <trkpt lat="59.216625738289" lon="17.906709029179">
        <ele>54.2</ele>
        <time>2019-09-14T16:42:31Z</time>
      </trkpt>
      <trkpt lat="59.216653650016" lon="17.906714980328">
        <ele>54.2</ele>
        <time>2019-09-14T16:42:32Z</time>
      </trkpt>
      <trkpt lat="59.21668432777" lon="17.906709699731">
        <ele>54</ele>
        <time>2019-09-14T16:42:33Z</time>
      </trkpt>
      <trkpt lat="59.216716681904" lon="17.906696707786">
        <ele>54</ele>
        <time>2019-09-14T16:42:34Z</time>
      </trkpt>
      <trkpt lat="59.216748700762" lon="17.906676842683">
        <ele>53.8</ele>
        <time>2019-09-14T16:42:35Z</time>
      </trkpt>
      <trkpt lat="59.216779378516" lon="17.906662509634">
        <ele>53.8</ele>
        <time>2019-09-14T16:42:36Z</time>
      </trkpt>
      <trkpt lat="59.216806452053" lon="17.906650607336">
        <ele>53.6</ele>
        <time>2019-09-14T16:42:37Z</time>
      </trkpt>
      <trkpt lat="59.216832100667" lon="17.906633759717">
        <ele>53.6</ele>
        <time>2019-09-14T16:42:38Z</time>
      </trkpt>
      <trkpt lat="59.216857497824" lon="17.906616241546">
        <ele>53.6</ele>
        <time>2019-09-14T16:42:39Z</time>
      </trkpt>
      <trkpt lat="59.216882894981" lon="17.906605931809">
        <ele>53.6</ele>
        <time>2019-09-14T16:42:40Z</time>
      </trkpt>
      <trkpt lat="59.216913824192" lon="17.906599813022">
        <ele>53.6</ele>
        <time>2019-09-14T16:42:41Z</time>
      </trkpt>
      <trkpt lat="59.21694584305" lon="17.906584390326">
        <ele>53.4</ele>
        <time>2019-09-14T16:42:42Z</time>
      </trkpt>
      <trkpt lat="59.216977945727" lon="17.906568799992">
        <ele>53.4</ele>
        <time>2019-09-14T16:42:43Z</time>
      </trkpt>
      <trkpt lat="59.217010970413" lon="17.906551952373">
        <ele>53.4</ele>
        <time>2019-09-14T16:42:44Z</time>
      </trkpt>
      <trkpt lat="59.217044330375" lon="17.906529069786">
        <ele>53.4</ele>
        <time>2019-09-14T16:42:45Z</time>
      </trkpt>
      <trkpt lat="59.217073583206" lon="17.906513395633">
        <ele>53.4</ele>
        <time>2019-09-14T16:42:46Z</time>
      </trkpt>
      <trkpt lat="59.217101830209" lon="17.906492608521">
        <ele>53.4</ele>
        <time>2019-09-14T16:42:47Z</time>
      </trkpt>
      <trkpt lat="59.217135441628" lon="17.906464277699">
        <ele>53.4</ele>
        <time>2019-09-14T16:42:48Z</time>
      </trkpt>
      <trkpt lat="59.217165113554" lon="17.906438461447">
        <ele>53.4</ele>
        <time>2019-09-14T16:42:49Z</time>
      </trkpt>
      <trkpt lat="59.217191684177" lon="17.906415662679">
        <ele>53.4</ele>
        <time>2019-09-14T16:42:50Z</time>
      </trkpt>
      <trkpt lat="59.217218925352" lon="17.906398312146">
        <ele>53.4</ele>
        <time>2019-09-14T16:42:51Z</time>
      </trkpt>
      <trkpt lat="59.217247172355" lon="17.906389092056">
        <ele>53.4</ele>
        <time>2019-09-14T16:42:52Z</time>
      </trkpt>
      <trkpt lat="59.217276592824" lon="17.906383560002">
        <ele>53.6</ele>
        <time>2019-09-14T16:42:53Z</time>
      </trkpt>
      <trkpt lat="59.21730710294" lon="17.906376016292">
        <ele>53.6</ele>
        <time>2019-09-14T16:42:54Z</time>
      </trkpt>
      <trkpt lat="59.217341552549" lon="17.906367466754">
        <ele>53.6</ele>
        <time>2019-09-14T16:42:55Z</time>
      </trkpt>
      <trkpt lat="59.217375918339" lon="17.906363694899">
        <ele>53.6</ele>
        <time>2019-09-14T16:42:56Z</time>
      </trkpt>
      <trkpt lat="59.217409194482" lon="17.906360006863">
        <ele>53.6</ele>
        <time>2019-09-14T16:42:57Z</time>
      </trkpt>
      <trkpt lat="59.21744288972" lon="17.906357659931">
        <ele>53.6</ele>
        <time>2019-09-14T16:42:58Z</time>
      </trkpt>
      <trkpt lat="59.217473651293" lon="17.906354893904">
        <ele>53.6</ele>
        <time>2019-09-14T16:42:59Z</time>
      </trkpt>
      <trkpt lat="59.217505167237" lon="17.90634768547">
        <ele>53.6</ele>
        <time>2019-09-14T16:43:00Z</time>
      </trkpt>
      <trkpt lat="59.217540790312" lon="17.906340309398">
        <ele>53.4</ele>
        <time>2019-09-14T16:43:01Z</time>
      </trkpt>
      <trkpt lat="59.217577335396" lon="17.90633595081">
        <ele>53.4</ele>
        <time>2019-09-14T16:43:02Z</time>
      </trkpt>
      <trkpt lat="59.217615137765" lon="17.906329580566">
        <ele>53.4</ele>
        <time>2019-09-14T16:43:03Z</time>
      </trkpt>
      <trkpt lat="59.217656209075" lon="17.906321617761">
        <ele>53.4</ele>
        <time>2019-09-14T16:43:04Z</time>
      </trkpt>
      <trkpt lat="59.217691161598" lon="17.906324635245">
        <ele>53.2</ele>
        <time>2019-09-14T16:43:05Z</time>
      </trkpt>
      <trkpt lat="59.217724270103" lon="17.906338297742">
        <ele>53</ele>
        <time>2019-09-14T16:43:06Z</time>
      </trkpt>
      <trkpt lat="59.217758803531" lon="17.906360174501">
        <ele>52.6</ele>
        <time>2019-09-14T16:43:07Z</time>
      </trkpt>
      <trkpt lat="59.217793588416" lon="17.906373585541">
        <ele>52.2</ele>
        <time>2019-09-14T16:43:08Z</time>
      </trkpt>
      <trkpt lat="59.217828540939" lon="17.906365455098">
        <ele>51.8</ele>
        <time>2019-09-14T16:43:09Z</time>
      </trkpt>
      <trkpt lat="59.217862571453" lon="17.906335364077">
        <ele>51.8</ele>
        <time>2019-09-14T16:43:10Z</time>
      </trkpt>
      <trkpt lat="59.217897440157" lon="17.906295298595">
        <ele>51.4</ele>
        <time>2019-09-14T16:43:11Z</time>
      </trkpt>
      <trkpt lat="59.217934991069" lon="17.906253137638">
        <ele>51.2</ele>
        <time>2019-09-14T16:43:12Z</time>
      </trkpt>
      <trkpt lat="59.217973128714" lon="17.906211563414">
        <ele>50.8</ele>
        <time>2019-09-14T16:43:13Z</time>
      </trkpt>
      <trkpt lat="59.218009338522" lon="17.906168145172">
        <ele>50.6</ele>
        <time>2019-09-14T16:43:14Z</time>
      </trkpt>
      <trkpt lat="59.218047727624" lon="17.906129504613">
        <ele>50.4</ele>
        <time>2019-09-14T16:43:15Z</time>
      </trkpt>
      <trkpt lat="59.218082847785" lon="17.906090780235">
        <ele>50.2</ele>
        <time>2019-09-14T16:43:16Z</time>
      </trkpt>
      <trkpt lat="59.218112938806" lon="17.906046104708">
        <ele>50.2</ele>
        <time>2019-09-14T16:43:17Z</time>
      </trkpt>
      <trkpt lat="59.218139174153" lon="17.906003692294">
        <ele>50.2</ele>
        <time>2019-09-14T16:43:18Z</time>
      </trkpt>
      <trkpt lat="59.218163900758" lon="17.905970583789">
        <ele>50.2</ele>
        <time>2019-09-14T16:43:19Z</time>
      </trkpt>
      <trkpt lat="59.21818804063" lon="17.905954909636">
        <ele>50</ele>
        <time>2019-09-14T16:43:20Z</time>
      </trkpt>
      <trkpt lat="59.218207821914" lon="17.905953903808">
        <ele>50</ele>
        <time>2019-09-14T16:43:21Z</time>
      </trkpt>
      <trkpt lat="59.218227351741" lon="17.905974942377">
        <ele>50</ele>
        <time>2019-09-14T16:43:22Z</time>
      </trkpt>
      <trkpt lat="59.218249647595" lon="17.906011319823">
        <ele>50</ele>
        <time>2019-09-14T16:43:23Z</time>
      </trkpt>
      <trkpt lat="59.218274793295" lon="17.906054989522">
        <ele>50</ele>
        <time>2019-09-14T16:43:24Z</time>
      </trkpt>
      <trkpt lat="59.218296502416" lon="17.906106957302">
        <ele>50</ele>
        <time>2019-09-14T16:43:25Z</time>
      </trkpt>
      <trkpt lat="59.218321815754" lon="17.906160433824">
        <ele>50</ele>
        <time>2019-09-14T16:43:26Z</time>
      </trkpt>
      <trkpt lat="59.21834813492" lon="17.906212485423">
        <ele>49.8</ele>
        <time>2019-09-14T16:43:27Z</time>
      </trkpt>
      <trkpt lat="59.218371101326" lon="17.906264369384">
        <ele>49.8</ele>
        <time>2019-09-14T16:43:28Z</time>
      </trkpt>
      <trkpt lat="59.218391804619" lon="17.906312313852">
        <ele>49.8</ele>
        <time>2019-09-14T16:43:29Z</time>
      </trkpt>
      <trkpt lat="59.218409909523" lon="17.906355480637">
        <ele>49.8</ele>
        <time>2019-09-14T16:43:30Z</time>
      </trkpt>
      <trkpt lat="59.218429271712" lon="17.906402838372">
        <ele>49.8</ele>
        <time>2019-09-14T16:43:31Z</time>
      </trkpt>
      <trkpt lat="59.218453830679" lon="17.906462433681">
        <ele>49.8</ele>
        <time>2019-09-14T16:43:32Z</time>
      </trkpt>
      <trkpt lat="59.218477299999" lon="17.906523286275">
        <ele>49.8</ele>
        <time>2019-09-14T16:43:33Z</time>
      </trkpt>
      <trkpt lat="59.218498422387" lon="17.906577768625">
        <ele>49.8</ele>
        <time>2019-09-14T16:43:34Z</time>
      </trkpt>
      <trkpt lat="59.21852080206" lon="17.906632837708">
        <ele>49.8</ele>
        <time>2019-09-14T16:43:35Z</time>
      </trkpt>
      <trkpt lat="59.21854427138" lon="17.906692265379">
        <ele>49.8</ele>
        <time>2019-09-14T16:43:36Z</time>
      </trkpt>
      <trkpt lat="59.218569500899" lon="17.906754459077">
        <ele>49.8</ele>
        <time>2019-09-14T16:43:37Z</time>
      </trkpt>
      <trkpt lat="59.218594143685" lon="17.906818580612">
        <ele>49.8</ele>
        <time>2019-09-14T16:43:38Z</time>
      </trkpt>
      <trkpt lat="59.218619959937" lon="17.906881193405">
        <ele>49.8</ele>
        <time>2019-09-14T16:43:39Z</time>
      </trkpt>
      <trkpt lat="59.218646614379" lon="17.906939363791">
        <ele>49.8</ele>
        <time>2019-09-14T16:43:40Z</time>
      </trkpt>
      <trkpt lat="59.218670083699" lon="17.906993259408">
        <ele>50</ele>
        <time>2019-09-14T16:43:41Z</time>
      </trkpt>
      <trkpt lat="59.218694139752" lon="17.907049921052">
        <ele>50</ele>
        <time>2019-09-14T16:43:42Z</time>
      </trkpt>
      <trkpt lat="59.218720375099" lon="17.907116473338">
        <ele>50</ele>
        <time>2019-09-14T16:43:43Z</time>
      </trkpt>
      <trkpt lat="59.218752729233" lon="17.907186881298">
        <ele>50</ele>
        <time>2019-09-14T16:43:44Z</time>
      </trkpt>
      <trkpt lat="59.218781143874" lon="17.907257456896">
        <ele>49.8</ele>
        <time>2019-09-14T16:43:45Z</time>
      </trkpt>
      <trkpt lat="59.218806121936" lon="17.907326356114">
        <ele>50</ele>
        <time>2019-09-14T16:43:46Z</time>
      </trkpt>
      <trkpt lat="59.218823807745" lon="17.907391399658">
        <ele>50</ele>
        <time>2019-09-14T16:43:47Z</time>
      </trkpt>
      <trkpt lat="59.218828166333" lon="17.907447558388">
        <ele>49.8</ele>
        <time>2019-09-14T16:43:48Z</time>
      </trkpt>
      <trkpt lat="59.218823556288" lon="17.907499107073">
        <ele>50</ele>
        <time>2019-09-14T16:43:49Z</time>
      </trkpt>
      <trkpt lat="59.218816599311" lon="17.907557696554">
        <ele>50.2</ele>
        <time>2019-09-14T16:43:50Z</time>
      </trkpt>
      <trkpt lat="59.218815593483" lon="17.907612011266">
        <ele>50.2</ele>
        <time>2019-09-14T16:43:51Z</time>
      </trkpt>
      <trkpt lat="59.218816012578" lon="17.907659955734">
        <ele>50.2</ele>
        <time>2019-09-14T16:43:52Z</time>
      </trkpt>
      <trkpt lat="59.218821460813" lon="17.907710414772">
        <ele>50.2</ele>
        <time>2019-09-14T16:43:53Z</time>
      </trkpt>
      <trkpt lat="59.218834117482" lon="17.907764813303">
        <ele>50.4</ele>
        <time>2019-09-14T16:43:54Z</time>
      </trkpt>
      <trkpt lat="59.218851468015" lon="17.907817116359">
        <ele>50.4</ele>
        <time>2019-09-14T16:43:55Z</time>
      </trkpt>
      <trkpt lat="59.218869070005" lon="17.907866988664">
        <ele>50.6</ele>
        <time>2019-09-14T16:43:56Z</time>
      </trkpt>
      <trkpt lat="59.218889689479" lon="17.907914346399">
        <ele>50.6</ele>
        <time>2019-09-14T16:43:57Z</time>
      </trkpt>
      <trkpt lat="59.218907878202" lon="17.907959776297">
        <ele>50.6</ele>
        <time>2019-09-14T16:43:58Z</time>
      </trkpt>
      <trkpt lat="59.218925564011" lon="17.908007217851">
        <ele>50.6</ele>
        <time>2019-09-14T16:43:59Z</time>
      </trkpt>
      <trkpt lat="59.218940819069" lon="17.908049462627">
        <ele>50.6</ele>
        <time>2019-09-14T16:44:00Z</time>
      </trkpt>
      <trkpt lat="59.218953978652" lon="17.908092042679">
        <ele>50.8</ele>
        <time>2019-09-14T16:44:01Z</time>
      </trkpt>
      <trkpt lat="59.218966551502" lon="17.908143759002">
        <ele>50.8</ele>
        <time>2019-09-14T16:44:02Z</time>
      </trkpt>
      <trkpt lat="59.21898264475" lon="17.908200253008">
        <ele>50.8</ele>
        <time>2019-09-14T16:44:03Z</time>
      </trkpt>
      <trkpt lat="59.218998402722" lon="17.908253058978">
        <ele>50.8</ele>
        <time>2019-09-14T16:44:04Z</time>
      </trkpt>
      <trkpt lat="59.21901868692" lon="17.90830150636">
        <ele>50.8</ele>
        <time>2019-09-14T16:44:05Z</time>
      </trkpt>
      <trkpt lat="59.219045006086" lon="17.908358587099">
        <ele>51</ele>
        <time>2019-09-14T16:44:06Z</time>
      </trkpt>
      <trkpt lat="59.219071073795" lon="17.908425390842">
        <ele>51</ele>
        <time>2019-09-14T16:44:07Z</time>
      </trkpt>
      <trkpt lat="59.219099823712" lon="17.90850267196">
        <ele>51</ele>
        <time>2019-09-14T16:44:08Z</time>
      </trkpt>
      <trkpt lat="59.219127400163" lon="17.908573499015">
        <ele>51.2</ele>
        <time>2019-09-14T16:44:09Z</time>
      </trkpt>
      <trkpt lat="59.219153886967" lon="17.908638542559">
        <ele>51.2</ele>
        <time>2019-09-14T16:44:10Z</time>
      </trkpt>
      <trkpt lat="59.219176350459" lon="17.908699311334">
        <ele>51.2</ele>
        <time>2019-09-14T16:44:11Z</time>
      </trkpt>
      <trkpt lat="59.219197053752" lon="17.908756056797">
        <ele>51.2</ele>
        <time>2019-09-14T16:44:12Z</time>
      </trkpt>
      <trkpt lat="59.219218427597" lon="17.908805593826">
        <ele>51.2</ele>
        <time>2019-09-14T16:44:13Z</time>
      </trkpt>
      <trkpt lat="59.219236532501" lon="17.908855717588">
        <ele>51.4</ele>
        <time>2019-09-14T16:44:14Z</time>
      </trkpt>
      <trkpt lat="59.219252374292" lon="17.908905338436">
        <ele>51.4</ele>
        <time>2019-09-14T16:44:15Z</time>
      </trkpt>
      <trkpt lat="59.219271401205" lon="17.908948672859">
        <ele>51.4</ele>
        <time>2019-09-14T16:44:16Z</time>
      </trkpt>
      <trkpt lat="59.2192885841" lon="17.908993935119">
        <ele>51.4</ele>
        <time>2019-09-14T16:44:17Z</time>
      </trkpt>
      <trkpt lat="59.219304174434" lon="17.90903827537">
        <ele>51.6</ele>
        <time>2019-09-14T16:44:18Z</time>
      </trkpt>
      <trkpt lat="59.219321944062" lon="17.909084962553">
        <ele>51.6</ele>
        <time>2019-09-14T16:44:19Z</time>
      </trkpt>
      <trkpt lat="59.219342395898" lon="17.909136930333">
        <ele>51.8</ele>
        <time>2019-09-14T16:44:20Z</time>
      </trkpt>
      <trkpt lat="59.219362009544" lon="17.909191999416">
        <ele>51.8</ele>
        <time>2019-09-14T16:44:21Z</time>
      </trkpt>
      <trkpt lat="59.219381539371" lon="17.909245727395">
        <ele>51.8</ele>
        <time>2019-09-14T16:44:22Z</time>
      </trkpt>
      <trkpt lat="59.219401069198" lon="17.909295264424">
        <ele>51.8</ele>
        <time>2019-09-14T16:44:23Z</time>
      </trkpt>
      <trkpt lat="59.219419844654" lon="17.909341113417">
        <ele>52</ele>
        <time>2019-09-14T16:44:24Z</time>
      </trkpt>
      <trkpt lat="59.219436692273" lon="17.909382017089">
        <ele>52</ele>
        <time>2019-09-14T16:44:25Z</time>
      </trkpt>
      <trkpt lat="59.219452617883" lon="17.909423507494">
        <ele>52</ele>
        <time>2019-09-14T16:44:26Z</time>
      </trkpt>
      <trkpt lat="59.219469465502" lon="17.909462986243">
        <ele>52</ele>
        <time>2019-09-14T16:44:27Z</time>
      </trkpt>
      <trkpt lat="59.219485391112" lon="17.909500201879">
        <ele>52.2</ele>
        <time>2019-09-14T16:44:28Z</time>
      </trkpt>
      <trkpt lat="59.219499053609" lon="17.909540267361">
        <ele>52.2</ele>
        <time>2019-09-14T16:44:29Z</time>
      </trkpt>
      <trkpt lat="59.219516655599" lon="17.909585110526">
        <ele>52.2</ele>
        <time>2019-09-14T16:44:30Z</time>
      </trkpt>
      <trkpt lat="59.219538532358" lon="17.90963003751">
        <ele>52.2</ele>
        <time>2019-09-14T16:44:31Z</time>
      </trkpt>
      <trkpt lat="59.219564180972" lon="17.90966859425">
        <ele>52.2</ele>
        <time>2019-09-14T16:44:32Z</time>
      </trkpt>
      <trkpt lat="59.219591086871" lon="17.909697176529">
        <ele>52.2</ele>
        <time>2019-09-14T16:44:33Z</time>
      </trkpt>
      <trkpt lat="59.219618747141" lon="17.909714778519">
        <ele>52.2</ele>
        <time>2019-09-14T16:44:34Z</time>
      </trkpt>
      <trkpt lat="59.219647413239" lon="17.909724920618">
        <ele>52.2</ele>
        <time>2019-09-14T16:44:35Z</time>
      </trkpt>
      <trkpt lat="59.219673983862" lon="17.909733637794">
        <ele>52.2</ele>
        <time>2019-09-14T16:44:36Z</time>
      </trkpt>
      <trkpt lat="59.219702063227" lon="17.909739924219">
        <ele>52.2</ele>
        <time>2019-09-14T16:44:37Z</time>
      </trkpt>
      <trkpt lat="59.219717988837" lon="17.909748473757">
        <ele>52.2</ele>
        <time>2019-09-14T16:44:38Z</time>
      </trkpt>
      <trkpt lat="59.219741961071" lon="17.909751155965">
        <ele>52.4</ele>
        <time>2019-09-14T16:44:39Z</time>
      </trkpt>
      <trkpt lat="59.219756713215" lon="17.909747467929">
        <ele>52.4</ele>
        <time>2019-09-14T16:44:40Z</time>
      </trkpt>
      <trkpt lat="59.21977138154" lon="17.909742187332">
        <ele>52.4</ele>
        <time>2019-09-14T16:44:41Z</time>
      </trkpt>
      <trkpt lat="59.219781188363" lon="17.909735984726">
        <ele>52.4</ele>
        <time>2019-09-14T16:44:42Z</time>
      </trkpt>
      <trkpt lat="59.21979485086" lon="17.909720478211">
        <ele>52.4</ele>
        <time>2019-09-14T16:44:43Z</time>
      </trkpt>
      <trkpt lat="59.219812117574" lon="17.909702876221">
        <ele>52.4</ele>
        <time>2019-09-14T16:44:44Z</time>
      </trkpt>
      <trkpt lat="59.219833659057" lon="17.909675467408">
        <ele>52.4</ele>
        <time>2019-09-14T16:44:45Z</time>
      </trkpt>
      <trkpt lat="59.219857463653" lon="17.909640598704">
        <ele>52.2</ele>
        <time>2019-09-14T16:44:46Z</time>
      </trkpt>
      <trkpt lat="59.219879172774" lon="17.909608076932">
        <ele>52.2</ele>
        <time>2019-09-14T16:44:47Z</time>
      </trkpt>
      <trkpt lat="59.219899289334" lon="17.909569268735">
        <ele>52.2</ele>
        <time>2019-09-14T16:44:48Z</time>
      </trkpt>
      <trkpt lat="59.219920746998" lon="17.90953280747">
        <ele>52.2</ele>
        <time>2019-09-14T16:44:49Z</time>
      </trkpt>
      <trkpt lat="59.219943042852" lon="17.909503806096">
        <ele>52.2</ele>
        <time>2019-09-14T16:44:50Z</time>
      </trkpt>
      <trkpt lat="59.219996435555" lon="17.909430296833">
        <ele>52</ele>
        <time>2019-09-14T16:44:52Z</time>
      </trkpt>
      <trkpt lat="59.220050917905" lon="17.909352848077">
        <ele>52</ele>
        <time>2019-09-14T16:44:54Z</time>
      </trkpt>
      <trkpt lat="59.220078829632" lon="17.909311860586">
        <ele>51.8</ele>
        <time>2019-09-14T16:44:55Z</time>
      </trkpt>
      <trkpt lat="59.220106825178" lon="17.909268693801">
        <ele>51.8</ele>
        <time>2019-09-14T16:44:56Z</time>
      </trkpt>
      <trkpt lat="59.220135491276" lon="17.909225024102">
        <ele>51.8</ele>
        <time>2019-09-14T16:44:57Z</time>
      </trkpt>
      <trkpt lat="59.220162648632" lon="17.909182611688">
        <ele>51.8</ele>
        <time>2019-09-14T16:44:58Z</time>
      </trkpt>
      <trkpt lat="59.220189051617" lon="17.909139109627">
        <ele>51.8</ele>
        <time>2019-09-14T16:44:59Z</time>
      </trkpt>
      <trkpt lat="59.220215119326" lon="17.909100636706">
        <ele>51.6</ele>
        <time>2019-09-14T16:45:00Z</time>
      </trkpt>
      <trkpt lat="59.22024328251" lon="17.909059900672">
        <ele>51.6</ele>
        <time>2019-09-14T16:45:01Z</time>
      </trkpt>
      <trkpt lat="59.220272032427" lon="17.909014973688">
        <ele>51.6</ele>
        <time>2019-09-14T16:45:02Z</time>
      </trkpt>
      <trkpt lat="59.220300195611" lon="17.908969376152">
        <ele>51.6</ele>
        <time>2019-09-14T16:45:03Z</time>
      </trkpt>
      <trkpt lat="59.220325760406" lon="17.908925538815">
        <ele>51.6</ele>
        <time>2019-09-14T16:45:04Z</time>
      </trkpt>
      <trkpt lat="59.220349565002" lon="17.908883964591">
        <ele>51.6</ele>
        <time>2019-09-14T16:45:05Z</time>
      </trkpt>
      <trkpt lat="59.220373788693" lon="17.908850101715">
        <ele>51.6</ele>
        <time>2019-09-14T16:45:06Z</time>
      </trkpt>
      <trkpt lat="59.220396755099" lon="17.908821267979">
        <ele>51.8</ele>
        <time>2019-09-14T16:45:07Z</time>
      </trkpt>
      <trkpt lat="59.220414357089" lon="17.908793356252">
        <ele>51.8</ele>
        <time>2019-09-14T16:45:08Z</time>
      </trkpt>
      <trkpt lat="59.220428438681" lon="17.908770222208">
        <ele>51.8</ele>
        <time>2019-09-14T16:45:09Z</time>
      </trkpt>
      <trkpt lat="59.220436401486" lon="17.908745914698">
        <ele>51.8</ele>
        <time>2019-09-14T16:45:10Z</time>
      </trkpt>
      <trkpt lat="59.220437910228" lon="17.908723535025">
        <ele>51.8</ele>
        <time>2019-09-14T16:45:11Z</time>
      </trkpt>
      <trkpt lat="59.220434054554" lon="17.908701239171">
        <ele>51.8</ele>
        <time>2019-09-14T16:45:12Z</time>
      </trkpt>
      <trkpt lat="59.22042684612" lon="17.908677937489">
        <ele>51.8</ele>
        <time>2019-09-14T16:45:13Z</time>
      </trkpt>
      <trkpt lat="59.220418296582" lon="17.908658407662">
        <ele>51.8</ele>
        <time>2019-09-14T16:45:14Z</time>
      </trkpt>
      <trkpt lat="59.220406394284" lon="17.908640470396">
        <ele>51.8</ele>
        <time>2019-09-14T16:45:15Z</time>
      </trkpt>
      <trkpt lat="59.220390049579" lon="17.908620353836">
        <ele>51.8</ele>
        <time>2019-09-14T16:45:16Z</time>
      </trkpt>
      <trkpt lat="59.220372028494" lon="17.90859403467">
        <ele>51.8</ele>
        <time>2019-09-14T16:45:17Z</time>
      </trkpt>
      <trkpt lat="59.220353253038" lon="17.908561261441">
        <ele>51.8</ele>
        <time>2019-09-14T16:45:18Z</time>
      </trkpt>
      <trkpt lat="59.220334561401" lon="17.908520944502">
        <ele>51.8</ele>
        <time>2019-09-14T16:45:19Z</time>
      </trkpt>
      <trkpt lat="59.220313271375" lon="17.908473502948">
        <ele>51.8</ele>
        <time>2019-09-14T16:45:20Z</time>
      </trkpt>
      <trkpt lat="59.220286281657" lon="17.908417511856">
        <ele>51.8</ele>
        <time>2019-09-14T16:45:21Z</time>
      </trkpt>
      <trkpt lat="59.220253173152" lon="17.908352300674">
        <ele>51.8</ele>
        <time>2019-09-14T16:45:22Z</time>
      </trkpt>
      <trkpt lat="59.220218555905" lon="17.908276528298">
        <ele>51.6</ele>
        <time>2019-09-14T16:45:23Z</time>
      </trkpt>
      <trkpt lat="59.220181927002" lon="17.908193044574">
        <ele>51.4</ele>
        <time>2019-09-14T16:45:24Z</time>
      </trkpt>
      <trkpt lat="59.220141442425" lon="17.908109477031">
        <ele>51.4</ele>
        <time>2019-09-14T16:45:25Z</time>
      </trkpt>
      <trkpt lat="59.220099365287" lon="17.908025238936">
        <ele>51.4</ele>
        <time>2019-09-14T16:45:26Z</time>
      </trkpt>
      <trkpt lat="59.220058126339" lon="17.907932199846">
        <ele>51</ele>
        <time>2019-09-14T16:45:27Z</time>
      </trkpt>
      <trkpt lat="59.220016635934" lon="17.907827845191">
        <ele>50.8</ele>
        <time>2019-09-14T16:45:28Z</time>
      </trkpt>
      <trkpt lat="59.219974307339" lon="17.907720053957">
        <ele>50.6</ele>
        <time>2019-09-14T16:45:29Z</time>
      </trkpt>
      <trkpt lat="59.219934409495" lon="17.907610753981">
        <ele>50.4</ele>
        <time>2019-09-14T16:45:30Z</time>
      </trkpt>
      <trkpt lat="59.219893673461" lon="17.907500364358">
        <ele>50.4</ele>
        <time>2019-09-14T16:45:31Z</time>
      </trkpt>
      <trkpt lat="59.219852015418" lon="17.907388214536">
        <ele>50.2</ele>
        <time>2019-09-14T16:45:32Z</time>
      </trkpt>
      <trkpt lat="59.219810860289" lon="17.907280339483">
        <ele>50</ele>
        <time>2019-09-14T16:45:33Z</time>
      </trkpt>
      <trkpt lat="59.219773393196" lon="17.907185288737">
        <ele>50</ele>
        <time>2019-09-14T16:45:34Z</time>
      </trkpt>
      <trkpt lat="59.219742212528" lon="17.907111779474">
        <ele>50</ele>
        <time>2019-09-14T16:45:35Z</time>
      </trkpt>
      <trkpt lat="59.219728298574" lon="17.907061907169">
        <ele>50</ele>
        <time>2019-09-14T16:45:36Z</time>
      </trkpt>
      <trkpt lat="59.219729891135" lon="17.907039695134">
        <ele>50</ele>
        <time>2019-09-14T16:45:37Z</time>
      </trkpt>
      <trkpt lat="59.219731483696" lon="17.907040449505">
        <ele>50</ele>
        <time>2019-09-14T16:45:38Z</time>
      </trkpt>
      <trkpt lat="59.219735507008" lon="17.907041539152">
        <ele>50</ele>
        <time>2019-09-14T16:45:39Z</time>
      </trkpt>
      <trkpt lat="59.219741039062" lon="17.907037767297">
        <ele>50</ele>
        <time>2019-09-14T16:45:40Z</time>
      </trkpt>
      <trkpt lat="59.2197495886" lon="17.907039695134">
        <ele>50.2</ele>
        <time>2019-09-14T16:45:41Z</time>
      </trkpt>
      <trkpt lat="59.219752522265" lon="17.90703751584">
        <ele>50.4</ele>
        <time>2019-09-14T16:45:42Z</time>
      </trkpt>
      <trkpt lat="59.219759982156" lon="17.907032402881">
        <ele>50.6</ele>
        <time>2019-09-14T16:45:43Z</time>
      </trkpt>
      <trkpt lat="59.21976551421" lon="17.907030391225">
        <ele>51</ele>
        <time>2019-09-14T16:45:44Z</time>
      </trkpt>
      <trkpt lat="59.219769956617" lon="17.907029720673">
        <ele>51.4</ele>
        <time>2019-09-14T16:45:45Z</time>
      </trkpt>
    </trkseg>
  </trk>
</gpx>